<<back to data home page
Ready for Winter and Rain?? Stay in touch!! - DONATE ANY AMOUNT BY CLICKING THIS LINK!!!


    Month/Day/Year       Maximum   Minimum    Rel    Dew       Rainfall  Seasonal  Soil     Soil      Baro       Wind    Wind        Peak    Peak Gust  Evap     Leaf     Net
    and                  Air Temp  Air Temp   Hum    Point     Inches    Rainfall  Temp     Moisture  Pressure   Speed   Direction   Gust    Direction  Pan      Wetness  Radiation
    Local Time           Deg F     Deg F      %      Deg F               Inches    Deg F    dS/m      mbar       MPH     comp  deg   MPH     comp  deg  Inches   mV       W_m2
----------------------------------------------------------------------------------------------------------------------------------------------------------------------------------
   01/21/2018 10:00      56.6      55.7       26     21.8      0.00      2.17      57.9     0.47      1026.4     0.8     NNW   342   2.4       N   350   9.25    262      217.1
   01/21/2018 09:50      56.1      55.5       26     21.7      0.00      2.17      58.0     0.47      1026.3     1.0      NE    34   2.3     NNE    18   9.25    262      209.0
   01/21/2018 09:40      56.0      55.5       26     21.1      0.00      2.17      58.0     0.47      1026.1     1.5      NE    35   3.5     NNE    32   9.25    262      201.0
   01/21/2018 09:30      56.9      55.5       25     21.1      0.00      2.17      58.0     0.47      1026.0     1.4     NNE    15   3.5     NNE    32   9.25    262      202.8
   01/21/2018 09:20      57.2      55.1       26     21.5      0.00      2.17      58.1     0.47      1026.0     0.6       N   351   3.0     NNE    18   9.25    262      182.6
   01/21/2018 09:10      55.4      54.3       26     20.9      0.00      2.17      58.1     0.47      1025.8     1.4     SSW   198   3.5     SSE   167   9.25    262      189.6
   01/21/2018 09:00      55.4      54.1       27     21.0      0.00      2.17      58.1     0.47      1025.8     1.1       W   264   2.5     WSW   253   9.25    263      169.0
   01/21/2018 08:50      54.9      52.9       28     21.6      0.00      2.17      58.1     0.47      1025.7     1.1     SSW   211   3.0     WSW   238   9.25    263      142.0
   01/21/2018 08:40      52.9      50.7       31     21.8      0.00      2.17      58.1     0.47      1025.5     1.0     WSW   246   5.0      SW   220   9.25    263      102.7
   01/21/2018 08:30      50.8      48.7       34     22.8      0.00      2.17      58.2     0.47      1025.3     2.7       S   175   5.7     SSW   198   9.25    264       74.4
   01/21/2018 08:20      48.6      46.4       40     24.0      0.00      2.17      58.2     0.47      1025.1     1.4      SE   145   2.2      SE   144   9.25    264       62.0
   01/21/2018 08:10      46.6      45.5       42     24.1      0.00      2.17      58.3     0.47      1024.8     1.7     SSE   152   2.8       S   179   9.25    264        8.3
   01/21/2018 08:00      45.5      43.1       46     24.6      0.00      2.17      58.3     0.47      1024.6     1.9     SSE   154   3.0      SE   143   9.25    264       -4.8
   01/21/2018 07:50      43.3      42.0       50     25.5      0.00      2.17      58.3     0.47      1024.5     1.1      SE   138   2.9      SE   138   9.25    264      -18.6
   01/21/2018 07:40      42.0      40.6       51     24.4      0.00      2.17      58.4     0.47      1024.4     0.5      SE   136   1.4      SE   137   9.25    264      -27.3
   01/21/2018 07:30      40.6      39.4       53     24.1      0.00      2.17      58.4     0.47      1024.3     0.5      SE   135   2.2      SE   139   9.25    264      -35.0
   01/21/2018 07:20      39.6      39.1       55     24.4      0.00      2.17      58.4     0.47      1024.1     1.4     SSE   155   2.9     SSE   163   9.25    265      -44.4
   01/21/2018 07:10      39.6      38.9       53     23.6      0.00      2.17      58.4     0.47      1024.1     0.9       S   178   2.6      SE   142   9.25    265      -55.7
   01/21/2018 07:00      39.7      38.9       54     24.0      0.00      2.17      58.4     0.47      1024.0     2.1      SE   146   3.4      SE   136   9.25    264      -63.5
   01/21/2018 06:50      39.5      38.8       54     23.7      0.00      2.17      58.5     0.47      1024.0     1.2     SSE   152   2.5      SE   139   9.25    264      -66.5
   01/21/2018 06:40      39.9      39.1       52     23.3      0.00      2.17      58.5     0.47      1023.8     1.2     SSE   152   2.0      SE   136   9.25    264      -67.2
   01/21/2018 06:30      39.9      39.0       52     23.4      0.00      2.17      58.5     0.47      1023.7     1.3      SE   140   2.5      SE   143   9.25    264      -67.9
   01/21/2018 06:20      39.5      38.8       53     23.4      0.00      2.17      58.5     0.47      1023.6     0.5     SSE   161   2.2      SE   141   9.25    264      -67.9
   01/21/2018 06:10      40.1      39.3       53     23.8      0.00      2.17      58.5     0.47      1023.2     1.7     SSE   154   2.8     SSE   150   9.25    264      -68.6
   01/21/2018 06:00      40.8      39.7       51     23.4      0.00      2.17      58.6     0.47      1023.1     1.2     SSE   154   2.3      SE   143   9.25    264      -69.2
   01/21/2018 05:50      41.6      40.6       48     22.8      0.00      2.17      58.6     0.47      1023.0     1.2     SSE   159   3.0      SE   142   9.25    264      -69.5
   01/21/2018 05:40      43.6      41.3       45     22.4      0.00      2.17      58.6     0.47      1023.0     1.6     SSE   148   3.3       S   171   9.25    264      -69.9
   01/21/2018 05:30      45.0      43.3       39     20.8      0.00      2.17      58.6     0.47      1023.0     1.3      SE   145   2.9      NW   313   9.25    264      -70.3
   01/21/2018 05:20      44.0      42.3       42     21.4      0.00      2.17      58.7     0.47      1022.9     1.7     SSW   211   4.5       S   184   9.25    264      -69.6
   01/21/2018 05:10      44.1      42.2       41     21.2      0.00      2.17      58.7     0.47      1022.8     1.5       S   175   3.7     NNE    23   9.25    264      -71.3
   01/21/2018 05:00      44.0      42.1       43     21.9      0.00      2.17      58.7     0.47      1023.0     1.6       S   169   2.8       S   178   9.25    264      -71.8
   01/21/2018 04:50      44.8      43.9       40     21.3      0.00      2.17      58.7     0.47      1023.0     1.7     SSE   148   5.0       S   189   9.25    264      -73.0
   01/21/2018 04:40      46.9      44.5       36     20.5      0.00      2.17      58.8     0.47      1022.8     1.7     SSE   161   4.1      SE   144   9.25    264      -73.0
   01/21/2018 04:30      48.0      46.7       33     19.8      0.00      2.17      58.8     0.47      1022.7     1.5     WSW   249   2.9       W   275   9.25    264      -74.1
   01/21/2018 04:20      48.1      47.5       32     19.7      0.00      2.17      58.8     0.47      1022.7     1.6     NNW   340   3.7     NNW   334   9.26    264      -73.8
   01/21/2018 04:10      48.0      45.9       33     19.6      0.00      2.17      58.8     0.47      1022.7     2.7      NW   326   5.4      NW   306   9.26    264      -72.7
   01/21/2018 04:00      46.0      42.6       38     20.4      0.00      2.17      58.8     0.47      1022.7     1.6      NW   324   3.4     WNW   291   9.26    264      -71.7
   01/21/2018 03:50      43.7      42.7       42     21.6      0.00      2.17      58.9     0.48      1022.7     1.6       S   178   3.3      SE   137   9.26    264      -71.7
   01/21/2018 03:40      44.2      43.2       41     21.7      0.00      2.17      58.9     0.48      1022.8     1.9       S   179   5.0       S   176   9.26    264      -72.4
   01/21/2018 03:30      44.0      42.7       43     22.2      0.00      2.17      58.9     0.48      1022.7     2.4     SSE   168   5.6       S   179   9.26    264      -72.1
   01/21/2018 03:20      45.6      44.0       40     21.5      0.00      2.17      58.9     0.48      1022.7     1.8     SSW   199   2.9     SSW   213   9.26    264      -72.4
   01/21/2018 03:10      46.7      45.6       36     20.5      0.00      2.17      59.0     0.48      1022.6     1.5      SW   229   2.7     WSW   250   9.26    264      -73.3
   01/21/2018 03:00      47.2      45.9       36     20.6      0.00      2.17      59.0     0.48      1022.6     0.3     SSW   205   1.6      SW   235   9.26    264      -74.0
   01/21/2018 02:50      48.7      46.9       34     20.6      0.00      2.17      59.0     0.48      1022.6     0.5     NNE    31   1.8     ESE   119   9.26    264      -76.2
   01/21/2018 02:40      48.9      48.3       32     20.0      0.00      2.17      59.0     0.48      1022.6     2.2       N    10   5.9     NNW   347   9.26    264      -77.5
   01/21/2018 02:30      49.2      48.3       32     20.3      0.00      2.17      59.0     0.48      1022.5     2.9     NNW   328   5.1       N   354   9.26    264      -77.3
   01/21/2018 02:20      49.0      48.0       33     20.3      0.00      2.17      59.0     0.48      1022.8     3.2     WSW   258   5.2     SSW   213   9.26    264      -77.4
   01/21/2018 02:10      48.9      47.3       34     21.1      0.00      2.17      59.0     0.48      1022.9     2.7     SSW   199   4.4     SSW   212   9.26    264      -76.0
   01/21/2018 02:00      48.8      48.3       33     20.6      0.00      2.17      59.1     0.48      1022.8     3.3      SW   215   6.2       W   272   9.26    264      -77.3
   01/21/2018 01:50      48.7      48.1       33     20.9      0.00      2.17      59.1     0.48      1022.7     2.6      SW   226   5.2       S   182   9.26    264      -77.8
   01/21/2018 01:40      49.2      48.2       34     21.4      0.00      2.17      59.2     0.48      1022.6     2.4     SSE   164   5.5       S   187   9.26    264      -79.3
   01/21/2018 01:30      49.1      48.3       34     21.7      0.00      2.17      59.1     0.48      1022.3     2.3      NW   305   7.0      NW   307   9.26    264      -79.9
   01/21/2018 01:20      49.1      48.3       35     22.3      0.00      2.17      59.2     0.48      1022.2     3.7      NW   316   6.7     WNW   289   9.27    264      -77.8
   01/21/2018 01:10      49.3      48.6       34     22.0      0.00      2.17      59.1     0.48      1022.4     2.5     NNW   332   4.8     NNW   331   9.27    264      -76.5
   01/21/2018 01:00      48.9      48.1       35     22.1      0.00      2.17      59.1     0.48      1022.5     2.0       W   272   4.1      SW   235   9.26    264      -76.3
   01/21/2018 00:50      48.1      45.1       38     22.5      0.00      2.17      59.2     0.48      1022.4     3.1      SW   221   4.7     SSW   209   9.27    264      -75.1
   01/21/2018 00:40      46.1      44.8       42     23.9      0.00      2.17      59.2     0.48      1022.5     2.4       S   188   4.4       S   176   9.27    264      -75.2
   01/21/2018 00:30      46.8      45.2       42     24.3      0.00      2.17      59.2     0.48      1022.4     1.6     SSW   203   3.3      SE   140   9.27    264      -77.4
   01/21/2018 00:20      48.6      46.5       40     24.2      0.00      2.17      59.2     0.48      1022.5     1.3     SSE   151   2.8     SSE   150   9.27    264      -79.9
   01/21/2018 00:10      49.9      48.3       36     23.4      0.00      2.17      59.2     0.48      1022.5     1.3     ESE   113   3.0       N     6   9.27    264      -82.0
   01/21/2018 00:00      50.0      49.5       35     23.5      0.00      2.17      59.3     0.48      1022.2     3.5       N   353   9.1     NNE    19   9.27    264      -83.1
   01/20/2018 23:50      50.1      49.7       35     23.4      0.00      2.17      59.3     0.48      1022.1     4.5     NNW   341   8.3     NNE    24   9.27    264      -82.4
   01/20/2018 23:40      50.1      49.1       35     23.2      0.00      2.17      59.3     0.48      1022.2     4.1       N   353   7.9     NNW   348   9.27    264      -81.4
   01/20/2018 23:30      49.2      48.4       38     24.0      0.00      2.17      59.4     0.48      1022.2     1.9     NNE    26   6.1     NNW   335   9.27    264      -81.6
   01/20/2018 23:20      49.5      48.9       38     24.4      0.00      2.17      59.3     0.48      1022.1     2.5       N   354   6.1     NNW   333   9.27    264      -82.8
   01/20/2018 23:10      49.4      48.9       38     24.6      0.00      2.17      59.3     0.48      1021.9     5.5     NNW   335  12.6       N     7   9.27    264      -81.9
   01/20/2018 23:00      49.4      48.9       38     24.7      0.00      2.17      59.4     0.48      1022.1     4.5     NNW   343   7.5       N     7   9.27    264      -80.5
   01/20/2018 22:50      49.0      47.3       40     24.8      0.00      2.17      59.4     0.48      1022.2     3.5     NNE    14   8.1       N   354   9.27    264      -79.1
   01/20/2018 22:40      48.1      47.1       41     24.9      0.00      2.17      59.4     0.48      1022.1     1.0     ENE    61   2.4       E    92   9.27    264      -78.9
   01/20/2018 22:30      48.7      47.8       40     24.7      0.00      2.17      59.4     0.48      1022.1     1.4     ENE    62   4.5     ENE    64   9.27    264      -80.1
   01/20/2018 22:20      50.0      48.4       38     24.5      0.00      2.17      59.4     0.48      1021.9     1.2     ENE    72   2.5      NE    49   9.28    263      -81.8
   01/20/2018 22:10      50.3      49.7       36     24.3      0.00      2.17      59.4     0.48      1021.8     1.9       N   354   4.4      NW   305   9.28    263      -83.3
   01/20/2018 22:00      50.1      49.8       36     24.2      0.00      2.17      59.5     0.48      1021.7     2.9      NW   320  10.2     NNW   335   9.28    264      -83.8
   01/20/2018 21:50      50.5      49.7       36     24.3      0.00      2.17      59.5     0.48      1021.8     3.2     NNW   331   5.8      NW   324   9.28    263      -84.1
   01/20/2018 21:40      50.6      50.1       35     24.1      0.00      2.17      59.5     0.48      1021.9     3.5     NNW   343   9.0       N     0   9.28    263      -84.5
   01/20/2018 21:30      51.0      50.5       35     23.7      0.00      2.17      59.5     0.48      1021.7     4.5     NNW   340   9.5      NW   319   9.28    263      -84.9
   01/20/2018 21:20      51.1      50.6       34     23.3      0.00      2.17      59.5     0.48      1021.6     5.2     NNW   346  10.2       N     2   9.28    263      -85.2
   01/20/2018 21:10      51.4      50.8       33     23.1      0.00      2.17      59.5     0.48      1021.4     5.1       N   349   9.9     NNW   327   9.28    263      -85.8
   01/20/2018 21:00      51.4      50.6       33     23.0      0.00      2.17      59.5     0.48      1021.1     7.8     NNW   331  14.2     NNW   332   9.28    263      -85.5
   01/20/2018 20:50      51.3      50.6       35     24.1      0.00      2.17      59.5     0.48      1021.1     5.8     NNW   332  11.3     NNW   338   9.28    263      -85.2
   01/20/2018 20:40      51.3      51.0       34     23.8      0.00      2.17      59.5     0.48      1021.0     6.1       N   355  10.4     NNW   332   9.29    263      -85.4
   01/20/2018 20:30      51.6      51.0       34     23.4      0.00      2.17      59.5     0.48      1020.9     5.6       N   351   9.8     NNE    22   9.29    263      -85.2
   01/20/2018 20:20      51.6      51.3       32     22.6      0.00      2.17      59.5     0.48      1020.8     5.9       N    10  10.6     NNE    24   9.29    263      -85.6
   01/20/2018 20:10      52.0      51.4       30     21.4      0.00      2.17      59.5     0.48      1020.6     5.4     NNE    15   9.2       N     7   9.29    263      -86.5
   01/20/2018 20:00      52.0      51.6       28     20.1      0.00      2.17      59.5     0.48      1020.3     5.3       N     6  10.8     NNW   336   9.29    263      -87.0
   01/20/2018 19:50      52.1      51.8       28     19.8      0.00      2.17      59.5     0.48      1020.2     5.1       N     6  11.4     NNE    23   9.29    263      -87.4
   01/20/2018 19:40      52.1      51.5       27     19.4      0.00      2.17      59.5     0.48      1020.1     6.1       N     8  11.0       N   355   9.29    263      -87.4
   01/20/2018 19:30      51.7      51.1       29     20.0      0.00      2.17      59.5     0.48      1020.0     3.5       N     8   7.7     NNW   344   9.29    263      -87.0
   01/20/2018 19:20      51.5      51.1       30     20.6      0.00      2.17      59.5     0.48      1020.0     1.9       N     6   5.7     NNE    28   9.29    263      -87.3
   01/20/2018 19:10      51.8      51.2       30     20.7      0.00      2.17      59.5     0.48      1019.8     2.4     NNE    14   7.0     NNW   344   9.30    263      -88.8
   01/20/2018 19:00      51.9      51.4       29     20.2      0.00      2.17      59.5     0.48      1019.5     4.3       N     6   8.2     NNW   343   9.30    263      -89.5
   01/20/2018 18:50      51.9      51.3       28     19.3      0.00      2.17      59.5     0.48      1019.5     3.7       N     3   7.4     NNW   344   9.30    263      -89.7
   01/20/2018 18:40      51.6      50.8       31     21.1      0.00      2.17      59.5     0.48      1019.5     2.7     NNW   332   7.5      NW   321   9.30    263      -89.8
   01/20/2018 18:30      51.8      51.1       32     22.6      0.00      2.17      59.5     0.48      1019.4     2.3     NNW   332   5.3     NNE    20   9.31    263      -90.8
   01/20/2018 18:20      51.8      51.2       33     23.7      0.00      2.17      59.5     0.48      1019.4     4.2       N     5   7.8       N   354   9.31    263      -91.4
   01/20/2018 18:10      52.0      51.5       34     24.4      0.00      2.17      59.5     0.48      1019.3     5.3     NNE    15  10.6       N   351   9.31    263      -91.6
   01/20/2018 18:00      52.5      51.7       34     24.5      0.00      2.17      59.4     0.48      1019.0     5.6       N    10  10.2       N     9   9.31    263      -90.4
   01/20/2018 17:50      52.7      52.1       34     24.8      0.00      2.17      59.5     0.48      1018.7     5.9     NNE    14  10.5     NNW   345   9.31    263      -89.3
   01/20/2018 17:40      53.1      52.4       34     25.0      0.00      2.17      59.4     0.48      1018.6     5.2       N     7  11.5     NNE    17   9.31    263      -89.7
   01/20/2018 17:30      53.4      52.8       34     25.3      0.00      2.17      59.4     0.48      1018.6     6.6     NNE    15  10.4     NNE    11   9.31    263      -89.6
   01/20/2018 17:20      54.2      53.2       34     25.5      0.00      2.17      59.4     0.48      1018.6     4.9       N     7  10.5       S   180   9.31    263      -88.3
   01/20/2018 17:10      54.9      53.9       32     24.9      0.00      2.17      59.4     0.48      1018.6     4.5       N   360   8.5       N     6   9.32    263      -85.3
   01/20/2018 17:00      55.8      54.6       31     25.0      0.00      2.17      59.4     0.48      1018.5     4.1       N     0   8.6      NE    44   9.32    263      -82.3
   01/20/2018 16:50      56.2      55.5       30     25.2      0.00      2.17      59.3     0.48      1018.4     3.4       N     0   7.0     NNW   341   9.32    263      -79.2
   01/20/2018 16:40      56.7      56.0       30     25.2      0.00      2.17      59.3     0.48      1018.1     3.6       N   357   6.3       N     4   9.32    262      -71.8
   01/20/2018 16:30      57.3      56.5       30     25.4      0.00      2.17      59.4     0.48      1018.0     4.1     NNW   332   7.8      NW   322   9.32    262      -42.4
   01/20/2018 16:20      58.2      57.0       29     25.4      0.00      2.17      59.3     0.48      1017.8     4.5     NNW   344   9.0     NNW   331   9.32    262      -27.9
   01/20/2018 16:10      58.7      57.8       29     26.0      0.00      2.17      59.3     0.48      1017.7     4.5     NNW   344   7.8     NNW   336   9.33    262       -1.8
   01/20/2018 16:00      59.1      58.4       28     26.2      0.00      2.17      59.3     0.48      1017.5     3.9     NNW   340   8.0      NW   311   9.33    262       21.9
   01/20/2018 15:50      59.8      58.5       28     26.2      0.00      2.17      59.3     0.48      1017.4     4.5     NNW   330   8.9       N     6   9.33    262       46.2
   01/20/2018 15:40      60.9      59.4       27     26.2      0.00      2.17      59.3     0.48      1017.3     4.3      NW   310   8.2     NNW   348   9.33    261       67.6
   01/20/2018 15:30      60.7      59.0       28     27.1      0.00      2.17      59.3     0.48      1017.3     0.9      NE    39   3.0      NE    34   9.33    261       90.2
   01/20/2018 15:20      59.2      58.4       30     27.0      0.00      2.17      59.3     0.48      1017.3     3.0     NNE    12   7.0       N   353   9.33    261      118.7
   01/20/2018 15:10      58.7      58.0       30     26.9      0.00      2.17      59.2     0.48      1017.2     5.0     NNE    13   9.7       N     7   9.34    261      142.9
   01/20/2018 15:00      58.7      58.1       30     26.9      0.00      2.17      59.2     0.48      1017.2     5.3       N     5   9.2       N     8   9.34    261      164.0
   01/20/2018 14:50      58.9      58.3       30     27.0      0.00      2.17      59.2     0.48      1017.2     5.6       N    10  10.1       N   350   9.34    261      183.2
   01/20/2018 14:40      59.2      58.4       30     27.4      0.00      2.17      59.2     0.48      1017.2     5.2       N     7   9.6       N     6   9.34    261      200.8
   01/20/2018 14:30      59.0      58.5       29     26.9      0.00      2.17      59.2     0.48      1017.2     5.1       N     9  11.4     NNW   340   9.34    261      218.0
   01/20/2018 14:20      59.2      58.6       29     26.5      0.00      2.17      59.2     0.48      1017.2     5.2     NNW   346   8.1     NNE    25   9.34    261      234.8
   01/20/2018 14:10      59.2      58.2       29     26.2      0.00      2.17      59.2     0.48      1017.2     4.9     NNE    13  10.8      NE    37   9.35    261      251.0
   01/20/2018 14:00      59.2      58.4       28     26.0      0.00      2.17      59.1     0.48      1017.2     5.4       N   359   8.8       N     6   9.35    261      265.1
   01/20/2018 13:50      59.8      58.7       28     26.5      0.00      2.17      59.1     0.48      1017.2     4.4       N   358   8.2     NNE    23   9.35    261      278.3
   01/20/2018 13:40      59.5      58.4       29     26.3      0.00      2.17      59.1     0.48      1017.3     3.0     NNW   340   7.1      NW   308   9.35    261      291.4
   01/20/2018 13:30      58.8      58.0       29     26.3      0.00      2.17      59.1     0.48      1017.3     4.4     NNW   348   8.9       N     0   9.35    261      302.5
   01/20/2018 13:20      58.9      57.9       29     26.4      0.00      2.17      59.1     0.48      1017.3     3.5     NNW   337   7.0     NNW   328   9.35    261      311.7
   01/20/2018 13:10      59.0      58.0       29     26.5      0.00      2.17      59.1     0.48      1017.3     4.3     NNW   342   8.9       N     6   9.35    261      321.5
   01/20/2018 13:00      58.9      57.6       30     27.0      0.00      2.17      59.1     0.48      1017.3     3.9       N   350   7.5      NW   304   9.35    261      329.3
   01/20/2018 12:50      58.2      57.0       31     27.2      0.00      2.17      59.1     0.48      1017.4     5.5     NNW   338  10.6     NNW   328   9.35    261      338.6
   01/20/2018 12:40      58.1      57.1       31     27.2      0.00      2.17      59.1     0.48      1017.5     5.8       N   359  11.6     NNE    11   9.35    261      342.5
   01/20/2018 12:30      58.3      57.0       31     27.1      0.00      2.17      59.1     0.48      1017.5     4.8      NW   324   9.6      NE    45   9.36    261      346.5
   01/20/2018 12:20      57.6      57.0       31     27.0      0.00      2.17      59.1     0.48      1017.5     5.4     NNW   330  11.1     NNW   338   9.36    262      349.9
   01/20/2018 12:10      57.5      56.6       32     27.1      0.00      2.17      59.2     0.48      1017.6     5.3     NNW   337  11.4     NNE    17   9.36    262      351.9
   01/20/2018 12:00      57.3      55.7       32     27.0      0.00      2.17      59.1     0.48      1017.8     5.6       N     4  10.0       N     4   9.36    262      351.4
   01/20/2018 11:50      56.1      55.5       33     26.9      0.00      2.17      59.2     0.48      1018.0     6.5       N   354  11.6       N   351   9.36    262      350.3
   01/20/2018 11:40      56.1      55.4       32     26.6      0.00      2.17      59.2     0.48      1018.2     6.8       N    10   9.9     NNE    27   9.36    263      348.0
   01/20/2018 11:30      56.2      55.7       33     26.9      0.00      2.17      59.2     0.48      1018.3     6.0       N   357   9.6       N   353   9.36    263      341.9
   01/20/2018 11:20      56.0      55.3       32     26.4      0.00      2.17      59.2     0.48      1018.4     6.3     NNW   340  12.2       N   352   9.36    263      339.1
   01/20/2018 11:10      55.6      55.0       33     27.0      0.00      2.17      59.2     0.48      1018.5     5.8     NNW   342  10.9      NW   324   9.36    263      333.9
   01/20/2018 11:00      55.2      54.7       34     27.3      0.00      2.17      59.3     0.48      1018.6     7.5     NNW   345  12.7     NNW   347   9.36    263      328.1
   01/20/2018 10:50      55.5      54.6       35     27.6      0.00      2.17      59.3     0.48      1018.6     6.5       N   354  13.3       N     0   9.36    263      319.3
   01/20/2018 10:40      55.1      54.3       35     27.6      0.00      2.17      59.3     0.48      1018.7     7.1       N     0  11.5       N   353   9.37    263      311.0
   01/20/2018 10:30      54.4      53.8       35     27.3      0.00      2.17      59.3     0.48      1018.7     7.4       N   352  11.8      NW   317   9.37    263      300.9
   01/20/2018 10:20      54.6      53.9       35     27.2      0.00      2.17      59.3     0.48      1018.6     7.7     NNW   345  15.1       N   355   9.37    263      287.7
   01/20/2018 10:10      54.8      54.0       35     27.3      0.00      2.17      59.4     0.48      1018.5     5.9       N   355  12.0     NNE    29   9.37    264      273.1
   01/20/2018 10:00      54.3      53.8       35     27.4      0.00      2.17      59.4     0.48      1018.3     5.6       N     3  11.3       N   351   9.37    264      259.2
   01/20/2018 09:50      54.0      53.4       35     26.9      0.00      2.17      59.4     0.48      1018.2     6.6       N   359  13.5       N     7   9.37    264      243.4
   01/20/2018 09:40      53.9      53.1       36     27.0      0.00      2.17      59.4     0.48      1018.0     6.3       N     0   9.8     NNW   349   9.37    264      226.5
   01/20/2018 09:30      53.8      52.7       37     27.6      0.00      2.17      59.5     0.48      1018.0     4.6       N     7   9.0     NNE    23   9.37    264      209.7
   01/20/2018 09:20      52.8      52.2       38     27.5      0.00      2.17      59.5     0.48      1017.9     6.2       N     5  10.7     NNE    26   9.37    264      192.5
   01/20/2018 09:10      52.8      52.1       38     27.6      0.00      2.17      59.5     0.48      1017.9     6.8       N   358  12.8     NNW   341   9.37    264      175.3
   01/20/2018 09:00      52.7      52.1       37     27.1      0.00      2.17      59.5     0.48      1017.7     6.4       N     3  12.4     WNW   290   9.37    264      159.2
   01/20/2018 08:50      52.5      52.1       37     26.5      0.00      2.17      59.5     0.48      1017.5     6.0       N   351   9.6     NNW   338   9.37    264      139.2
   01/20/2018 08:40      52.4      51.7       37     26.5      0.00      2.17      59.5     0.48      1017.3     5.5       N   357   9.6      NE    36   9.37    264      118.7
   01/20/2018 08:30      51.9      50.8       39     27.1      0.00      2.17      59.6     0.48      1017.0     4.7       N    10   9.1       N     9   9.37    264      101.5
   01/20/2018 08:20      51.0      50.3       41     27.6      0.00      2.17      59.6     0.48      1017.0     5.2       N     2   9.9     NNE    26   9.37    264       49.9
   01/20/2018 08:10      50.6      49.7       43     28.4      0.00      2.17      59.6     0.48      1016.9     4.7       N   358  12.0     NNE    29   9.37    265       10.3
   01/20/2018 08:00      50.1      49.7       44     28.7      0.00      2.17      59.6     0.48      1016.7     4.1       N   356  10.6       N   352   9.37    265      -27.1
   01/20/2018 07:50      50.1      49.7       44     29.0      0.00      2.17      59.6     0.48      1016.4     4.7       N   359   9.2     NNE    26   9.37    265      -33.3
   01/20/2018 07:40      49.9      49.2       45     29.3      0.00      2.17      59.7     0.48      1016.2     5.5       N     9  11.0     NNE    31   9.37    265      -37.3
   01/20/2018 07:30      49.5      48.9       47     29.7      0.00      2.17      59.7     0.48      1016.0     4.8     NNW   340   8.4     WSW   250   9.38    265      -35.5
   01/20/2018 07:20      49.2      48.7       48     30.0      0.00      2.17      59.7     0.48      1015.9     4.3       N   354   9.2     NNE    25   9.38    266      -31.7
   01/20/2018 07:10      49.2      48.8       48     30.1      0.00      2.17      59.8     0.48      1015.8     4.7     NNW   335  11.6      NW   314   9.38    266      -36.4
   01/20/2018 07:00      49.2      48.7       48     30.3      0.00      2.17      59.8     0.48      1015.7     5.2     NNW   338  11.6     NNW   339   9.38    266      -45.4
   01/20/2018 06:50      49.3      48.9       48     30.0      0.00      2.17      59.8     0.48      1015.5     5.6     NNW   342  10.6     NNW   331   9.38    266      -54.5
   01/20/2018 06:40      49.2      48.7       47     29.9      0.00      2.17      59.8     0.48      1015.4     5.0     NNW   340  10.0      NW   305   9.38    266      -61.1
   01/20/2018 06:30      49.1      48.7       47     29.6      0.00      2.17      59.8     0.48      1015.3     4.5     NNW   331   8.9      NW   326   9.38    266      -66.1
   01/20/2018 06:20      49.1      48.7       47     29.6      0.00      2.17      59.9     0.48      1015.2     3.9     NNW   331   7.8       N   355   9.38    266      -66.7
   01/20/2018 06:10      49.1      48.7       47     29.7      0.00      2.17      59.9     0.48      1015.1     4.7     NNW   336  11.3     WNW   291   9.38    266      -64.7
   01/20/2018 06:00      49.0      48.6       49     30.2      0.00      2.17      59.9     0.48      1015.0     4.8     NNW   333   9.8      NW   320   9.38    266      -61.1
   01/20/2018 05:50      49.1      48.6       49     30.4      0.00      2.17      59.9     0.48      1014.9     4.3     NNW   338   8.5       N   355   9.38    266      -59.5
   01/20/2018 05:40      49.0      48.6       49     30.3      0.00      2.17      60.0     0.48      1014.8     5.4     NNW   343  11.4      NW   317   9.38    266      -59.3
   01/20/2018 05:30      48.9      48.4       49     30.1      0.00      2.17      60.0     0.48      1014.8     5.1       N   357  11.6       N     0   9.38    266      -60.8
   01/20/2018 05:20      48.8      48.3       48     29.8      0.00      2.17      60.0     0.48      1014.8     3.5     NNW   335  10.0      NW   318   9.38    265      -61.4
   01/20/2018 05:10      49.1      48.3       47     29.6      0.00      2.17      60.0     0.48      1014.8     2.1       N   354   6.9      NW   316   9.38    266      -64.0
   01/20/2018 05:00      49.0      48.7       47     29.2      0.00      2.17      60.0     0.49      1014.8     3.2     NNW   339   7.6     NNW   336   9.38    266      -69.7
   01/20/2018 04:50      49.0      48.6       46     28.9      0.00      2.17      60.1     0.49      1014.6     2.7     NNW   333   8.4      NE    46   9.38    265      -71.9
   01/20/2018 04:40      49.1      48.6       45     28.7      0.00      2.17      60.1     0.49      1014.5     2.9     NNW   346   5.6      NW   317   9.38    266      -70.3
   01/20/2018 04:30      49.2      48.7       46     28.9      0.00      2.17      60.1     0.49      1014.5     2.6     NNW   345   6.7     NNW   343   9.38    266      -71.8
   01/20/2018 04:20      49.4      48.8       45     28.8      0.00      2.17      60.1     0.49      1014.4     4.1     NNW   343   9.2       W   272   9.38    266      -72.8
   01/20/2018 04:10      49.5      48.9       45     28.9      0.00      2.17      60.1     0.49      1014.4     3.7     NNW   340   7.7     WNW   304   9.38    266      -71.0
   01/20/2018 04:00      49.4      49.0       46     29.1      0.00      2.17      60.2     0.49      1014.4     3.9       N   359   8.0     NNE    24   9.39    266      -70.3
   01/20/2018 03:50      49.5      49.0       46     29.4      0.00      2.17      60.2     0.49      1014.4     3.4       N   356   8.0      NW   312   9.39    266      -68.8
   01/20/2018 03:40      49.5      49.1       47     29.9      0.00      2.17      60.2     0.49      1014.4     3.5     NNW   343   8.5       N   349   9.39    266      -60.0
   01/20/2018 03:30      49.6      49.2       47     30.2      0.00      2.17      60.2     0.49      1014.3     2.2     NNW   343   5.5       N     9   9.39    266      -55.0
   01/20/2018 03:20      49.9      49.3       47     29.8      0.00      2.17      60.2     0.49      1014.3     2.2     NNW   345   7.1     NNW   349   9.39    266      -54.5
   01/20/2018 03:10      50.1      49.5       45     29.1      0.00      2.17      60.3     0.49      1014.3     2.2       N   349   6.2       N     0   9.39    266      -56.7
   01/20/2018 03:00      50.4      49.9       42     27.7      0.00      2.17      60.3     0.49      1014.3     3.3       N   353   7.1       N     0   9.39    265      -58.5
   01/20/2018 02:50      50.3      49.8       40     26.6      0.00      2.17      60.3     0.49      1014.3     3.1     NNW   342   9.0     NNW   326   9.39    266      -61.1
   01/20/2018 02:40      50.5      49.9       39     26.3      0.00      2.17      60.3     0.49      1014.2     2.1     NNE    13   4.7       N   353   9.39    265      -68.5
   01/20/2018 02:30      50.5      50.1       38     25.8      0.00      2.17      60.3     0.49      1014.2     1.5     NNW   340   3.8     NNW   345   9.39    266      -54.4
   01/20/2018 02:20      50.6      50.1       38     26.0      0.00      2.17      60.4     0.49      1014.2     1.4       N   355   3.4      NW   319   9.39    266      -45.1
   01/20/2018 02:10      50.5      50.1       39     26.1      0.00      2.17      60.4     0.49      1014.2     2.4     NNE    19   4.9     NNE    31   9.39    266      -54.9
   01/20/2018 02:00      50.8      50.1       40     27.3      0.00      2.17      60.4     0.49      1014.1     0.7     NNE    18   1.9      NE    41   9.39    266      -51.0
   01/20/2018 01:50      50.8      50.3       39     26.4      0.00      2.17      60.4     0.49      1014.2     1.3     NNW   328   3.8      NW   320   9.39    266      -30.7
   01/20/2018 01:40      50.7      50.1       41     27.3      0.00      2.17      60.4     0.49      1014.1     2.2      NW   317   5.2     NNW   327   9.39    266      -53.0
   01/20/2018 01:30      51.0      50.4       41     27.8      0.00      2.17      60.5     0.49      1014.1     0.8      NW   326   2.7      NW   317   9.39    266      -57.6
   01/20/2018 01:20      50.9      50.0       41     27.6      0.00      2.17      60.5     0.49      1014.1     1.1       N     5   2.5      NW   318   9.39    266      -23.5
   01/20/2018 01:10      50.0      48.7       46     29.5      0.00      2.17      60.5     0.49      1014.2     1.5      NW   317   4.5       N   352   9.39    266      -17.2
   01/20/2018 01:00      48.9      47.8       54     32.3      0.00      2.17      60.5     0.49      1014.0     0.4     WSW   252   2.8     NNW   332   9.39    266      -27.3
   01/20/2018 00:50      48.4      47.8       61     35.1      0.00      2.17      60.5     0.49      1013.9     0.2       E    95   1.2      SE   142   9.39    266      -37.4
   01/20/2018 00:40      48.3      47.3       60     34.8      0.00      2.17      60.5     0.49      1014.0     0.4      SE   138   1.8       E    82   9.39    266      -23.1
   01/20/2018 00:30      47.5      46.9       67     36.7      0.00      2.17      60.5     0.49      1013.9     0.3       W   262   1.8     SSE   156   9.39    266      -16.5
   01/20/2018 00:20      47.1      46.8       68     36.8      0.00      2.17      60.6     0.49      1013.8     0.3     ESE   112   1.4     ESE   113   9.39    267      -23.1
   01/20/2018 00:10      47.2      46.7       68     36.9      0.00      2.17      60.6     0.49      1013.8     0.3     SSE   155   1.0       E    92   9.39    267      -31.3
   01/20/2018 00:00      47.0      46.7       69     37.1      0.00      2.17      60.6     0.49      1013.8     0.4       S   172   1.8      SE   144   9.39    267      -26.4
   01/19/2018 23:50      46.9      45.9       70     37.1      0.00      2.17      60.6     0.49      1013.8     0.7      SE   139   1.6      SE   143   9.39    267      -24.9
   01/19/2018 23:40      46.0      45.6       73     37.4      0.00      2.17      60.6     0.49      1013.8     0.6     SSE   162   1.7       S   171   9.39    267      -32.3
   01/19/2018 23:30      45.8      45.0       73     37.2      0.00      2.17      60.6     0.49      1013.8     0.3      SE   145   1.3     SSE   159   9.39    267      -27.5
   01/19/2018 23:20      45.3      44.8       73     36.9      0.00      2.17      60.6     0.49      1013.9     0.7     SSE   168   2.0      SE   142   9.39    267      -37.4
   01/19/2018 23:10      45.8      45.1       72     37.0      0.00      2.17      60.6     0.49      1013.7     0.8     SSE   156   2.4     SSE   146   9.39    267      -68.1
   01/19/2018 23:00      46.0      45.2       72     37.0      0.00      2.17      60.7     0.49      1013.8     0.8     SSE   162   3.0       S   174   9.39    267      -68.7
   01/19/2018 22:50      46.6      45.7       70     37.0      0.00      2.17      60.6     0.49      1013.8     0.6     SSE   153   1.7      SE   139   9.39    267      -69.3
   01/19/2018 22:40      46.5      45.9       71     37.2      0.00      2.17      60.6     0.49      1013.8     1.2     SSE   158   2.7      SE   144   9.40    267      -69.1
   01/19/2018 22:30      46.5      46.0       71     37.5      0.00      2.17      60.7     0.49      1013.7     1.1     SSE   153   3.3      SE   132   9.40    267      -69.7
   01/19/2018 22:20      47.4      46.1       70     37.5      0.00      2.17      60.7     0.49      1013.8     0.9     SSE   167   3.0      SE   139   9.40    267      -70.3
   01/19/2018 22:10      47.9      47.1       68     37.7      0.00      2.17      60.7     0.49      1013.9     0.6     SSW   193   1.8       W   265   9.40    267      -69.3
   01/19/2018 22:00      48.6      47.7       69     38.4      0.00      2.17      60.7     0.49      1013.7     0.8     SSE   159   1.6      SE   136   9.40    266      -70.6
   01/19/2018 21:50      50.0      48.3       65     37.9      0.00      2.17      60.7     0.49      1013.9     0.9     SSE   159   2.0      SE   138   9.40    267      -69.6
   01/19/2018 21:40      50.2      49.7       61     37.1      0.00      2.17      60.7     0.49      1013.8     1.5       S   183   2.3       S   184   9.40    266      -67.8
   01/19/2018 21:30      51.0      49.9       61     37.5      0.00      2.17      60.7     0.49      1013.8     1.4     SSW   202   2.0     SSW   198   9.40    267      -63.9
   01/19/2018 21:20      51.3      50.8       61     37.8      0.00      2.17      60.7     0.49      1013.7     1.3     SSW   193   1.9       S   185   9.40    266      -64.6
   01/19/2018 21:10      51.8      50.9       63     39.0      0.00      2.17      60.7     0.49      1013.7     0.9     SSE   147   1.6      SE   139   9.40    266      -61.1
   01/19/2018 21:00      52.7      51.6       62     39.3      0.00      2.17      60.7     0.49      1013.7     0.7       S   179   1.8      SE   143   9.40    266      -58.3
   01/19/2018 20:50      53.2      52.4       61     39.5      0.00      2.17      60.7     0.49      1013.5     0.1      SE   132   0.8      SE   130   9.40    266      -55.9
   01/19/2018 20:40      53.3      53.0       61     40.2      0.00      2.17      60.7     0.49      1013.4     0.1      NE    52   1.0     ENE    74   9.40    266      -48.3
   01/19/2018 20:30      53.7      53.1       69     43.4      0.00      2.17      60.7     0.49      1013.3     1.0     ENE    78   2.4     ENE    72   9.40    266      -37.9
   01/19/2018 20:20      53.6      53.3       73     45.0      0.00      2.17      60.7     0.49      1013.3     0.9     ESE   105   2.6     SSE   153   9.40    267      -25.5
   01/19/2018 20:10      53.5      53.0       75     45.6      0.00      2.17      60.7     0.49      1013.4     1.4      SE   135   3.0      SE   127   9.40    267      -13.0
   01/19/2018 20:00      53.3      52.9       76     45.8      0.00      2.17      60.7     0.49      1013.4     0.1       E    80   1.0       E    92   9.40    267      -10.9
   01/19/2018 19:50      53.2      52.7       76     45.7      0.00      2.17      60.7     0.49      1013.3     0.2     SSW   197   0.9     SSW   194   9.40    267      -10.8
   01/19/2018 19:40      52.9      52.6       76     45.4      0.00      2.17      60.7     0.49      1013.2     0.5     WSW   246   1.2      SW   223   9.41    267       -7.9
   01/19/2018 19:30      53.1      52.6       75     45.3      0.00      2.17      60.7     0.49      1013.1     0.3       S   169   1.2       E    94   9.41    267      -40.6
   01/19/2018 19:20      53.2      52.6       77     45.6      0.00      2.17      60.7     0.49      1013.0     1.1      SE   130   2.9     ESE   122   9.40    267      -56.1
   01/19/2018 19:10      53.7      52.9       76     46.0      0.00      2.17      60.7     0.49      1012.9     1.5     SSW   196   2.1     SSW   212   9.40    267      -57.8
   01/19/2018 19:00      53.9      53.4       76     46.1      0.00      2.17      60.7     0.49      1012.9     1.2       S   183   2.3     SSW   197   9.41    267      -61.3
   01/19/2018 18:50      54.0      53.4       75     46.1      0.00      2.17      60.6     0.49      1012.8     2.3       S   184   3.9     SSE   165   9.41    266      -52.8
   01/19/2018 18:40      54.5      53.7       74     46.0      0.00      2.17      60.6     0.49      1012.8     2.3       S   176   4.1     SSE   168   9.41    266      -51.0
   01/19/2018 18:30      54.9      54.3       73     46.0      0.00      2.17      60.6     0.49      1013.0     1.6       S   174   3.3       S   186   9.41    266      -48.2
   01/19/2018 18:20      55.1      54.6       72     45.9      0.00      2.17      60.6     0.49      1012.9     2.0       S   185   3.5       S   182   9.41    266      -45.2
   01/19/2018 18:10      55.3      54.9       72     46.0      0.00      2.17      60.6     0.49      1012.9     0.8     SSE   161   2.3       E   100   9.41    266      -45.0
   01/19/2018 18:00      55.5      55.0       71     46.0      0.00      2.17      60.6     0.49      1012.8     1.9     SSE   149   4.3      SE   145   9.41    266      -44.1
   01/19/2018 17:50      55.9      55.3       70     46.0      0.00      2.17      60.6     0.49      1012.8     2.1       S   175   4.2     SSW   193   9.41    266      -42.6
   01/19/2018 17:40      56.3      55.6       69     45.8      0.00      2.17      60.6     0.49      1012.7     2.7       S   174   6.4     SSW   196   9.41    266      -40.1
   01/19/2018 17:30      56.7      56.0       67     45.6      0.00      2.17      60.5     0.49      1012.7     2.1       S   186   4.5       S   176   9.41    266      -41.4
   01/19/2018 17:20      57.2      56.4       67     45.7      0.00      2.17      60.5     0.49      1012.5     2.4     SSE   163   4.4       S   170   9.41    266      -41.3
   01/19/2018 17:10      57.8      56.9       66     45.9      0.00      2.17      60.5     0.49      1012.6     2.3       S   181   3.4       S   177   9.41    266      -39.5
   01/19/2018 17:00      57.9      57.4       64     45.6      0.00      2.17      60.5     0.49      1012.6     2.4     SSW   192   5.3       S   185   9.41    266      -34.5
   01/19/2018 16:50      58.1      57.5       63     45.2      0.00      2.17      60.5     0.49      1012.7     3.1     SSW   194   5.7     SSW   204   9.41    266      -26.1
   01/19/2018 16:40      58.4      57.8       62     45.3      0.00      2.17      60.5     0.49      1012.8     3.5       S   190   7.3     SSW   196   9.42    266      -19.8
   01/19/2018 16:30      58.6      58.0       63     45.5      0.00      2.17      60.4     0.49      1012.9     2.8       S   178   5.7       S   189   9.42    266       -5.7
   01/19/2018 16:20      58.6      58.1       64     46.1      0.00      2.17      60.4     0.49      1013.0     3.8     SSW   203   8.3       S   188   9.42    266        8.6
   01/19/2018 16:10      58.6      58.1       68     47.8      0.00      2.17      60.4     0.49      1013.1     3.6     SSW   201   7.4     SSW   210   9.42    266       19.4
   01/19/2018 16:00      58.6      58.1       70     48.6      0.00      2.17      60.4     0.49      1013.1     4.5       S   177   7.4     SSW   199   9.42    266       29.6
   01/19/2018 15:50      58.6      57.9       72     49.3      0.00      2.17      60.4     0.49      1013.1     4.2     SSE   169   9.0       S   175   9.42    266       47.1
   01/19/2018 15:40      59.0      58.3       71     49.2      0.00      2.17      60.4     0.49      1013.1     4.8       S   170   8.5     SSW   200   9.42    266       64.4
   01/19/2018 15:30      59.5      58.6       70     49.1      0.00      2.17      60.4     0.49      1013.0     5.2       S   180   9.8       S   183   9.42    266       76.2
   01/19/2018 15:20      59.7      59.2       70     49.6      0.00      2.17      60.4     0.49      1012.9     5.8     SSE   153   9.3     SSE   158   9.42    266       87.7
   01/19/2018 15:10      59.8      59.2       70     49.6      0.00      2.17      60.4     0.49      1013.0     6.0       S   187  11.6       S   169   9.42    266      102.9
   01/19/2018 15:00      60.3      59.5       70     50.0      0.00      2.17      60.3     0.49      1013.0     5.6       S   178   8.7       S   178   9.42    266      121.6
   01/19/2018 14:50      60.3      59.8       70     50.0      0.00      2.17      60.3     0.49      1012.9     5.0     SSE   164   9.3     SSE   155   9.42    266      142.2
   01/19/2018 14:40      60.2      59.6       70     50.2      0.00      2.17      60.3     0.49      1013.0     5.0      SE   135  11.6     SSE   160   9.42    266      141.1
   01/19/2018 14:30      60.3      59.9       70     50.3      0.00      2.17      60.3     0.49      1013.2     4.5     SSE   165  10.5      SE   140   9.42    266      115.6
   01/19/2018 14:20      60.3      59.8       70     50.5      0.00      2.17      60.3     0.49      1013.3     4.4     SSE   154   8.1      SE   140   9.42    266      146.6
   01/19/2018 14:10      60.2      59.4       71     50.5      0.00      2.17      60.3     0.49      1013.5     4.4       S   184   8.2     SSW   197   9.42    266      179.4
   01/19/2018 14:00      60.1      59.4       71     50.4      0.00      2.17      60.3     0.49      1013.6     5.3     SSE   162   9.8       S   184   9.42    266      221.0
   01/19/2018 13:50      60.0      58.9       72     50.3      0.00      2.17      60.3     0.49      1013.8     3.5       S   172   6.2     SSE   160   9.42    266      153.4
   01/19/2018 13:40      59.5      58.9       72     50.0      0.00      2.17      60.2     0.49      1013.9     4.7       S   176   8.7       S   178   9.42    266       74.1
   01/19/2018 13:30      59.4      59.1       72     50.0      0.00      2.17      60.3     0.49      1014.0     3.5       S   172   5.7     SSE   165   9.43    266       55.6
   01/19/2018 13:20      59.2      58.6       72     50.0      0.00      2.17      60.2     0.49      1014.0     3.6       S   176   6.8       S   189   9.43    266       72.1
   01/19/2018 13:10      59.0      58.4       73     50.0      0.00      2.17      60.3     0.49      1014.2     4.3       S   183   9.6       S   178   9.43    266       55.7
   01/19/2018 13:00      59.4      58.6       72     50.1      0.00      2.17      60.2     0.49      1014.4     4.2       S   175   7.8       S   179   9.43    266       37.8
   01/19/2018 12:50      59.4      58.9       73     50.4      0.00      2.17      60.2     0.49      1014.5     3.4     SSE   164   5.8     SSW   195   9.43    266       67.9
   01/19/2018 12:40      59.2      58.7       72     50.0      0.00      2.17      60.2     0.49      1014.7     4.0     SSE   158   8.5     SSE   148   9.43    266       81.3
   01/19/2018 12:30      59.0      58.4       73     50.0      0.00      2.17      60.2     0.49      1014.9     4.1     SSE   158   7.3     SSE   162   9.42    266       88.1
   01/19/2018 12:20      58.7      58.4       74     50.3      0.00      2.17      60.2     0.49      1015.1     3.8     SSE   155   7.1     SSE   162   9.42    266       57.7
   01/19/2018 12:10      58.8      58.4       74     50.3      0.00      2.17      60.2     0.49      1015.3     4.5     SSE   160   9.2     SSE   165   9.42    266       58.3
   01/19/2018 12:00      59.2      58.4       74     50.3      0.00      2.17      60.1     0.49      1015.5     3.5     SSE   158   6.6       S   178   9.42    266       28.2
   01/19/2018 11:50      59.3      58.7       73     50.4      0.00      2.17      60.2     0.49      1015.7     2.7     SSE   157   5.9      SE   146   9.42    266       16.0
   01/19/2018 11:40      59.8      59.0       72     50.2      0.00      2.17      60.2     0.49      1015.9     3.1     SSW   204   6.3       S   175   9.42    266       12.3
   01/19/2018 11:30      60.3      59.5       68     49.5      0.00      2.17      60.2     0.49      1016.1     2.0     ESE   109   6.5      SE   136   9.43    266       10.7
   01/19/2018 11:20      60.7      60.0       68     49.6      0.00      2.17      60.2     0.49      1016.2     1.4     ENE    78   4.0       E    87   9.42    266       18.9
   01/19/2018 11:10      60.8      60.3       67     49.5      0.00      2.17      60.2     0.49      1016.3     1.7     ENE    69   3.9       E    89   9.42    266       69.3
   01/19/2018 11:00      61.0      60.3       67     49.5      0.00      2.17      60.2     0.49      1016.5     1.9     ENE    61   3.5     NNE    31   9.43    266      115.1
   01/19/2018 10:50      61.3      60.6       67     49.8      0.00      2.17      60.2     0.49      1016.6     1.6      NE    52   4.6     ENE    70   9.43    266      105.7
   01/19/2018 10:40      61.3      60.6       68     50.2      0.00      2.17      60.2     0.49      1016.6     2.3      NE    45   4.7      NE    56   9.43    266      198.8
   01/19/2018 10:30      61.0      59.8       69     50.2      0.00      2.17      60.2     0.49      1016.8     1.9      NE    52   4.4     NNE    23   9.43    266      248.4
   01/19/2018 10:20      59.9      59.2       71     50.2      0.00      2.17      60.3     0.49      1016.8     2.6      NE    46   5.4      NE    43   9.43    266      247.4
   01/19/2018 10:10      59.2      58.0       73     50.0      0.00      2.17      60.3     0.49      1017.0     2.0     ENE    65   4.2      NE    36   9.43    266      200.2
   01/19/2018 10:00      58.2      57.8       74     49.6      0.00      2.17      60.3     0.49      1017.1     1.7      NE    37   3.0     NNE    22   9.43    266      118.9
   01/19/2018 09:50      58.0      57.5       74     49.6      0.00      2.17      60.3     0.49      1017.2     1.7     NNE    28   3.5       N    11   9.43    266       96.4
   01/19/2018 09:40      57.9      57.4       74     49.5      0.00      2.17      60.3     0.49      1017.1     1.1       N     3   2.1     NNE    30   9.43    266      109.1
   01/19/2018 09:30      57.9      56.9       76     49.8      0.00      2.17      60.3     0.49      1017.1     0.4       N   354   2.1       N     0   9.43    266      112.2
   01/19/2018 09:20      57.1      56.3       77     49.6      0.00      2.17      60.3     0.49      1017.2     0.5      NW   320   1.8       N     1   9.42    266      106.0
   01/19/2018 09:10      56.5      56.1       77     49.3      0.00      2.17      60.3     0.49      1017.2     0.6     NNW   333   1.3     NNW   343   9.42    267       61.5
   01/19/2018 09:00      56.6      56.0       78     49.5      0.00      2.17      60.3     0.49      1017.3     0.5     NNE    21   1.9     NNE    28   9.42    267       60.6
   01/19/2018 08:50      56.1      55.8       78     49.4      0.00      2.17      60.4     0.49      1017.2     0.6     WSW   246   1.9     WSW   256   9.43    267       53.4
   01/19/2018 08:40      56.0      55.1       79     49.3      0.00      2.17      60.4     0.49      1017.2     0.0     WSW   247   0.2     WSW   247   9.43    267       57.1
   01/19/2018 08:30      55.3      54.8       80     48.8      0.00      2.17      60.4     0.49      1017.1     0.0     NNW   349   0.7     NNW   347   9.43    267       37.5
   01/19/2018 08:20      55.0      54.5       79     48.5      0.00      2.17      60.4     0.49      1017.1     0.0     NNW   341   0.4     NNW   341   9.43    267       20.5
   01/19/2018 08:10      54.7      54.0       79     48.1      0.00      2.17      60.5     0.49      1017.0     0.0       N     0   0.0       E    84   9.43    267       23.3
   01/19/2018 08:00      54.2      53.5       80     47.8      0.00      2.17      60.5     0.49      1017.0     0.2     ESE   104   1.0     ESE   118   9.43    267       15.3
   01/19/2018 07:50      53.7      53.0       81     47.6      0.00      2.17      60.5     0.49      1017.0     0.7       S   177   1.5     SSW   198   9.43    267       22.1
   01/19/2018 07:40      53.3      52.6       81     47.3      0.00      2.17      60.5     0.49      1016.9     0.0     SSE   167   0.7       S   185   9.43    267       13.9
   01/19/2018 07:30      52.9      52.2       82     47.2      0.00      2.17      60.6     0.49      1016.9     0.0       N     0   0.0      SW   227   9.43    267       13.9
   01/19/2018 07:20      52.4      51.9       83     47.0      0.00      2.17      60.5     0.49      1016.8     0.3     SSW   205   1.1      SW   234   9.42    267        4.0
   01/19/2018 07:10      52.2      51.6       83     46.8      0.00      2.17      60.6     0.49      1016.8     0.0     WSW   254   0.5     WSW   257   9.42    267        2.0
   01/19/2018 07:00      51.8      51.3       83     46.4      0.00      2.17      60.6     0.49      1016.7     0.6      SW   217   1.8     SSW   210   9.43    267       -2.8
   01/19/2018 06:50      51.6      51.2       83     46.3      0.00      2.17      60.6     0.49      1016.6     0.2      SE   134   1.1      SE   140   9.43    267       -5.7
   01/19/2018 06:40      51.4      51.0       83     46.1      0.00      2.17      60.6     0.49      1016.6     0.5       S   173   1.6       S   170   9.43    267       -2.9
   01/19/2018 06:30      51.3      50.8       83     46.0      0.00      2.17      60.6     0.49      1016.6     1.0     NNW   333   2.7       N     1   9.43    267       -5.6
   01/19/2018 06:20      51.0      50.6       83     45.9      0.00      2.17      60.7     0.49      1016.6     0.5       W   265   1.9     WSW   259   9.43    267      -15.8
   01/19/2018 06:10      51.1      50.6       83     45.7      0.00      2.17      60.7     0.49      1016.5     0.5      NW   317   1.7     WSW   255   9.43    268      -26.2
   01/19/2018 06:00      51.1      50.6       83     45.9      0.00      2.17      60.7     0.49      1016.6     0.6       S   189   2.0       S   187   9.43    267      -17.8
   01/19/2018 05:50      50.8      50.1       83     45.3      0.00      2.17      60.8     0.49      1016.7     0.3      SE   141   1.7      SE   141   9.43    267       -5.1
   01/19/2018 05:40      50.2      49.3       84     45.1      0.00      2.17      60.8     0.49      1016.6     0.6     ESE   118   1.9       S   180   9.43    267       -1.2
   01/19/2018 05:30      49.5      47.9       87     44.9      0.00      2.17      60.8     0.49      1016.7     0.8       S   171   2.3      SW   220   9.43    268        0.1
   01/19/2018 05:20      48.2      46.8       88     43.7      0.00      2.17      60.8     0.49      1016.5     0.8     WSW   249   2.4       W   262   9.43    268        1.9
   01/19/2018 05:10      47.0      46.2       88     43.1      0.00      2.17      60.8     0.49      1016.4     0.4       W   268   1.2     NNW   335   9.43    273        1.2
   01/19/2018 05:00      46.5      45.9       87     42.5      0.00      2.17      60.8     0.49      1016.3     0.9     SSW   203   1.9      SW   223   9.43    275      -22.1
   01/19/2018 04:50      46.6      46.0       87     42.3      0.00      2.17      60.9     0.49      1016.3     0.5      SW   234   1.9      SW   228   9.43    275      -37.5
   01/19/2018 04:40      46.6      45.9       86     42.1      0.00      2.17      60.9     0.49      1016.2     0.0     NNW   332   0.5     NNW   332   9.43    274      -36.8
   01/19/2018 04:30      46.8      46.0       86     42.2      0.00      2.17      60.9     0.49      1016.2     0.1     ENE    78   0.9     ENE    77   9.43    273      -40.7
   01/19/2018 04:20      47.1      46.2       86     42.5      0.00      2.17      60.9     0.49      1016.3     0.3      SE   136   1.1      SE   134   9.43    271      -43.0
   01/19/2018 04:10      47.2      46.7       85     42.5      0.00      2.17      61.0     0.49      1016.4     0.1     SSE   162   0.8     SSE   157   9.43    271      -44.6
   01/19/2018 04:00      47.5      47.0       85     42.8      0.00      2.17      61.0     0.49      1016.4     0.3      SE   144   1.0      SE   141   9.43    270      -46.4
   01/19/2018 03:50      47.5      47.0       85     42.9      0.00      2.17      61.0     0.49      1016.4     0.6     SSE   153   1.4     SSE   148   9.43    269      -46.7
   01/19/2018 03:40      47.5      47.1       85     42.9      0.00      2.17      61.0     0.49      1016.5     0.5     SSE   155   1.4     SSE   147   9.43    268      -48.5
   01/19/2018 03:30      47.5      47.1       84     42.8      0.00      2.17      61.0     0.49      1016.5     0.4     SSE   154   1.3      SE   144   9.43    268      -50.3
   01/19/2018 03:20      47.8      47.3       84     42.8      0.00      2.17      61.0     0.49      1016.6     0.6     SSE   155   2.2      SE   144   9.43    268      -50.5
   01/19/2018 03:10      47.8      47.3       83     42.7      0.00      2.17      61.0     0.49      1016.6     0.0       N     0   0.0     SSW   204   9.43    268      -50.6
   01/19/2018 03:00      47.6      47.2       83     42.6      0.00      2.17      61.1     0.49      1016.6     0.0       S   176   0.4       S   171   9.43    267      -54.2
   01/19/2018 02:50      48.2      47.3       82     42.4      0.00      2.17      61.1     0.49      1016.6     0.9     SSE   151   1.7      SE   142   9.43    267      -55.9
   01/19/2018 02:40      48.2      47.8       82     42.6      0.00      2.17      61.1     0.49      1016.6     1.3     SSW   207   2.0      SW   219   9.43    267      -55.0
   01/19/2018 02:30      48.4      47.8       82     42.7      0.00      2.17      61.1     0.49      1016.7     0.3       S   173   1.0       S   178   9.43    267      -55.5
   01/19/2018 02:20      48.5      47.8       82     42.9      0.00      2.17      61.1     0.50      1016.8     0.1      SE   143   0.6       S   175   9.43    267      -55.3
   01/19/2018 02:10      48.3      47.8       81     42.5      0.00      2.17      61.2     0.50      1016.9     0.7     SSE   161   1.7      SE   140   9.43    267      -56.5
   01/19/2018 02:00      48.6      47.9       80     42.4      0.00      2.17      61.2     0.50      1017.0     0.8     SSW   194   1.8     SSW   205   9.43    267      -57.9
   01/19/2018 01:50      49.2      48.3       79     42.5      0.00      2.17      61.2     0.50      1017.0     0.4     SSE   166   0.9       S   182   9.43    267      -58.0
   01/19/2018 01:40      49.4      48.9       79     42.8      0.00      2.17      61.2     0.50      1017.0     0.3      SW   225   0.8     SSW   205   9.43    267      -57.1
   01/19/2018 01:30      49.7      49.1       78     42.8      0.00      2.17      61.2     0.50      1017.0     0.0       S   174   0.0       S   174   9.43    266      -57.3
   01/19/2018 01:20      50.0      49.3       77     42.5      0.00      2.17      61.2     0.50      1017.0     0.0       N     0   0.0       E    86   9.44    266      -57.4
   01/19/2018 01:10      50.5      49.7       75     42.5      0.00      2.17      61.2     0.50      1017.1     0.0       E    93   0.9       E   100   9.44    266      -57.9
   01/19/2018 01:00      50.8      50.1       76     43.0      0.00      2.17      61.2     0.50      1017.2     0.3      SE   142   1.0      SE   143   9.44    266      -57.1
   01/19/2018 00:50      50.8      50.5       75     43.1      0.00      2.17      61.3     0.50      1017.2     0.3     SSE   152   1.0     SSE   154   9.44    266      -55.5
   01/19/2018 00:40      51.0      50.5       75     43.1      0.00      2.17      61.3     0.50      1017.3     0.5     SSE   158   1.1     SSE   150   9.44    266      -56.7
   01/19/2018 00:30      51.3      50.6       75     43.1      0.00      2.17      61.2     0.50      1017.3     0.4     SSE   149   1.1      SE   144   9.44    266      -57.1
   01/19/2018 00:20      51.5      50.8       74     43.0      0.00      2.17      61.2     0.50      1017.3     0.5     SSE   157   1.1      SE   144   9.44    266      -57.8
   01/19/2018 00:10      51.6      51.1       73     42.9      0.00      2.17      61.3     0.50      1017.4     0.1     SSE   148   1.1      SE   134   9.44    266      -57.2
   01/19/2018 00:00      51.8      51.2       72     42.6      0.00      2.17      61.3     0.50      1017.4     0.6     SSE   157   1.3     SSE   151   9.44    266      -57.9
   01/18/2018 23:50      52.0      51.3       70     42.1      0.00      2.17      61.3     0.50      1017.4     0.9     SSE   154   1.6     SSE   152   9.44    266      -58.6
   01/18/2018 23:40      52.4      51.8       68     41.9      0.00      2.17      61.3     0.50      1017.5     0.5     SSE   158   1.1     SSE   149   9.44    266      -58.3
   01/18/2018 23:30      52.4      51.8       68     41.8      0.00      2.17      61.3     0.50      1017.5     0.8     SSE   157   1.3     SSE   161   9.44    266      -58.7
   01/18/2018 23:20      52.5      51.8       67     41.5      0.00      2.17      61.3     0.50      1017.6     1.2     SSE   154   1.9      SE   142   9.44    266      -59.2
   01/18/2018 23:10      53.0      52.1       65     41.1      0.00      2.17      61.3     0.50      1017.7     0.8     SSE   153   1.2     SSE   156   9.44    266      -59.4
   01/18/2018 23:00      53.4      52.7       63     40.8      0.00      2.17      61.3     0.50      1017.8     0.9     SSE   168   1.5     SSW   193   9.44    266      -60.0
   01/18/2018 22:50      53.2      52.9       63     40.8      0.00      2.17      61.3     0.50      1017.8     0.5      SW   235   1.7       W   268   9.44    266      -60.0
   01/18/2018 22:40      53.6      52.8       64     41.2      0.00      2.17      61.3     0.50      1017.7     1.1       S   183   2.3      SW   218   9.45    266      -60.3
   01/18/2018 22:30      54.3      53.3       63     41.4      0.00      2.17      61.4     0.50      1017.7     0.8      SE   144   1.7      NE    46   9.44    266      -60.2
   01/18/2018 22:20      54.7      54.0       60     40.7      0.00      2.17      61.3     0.50      1017.7     0.6     SSE   154   1.5      SE   143   9.44    266      -59.1
   01/18/2018 22:10      55.3      54.2       59     40.8      0.00      2.17      61.3     0.50      1017.7     0.9       S   173   1.7      SW   225   9.45    265      -58.6
   01/18/2018 22:00      55.6      54.9       59     41.1      0.00      2.17      61.3     0.50      1017.6     0.9      SW   214   2.2     WSW   247   9.45    265      -58.1
   01/18/2018 21:50      55.9      55.3       59     41.3      0.00      2.17      61.3     0.50      1017.6     0.9     SSE   153   2.0      SE   144   9.45    265      -58.4
   01/18/2018 21:40      56.3      55.6       59     41.5      0.00      2.17      61.4     0.50      1017.5     0.8     SSE   151   3.4     SSW   203   9.45    265      -58.2
   01/18/2018 21:30      56.4      56.0       59     41.8      0.00      2.17      61.3     0.50      1017.4     0.1       S   180   1.4       S   176   9.45    265      -58.6
   01/18/2018 21:20      57.2      56.1       59     42.4      0.00      2.17      61.3     0.50      1017.4     0.4       S   175   1.3     SSW   192   9.45    265      -59.0
   01/18/2018 21:10      58.6      56.9       58     42.9      0.00      2.17      61.3     0.50      1017.5     0.3     SSE   149   1.0     SSE   155   9.45    265      -59.7
   01/18/2018 21:00      61.1      58.5       54     42.9      0.00      2.17      61.3     0.50      1017.5     0.6     SSE   160   1.4     SSE   146   9.45    264      -59.5
   01/18/2018 20:50      61.0      60.5       50     42.2      0.00      2.17      61.3     0.50      1017.6     1.6     SSW   214   2.9     SSW   193   9.45    264      -59.8
   01/18/2018 20:40      60.7      59.1       53     42.8      0.00      2.17      61.3     0.50      1017.5     2.5     SSW   197   4.0       S   174   9.45    265      -58.5
   01/18/2018 20:30      59.1      57.4       58     43.4      0.00      2.17      61.2     0.50      1017.4     1.5       S   189   2.7     SSW   192   9.45    265      -56.7
   01/18/2018 20:20      57.8      57.2       60     43.5      0.00      2.17      61.2     0.50      1017.3     0.7     SSE   161   1.2     SSE   159   9.45    265      -56.7
   01/18/2018 20:10      58.3      57.5       58     43.4      0.00      2.17      61.3     0.50      1017.1     0.8     SSE   156   1.7      SE   144   9.45    264      -56.8
   01/18/2018 20:00      58.3      57.9       58     43.4      0.00      2.17      61.2     0.50      1016.9     0.8     SSE   157   1.8     SSE   166   9.46    264      -57.2
   01/18/2018 19:50      58.4      57.9       59     43.8      0.00      2.17      61.2     0.50      1016.8     0.8     SSE   159   1.5     SSE   161   9.46    264      -57.0
   01/18/2018 19:40      58.9      58.1       59     44.0      0.00      2.17      61.2     0.50      1016.8     0.8     SSE   157   1.4     SSE   158   9.46    264      -58.6
   01/18/2018 19:30      59.6      58.5       58     44.0      0.00      2.17      61.1     0.50      1016.7     0.7     SSE   157   1.4     SSE   161   9.46    264      -60.5
   01/18/2018 19:20      59.8      59.3       55     43.5      0.00      2.17      61.1     0.50      1016.7     0.7     SSE   156   1.2     SSE   161   9.46    264      -59.7
   01/18/2018 19:10      60.3      59.1       55     43.3      0.00      2.17      61.1     0.50      1016.7     0.8     SSW   194   2.2     SSW   213   9.46    264      -59.7
   01/18/2018 19:00      60.8      60.0       54     43.7      0.00      2.17      61.1     0.50      1016.6     0.6     SSW   193   1.8      SW   216   9.46    264      -60.3
   01/18/2018 18:50      61.2      60.3       53     43.3      0.00      2.17      61.0     0.50      1016.6     0.9       S   174   1.8       S   189   9.46    264      -60.6
   01/18/2018 18:40      62.1      61.0       51     43.4      0.00      2.17      61.0     0.50      1016.7     0.8       S   172   1.6     SSW   203   9.47    264      -61.2
   01/18/2018 18:30      62.5      61.7       50     43.3      0.00      2.17      61.0     0.50      1016.7     0.6     SSW   197   1.1     SSW   207   9.47    264      -62.0
   01/18/2018 18:20      63.7      62.1       50     43.7      0.00      2.17      61.0     0.50      1016.7     0.4       S   175   1.1       S   172   9.47    264      -64.5
   01/18/2018 18:10      65.3      63.5       46     43.2      0.00      2.17      61.0     0.50      1016.7     0.2     SSE   165   0.7     SSE   167   9.47    264      -66.4
   01/18/2018 18:00      65.8      65.0       44     42.9      0.00      2.17      60.9     0.50      1016.7     0.2     ESE   109   0.9     ESE   112   9.47    263      -67.3
   01/18/2018 17:50      65.8      65.2       44     42.9      0.00      2.17      60.9     0.50      1016.8     0.6     ESE   115   2.1     ESE   116   9.47    263      -67.5
   01/18/2018 17:40      66.2      65.3       45     43.7      0.00      2.17      60.9     0.50      1016.8     0.0     SSE   155   0.9     SSE   166   9.47    263      -68.0
   01/18/2018 17:30      67.6      65.9       43     43.4      0.00      2.17      60.9     0.50      1016.7     0.6     SSE   162   2.1      SE   139   9.47    263      -69.5
   01/18/2018 17:20      69.3      67.2       40     42.6      0.00      2.17      60.9     0.50      1016.7     0.5     SSE   165   1.0     SSE   161   9.47    263      -70.0
   01/18/2018 17:10      70.7      69.1       36     42.0      0.00      2.17      60.8     0.50      1016.6     0.1      SE   135   0.9      SE   135   9.48    263      -70.2
   01/18/2018 17:00      72.0      70.5       36     42.7      0.00      2.17      60.8     0.50      1016.6     0.0     SSE   160   0.6     SSE   159   9.48    262      -67.2
   01/18/2018 16:50      73.2      71.7       36     43.6      0.00      2.17      60.7     0.50      1016.6     0.3      NE    41   1.4     ENE    60   9.48    262      -62.4
   01/18/2018 16:40      74.1      73.0       34     43.8      0.00      2.17      60.7     0.50      1016.7     0.6      NE    53   2.1     ENE    62   9.48    262      -54.4
   01/18/2018 16:30      74.8      73.7       33     43.4      0.00      2.17      60.6     0.50      1016.6     1.4      NE    38   3.0      NE    36   9.48    261      -34.8
   01/18/2018 16:20      75.4      74.6       31     42.0      0.00      2.17      60.6     0.50      1016.8     1.9     NNE    25   3.7       N     7   9.48    261      -18.2
   01/18/2018 16:10      76.1      75.2       31     42.7      0.00      2.17      60.6     0.50      1016.8     2.7     NNE    14   6.7       N     3   9.48    261       -5.0
   01/18/2018 16:00      77.0      75.9       30     43.0      0.00      2.17      60.6     0.50      1016.7     2.4      NE    52   3.7     ENE    63   9.49    261        5.4
   01/18/2018 15:50      77.3      76.6       29     42.6      0.00      2.17      60.5     0.50      1016.6     1.9     ENE    74   4.0     ESE   124   9.49    261       39.8
   01/18/2018 15:40      77.7      76.9       28     42.1      0.00      2.17      60.5     0.50      1016.5     2.7     ESE   108   5.7      SE   144   9.49    261       57.1
   01/18/2018 15:30      78.4      77.4       27     41.4      0.00      2.17      60.4     0.50      1016.4     1.9       E    79   4.5     ESE   112   9.49    261       75.9
   01/18/2018 15:20      78.8      78.2       26     41.2      0.00      2.17      60.4     0.50      1016.5     1.8     NNE    21   4.3      NE    47   9.49    260       97.4
   01/18/2018 15:10      79.8      78.5       26     41.5      0.00      2.17      60.4     0.50      1016.5     2.3       W   271   5.4      SW   230   9.49    261      120.8
   01/18/2018 15:00      79.8      79.0       26     41.2      0.00      2.17      60.4     0.50      1016.6     1.5     WSW   236   3.7     SSE   160   9.50    260      135.4
   01/18/2018 14:50      80.3      79.3       24     40.0      0.00      2.17      60.3     0.50      1016.7     1.5     SSW   193   4.9      SE   140   9.50    260      154.7
   01/18/2018 14:40      80.6      79.3       24     39.8      0.00      2.17      60.3     0.50      1016.8     1.4       W   260   3.5     WSW   256   9.50    260      168.2
   01/18/2018 14:30      79.4      78.5       25     39.6      0.00      2.17      60.2     0.50      1017.0     1.3     NNW   342   2.8     NNW   344   9.50    260      183.9
   01/18/2018 14:20      79.7      78.4       24     39.0      0.00      2.17      60.2     0.50      1017.1     2.5       N   350   4.1      NW   325   9.50    260      196.0
   01/18/2018 14:10      79.6      78.4       24     39.2      0.00      2.17      60.2     0.50      1017.1     1.7     NNE    21   4.7     NNE    13   9.50    260      216.7
   01/18/2018 14:00      79.6      78.3       23     38.5      0.00      2.17      60.2     0.50      1017.0     2.7      NE    39   5.3      NE    51   9.50    261      231.9
   01/18/2018 13:50      80.0      79.2       22     37.1      0.00      2.17      60.1     0.50      1017.1     2.4     NNE    32   4.4      NE    38   9.50    260      246.2
   01/18/2018 13:40      81.3      79.6       21     36.8      0.00      2.17      60.1     0.50      1017.2     2.0     ENE    67   4.8      NE    49   9.50    260      256.2
   01/18/2018 13:30      81.4      80.7       20     36.6      0.00      2.17      60.1     0.50      1017.4     1.0      NE    56   3.2     ENE    77   9.50    260      268.9
   01/18/2018 13:20      81.3      79.6       21     36.5      0.00      2.17      60.1     0.50      1017.6     0.9     SSE   148   4.5     ENE    69   9.50    260      272.7
   01/18/2018 13:10      79.6      78.4       21     36.2      0.00      2.17      60.1     0.50      1017.9     1.5     NNE    33   4.0     ENE    66   9.50    260      292.7
   01/18/2018 13:00      78.8      78.3       22     36.3      0.00      2.17      60.0     0.50      1017.9     2.9     NNE    18   5.1     NNE    24   9.50    261      301.3
   01/18/2018 12:50      79.5      78.2       22     36.6      0.00      2.17      60.0     0.50      1018.0     2.9     NNE    27   5.7       E    88   9.50    261      310.1
   01/18/2018 12:40      79.3      78.7       21     36.3      0.00      2.17      60.0     0.50      1018.1     2.0     ENE    56   3.9     SSW   196   9.50    261      315.1
   01/18/2018 12:30      79.5      78.4       22     36.6      0.00      2.17      60.0     0.50      1018.1     2.0     ENE    65   5.7       E    86   9.50    261      322.3
   01/18/2018 12:20      78.7      78.0       23     37.0      0.00      2.17      60.0     0.49      1018.2     1.9      NE    45   3.7      SE   140   9.50    261      321.1
   01/18/2018 12:10      78.7      77.7       23     37.2      0.00      2.17      60.0     0.49      1018.3     2.0     ENE    72   5.1     ESE   109   9.50    261      280.0
   01/18/2018 12:00      78.5      77.3       24     38.5      0.00      2.17      60.0     0.49      1018.5     1.4      NE    37   4.4      NE    44   9.50    261      298.5
   01/18/2018 11:50      77.6      77.0       25     38.6      0.00      2.17      60.0     0.49      1018.7     1.5      NE    40   3.5     ENE    64   9.50    261      313.1
   01/18/2018 11:40      77.6      76.5       25     38.7      0.00      2.17      60.0     0.49      1019.0     1.1     NNE    18   3.0      NE    44   9.50    261      303.3
   01/18/2018 11:30      77.3      76.5       26     39.3      0.00      2.17      60.0     0.49      1019.1     1.7     NNE    21   3.5     ENE    70   9.50    262      308.6
   01/18/2018 11:20      77.3      75.0       27     40.0      0.00      2.17      60.1     0.49      1019.2     0.5     NNE    17   2.5     NNW   339   9.50    261      327.4
   01/18/2018 11:10      75.0      73.7       28     39.2      0.00      2.17      60.1     0.49      1019.4     0.9     ENE    76   2.6      NE    34   9.50    262      309.9
   01/18/2018 11:00      74.0      72.7       29     38.9      0.00      2.17      60.0     0.49      1019.6     1.4       N     2   3.2       N   355   9.50    261      302.0
   01/18/2018 10:50      73.0      71.6       30     39.1      0.00      2.17      60.1     0.49      1019.8     1.1     NNW   345   2.6      NW   317   9.50    262      299.5
   01/18/2018 10:40      71.6      70.5       31     38.7      0.00      2.17      60.1     0.49      1019.9     1.3       N     0   2.8      NE    50   9.50    262      301.2
   01/18/2018 10:30      71.1      70.4       31     38.9      0.00      2.17      60.2     0.49      1019.9     1.4     NNW   342   3.1     NNW   343   9.51    262      291.3
   01/18/2018 10:20      71.0      69.6       32     39.6      0.00      2.17      60.2     0.49      1020.0     0.7     NNE    24   2.0       N     0   9.50    263      289.8
   01/18/2018 10:10      69.6      68.6       34     39.3      0.00      2.17      60.2     0.49      1020.1     0.7      NW   312   1.9      NW   308   9.51    263      247.7
   01/18/2018 10:00      68.8      68.2       35     39.4      0.00      2.17      60.3     0.49      1020.2     1.0     NNE    22   1.8      NE    53   9.51    263      251.9
   01/18/2018 09:50      68.7      68.0       37     41.2      0.00      2.17      60.3     0.49      1020.2     0.7     NNE    29   1.7       N   355   9.50    263      251.3
   01/18/2018 09:40      68.0      65.8       39     41.3      0.00      2.17      60.3     0.49      1020.2     0.4     WNW   285   1.3     WNW   282   9.50    263      220.7
   01/18/2018 09:30      66.2      64.6       42     41.5      0.00      2.17      60.3     0.49      1020.1     0.5       N   351   1.6      NE    41   9.51    264      219.2
   01/18/2018 09:20      64.8      63.9       43     41.0      0.00      2.17      60.4     0.49      1020.0     0.7     NNW   347   1.4     NNW   330   9.51    264      202.6
   01/18/2018 09:10      64.1      63.2       45     41.6      0.00      2.17      60.4     0.49      1020.0     0.3       N   356   0.8       N     9   9.50    264      186.1
   01/18/2018 09:00      63.5      61.5       47     42.0      0.00      2.17      60.4     0.48      1020.0     0.2     NNE    12   0.9     NNE    26   9.51    264      165.1
   01/18/2018 08:50      61.6      58.1       51     41.6      0.00      2.17      60.5     0.48      1019.8     0.0       N     7   0.5       N     8   9.51    264      140.5
   01/18/2018 08:40      58.1      56.7       54     41.0      0.00      2.17      60.5     0.47      1019.8     1.2     NNW   331   2.3     NNW   331   9.51    265      116.3
   01/18/2018 08:30      56.9      55.8       55     40.4      0.00      2.17      60.5     0.47      1019.7     1.4      NW   326   2.2     NNW   328   9.50    265       88.4
   01/18/2018 08:20      55.8      53.1       59     40.5      0.00      2.17      60.5     0.47      1019.7     0.2     NNE    22   1.4       N     4   9.50    266       70.4
   01/18/2018 08:10      53.2      51.9       63     40.1      0.00      2.17      60.6     0.47      1019.6     0.8      SE   141   2.1      SE   136   9.50    266       22.8
   01/18/2018 08:00      52.9      52.1       61     39.5      0.00      2.17      60.6     0.47      1019.7     0.5     SSE   147   1.5      SE   144   9.50    266      -16.6
   01/18/2018 07:50      52.5      49.5       65     39.7      0.00      2.17      60.6     0.47      1019.6     0.0      SW   224   1.0       W   266   9.50    266      -24.2
   01/18/2018 07:40      49.5      47.7       71     39.3      0.00      2.17      60.6     0.47      1019.6     1.2     WNW   289   3.2       W   277   9.50    266      -27.4
   01/18/2018 07:30      47.8      47.3       71     38.6      0.00      2.17      60.6     0.47      1019.5     0.7     SSE   153   1.4      SE   146   9.50    266      -32.3
   01/18/2018 07:20      47.6      47.0       71     38.4      0.00      2.17      60.7     0.47      1019.6     0.2       S   170   0.9       S   169   9.51    266      -39.3
   01/18/2018 07:10      47.8      47.1       71     38.3      0.00      2.17      60.7     0.47      1019.5     0.0       N     0   0.0     SSE   163   9.51    266      -46.1
   01/18/2018 07:00      48.3      47.5       69     38.4      0.00      2.17      60.7     0.47      1019.4     0.1     SSE   150   0.9     SSE   150   9.51    266      -48.9
   01/18/2018 06:50      48.3      47.8       69     38.3      0.00      2.17      60.7     0.47      1019.4     0.2       S   177   0.7     SSE   163   9.51    266      -49.9
   01/18/2018 06:40      48.1      47.4       69     38.1      0.00      2.17      60.7     0.47      1019.4     0.6     SSE   167   1.1     SSE   151   9.51    266      -51.0
   01/18/2018 06:30      47.6      47.3       70     38.1      0.00      2.17      60.8     0.47      1019.3     0.6       S   184   1.1     WSW   249   9.51    266      -51.1
   01/18/2018 06:20      47.6      47.1       71     38.3      0.00      2.17      60.8     0.47      1019.3     0.1     SSE   164   0.8     SSE   164   9.51    266      -51.8
   01/18/2018 06:10      47.8      47.3       70     38.3      0.00      2.17      60.8     0.47      1019.3     0.0       S   180   0.4       S   180   9.51    266      -52.0
   01/18/2018 06:00      48.2      47.3       70     38.2      0.00      2.17      60.8     0.47      1019.3     0.3       S   186   1.3       S   189   9.51    266      -52.2
   01/18/2018 05:50      48.6      47.8       68     38.2      0.00      2.17      60.8     0.47      1019.2     0.2     SSE   155   1.2     SSE   167   9.51    266      -52.3
   01/18/2018 05:40      48.5      47.8       69     38.3      0.00      2.17      60.8     0.47      1019.2     0.5       S   188   1.6       S   180   9.51    266      -52.4
   01/18/2018 05:30      48.9      48.3       68     38.3      0.00      2.17      60.9     0.47      1019.1     0.1     SSE   152   0.7     SSE   152   9.51    266      -53.1
   01/18/2018 05:20      48.9      48.4       68     38.4      0.00      2.17      60.9     0.47      1019.0     0.0      SW   222   0.6      SW   222   9.51    266      -53.0
   01/18/2018 05:10      49.4      48.7       67     38.5      0.00      2.17      60.9     0.47      1019.0     0.0      SE   128   0.6      SE   132   9.51    266      -53.5
   01/18/2018 05:00      49.7      49.2       67     38.9      0.00      2.17      60.9     0.47      1019.1     0.0     SSE   149   0.2     SSE   149   9.51    266      -53.6
   01/18/2018 04:50      49.5      49.0       67     38.8      0.00      2.17      60.9     0.47      1018.9     1.0     SSE   151   1.7     SSE   160   9.51    266      -52.8
   01/18/2018 04:40      49.4      48.8       67     38.6      0.00      2.17      61.0     0.47      1018.9     1.1     SSE   153   2.3      SE   140   9.51    266      -51.4
   01/18/2018 04:30      49.4      48.8       66     38.0      0.00      2.17      61.0     0.47      1019.0     0.7       S   173   1.4       S   184   9.51    266      -50.7
   01/18/2018 04:20      49.0      48.7       67     38.3      0.00      2.17      61.0     0.47      1019.0     0.0       S   179   0.7       S   181   9.51    266      -51.4
   01/18/2018 04:10      49.5      48.7       67     38.6      0.00      2.17      61.0     0.47      1018.9     0.0       S   189   0.7       S   178   9.51    266      -51.9
   01/18/2018 04:00      50.0      49.3       67     38.8      0.00      2.17      61.0     0.47      1019.0     0.0     SSE   151   0.7     SSE   152   9.51    266      -52.1
   01/18/2018 03:50      50.0      49.7       65     38.5      0.00      2.17      61.0     0.47      1019.1     0.0     SSE   153   0.5     SSE   148   9.51    266      -52.0
   01/18/2018 03:40      50.0      49.7       65     38.4      0.00      2.17      61.0     0.47      1019.1     0.5       S   191   0.9     SSE   156   9.51    266      -52.2
   01/18/2018 03:30      50.6      49.7       64     38.4      0.00      2.17      61.1     0.47      1019.1     0.4       S   179   0.9      SW   218   9.51    266      -52.5
   01/18/2018 03:20      50.8      50.2       64     38.5      0.00      2.17      61.1     0.47      1019.1     0.3     SSE   157   1.1     SSE   147   9.51    266      -52.6
   01/18/2018 03:10      50.9      50.5       62     38.1      0.00      2.17      61.1     0.47      1019.2     0.2       S   177   1.1      SW   230   9.51    266      -53.0
   01/18/2018 03:00      51.0      50.5       62     38.1      0.00      2.17      61.1     0.47      1019.2     0.6     SSW   194   2.7      SW   226   9.51    266      -52.9
   01/18/2018 02:50      51.0      50.5       62     38.3      0.00      2.17      61.1     0.47      1019.3     0.3       S   180   1.3     SSW   204   9.51    266      -52.9
   01/18/2018 02:40      51.5      50.8       62     38.6      0.00      2.17      61.1     0.48      1019.3     0.3       S   175   1.0       S   188   9.51    266      -53.2
   01/18/2018 02:30      51.9      51.2       61     38.4      0.00      2.17      61.1     0.47      1019.4     0.0       S   177   0.7       S   180   9.52    266      -52.5
   01/18/2018 02:20      51.9      51.2       62     38.8      0.00      2.17      61.1     0.48      1019.5     0.3     SSE   163   1.1     SSE   161   9.52    266      -52.8
   01/18/2018 02:10      51.9      51.6       61     38.7      0.00      2.17      61.2     0.48      1019.7     0.2     SSE   165   1.2       S   171   9.52    266      -52.9
   01/18/2018 02:00      52.4      51.7       61     39.0      0.00      2.17      61.2     0.48      1019.7     0.1       S   169   1.1       S   174   9.52    266      -53.1
   01/18/2018 01:50      52.4      52.0       60     38.9      0.00      2.17      61.2     0.48      1019.8     0.0       N     0   0.0     SSW   206   9.52    266      -52.5
   01/18/2018 01:40      52.5      52.0       61     39.0      0.00      2.17      61.2     0.48      1019.8     0.5     SSW   196   1.6     SSW   207   9.52    266      -51.6
   01/18/2018 01:30      52.7      52.2       60     39.2      0.00      2.17      61.2     0.48      1020.0     0.6      SW   219   1.4      SW   233   9.52    266      -50.8
   01/18/2018 01:20      52.5      51.9       62     39.4      0.00      2.17      61.2     0.48      1020.0     0.6     SSW   212   1.6     WSW   254   9.52    266      -49.9
   01/18/2018 01:10      52.9      52.2       59     38.9      0.00      2.17      61.2     0.48      1020.0     0.4      SE   136   1.1      SE   135   9.52    265      -49.7
   01/18/2018 01:00      53.3      52.7       58     38.7      0.00      2.17      61.2     0.48      1020.1     0.4     SSE   165   1.1     SSE   164   9.52    265      -50.1
   01/18/2018 00:50      53.2      52.7       59     38.9      0.00      2.17      61.3     0.48      1020.0     0.3     SSE   168   0.8     SSE   164   9.52    265      -50.5
   01/18/2018 00:40      53.5      52.7       59     39.3      0.00      2.17      61.3     0.48      1020.0     0.2     WSW   259   1.2     WSW   249   9.52    265      -51.1
   01/18/2018 00:30      54.0      53.3       58     39.2      0.00      2.17      61.3     0.48      1020.0     0.5      SE   140   1.4      SE   137   9.52    265      -51.7
   01/18/2018 00:20      54.2      53.6       57     39.2      0.00      2.17      61.3     0.48      1019.9     0.8      NW   306   1.7     WSW   248   9.52    265      -50.0
   01/18/2018 00:10      54.4      53.5       57     39.1      0.00      2.17      61.3     0.48      1019.9     0.3     SSW   211   0.9     SSW   199   9.52    265      -48.7
   01/18/2018 00:00      55.2      54.1       55     38.9      0.00      2.17      61.3     0.48      1020.1     0.0      SE   131   0.4      SE   130   9.52    265      -48.7
   01/17/2018 23:50      55.1      54.4       54     38.4      0.00      2.17      61.3     0.48      1020.1     0.5     SSW   192   1.2      SW   228   9.52    265      -46.6
   01/17/2018 23:40      54.7      54.3       55     38.8      0.00      2.17      61.3     0.48      1020.2     0.1       S   174   0.6       S   182   9.52    265      -47.1
   01/17/2018 23:30      55.0      54.4       55     39.0      0.00      2.17      61.3     0.48      1020.2     0.4     SSW   201   1.3     SSW   211   9.52    264      -49.5
   01/17/2018 23:20      55.8      54.7       55     39.0      0.00      2.17      61.3     0.48      1020.2     0.4     SSW   204   1.6       S   181   9.52    264      -52.7
   01/17/2018 23:10      56.3      55.5       53     38.8      0.00      2.17      61.3     0.48      1020.2     0.7      SE   128   2.0     SSE   151   9.52    264      -55.0
   01/17/2018 23:00      56.8      56.0       52     38.8      0.00      2.17      61.3     0.48      1020.4     0.0       N     7   0.7     SSE   157   9.52    264      -55.6
   01/17/2018 22:50      57.5      56.4       51     38.7      0.00      2.17      61.3     0.48      1020.4     0.3       S   172   0.9       S   174   9.52    264      -55.7
   01/17/2018 22:40      57.9      57.0       49     38.5      0.00      2.17      61.3     0.48      1020.3     0.5     SSE   152   1.4     SSE   159   9.52    264      -54.8
   01/17/2018 22:30      57.8      57.0       49     38.3      0.00      2.17      61.3     0.48      1020.4     1.3     SSE   152   2.5     SSE   147   9.52    264      -54.6
   01/17/2018 22:20      57.4      56.9       50     38.6      0.00      2.17      61.3     0.48      1020.4     1.7     SSE   152   3.1      SE   142   9.53    264      -54.7
   01/17/2018 22:10      57.5      56.9       50     38.6      0.00      2.17      61.3     0.48      1020.5     0.9      SE   146   1.4     SSE   149   9.53    264      -55.0
   01/17/2018 22:00      57.6      56.9       50     38.7      0.00      2.17      61.3     0.48      1020.6     1.6     SSE   154   3.2     SSE   148   9.53    264      -56.8
   01/17/2018 21:50      57.4      56.3       51     38.9      0.00      2.17      61.3     0.48      1020.6     0.6     SSE   148   1.9      SE   127   9.53    264      -57.2
   01/17/2018 21:40      57.6      57.0       50     38.8      0.00      2.17      61.3     0.48      1020.7     1.4     SSE   147   2.8     SSE   147   9.53    264      -58.0
   01/17/2018 21:30      58.2      57.0       50     39.0      0.00      2.17      61.3     0.48      1020.6     0.5     SSE   160   2.1     SSW   193   9.53    264      -57.9
   01/17/2018 21:20      58.3      57.5       49     38.9      0.00      2.17      61.3     0.48      1020.6     0.7       S   186   1.9       S   188   9.53    264      -57.8
   01/17/2018 21:10      58.4      57.8       48     38.8      0.00      2.17      61.3     0.48      1020.5     0.9     SSE   152   1.9      SE   124   9.53    264      -58.1
   01/17/2018 21:00      58.8      58.1       48     39.0      0.00      2.17      61.3     0.48      1020.5     0.8     SSE   159   2.1      SE   145   9.53    264      -58.2
   01/17/2018 20:50      59.0      58.0       49     39.1      0.00      2.17      61.2     0.48      1020.5     1.2     SSE   150   2.7      SE   140   9.53    264      -58.3
   01/17/2018 20:40      59.3      58.7       46     38.6      0.00      2.17      61.2     0.48      1020.4     0.6     SSE   159   1.5      SE   145   9.54    264      -58.9
   01/17/2018 20:30      59.9      59.0       46     38.8      0.00      2.17      61.2     0.48      1020.4     1.0     SSE   149   1.9      SE   138   9.54    264      -60.1
   01/17/2018 20:20      60.2      59.6       45     38.5      0.00      2.17      61.2     0.48      1020.3     1.2      SE   144   1.9     SSE   147   9.54    264      -59.9
   01/17/2018 20:10      60.1      59.4       45     38.6      0.00      2.17      61.2     0.48      1020.1     1.1     SSE   169   2.2       S   180   9.54    264      -59.9
   01/17/2018 20:00      60.5      59.3       47     39.3      0.00      2.17      61.2     0.48      1020.0     1.2     SSE   157   2.5      SE   144   9.54    264      -61.1
   01/17/2018 19:50      61.0      60.2       45     38.9      0.00      2.17      61.1     0.48      1019.9     1.6     SSE   152   3.8      SE   141   9.54    264      -61.6
   01/17/2018 19:40      61.6      60.7       43     38.6      0.00      2.17      61.1     0.48      1019.9     0.9      SE   143   2.3     SSW   206   9.54    264      -61.7
   01/17/2018 19:30      61.6      61.0       42     38.2      0.00      2.17      61.1     0.48      1019.8     1.1     SSE   158   2.0     SSE   150   9.54    263      -61.3
   01/17/2018 19:20      62.2      61.3       42     38.3      0.00      2.17      61.0     0.48      1019.8     1.2     SSE   155   2.7      SE   144   9.54    263      -61.4
   01/17/2018 19:10      62.9      61.9       41     38.1      0.00      2.17      61.0     0.48      1019.8     1.4     SSE   148   2.8      SE   137   9.55    263      -61.5
   01/17/2018 19:00      62.7      62.2       39     37.3      0.00      2.17      61.0     0.48      1019.9     1.0     SSE   163   1.7     SSW   212   9.55    263      -62.6
   01/17/2018 18:50      63.7      62.6       39     38.0      0.00      2.17      61.0     0.48      1019.7     0.9     SSE   153   2.2      SE   141   9.55    263      -64.3
   01/17/2018 18:40      64.3      63.4       37     37.1      0.00      2.17      61.0     0.48      1019.7     2.1       S   170   3.5      SE   140   9.55    263      -64.3
   01/17/2018 18:30      64.9      63.8       37     37.8      0.00      2.17      60.9     0.48      1019.7     1.3     SSE   160   2.1      SE   143   9.55    263      -65.5
   01/17/2018 18:20      66.3      64.4       36     37.5      0.00      2.17      60.9     0.48      1019.7     1.0     SSE   165   2.4       S   175   9.55    263      -66.7
   01/17/2018 18:10      67.4      65.8       33     36.6      0.00      2.17      60.9     0.48      1019.8     1.2       S   175   2.6     SSE   151   9.56    262      -67.5
   01/17/2018 18:00      67.4      66.8       32     36.0      0.00      2.17      60.9     0.48      1019.8     1.0     SSW   197   2.4     WSW   242   9.56    262      -68.7
   01/17/2018 17:50      68.2      66.8       32     36.6      0.00      2.17      60.8     0.48      1019.9     0.8       S   172   2.8     SSW   200   9.56    262      -70.9
   01/17/2018 17:40      68.7      67.8       31     36.2      0.00      2.17      60.8     0.48      1019.9     0.9     SSE   168   2.6       S   172   9.56    262      -72.6
   01/17/2018 17:30      72.7      68.5       29     36.2      0.00      2.17      60.8     0.48      1019.8     1.3       S   172   2.3       S   186   9.56    262      -74.5
   01/17/2018 17:20      73.6      72.4       24     34.0      0.00      2.17      60.7     0.48      1019.7     0.8      SE   136   2.2     ESE   108   9.57    261      -76.4
   01/17/2018 17:10      75.0      73.2       23     33.7      0.00      2.17      60.7     0.48      1019.6     2.1     WSW   240   5.1      NE    38   9.57    262      -74.7
   01/17/2018 17:00      75.8      74.8       21     33.1      0.00      2.17      60.6     0.48      1019.6     0.6     WNW   302   2.3       W   280   9.57    261      -73.9
   01/17/2018 16:50      76.3      75.5       21     32.7      0.00      2.17      60.6     0.48      1019.7     3.6      NW   319   7.0     NNW   341   9.57    261      -71.3
   01/17/2018 16:40      76.6      76.0       20     32.5      0.00      2.17      60.6     0.48      1019.8     5.0     NNW   341   8.0       W   266   9.57    261      -64.6
   01/17/2018 16:30      77.1      76.3       20     33.0      0.00      2.17      60.5     0.48      1019.8     5.4       N     7  10.3     NNE    33   9.57    261      -47.9
   01/17/2018 16:20      77.7      76.7       20     33.5      0.00      2.17      60.5     0.48      1019.8     4.8       N     2  14.1     NNW   344   9.58    261      -37.0
   01/17/2018 16:10      78.1      77.3       20     34.0      0.00      2.17      60.5     0.47      1019.8     3.6       N   351   7.6      NW   326   9.58    261      -15.2
   01/17/2018 16:00      78.4      77.6       20     34.2      0.00      2.17      60.4     0.47      1019.8     4.1     NNE    13   8.2       N     0   9.58    261       10.8
   01/17/2018 15:50      78.9      78.2       20     34.4      0.00      2.17      60.4     0.48      1019.7     4.9       N     9   8.1      NE    39   9.58    261       40.9
   01/17/2018 15:40      79.2      78.5       20     34.4      0.00      2.17      60.4     0.47      1019.7     4.0       N     6   8.5     NNE    25   9.58    261       61.1
   01/17/2018 15:30      79.1      78.7       20     34.5      0.00      2.17      60.4     0.47      1019.6     3.2       N   355   7.0     NNW   331   9.59    261       75.6
   01/17/2018 15:20      79.0      78.4       20     34.2      0.00      2.17      60.3     0.47      1019.7     5.0     NNE    12   9.0     NNE    15   9.59    260      101.1
   01/17/2018 15:10      79.3      78.5       20     33.9      0.00      2.17      60.3     0.47      1019.7     5.6     NNE    21   9.6     NNE    17   9.59    261      119.3
   01/17/2018 15:00      79.6      78.8       20     34.8      0.00      2.17      60.3     0.47      1019.7     5.1     NNE    16   9.7     NNE    25   9.59    260      132.5
   01/17/2018 14:50      79.6      78.8       20     34.8      0.00      2.17      60.2     0.47      1019.7     3.7     NNE    15   7.8       N   354   9.59    260      167.1
   01/17/2018 14:40      79.8      78.7       20     34.2      0.00      2.17      60.2     0.47      1019.8     3.7     NNE    15   6.3     NNW   335   9.59    261       66.9
   01/17/2018 14:30      80.7      79.5       19     33.9      0.00      2.17      60.2     0.47      1019.8     2.6     NNE    23   8.0     NNE    16   9.60    261       64.4
   01/17/2018 14:20      80.3      79.6       19     33.9      0.00      2.17      60.1     0.47      1019.8     2.9       N   353   5.6       N     9   9.60    260      205.6
   01/17/2018 14:10      79.8      79.3       19     34.2      0.00      2.17      60.1     0.47      1019.8     4.0       N     9   7.7     NNW   337   9.60    261      234.6
   01/17/2018 14:00      80.0      79.2       19     34.0      0.00      2.17      60.1     0.47      1019.9     4.6     NNE    19   9.1     NNE    29   9.60    260      263.2
   01/17/2018 13:50      79.9      79.2       19     33.8      0.00      2.17      60.0     0.47      1019.9     3.7       N   357   8.5     NNE    32   9.60    260      270.9
   01/17/2018 13:40      79.6      78.9       19     33.7      0.00      2.17      60.0     0.47      1020.0     3.8     NNE    22   8.4      NE    42   9.60    261      273.8
   01/17/2018 13:30      79.6      78.6       20     34.0      0.00      2.17      60.0     0.47      1020.1     3.9       N   351   8.9     NNE    28   9.60    261      284.6
   01/17/2018 13:20      79.5      78.4       20     34.4      0.00      2.17      60.0     0.47      1020.2     3.7     NNE    18   7.9     NNE    19   9.60    260      285.3
   01/17/2018 13:10      78.7      78.2       20     33.8      0.00      2.17      60.0     0.47      1020.3     4.8     NNE    30   8.1      NE    51   9.60    261      305.9
   01/17/2018 13:00      78.5      78.0       20     33.6      0.00      2.17      60.0     0.47      1020.5     5.1     NNE    28   9.4      NE    52   9.60    261      312.7
   01/17/2018 12:50      78.7      77.9       20     33.4      0.00      2.17      59.9     0.47      1020.6     4.2     NNE    20   7.9      NE    43   9.60    261      314.4
   01/17/2018 12:40      78.5      78.0       20     33.3      0.00      2.17      59.9     0.47      1020.8     4.2     NNE    26   9.3       N     7   9.60    261      318.3
   01/17/2018 12:30      78.4      77.4       21     34.5      0.00      2.17      60.0     0.47      1020.9     3.4       N     9   6.8     NNW   344   9.60    261      334.4
   01/17/2018 12:20      78.0      77.0       21     34.7      0.00      2.17      59.9     0.47      1021.1     3.7     NNE    25   8.9     NNE    13   9.60    261      321.5
   01/17/2018 12:10      77.6      76.8       21     34.2      0.00      2.17      59.9     0.47      1021.2     3.8     NNE    18   8.7      NE    50   9.60    261      270.0
   01/17/2018 12:00      78.2      77.4       22     36.1      0.00      2.17      59.9     0.47      1021.3     2.1       N   355   4.9     NNW   345   9.60    262      207.5
   01/17/2018 11:50      77.9      77.3       23     36.8      0.00      2.17      59.9     0.47      1021.4     1.7       W   274   4.5     WNW   283   9.60    261      272.0
   01/17/2018 11:40      77.5      76.6       24     37.2      0.00      2.17      59.9     0.47      1021.5     1.0     NNE    19   3.0      NE    51   9.60    262      259.5
   01/17/2018 11:30      77.0      75.2       24     37.1      0.00      2.17      59.9     0.47      1021.7     0.9     NNW   340   3.2      NE    36   9.60    262      247.2
   01/17/2018 11:20      76.5      74.9       25     36.9      0.00      2.17      60.0     0.47      1021.8     2.0       N     6   6.4       N    10   9.60    262      252.4
   01/17/2018 11:10      76.5      75.4       25     37.8      0.00      2.17      60.0     0.47      1022.0     0.6       E    81   2.0       N     4   9.60    262      217.4
   01/17/2018 11:00      76.6      75.3       26     38.5      0.00      2.17      60.0     0.47      1022.0     0.9     NNE    13   3.2      NE    41   9.60    262      258.8
   01/17/2018 10:50      75.4      74.3       27     38.2      0.00      2.17      60.0     0.47      1022.0     1.2     ENE    73   2.6       E    83   9.60    262      313.9
   01/17/2018 10:40      74.9      73.7       27     38.2      0.00      2.17      60.1     0.47      1022.2     1.7       E    87   4.3      SE   142   9.60    262      333.1
   01/17/2018 10:30      75.0      74.2       29     40.4      0.00      2.17      60.0     0.47      1022.4     0.8      NE    38   2.1     NNE    30   9.61    263      315.0
   01/17/2018 10:20      74.9      71.9       31     40.6      0.00      2.17      60.1     0.47      1022.4     0.1     ENE    61   1.2       N     8   9.60    263      287.9
   01/17/2018 10:10      71.7      70.9       33     40.8      0.00      2.17      60.1     0.47      1022.4     0.4     NNE    26   1.4     NNE    16   9.60    264      255.1
   01/17/2018 10:00      70.9      70.1       34     40.9      0.00      2.17      60.1     0.47      1022.4     0.7     ESE   112   2.4      SE   137   9.60    264      220.1
   01/17/2018 09:50      70.3      68.8       36     41.4      0.00      2.17      60.1     0.47      1022.5     0.3      SE   129   1.1      SE   139   9.60    264      199.8
   01/17/2018 09:40      68.8      67.3       38     41.4      0.00      2.17      60.2     0.47      1022.5     0.0       W   260   0.7       W   263   9.60    264      154.5
   01/17/2018 09:30      67.4      66.2       42     43.3      0.00      2.17      60.2     0.47      1022.5     0.3     NNW   336   1.3     NNW   344   9.60    265      191.9
   01/17/2018 09:20      66.3      64.1       47     44.6      0.00      2.17      60.2     0.47      1022.4     0.0     NNE    24   0.3     NNE    21   9.60    265      199.7
   01/17/2018 09:10      64.3      60.6       53     44.8      0.00      2.17      60.2     0.48      1022.3     0.0       N     0   0.0     NNE    26   9.60    266      166.6
   01/17/2018 09:00      60.7      60.0       56     44.6      0.00      2.17      60.3     0.48      1022.3     0.6       N     0   2.1     NNW   336   9.60    266      103.7
   01/17/2018 08:50      60.2      59.4       57     44.5      0.00      2.17      60.3     0.48      1022.1     0.6     NNW   340   1.5     NNW   336   9.60    266       96.6
   01/17/2018 08:40      59.5      57.5       59     44.2      0.00      2.17      60.3     0.48      1022.0     0.0     SSE   152   0.4     SSE   152   9.60    266       96.8
   01/17/2018 08:30      57.8      56.3       61     43.5      0.00      2.17      60.3     0.48      1022.0     0.2      SE   143   1.1      SE   136   9.60    266       79.8
   01/17/2018 08:20      56.5      53.0       67     44.1      0.00      2.17      60.4     0.48      1021.9     0.0       N     0   0.0      SE   134   9.60    266       82.9
   01/17/2018 08:10      53.2      52.1       70     43.0      0.00      2.17      60.4     0.48      1021.9     0.5      SE   126   1.4      SE   136   9.60    267       29.7
   01/17/2018 08:00      52.4      50.8       73     43.4      0.00      2.17      60.4     0.48      1022.0     0.0       E    86   0.0       E    86   9.44    268      -10.8
   01/17/2018 07:50      50.9      48.7       76     42.4      0.00      2.17      60.4     0.48      1021.9     0.4     SSE   164   1.2       S   176   9.12    268      -16.2
   01/17/2018 07:40      48.9      47.3       80     42.0      0.00      2.17      60.4     0.48      1021.8     0.2      SE   141   0.9     SSE   152   9.12    268      -18.3
   01/17/2018 07:30      47.6      47.0       81     41.6      0.00      2.17      60.4     0.48      1021.6     0.7     SSW   204   1.4       S   184   9.12    269      -20.6
   01/17/2018 07:20      47.6      47.2       80     41.6      0.00      2.17      60.4     0.48      1021.5     0.3       E    99   1.6      SE   138   9.12    269      -24.1
   01/17/2018 07:10      47.6      46.8       81     41.7      0.00      2.17      60.5     0.48      1021.3     1.0       E    81   2.2     NNW   334   9.12    270      -26.6
   01/17/2018 07:00      47.0      46.4       83     41.7      0.00      2.17      60.5     0.48      1021.3     0.9       S   170   3.3     SSE   161   9.12    275      -29.3
   01/17/2018 06:50      46.8      46.3       83     41.7      0.00      2.17      60.5     0.48      1021.2     0.7       S   179   1.8       S   173   9.12    279      -30.7
   01/17/2018 06:40      47.1      46.5       83     41.9      0.00      2.17      60.5     0.48      1021.1     0.5     SSE   151   1.5       S   183   9.12    281      -31.3
   01/17/2018 06:30      47.3      46.8       83     42.1      0.00      2.17      60.5     0.48      1021.0     0.5     SSE   150   1.9      SE   135   9.12    281      -30.5
   01/17/2018 06:20      47.6      47.0       83     42.3      0.00      2.17      60.6     0.48      1020.8     0.6     SSE   159   2.0      SE   140   9.12    282      -29.0
   01/17/2018 06:10      47.6      46.8       84     42.6      0.00      2.17      60.6     0.48      1020.6     0.9     SSW   207   1.9     SSW   213   9.12    283      -27.3
   01/17/2018 06:00      47.6      47.1       83     42.5      0.00      2.17      60.6     0.48      1020.4     0.1      NE    39   1.2     NNW   347   9.12    285      -27.2
   01/17/2018 05:50      47.9      47.3       83     42.8      0.00      2.17      60.6     0.48      1020.3     0.6     SSE   152   1.9       E    91   9.12    285      -27.0
   01/17/2018 05:40      48.1      47.6       84     43.2      0.00      2.17      60.6     0.48      1020.2     0.5       S   172   2.0       S   181   9.12    286      -26.6
   01/17/2018 05:30      48.0      47.2       86     43.6      0.00      2.17      60.7     0.48      1020.1     0.9     WSW   241   2.0     WSW   254   9.12    287      -25.0
   01/17/2018 05:20      47.3      46.8       87     43.4      0.00      2.17      60.7     0.48      1020.0     0.7     SSE   169   1.6       S   174   9.12    288      -22.9
   01/17/2018 05:10      47.3      46.8       87     43.5      0.00      2.17      60.7     0.48      1020.0     0.4       S   174   1.1       S   170   9.12    288      -24.3
   01/17/2018 05:00      47.6      47.0       87     43.6      0.00      2.17      60.7     0.48      1020.0     0.4      SE   128   2.5     SSW   195   9.12    287      -26.5
   01/17/2018 04:50      47.7      47.0       87     43.6      0.00      2.17      60.8     0.48      1020.0     1.0     SSW   193   2.6     SSW   214   9.12    288      -27.1
   01/17/2018 04:40      47.7      47.3       88     44.0      0.00      2.17      60.7     0.48      1020.0     0.4       S   170   1.6       S   189   9.12    287      -27.7
   01/17/2018 04:30      48.1      47.5       88     44.4      0.00      2.17      60.8     0.48      1020.0     0.6     SSW   199   2.0       E    82   9.12    286      -28.4
   01/17/2018 04:20      47.8      47.3       88     44.2      0.00      2.17      60.8     0.48      1020.0     0.5     WSW   256   1.6     SSW   205   9.13    286      -29.1
   01/17/2018 04:10      48.1      47.3       88     44.3      0.00      2.17      60.8     0.48      1020.0     0.8     SSE   148   2.7      SE   145   9.13    285      -29.7
   01/17/2018 04:00      48.2      47.6       88     44.5      0.00      2.17      60.8     0.48      1020.1     0.0     SSE   150   0.6     SSE   147   9.13    284      -30.8
   01/17/2018 03:50      48.6      47.9       88     44.9      0.00      2.17      60.8     0.48      1020.2     0.6      SE   146   2.3     SSE   151   9.13    283      -31.3
   01/17/2018 03:40      48.4      47.9       89     45.0      0.00      2.17      60.8     0.48      1020.3     0.5     SSW   193   1.3     SSW   206   9.13    281      -32.6
   01/17/2018 03:30      48.7      48.1       88     44.9      0.00      2.17      60.9     0.48      1020.4     0.7     SSE   161   1.5       S   178   9.13    279      -34.5
   01/17/2018 03:20      48.9      48.3       88     45.0      0.00      2.17      60.9     0.48      1020.4     0.3       S   175   1.2       S   174   9.13    278      -37.1
   01/17/2018 03:10      48.9      48.5       87     45.0      0.00      2.17      60.9     0.48      1020.4     0.2     SSW   191   0.9     WSW   242   9.13    276      -39.3
   01/17/2018 03:00      49.4      48.7       87     45.2      0.00      2.17      60.9     0.48      1020.4     0.3     SSE   167   0.9      SE   146   9.13    274      -40.9
   01/17/2018 02:50      49.4      48.7       87     45.2      0.00      2.17      60.9     0.48      1020.4     0.4       S   170   1.2       S   170   9.13    273      -43.3
   01/17/2018 02:40      49.5      48.9       86     45.1      0.00      2.17      60.9     0.48      1020.5     0.5     SSE   151   1.8       S   186   9.13    272      -45.9
   01/17/2018 02:30      49.7      49.2       86     45.4      0.00      2.17      60.9     0.48      1020.5     0.2     SSW   207   0.9     SSW   210   9.13    271      -47.8
   01/17/2018 02:20      49.8      49.4       86     45.4      0.00      2.17      61.0     0.48      1020.5     0.2     WSW   244   0.9     WNW   300   9.13    270      -49.8
   01/17/2018 02:10      50.1      49.5       85     45.5      0.00      2.17      60.9     0.48      1020.5     0.1      SE   140   1.0     NNE    32   9.13    269      -52.6
   01/17/2018 02:00      50.3      49.7       84     45.4      0.00      2.17      61.0     0.48      1020.6     0.6      SE   145   1.8      SE   140   9.13    268      -54.8
   01/17/2018 01:50      50.5      50.0       84     45.5      0.00      2.17      61.0     0.48      1020.7     0.4     SSE   160   1.4      SW   223   9.13    268      -54.6
   01/17/2018 01:40      50.8      50.2       84     45.6      0.00      2.17      61.0     0.48      1020.6     0.6     SSW   209   1.4     SSW   201   9.13    268      -54.5
   01/17/2018 01:30      50.8      50.3       84     45.7      0.00      2.17      61.0     0.48      1020.6     0.1       W   261   0.8     WNW   291   9.13    268      -54.5
   01/17/2018 01:20      51.0      50.3       83     45.6      0.00      2.17      61.0     0.48      1020.7     0.0       N     0   0.0       S   189   9.13    268      -54.5
   01/17/2018 01:10      51.5      50.7       82     45.8      0.00      2.17      61.0     0.48      1020.7     0.5     SSE   162   1.3     SSE   156   9.13    268      -55.6
   01/17/2018 01:00      51.8      51.2       81     46.0      0.00      2.17      61.0     0.48      1020.8     0.4     ENE    62   1.5     NNW   344   9.13    267      -54.2
   01/17/2018 00:50      52.0      51.4       81     46.0      0.00      2.17      61.0     0.48      1020.8     0.5       S   181   1.6     SSW   198   9.13    267      -51.2
   01/17/2018 00:40      52.4      51.7       80     46.0      0.00      2.17      61.0     0.48      1020.9     0.4     SSE   152   1.3      SE   142   9.13    267      -50.8
   01/17/2018 00:30      52.5      52.1       80     46.2      0.00      2.17      61.1     0.48      1021.1     0.2     SSE   167   0.9     SSE   157   9.13    267      -51.2
   01/17/2018 00:20      52.9      52.1       79     46.2      0.00      2.17      61.1     0.48      1021.1     0.1     SSE   165   0.6     SSE   151   9.13    267      -49.5
   01/17/2018 00:10      52.9      52.5       79     46.4      0.00      2.17      61.1     0.48      1021.1     0.0       N     0   0.0     SSW   201   9.13    267      -47.8
   01/17/2018 00:00      53.0      52.5       78     46.2      0.00      2.17      61.1     0.48      1021.2     0.3      SW   230   0.9      SW   225   9.13    267      -46.6
   01/16/2018 23:50      53.5      52.7       77     46.2      0.00      2.17      61.0     0.48      1021.3     0.3      SE   136   1.0       S   176   9.13    267      -46.8
   01/16/2018 23:40      53.5      53.0       78     46.5      0.00      2.17      61.1     0.48      1021.4     0.2       S   191   0.8       S   171   9.13    267      -44.3
   01/16/2018 23:30      53.3      52.9       78     46.5      0.00      2.17      61.1     0.48      1021.4     0.6       S   189   1.7       S   190   9.13    267      -46.5
   01/16/2018 23:20      53.3      53.0       78     46.6      0.00      2.17      61.1     0.48      1021.4     0.7     SSE   150   1.8      SE   137   9.14    267      -52.6
   01/16/2018 23:10      53.6      52.7       78     46.5      0.00      2.17      61.1     0.48      1021.3     0.6       S   173   1.5     SSE   152   9.14    267      -53.6
   01/16/2018 23:00      53.8      53.3       77     46.5      0.00      2.17      61.1     0.48      1021.5     0.7     SSE   150   1.7     SSE   149   9.14    266      -53.4
   01/16/2018 22:50      54.0      53.4       77     46.5      0.00      2.17      61.1     0.48      1021.4     0.5     SSW   207   1.4     WSW   253   9.14    266      -51.9
   01/16/2018 22:40      54.3      53.7       76     46.6      0.00      2.17      61.1     0.48      1021.4     1.0     SSE   152   2.2      SE   138   9.14    266      -51.8
   01/16/2018 22:30      54.4      53.9       75     46.5      0.00      2.17      61.1     0.48      1021.3     0.6       S   182   1.5       S   186   9.14    266      -52.5
   01/16/2018 22:20      54.8      54.1       75     46.6      0.00      2.17      61.1     0.48      1021.1     0.3       S   173   1.1     SSE   163   9.14    266      -53.3
   01/16/2018 22:10      55.0      54.5       74     46.6      0.00      2.17      61.1     0.48      1021.1     0.7     SSE   164   1.2     SSE   154   9.14    266      -53.1
   01/16/2018 22:00      55.5      54.6       73     46.6      0.00      2.17      61.1     0.48      1021.0     0.6       S   189   1.7      SE   136   9.14    266      -52.9
   01/16/2018 21:50      55.4      54.9       73     46.5      0.00      2.17      61.1     0.48      1020.9     1.3     SSE   152   2.4      SE   137   9.14    266      -53.4
   01/16/2018 21:40      55.9      55.1       72     46.5      0.00      2.17      61.1     0.48      1021.0     0.9     SSW   203   2.3      SW   219   9.14    266      -52.6
   01/16/2018 21:30      56.1      55.6       71     46.5      0.00      2.17      61.1     0.48      1021.0     0.4      SE   136   1.1       S   190   9.14    266      -51.5
   01/16/2018 21:20      56.4      55.8       71     46.6      0.00      2.17      61.0     0.48      1020.9     0.5     SSE   161   1.0       S   173   9.14    266      -50.3
   01/16/2018 21:10      56.8      56.1       70     46.7      0.00      2.17      61.0     0.48      1020.9     0.6     SSE   152   1.3      SE   142   9.14    266      -54.0
   01/16/2018 21:00      57.0      56.4       69     46.6      0.00      2.17      61.0     0.48      1020.8     1.5     SSW   210   3.4      SW   217   9.14    266      -55.1
   01/16/2018 20:50      57.0      56.4       69     46.7      0.00      2.17      61.0     0.48      1020.8     0.7     SSE   161   1.4      SE   131   9.14    266      -55.0
   01/16/2018 20:40      57.7      56.7       68     46.7      0.00      2.17      61.0     0.48      1020.7     0.7     SSE   154   1.8       S   187   9.14    266      -53.4
   01/16/2018 20:30      58.5      57.4       66     46.5      0.00      2.17      61.0     0.48      1020.7     1.3     SSW   203   2.7     SSW   212   9.14    266      -54.0
   01/16/2018 20:20      58.9      58.2       65     46.7      0.00      2.17      61.0     0.48      1020.6     0.4     SSE   152   1.9     SSW   201   9.14    266      -56.5
   01/16/2018 20:10      59.4      58.5       64     46.7      0.00      2.17      61.0     0.48      1020.4     1.1     SSE   164   2.1      SE   133   9.15    266      -57.5
   01/16/2018 20:00      60.5      59.1       62     46.7      0.00      2.17      61.0     0.48      1020.3     1.7     SSW   207   3.0      SW   231   9.15    266      -59.9
   01/16/2018 19:50      61.2      60.2       60     46.8      0.00      2.17      60.9     0.48      1020.1     1.1      SE   136   3.0     SSW   194   9.15    266      -62.2
   01/16/2018 19:40      61.5      60.8       60     46.9      0.00      2.17      60.9     0.48      1020.0     2.4      SW   225   3.8     SSW   212   9.15    266      -55.1
   01/16/2018 19:30      62.7      61.3       58     46.8      0.00      2.17      60.9     0.48      1020.0     0.9     ENE    73   2.2     ENE    64   9.15    265      -42.4
   01/16/2018 19:20      63.6      62.3       55     46.6      0.00      2.17      60.9     0.48      1020.1     0.0      SW   222   0.7     SSW   204   9.15    265      -38.1
   01/16/2018 19:10      64.2      63.2       54     46.6      0.00      2.17      60.9     0.48      1020.1     0.7       S   188   2.2      SW   230   9.15    265      -39.6
   01/16/2018 19:00      64.0      63.3       54     46.6      0.00      2.17      60.8     0.48      1020.0     1.9      SW   217   4.6      SW   236   9.15    265      -35.7
   01/16/2018 18:50      63.6      62.8       56     47.1      0.00      2.17      60.8     0.48      1020.1     2.0     SSW   200   2.7     SSW   203   9.15    265      -34.3
   01/16/2018 18:40      63.0      61.6       61     48.5      0.00      2.17      60.8     0.48      1020.0     2.0      SW   215   3.0     SSW   212   9.15    265      -38.1
   01/16/2018 18:30      62.4      61.7       62     48.8      0.00      2.17      60.8     0.48      1019.8     1.2     SSW   207   2.2     SSW   209   9.15    265      -40.6
   01/16/2018 18:20      62.6      61.9       62     49.0      0.00      2.17      60.7     0.48      1019.8     0.4       S   185   2.3       S   188   9.15    265      -38.9
   01/16/2018 18:10      63.5      62.4       60     48.7      0.00      2.17      60.7     0.48      1019.7     1.1     SSW   199   2.3     SSW   212   9.15    265      -40.1
   01/16/2018 18:00      64.0      63.1       59     48.9      0.00      2.17      60.7     0.48      1019.6     1.2      SW   235   1.7      SW   232   9.15    265      -40.0
   01/16/2018 17:50      64.5      63.6       58     48.7      0.00      2.17      60.6     0.48      1019.4     0.6     SSW   213   1.4      SW   230   9.15    265      -39.8
   01/16/2018 17:40      65.2      64.2       56     48.7      0.00      2.17      60.6     0.48      1019.3     0.2      SW   222   0.9      SW   220   9.15    264      -45.6
   01/16/2018 17:30      66.2      64.9       54     48.7      0.00      2.17      60.5     0.48      1019.2     0.2     SSW   196   0.9     SSW   213   9.15    264      -53.2
   01/16/2018 17:20      67.1      65.9       53     48.6      0.00      2.17      60.6     0.48      1019.2     0.1      SW   220   0.9      SW   225   9.16    264      -50.2
   01/16/2018 17:10      67.5      66.7       51     48.2      0.00      2.17      60.5     0.48      1019.2     0.0     ENE    79   0.5     ENE    63   9.16    263      -44.0
   01/16/2018 17:00      67.8      67.2       47     46.2      0.00      2.17      60.5     0.48      1019.2     0.0       N     0   0.0      SE   126   9.16    263      -40.5
   01/16/2018 16:50      68.7      67.5       43     44.3      0.00      2.17      60.5     0.48      1019.3     0.2      SE   128   1.6     ESE   101   9.16    263      -36.6
   01/16/2018 16:40      70.1      68.3       38     42.1      0.00      2.17      60.4     0.48      1019.4     0.0      SE   139   0.7      SE   138   9.16    263      -32.8
   01/16/2018 16:30      71.3      69.7       35     41.5      0.00      2.17      60.4     0.48      1019.3     0.2      SE   143   0.9     SSE   150   9.16    263      -34.2
   01/16/2018 16:20      72.3      71.0       33     41.2      0.00      2.17      60.4     0.48      1019.2     0.3       S   176   1.2       S   183   9.16    263      -30.3
   01/16/2018 16:10      72.6      72.0       30     39.5      0.00      2.17      60.3     0.48      1019.2     1.0     NNE    25   2.4      NW   325   9.16    262      -12.5
   01/16/2018 16:00      72.7      72.2       31     40.3      0.00      2.17      60.3     0.48      1019.1     0.2      NE    50   1.1      NE    52   9.16    262       11.8
   01/16/2018 15:50      73.1      72.3       30     39.4      0.00      2.17      60.3     0.48      1019.0     0.2      NE    45   1.0     ENE    57   9.16    262        0.0
   01/16/2018 15:40      73.7      72.7       28     38.6      0.00      2.17      60.3     0.48      1018.9     0.4       E    99   1.6     ENE    67   9.16    262       -2.2
   01/16/2018 15:30      74.8      73.5       28     38.5      0.00      2.17      60.2     0.48      1018.9     0.9       E    86   2.1       E    79   9.16    262       16.9
   01/16/2018 15:20      75.4      74.7       27     38.5      0.00      2.17      60.2     0.48      1019.2     0.5      NE    54   1.9       E    93   9.16    261       62.3
   01/16/2018 15:10      75.9      74.8       27     38.8      0.00      2.17      60.1     0.48      1019.2     0.8     ENE    61   2.0       N    10   9.16    261      142.6
   01/16/2018 15:00      75.7      74.8       26     37.9      0.00      2.17      60.1     0.48      1019.1     0.4      NE    34   1.5      NW   324   9.16    261      132.7
   01/16/2018 14:50      74.9      73.6       26     37.3      0.00      2.17      60.1     0.48      1019.1     0.6     NNW   340   1.4     NNW   346   9.16    261      173.6
   01/16/2018 14:40      74.0      73.2       27     37.4      0.00      2.17      60.1     0.48      1019.0     0.7     ESE   118   1.8     ESE   116   9.16    261      118.0
   01/16/2018 14:30      73.6      72.7       28     37.9      0.00      2.17      60.0     0.48      1018.9     0.8     ENE    69   2.2     ESE   121   9.17    262      106.5
   01/16/2018 14:20      73.2      72.4       28     38.0      0.00      2.17      60.0     0.48      1019.2     0.8      NE    39   2.7     NNE    31   9.17    262       70.5
   01/16/2018 14:10      73.7      72.7       29     38.7      0.00      2.17      60.0     0.48      1019.1     1.5     NNE    23   2.9     NNE    18   9.16    262       95.5
   01/16/2018 14:00      74.1      73.2       29     39.2      0.00      2.17      60.0     0.48      1019.2     1.2      NW   319   3.2      NW   305   9.16    262       98.9
   01/16/2018 13:50      74.0      73.6       29     39.2      0.00      2.17      60.0     0.48      1019.1     0.9     NNW   335   2.2     NNW   347   9.16    261      130.7
   01/16/2018 13:40      74.7      73.2       28     38.8      0.00      2.17      60.0     0.48      1019.3     1.6       S   172   4.0     SSW   198   9.17    261      211.8
   01/16/2018 13:30      74.6      72.6       29     39.3      0.00      2.17      59.9     0.48      1019.5     0.8     WSW   239   2.2      SW   231   9.17    261      244.7
   01/16/2018 13:20      72.8      71.9       30     39.3      0.00      2.17      59.9     0.48      1019.6     0.9      NE    55   3.2     ESE   106   9.17    262      132.0
   01/16/2018 13:10      72.4      71.3       31     39.5      0.00      2.17      59.9     0.48      1019.7     1.3      NE    55   3.2      SE   139   9.17    261      209.2
   01/16/2018 13:00      72.0      71.5       31     39.4      0.00      2.17      59.9     0.48      1019.8     1.5       E    80   3.3      SE   130   9.17    261      268.7
   01/16/2018 12:50      72.4      71.4       31     39.6      0.00      2.17      59.9     0.48      1019.7     0.9     ENE    64   3.1     ENE    63   9.17    263      132.6
   01/16/2018 12:40      72.5      71.6       31     39.8      0.00      2.17      59.9     0.48      1019.8     1.4      NE    49   3.2      NE    48   9.17    262      232.3
   01/16/2018 12:30      71.9      70.3       32     39.9      0.00      2.17      59.9     0.48      1020.0     1.0      NE    45   2.5     NNE    28   9.17    263      236.2
   01/16/2018 12:20      71.3      70.7       32     39.3      0.00      2.17      59.9     0.48      1020.3     1.1     ENE    66   2.7       E    97   9.17    262      131.0
   01/16/2018 12:10      71.3      70.4       32     39.4      0.00      2.17      59.9     0.48      1020.5     1.6     ESE   105   4.7     ESE   103   9.17    262      304.4
   01/16/2018 12:00      70.7      69.9       33     39.9      0.00      2.17      59.9     0.48      1020.6     1.4      NE    39   3.2     ENE    56   9.17    262      316.4
   01/16/2018 11:50      70.6      69.5       34     40.2      0.00      2.17      59.9     0.48      1020.7     1.0     ENE    77   3.2     ENE    73   9.17    263      233.2
   01/16/2018 11:40      70.1      68.8       34     40.4      0.00      2.17      59.9     0.48      1021.0     1.0     NNE    13   2.3     NNE    24   9.17    262      320.6
   01/16/2018 11:30      68.8      67.5       37     40.8      0.00      2.17      59.9     0.48      1021.2     0.5     NNE    28   2.0     NNE    24   9.17    263      204.6
   01/16/2018 11:20      67.7      66.8       39     41.2      0.00      2.17      59.9     0.48      1021.4     1.2     NNE    16   2.7     NNE    21   9.17    263      249.3
   01/16/2018 11:10      67.3      66.3       40     41.9      0.00      2.17      59.9     0.48      1021.4     1.7     NNE    16   3.6     NNE    34   9.17    263      210.8
   01/16/2018 11:00      66.8      65.9       42     42.6      0.00      2.17      60.0     0.48      1021.5     2.3     NNE    24   4.8     NNE    14   9.17    263      263.6
   01/16/2018 10:50      66.3      65.4       43     42.7      0.00      2.17      60.0     0.48      1021.5     1.7     NNE    12   2.7      NE    40   9.17    264      271.0
   01/16/2018 10:40      66.5      65.4       43     42.7      0.00      2.17      60.0     0.48      1021.4     1.8      NE    36   3.1      NE    45   9.17    264      249.3
   01/16/2018 10:30      65.9      64.3       44     42.6      0.00      2.17      60.0     0.48      1021.5     0.9     ENE    69   2.2      NE    54   9.17    264      236.9
   01/16/2018 10:20      65.2      64.0       44     41.8      0.00      2.17      60.0     0.48      1021.7     1.5     ESE   115   3.3     SSE   151   9.17    264      186.3
   01/16/2018 10:10      65.1      63.3       44     42.1      0.00      2.17      60.0     0.48      1022.0     0.6       E   101   2.8       E    83   9.17    264      208.9
   01/16/2018 10:00      63.5      61.1       49     42.8      0.00      2.17      60.0     0.48      1022.2     0.8     NNE    23   2.5       N     9   9.17    264      245.0
   01/16/2018 09:50      61.3      60.7       51     42.7      0.00      2.17      60.1     0.48      1022.0     1.2       N   357   2.4      NE    53   9.17    265      149.4
   01/16/2018 09:40      61.0      58.6       54     42.9      0.00      2.17      60.1     0.48      1021.8     0.4     NNE    31   1.6       N   352   9.17    265      147.0
   01/16/2018 09:30      58.8      57.6       57     42.9      0.00      2.17      60.1     0.48      1021.7     1.3     NNW   347   2.8       N   352   9.17    266      151.3
   01/16/2018 09:20      57.9      57.4       58     42.9      0.00      2.17      60.2     0.48      1021.5     1.4       N   351   2.8     NNW   345   9.17    266       78.7
   01/16/2018 09:10      57.6      56.2       60     43.1      0.00      2.17      60.2     0.48      1021.3     0.3      SW   233   1.7     SSW   199   9.17    266       70.6
   01/16/2018 09:00      56.4      55.7       61     42.7      0.00      2.17      60.2     0.48      1020.9     1.0     SSE   154   2.6     SSW   203   9.17    266       67.4
   01/16/2018 08:50      55.9      55.5       59     41.8      0.00      2.17      60.2     0.48      1021.1     1.3     NNE    31   4.0       W   266   9.17    266       51.0
   01/16/2018 08:40      55.8      54.5       62     42.6      0.00      2.17      60.2     0.48      1021.3     2.1       W   281   4.0     WSW   241   9.17    266       63.6
   01/16/2018 08:30      54.7      52.8       68     43.3      0.00      2.17      60.3     0.48      1021.0     1.6       W   278   3.2     WSW   257   9.17    266       92.8
   01/16/2018 08:20      53.0      51.3       72     43.5      0.00      2.17      60.3     0.48      1020.7     0.6      NW   323   1.6      NW   315   9.17    266       53.2
   01/16/2018 08:10      51.4      49.8       76     43.1      0.00      2.17      60.3     0.48      1020.8     0.3     SSW   192   1.0     WSW   250   9.17    267       36.7
   01/16/2018 08:00      50.0      48.8       78     42.7      0.00      2.17      60.3     0.48      1020.8     0.2      SW   229   1.2     WSW   250   9.17    267        6.1
   01/16/2018 07:50      49.1      48.3       79     42.4      0.00      2.17      60.3     0.48      1020.7     0.2     SSE   157   1.0      SE   141   9.17    267       -4.2
   01/16/2018 07:40      48.7      48.0       79     42.3      0.00      2.17      60.4     0.48      1020.8     0.6     SSE   148   2.5       W   267   9.17    267       -3.1
   01/16/2018 07:30      48.1      47.3       81     42.0      0.00      2.17      60.4     0.48      1020.5     1.1     WNW   301   2.5       W   273   9.17    267      -22.4
   01/16/2018 07:20      47.6      46.8       81     41.8      0.00      2.17      60.4     0.48      1020.3     0.5      SE   129   2.8      SE   134   9.17    267      -35.4
   01/16/2018 07:10      47.2      46.8       82     41.7      0.00      2.17      60.4     0.48      1020.3     1.6       S   169   2.8      SE   142   9.17    267      -40.1
   01/16/2018 07:00      47.3      46.8       81     41.4      0.00      2.17      60.5     0.48      1020.4     1.1       S   171   2.1       S   175   9.17    267      -46.1
   01/16/2018 06:50      47.5      47.0       80     41.5      0.00      2.17      60.5     0.48      1020.7     0.8     ENE    63   1.6     NNE    26   9.17    267      -44.4
   01/16/2018 06:40      47.5      47.0       80     41.4      0.00      2.17      60.5     0.48      1020.6     0.4     ESE   104   1.5     NNE    20   9.17    267      -46.9
   01/16/2018 06:30      47.4      46.9       81     41.5      0.00      2.17      60.5     0.48      1020.5     0.5     SSE   167   1.5       S   182   9.17    267      -50.6
   01/16/2018 06:20      47.3      46.8       82     41.6      0.00      2.17      60.5     0.48      1020.3     1.1     SSE   156   1.8      SE   134   9.17    267      -48.6
   01/16/2018 06:10      47.5      46.8       81     41.5      0.00      2.17      60.5     0.48      1020.5     0.9     SSE   164   1.9      SE   139   9.17    267      -51.3
   01/16/2018 06:00      47.8      47.1       81     41.7      0.00      2.17      60.5     0.48      1020.5     1.4      SE   146   2.0      SE   140   9.17    267      -56.5
   01/16/2018 05:50      47.7      47.3       80     41.7      0.00      2.17      60.5     0.48      1020.4     0.4      SW   226   1.4     SSW   192   9.17    267      -57.5
   01/16/2018 05:40      47.7      47.3       81     41.8      0.00      2.17      60.6     0.48      1020.0     0.2       N     3   1.2     NNE    14   9.17    267      -52.9
   01/16/2018 05:30      47.6      47.0       82     42.0      0.00      2.17      60.6     0.48      1019.7     0.9       N   359   1.9     NNE    29   9.17    267      -50.9
   01/16/2018 05:20      47.3      46.7       82     41.7      0.00      2.17      60.6     0.48      1019.6     0.8      SW   215   1.7     WSW   248   9.17    267      -45.4
   01/16/2018 05:10      47.3      46.8       82     41.6      0.00      2.17      60.6     0.48      1019.6     0.1     SSE   155   1.4      SE   144   9.17    267      -43.0
   01/16/2018 05:00      47.3      46.9       81     41.6      0.00      2.17      60.6     0.48      1020.0     0.2     SSE   167   1.3       S   179   9.17    267      -43.9
   01/16/2018 04:50      47.5      47.0       81     41.7      0.00      2.17      60.6     0.48      1020.0     0.0      SE   131   0.6      SE   130   9.17    267      -49.0
   01/16/2018 04:40      47.8      47.1       82     42.0      0.00      2.17      60.6     0.48      1020.0     0.8     SSE   156   1.8      SE   144   9.18    267      -54.4
   01/16/2018 04:30      48.8      47.4       80     42.0      0.00      2.17      60.7     0.48      1020.0     0.9     SSE   163   1.8     SSW   199   9.18    267      -57.0
   01/16/2018 04:20      48.8      48.3       79     42.4      0.00      2.17      60.7     0.48      1020.0     0.4     SSE   164   1.0     SSE   160   9.18    267      -58.5
   01/16/2018 04:10      48.6      48.1       80     42.5      0.00      2.17      60.7     0.48      1020.1     0.5      SW   214   1.4     SSW   213   9.18    267      -57.5
   01/16/2018 04:00      49.0      48.2       80     42.5      0.00      2.17      60.7     0.48      1019.9     0.5       S   171   1.3     SSW   212   9.18    267      -51.6
   01/16/2018 03:50      49.2      48.6       79     42.6      0.00      2.17      60.8     0.48      1019.9     0.4     SSW   211   1.3     SSW   205   9.18    267      -52.9
   01/16/2018 03:40      49.6      48.9       79     42.8      0.00      2.17      60.8     0.48      1019.9     0.2       S   180   0.8      SE   146   9.18    267      -53.9
   01/16/2018 03:30      49.5      48.7       79     43.0      0.00      2.17      60.8     0.48      1019.7     1.0       S   172   1.7      SE   139   9.18    266      -50.7
   01/16/2018 03:20      50.0      48.9       78     42.8      0.00      2.17      60.8     0.48      1019.9     0.2      SE   138   1.0      SE   134   9.18    266      -50.0
   01/16/2018 03:10      50.3      49.8       77     43.2      0.00      2.17      60.8     0.48      1020.3     0.0       S   171   0.5       S   172   9.18    266      -54.4
   01/16/2018 03:00      50.5      50.0       77     43.3      0.00      2.17      60.8     0.48      1020.3     0.3      NE    38   1.0      NE    36   9.18    266      -51.1
   01/16/2018 02:50      50.5      50.1       78     43.5      0.00      2.17      60.8     0.48      1020.6     0.7     ESE   111   2.5     SSE   151   9.18    266      -35.7
   01/16/2018 02:40      50.5      50.1       77     43.5      0.00      2.17      60.9     0.48      1020.7     0.5     SSE   150   1.6     SSE   149   9.18    266      -34.0
   01/16/2018 02:30      50.4      49.9       77     43.4      0.00      2.17      60.9     0.48      1020.7     0.5       S   180   1.6       S   188   9.18    266      -37.3
   01/16/2018 02:20      50.3      49.8       77     43.0      0.00      2.17      60.9     0.48      1020.6     0.8      SE   136   1.8      SE   138   9.18    266      -44.1
   01/16/2018 02:10      50.3      49.8       76     42.8      0.00      2.17      60.9     0.48      1020.6     0.7       S   186   1.8      SE   139   9.18    266      -47.4
   01/16/2018 02:00      50.1      49.7       77     43.0      0.00      2.17      60.9     0.48      1020.5     0.5       S   172   1.1     SSE   149   9.18    266      -49.1
   01/16/2018 01:50      50.3      49.7       77     43.0      0.00      2.17      60.9     0.48      1020.4     1.1     SSE   163   2.3       S   180   9.18    266      -49.9
   01/16/2018 01:40      50.1      49.7       78     43.1      0.00      2.17      60.9     0.48      1020.3     0.7     WSW   243   1.9     WSW   247   9.18    266      -50.1
   01/16/2018 01:30      50.5      49.7       77     43.1      0.00      2.17      60.9     0.48      1020.2     0.8     SSE   151   2.2      SE   144   9.18    266      -52.1
   01/16/2018 01:20      51.1      50.1       75     43.0      0.00      2.17      60.9     0.48      1020.2     0.4       S   172   0.9       S   175   9.18    266      -53.7
   01/16/2018 01:10      51.3      50.8       75     43.2      0.00      2.17      61.0     0.48      1020.3     0.7      SE   141   1.2      SE   135   9.18    266      -55.6
   01/16/2018 01:00      51.8      50.9       74     43.1      0.00      2.17      61.0     0.48      1020.3     0.5     SSE   166   1.2       S   171   9.18    266      -58.2
   01/16/2018 00:50      52.3      51.5       72     43.2      0.00      2.17      61.0     0.48      1020.4     0.3     SSE   158   1.1      SE   137   9.18    266      -59.4
   01/16/2018 00:40      53.0      52.0       70     42.9      0.00      2.17      61.0     0.48      1020.4     0.0       N     0   0.0     SSW   214   9.18    266      -59.1
   01/16/2018 00:30      53.0      52.5       69     43.0      0.00      2.17      61.0     0.48      1020.3     0.7     SSW   192   1.7     SSW   202   9.18    266      -57.9
   01/16/2018 00:20      54.2      52.7       66     42.4      0.00      2.17      61.0     0.48      1020.5     0.2       E    84   1.2     ENE    69   9.18    266      -60.5
   01/16/2018 00:10      54.3      53.0       67     43.1      0.00      2.17      61.0     0.48      1020.6     0.6     SSW   195   1.5      SW   228   9.18    266      -60.6
   01/16/2018 00:00      53.1      52.7       67     42.2      0.00      2.17      61.0     0.48      1020.5     0.4      SE   134   1.1     SSE   151   9.18    266      -60.9
   01/15/2018 23:50      53.5      52.7       66     42.2      0.00      2.17      61.0     0.48      1020.5     0.7      SE   145   1.3      SE   146   9.18    266      -60.0
   01/15/2018 23:40      53.6      53.1       65     41.6      0.00      2.17      61.0     0.48      1020.2     0.1     SSE   167   1.2       S   190   9.19    266      -55.8
   01/15/2018 23:30      53.5      53.0       64     41.4      0.00      2.17      61.0     0.48      1020.2     0.6       S   182   1.5       S   187   9.19    265      -46.3
   01/15/2018 23:20      53.9      53.1       63     41.3      0.00      2.17      61.0     0.48      1020.2     0.3       E    87   1.3      SE   141   9.19    265      -44.5
   01/15/2018 23:10      53.8      53.2       63     41.1      0.00      2.17      61.0     0.48      1020.4     0.4     SSW   209   1.3      SW   226   9.19    265      -49.1
   01/15/2018 23:00      53.6      53.2       62     40.7      0.00      2.17      61.0     0.48      1020.3     0.4      SE   137   1.3       E    99   9.19    265      -52.2
   01/15/2018 22:50      53.6      53.1       61     40.4      0.00      2.17      61.0     0.48      1020.4     0.4     SSE   149   1.6       S   180   9.19    265      -50.7
   01/15/2018 22:40      54.1      53.2       61     40.5      0.00      2.17      61.0     0.48      1020.3     0.3     SSE   163   1.2     SSW   194   9.19    265      -51.3
   01/15/2018 22:30      54.1      53.7       60     40.4      0.00      2.17      61.0     0.48      1020.2     0.1     SSE   166   1.1       S   174   9.19    265      -48.2
   01/15/2018 22:20      54.5      53.9       60     40.5      0.00      2.17      61.0     0.48      1020.3     0.9     SSE   152   2.5     SSE   164   9.19    265      -47.9
   01/15/2018 22:10      54.9      54.2       59     40.4      0.00      2.17      61.0     0.48      1020.2     1.3       S   180   2.7       S   172   9.19    264      -57.8
   01/15/2018 22:00      55.4      54.5       58     40.4      0.00      2.17      61.0     0.48      1020.1     0.8     ESE   120   2.4     SSW   202   9.19    264      -64.6
   01/15/2018 21:50      55.5      54.5       58     40.3      0.00      2.17      61.0     0.48      1020.3     1.3     SSW   207   2.2      SW   215   9.19    264      -64.3
   01/15/2018 21:40      56.1      55.0       57     40.6      0.00      2.17      61.0     0.48      1020.2     1.1     SSE   158   2.3      SE   127   9.19    264      -65.5
   01/15/2018 21:30      56.8      55.6       56     40.6      0.00      2.17      61.0     0.48      1020.1     0.6     SSE   168   1.9       S   179   9.19    264      -66.6
   01/15/2018 21:20      58.5      56.5       53     40.4      0.00      2.17      61.0     0.48      1020.0     1.2       S   176   2.1       S   177   9.19    264      -67.4
   01/15/2018 21:10      59.3      58.3       49     39.8      0.00      2.17      60.9     0.48      1019.8     0.9      SW   222   2.7       W   260   9.19    264      -65.9
   01/15/2018 21:00      59.9      58.6       50     40.1      0.00      2.17      60.9     0.48      1019.9     1.1     SSW   206   2.2      SW   222   9.19    264      -62.7
   01/15/2018 20:50      60.7      59.7       46     39.6      0.00      2.17      60.9     0.48      1019.9     0.9     SSW   193   2.3     SSW   194   9.19    264      -60.1
   01/15/2018 20:40      60.5      59.3       45     38.3      0.00      2.17      60.9     0.48      1019.8     2.1     SSW   205   3.7     SSW   213   9.19    264      -46.0
   01/15/2018 20:30      59.9      59.3       48     39.7      0.00      2.17      60.9     0.48      1019.4     1.2     SSE   168   2.4     SSE   149   9.20    264      -31.8
   01/15/2018 20:20      60.7      59.6       48     40.0      0.00      2.17      60.9     0.48      1019.3     0.6     SSE   159   1.9      SE   145   9.20    264      -25.2
   01/15/2018 20:10      60.9      59.7       44     38.4      0.00      2.17      60.9     0.48      1019.2     1.9      SW   226   3.3       W   265   9.20    264      -26.7
   01/15/2018 20:00      59.8      59.3       46     39.0      0.00      2.17      60.9     0.48      1018.7     1.1     SSW   198   3.1       W   261   9.20    264      -28.3
   01/15/2018 19:50      59.8      59.3       48     39.8      0.00      2.17      60.8     0.48      1018.4     0.0       S   183   1.0       S   186   9.20    264      -27.8
   01/15/2018 19:40      59.8      59.4       47     39.6      0.00      2.17      60.8     0.48      1018.6     0.1     SSW   196   0.7     SSW   202   9.20    264      -28.8
   01/15/2018 19:30      60.7      59.6       48     40.1      0.00      2.17      60.8     0.48      1018.7     1.5      SW   233   2.8     WSW   248   9.20    264      -29.0
   01/15/2018 19:20      60.6      59.8       45     38.5      0.00      2.17      60.8     0.48      1018.6     1.1     SSW   205   2.1     SSW   205   9.20    264      -32.4
   01/15/2018 19:10      61.0      60.2       47     39.9      0.00      2.17      60.7     0.48      1018.5     0.5     SSE   166   1.8      SE   143   9.20    264      -37.1
   01/15/2018 19:00      61.0      60.3       45     39.2      0.00      2.17      60.7     0.48      1018.6     1.3     SSE   156   2.3      SE   142   9.20    264      -40.7
   01/15/2018 18:50      60.9      60.1       48     40.6      0.00      2.17      60.6     0.48      1018.5     0.6       S   169   1.2     SSE   154   9.20    264      -45.3
   01/15/2018 18:40      61.2      60.6       47     40.4      0.00      2.17      60.7     0.48      1018.4     0.6     SSE   151   1.5      SE   143   9.20    264      -47.9
   01/15/2018 18:30      61.8      60.9       47     41.0      0.00      2.17      60.6     0.48      1018.5     1.4     SSE   169   2.3      SE   143   9.20    264      -38.6
   01/15/2018 18:20      62.2      61.3       44     39.4      0.00      2.17      60.6     0.48      1018.5     0.9       S   191   1.6      SE   139   9.20    264      -32.3
   01/15/2018 18:10      62.4      61.8       44     39.6      0.00      2.17      60.6     0.48      1018.4     0.5     SSE   164   1.3       S   172   9.20    264      -36.6
   01/15/2018 18:00      62.7      61.7       45     40.5      0.00      2.17      60.6     0.48      1018.4     0.4       S   188   1.4     WSW   257   9.21    264      -51.5
   01/15/2018 17:50      62.8      62.2       46     41.2      0.00      2.17      60.5     0.48      1018.3     1.1      SW   222   2.0     WSW   255   9.21    263      -59.4
   01/15/2018 17:40      63.7      62.6       43     40.3      0.00      2.17      60.5     0.48      1018.2     0.6      SE   146   1.9      SE   139   9.21    263      -64.0
   01/15/2018 17:30      65.9      63.5       41     40.1      0.00      2.17      60.4     0.48      1018.3     1.1     SSW   193   1.9     SSW   201   9.21    263      -65.0
   01/15/2018 17:20      67.6      65.5       38     39.9      0.00      2.17      60.4     0.48      1018.2     0.3       S   172   1.0       S   171   9.21    263      -66.2
   01/15/2018 17:10      68.4      67.4       35     39.1      0.00      2.17      60.4     0.48      1018.3     0.3       W   259   1.7       W   260   9.21    262      -58.5
   01/15/2018 17:00      69.1      68.1       33     38.6      0.00      2.17      60.3     0.48      1018.3     0.8     SSW   214   2.6      SW   228   9.21    262      -42.3
   01/15/2018 16:50      69.6      68.7       32     37.9      0.00      2.17      60.3     0.48      1018.3     1.9     SSE   168   3.1      SE   130   9.22    262      -36.9
   01/15/2018 16:40      70.2      69.3       31     37.9      0.00      2.17      60.3     0.48      1018.4     2.0     SSE   168   3.9       S   170   9.22    262      -33.1
   01/15/2018 16:30      70.7      69.9       30     37.4      0.00      2.17      60.2     0.48      1018.6     2.2     SSE   166   4.1      SE   140   9.22    262      -16.7
   01/15/2018 16:20      71.2      70.4       30     37.6      0.00      2.17      60.2     0.48      1018.7     2.7       S   181   4.7     SSW   202   9.22    262       -3.5
   01/15/2018 16:10      71.6      70.8       30     37.7      0.00      2.17      60.1     0.48      1018.8     2.7       S   180   5.3     SSE   155   9.22    262       10.8
   01/15/2018 16:00      72.0      71.1       30     38.1      0.00      2.17      60.1     0.48      1018.8     1.9       S   176   3.8       S   180   9.22    262        3.4
   01/15/2018 15:50      72.7      71.6       30     38.6      0.00      2.17      60.1     0.48      1018.7     2.7       S   180   4.2     SSW   193   9.22    262       -4.4
   01/15/2018 15:40      73.6      72.3       29     38.5      0.00      2.17      60.1     0.48      1018.7     2.5       S   178   4.6     SSE   169   9.22    262       -1.4
   01/15/2018 15:30      74.8      73.3       28     39.0      0.00      2.17      60.0     0.48      1018.6     2.0     SSE   160   3.7       S   172   9.23    261       23.2
   01/15/2018 15:20      75.6      74.3       28     39.9      0.00      2.17      60.0     0.48      1018.2     1.4     ENE    59   3.1     ENE    69   9.23    261       28.0
   01/15/2018 15:10      76.3      75.2       27     39.8      0.00      2.17      60.0     0.48      1018.2     1.3     ENE    75   3.3       E    88   9.23    261       55.7
   01/15/2018 15:00      76.4      75.8       27     40.1      0.00      2.17      59.9     0.48      1018.1     1.2      NE    47   3.0      NE    42   9.23    261       93.9
   01/15/2018 14:50      76.0      75.0       28     39.7      0.00      2.17      59.9     0.48      1018.1     1.5     ENE    67   3.2      NE    43   9.23    261      125.9
   01/15/2018 14:40      75.9      75.3       27     39.7      0.00      2.17      59.9     0.48      1018.1     2.3      NE    40   3.7      NE    44   9.23    261      143.8
   01/15/2018 14:30      75.7      75.2       27     39.3      0.00      2.17      59.8     0.48      1018.0     2.2      NE    48   3.8     NNE    22   9.23    261      163.7
   01/15/2018 14:20      76.3      75.1       27     39.5      0.00      2.17      59.8     0.48      1017.9     2.6      NE    54   4.4     NNE    15   9.23    261      170.9
   01/15/2018 14:10      76.1      75.2       27     39.4      0.00      2.17      59.8     0.48      1017.8     1.7       E    99   3.9      SE   145   9.23    261      204.2
   01/15/2018 14:00      76.3      75.2       27     39.8      0.00      2.17      59.8     0.48      1017.8     1.8     ENE    67   3.8       E   100   9.24    261      110.2
   01/15/2018 13:50      77.6      76.2       24     37.2      0.00      2.17      59.8     0.48      1017.9     1.9      NE    42   3.8     ESE   107   9.24    261      116.8
   01/15/2018 13:40      77.4      76.3       22     35.6      0.00      2.17      59.7     0.48      1018.0     1.5      NE    41   3.4     NNE    17   9.24    260      273.4
   01/15/2018 13:30      76.4      75.7       23     35.8      0.00      2.17      59.6     0.48      1018.1     2.4     NNE    27   5.7       N     0   9.24    261      244.3
   01/15/2018 13:20      76.8      75.5       23     35.9      0.00      2.17      59.7     0.48      1018.1     2.3     NNE    24   4.0       N     4   9.24    261      210.0
   01/15/2018 13:10      77.0      76.5       23     36.0      0.00      2.17      59.7     0.48      1018.2     1.4     NNE    26   3.0     NNE    22   9.24    261      150.3
   01/15/2018 13:00      77.3      76.3       23     35.8      0.00      2.17      59.6     0.48      1018.4     2.0      NE    37   5.0       N     9   9.24    260      276.4
   01/15/2018 12:50      77.5      76.8       22     35.8      0.00      2.17      59.6     0.48      1018.5     1.3      NE    47   3.2     NNE    22   9.24    260      277.5
   01/15/2018 12:40      77.0      75.9       23     35.3      0.00      2.17      59.6     0.48      1018.7     1.0      NE    49   3.4     ENE    59   9.24    261      272.7
   01/15/2018 12:30      76.4      75.2       23     35.3      0.00      2.17      59.6     0.48      1018.9     1.6       N    10   3.5     NNW   334   9.24    260      292.3
   01/15/2018 12:20      76.3      74.7       24     35.9      0.00      2.17      59.6     0.48      1019.0     1.4     NNE    33   3.3       E    87   9.24    261      300.6
   01/15/2018 12:10      75.5      74.6       24     35.6      0.00      2.17      59.7     0.48      1019.2     1.2      NE    55   3.0     ESE   122   9.24    260      304.9
   01/15/2018 12:00      75.0      74.3       24     35.3      0.00      2.17      59.6     0.48      1019.4     1.4       E    88   3.2     ESE   121   9.24    261      298.5
   01/15/2018 11:50      74.4      73.3       24     35.0      0.00      2.17      59.7     0.48      1019.5     1.3     ENE    73   3.6       E    95   9.24    261      298.0
   01/15/2018 11:40      73.5      71.9       25     34.5      0.00      2.17      59.7     0.48      1019.5     2.0     ESE   112   4.4      SE   125   9.24    261      301.4
   01/15/2018 11:30      73.2      71.9       26     36.2      0.00      2.17      59.8     0.48      1019.7     1.9      NE    46   4.2     ESE   105   9.24    262      303.7
   01/15/2018 11:20      72.7      71.0       26     35.4      0.00      2.17      59.7     0.48      1020.0     0.7     NNW   342   2.3       N    11   9.24    261      305.3
   01/15/2018 11:10      71.2      70.4       27     35.5      0.00      2.17      59.7     0.48      1020.3     1.4     NNW   336   2.8       N   355   9.24    261      299.1
   01/15/2018 11:00      71.0      69.6       28     35.7      0.00      2.17      59.8     0.48      1020.3     1.1       N   354   2.4      NW   322   9.24    261      290.9
   01/15/2018 10:50      69.6      68.8       29     36.0      0.00      2.17      59.8     0.48      1020.4     1.4     NNE    23   3.5     NNE    23   9.24    262      283.1
   01/15/2018 10:40      69.2      68.0       32     37.7      0.00      2.17      59.8     0.48      1020.5     1.3      NE    35   2.8      NE    40   9.24    262      279.5
   01/15/2018 10:30      68.0      66.5       34     37.6      0.00      2.17      59.8     0.48      1020.3     1.6     ENE    61   3.5     ENE    71   9.24    262      267.7
   01/15/2018 10:20      66.5      65.7       35     37.9      0.00      2.17      59.9     0.48      1020.4     2.0      NE    50   3.2     NNE    26   9.24    263      263.3
   01/15/2018 10:10      66.3      65.3       35     37.6      0.00      2.17      59.9     0.48      1020.6     1.6     NNE    26   2.8       N     4   9.24    263      218.2
   01/15/2018 10:00      66.2      64.8       35     37.0      0.00      2.17      59.9     0.48      1020.8     1.0       N     3   2.3      NW   322   9.24    263      253.2
   01/15/2018 09:50      65.0      63.6       38     37.8      0.00      2.17      59.9     0.48      1020.8     0.8     NNE    20   2.1     NNE    26   9.24    263      233.8
   01/15/2018 09:40      63.9      62.1       40     38.3      0.00      2.17      60.0     0.48      1020.9     0.5       N   350   2.2       N     9   9.24    263      207.4
   01/15/2018 09:30      62.1      60.9       43     38.6      0.00      2.17      60.0     0.48      1020.8     0.8     NNW   343   1.8     NNE    24   9.24    264      193.0
   01/15/2018 09:20      61.2      60.4       45     39.3      0.00      2.17      60.0     0.48      1020.7     1.0     NNE    17   1.8     NNE    14   9.24    264      194.7
   01/15/2018 09:10      60.6      60.1       45     38.8      0.00      2.17      60.1     0.48      1020.7     1.1       N   354   2.6     NNW   335   9.24    264      184.8
   01/15/2018 09:00      60.3      59.3       46     39.3      0.00      2.17      60.1     0.48      1020.6     0.3     NNE    17   1.2     NNE    20   9.24    264      158.3
   01/15/2018 08:50      59.1      56.9       50     39.3      0.00      2.17      60.1     0.48      1020.6     0.4       E    81   1.3       E    84   9.24    264      140.4
   01/15/2018 08:40      57.2      55.2       52     38.6      0.00      2.17      60.2     0.48      1020.8     0.3      NE    45   1.2     NNE    22   9.24    265      118.8
   01/15/2018 08:30      55.1      52.5       57     38.6      0.00      2.17      60.2     0.48      1020.7     0.0      SE   140   0.6      SE   140   9.24    265       94.7
   01/15/2018 08:20      52.4      49.1       64     38.9      0.00      2.17      60.2     0.48      1020.7     0.0       N     0   0.0      SE   140   9.24    266       47.1
   01/15/2018 08:10      50.1      48.7       65     38.0      0.00      2.17      60.2     0.48      1020.6     0.8      SE   142   1.4      SE   141   9.24    266        9.6
   01/15/2018 08:00      50.1      48.2       66     38.2      0.00      2.17      60.3     0.48      1020.5     0.0       N     0   0.0      SE   129   9.24    266      -28.9
   01/15/2018 07:50      48.2      45.9       70     37.5      0.00      2.17      60.3     0.48      1020.3     0.0      SE   125   0.6      SE   126   9.24    266      -32.5
   01/15/2018 07:40      46.1      45.0       71     36.4      0.00      2.17      60.3     0.48      1020.2     0.0       N     0   0.0      NE    55   9.24    266      -35.6
   01/15/2018 07:30      45.3      44.5       71     36.0      0.00      2.17      60.3     0.48      1020.1     0.0       S   183   0.7       S   183   9.24    266      -38.8
   01/15/2018 07:20      44.6      44.0       74     36.4      0.00      2.17      60.4     0.48      1020.0     0.6     SSE   163   1.1     SSE   166   9.24    266      -45.1
   01/15/2018 07:10      44.6      44.2       74     36.5      0.00      2.17      60.4     0.48      1020.0     0.6     SSE   160   1.5      SE   142   9.24    266      -50.9
   01/15/2018 07:00      44.4      43.9       73     36.1      0.00      2.17      60.4     0.48      1020.0     0.4     SSW   197   1.3     SSE   168   9.24    266      -52.9
   01/15/2018 06:50      44.2      43.7       73     36.0      0.00      2.17      60.4     0.48      1019.8     0.5       S   180   2.1      SW   219   9.24    266      -55.5
   01/15/2018 06:40      44.1      43.5       74     36.0      0.00      2.17      60.5     0.48      1019.8     0.4       S   180   1.4     SSW   195   9.24    266      -58.2
   01/15/2018 06:30      44.2      43.5       75     36.4      0.00      2.17      60.5     0.48      1019.8     0.5       S   184   1.6     SSW   208   9.24    266      -58.6
   01/15/2018 06:20      44.3      43.7       74     36.2      0.00      2.17      60.5     0.48      1019.8     0.0      SE   138   0.5      SE   141   9.24    266      -59.0
   01/15/2018 06:10      44.2      43.9       74     36.1      0.00      2.17      60.5     0.48      1019.7     0.3       S   187   1.3     SSW   192   9.24    266      -58.8
   01/15/2018 06:00      44.5      44.0       73     36.2      0.00      2.17      60.6     0.48      1019.5     0.1       S   181   1.0     SSE   167   9.24    266      -59.7
   01/15/2018 05:50      44.6      44.2       73     36.3      0.00      2.17      60.6     0.48      1019.5     0.3     SSW   205   1.7     SSW   201   9.24    266      -59.0
   01/15/2018 05:40      44.9      44.1       74     36.7      0.00      2.17      60.5     0.48      1019.4     0.3     SSW   192   1.8     SSW   201   9.24    266      -59.1
   01/15/2018 05:30      45.2      44.6       72     36.5      0.00      2.17      60.6     0.48      1019.3     0.4     SSE   150   1.5      SE   141   9.24    266      -59.4
   01/15/2018 05:20      45.0      44.5       73     36.7      0.00      2.17      60.6     0.48      1019.2     0.0       N     0   0.0      SW   217   9.24    266      -59.8
   01/15/2018 05:10      45.1      44.4       74     36.9      0.00      2.17      60.7     0.48      1019.2     0.5       S   183   1.4       S   181   9.24    266      -60.5
   01/15/2018 05:00      45.3      44.9       73     36.8      0.00      2.17      60.7     0.48      1019.2     0.3     SSE   160   1.1       S   172   9.24    266      -61.0
   01/15/2018 04:50      45.7      45.0       72     36.6      0.00      2.17      60.7     0.48      1019.2     0.3     SSE   157   1.1       S   172   9.24    266      -61.2
   01/15/2018 04:40      46.0      45.1       71     36.6      0.00      2.17      60.8     0.48      1019.1     0.3     SSE   150   1.1     SSE   164   9.24    266      -61.8
   01/15/2018 04:30      46.0      45.6       71     36.8      0.00      2.17      60.8     0.48      1019.1     0.0       N     0   0.0      SE   129   9.24    266      -61.2
   01/15/2018 04:20      46.4      45.7       71     36.9      0.00      2.17      60.8     0.48      1019.0     0.0       N     0   0.0       N   351   9.24    266      -57.9
   01/15/2018 04:10      46.2      45.9       70     36.9      0.00      2.17      60.8     0.48      1019.1     0.6      SE   140   1.5     SSE   148   9.24    266      -57.4
   01/15/2018 04:00      46.2      45.7       70     36.9      0.00      2.17      60.8     0.48      1019.2     0.3     SSE   154   1.1       S   175   9.24    266      -59.5
   01/15/2018 03:50      46.7      45.9       70     36.8      0.00      2.17      60.8     0.48      1019.4     0.5     SSE   149   1.4     SSE   149   9.25    266      -61.4
   01/15/2018 03:40      46.8      46.3       68     36.6      0.00      2.17      60.9     0.48      1019.6     0.0     SSE   154   0.6     SSE   155   9.25    266      -61.1
   01/15/2018 03:30      47.2      46.5       68     36.6      0.00      2.17      60.9     0.48      1019.7     0.0     SSW   194   0.6     SSW   195   9.25    266      -61.1
   01/15/2018 03:20      47.3      46.8       67     36.8      0.00      2.17      60.9     0.48      1019.7     0.1      SE   139   0.8      SE   139   9.25    266      -61.1
   01/15/2018 03:10      47.6      46.8       69     37.3      0.00      2.17      60.9     0.48      1019.7     0.8     SSE   156   1.5      SE   142   9.25    266      -62.1
   01/15/2018 03:00      48.0      47.3       67     37.1      0.00      2.17      60.9     0.48      1019.7     0.7     SSE   155   1.3     SSE   157   9.25    266      -62.6
   01/15/2018 02:50      48.1      47.5       66     37.1      0.00      2.17      60.9     0.48      1019.9     1.3      SE   142   2.8      SE   142   9.25    266      -61.6
   01/15/2018 02:40      48.1      47.4       67     37.1      0.00      2.17      60.9     0.48      1020.2     0.6     SSE   165   1.5       S   178   9.25    266      -60.1
   01/15/2018 02:30      48.1      47.6       68     37.7      0.00      2.17      61.0     0.48      1020.3     0.6     WSW   248   1.7     WSW   249   9.25    266      -59.1
   01/15/2018 02:20      48.5      47.7       67     37.3      0.00      2.17      61.0     0.48      1020.1     0.2       W   265   1.4       W   265   9.25    266      -58.5
   01/15/2018 02:10      48.6      48.1       66     37.3      0.00      2.17      61.0     0.48      1020.1     0.1      SE   143   0.9      SE   144   9.25    266      -59.1
   01/15/2018 02:00      49.0      48.3       65     37.4      0.00      2.17      61.0     0.48      1020.1     0.7       S   172   1.8      SE   134   9.25    266      -59.2
   01/15/2018 01:50      49.2      48.4       64     37.2      0.00      2.17      61.0     0.48      1020.3     1.1      SE   144   2.2      SE   140   9.25    266      -58.9
   01/15/2018 01:40      49.1      48.6       64     37.1      0.00      2.17      61.1     0.49      1020.4     0.4       S   182   1.4       S   190   9.25    266      -55.4
   01/15/2018 01:30      49.7      48.7       64     37.3      0.00      2.17      61.1     0.48      1020.2     0.0     SSE   147   0.6     SSE   147   9.25    265      -53.1
   01/15/2018 01:20      49.9      49.4       62     37.0      0.00      2.17      61.1     0.49      1019.9     0.0     SSE   147   0.4     SSE   147   9.25    265      -52.7
   01/15/2018 01:10      49.7      49.2       62     37.1      0.00      2.17      61.1     0.49      1019.9     0.1     SSE   157   1.3      SE   139   9.25    265      -50.1
   01/15/2018 01:00      50.0      49.1       64     37.6      0.00      2.17      61.1     0.49      1020.0     0.5       S   170   1.3      SE   144   9.25    266      -52.1
   01/15/2018 00:50      50.1      49.3       62     37.1      0.00      2.17      61.1     0.49      1020.1     0.9       S   178   1.9      SE   146   9.25    265      -56.4
   01/15/2018 00:40      49.7      49.2       64     37.7      0.00      2.17      61.1     0.49      1020.0     0.4     WSW   240   1.7     WSW   243   9.25    265      -59.9
   01/15/2018 00:30      49.8      49.3       64     37.7      0.00      2.17      61.2     0.49      1020.0     0.3     SSE   159   0.8      SE   143   9.25    265      -60.5
   01/15/2018 00:20      50.4      49.5       64     38.0      0.00      2.17      61.1     0.49      1020.1     0.7     SSE   155   1.5      SE   141   9.26    265      -61.7
   01/15/2018 00:10      50.5      50.0       62     37.8      0.00      2.17      61.2     0.49      1020.2     0.3       S   169   1.1     SSE   164   9.26    265      -61.8
   01/15/2018 00:00      50.6      50.1       62     37.8      0.00      2.17      61.2     0.49      1020.3     0.9     SSW   197   1.8      SW   228   9.26    265      -61.1
   01/14/2018 23:50      51.0      50.3       61     37.9      0.00      2.17      61.2     0.49      1020.3     0.0     SSE   156   0.8     SSE   157   9.26    265      -60.5
   01/14/2018 23:40      51.9      50.6       60     37.7      0.00      2.17      61.2     0.49      1020.3     0.5      SE   142   1.4      SE   143   9.26    265      -62.6
   01/14/2018 23:30      52.0      51.2       59     37.6      0.00      2.17      61.2     0.49      1020.5     0.5       S   186   1.3       S   183   9.26    264      -62.0
   01/14/2018 23:20      52.4      51.7       58     37.7      0.00      2.17      61.2     0.49      1020.5     0.0      SE   144   1.5      SE   140   9.26    264      -60.0
   01/14/2018 23:10      53.0      51.9       58     37.9      0.00      2.17      61.2     0.49      1020.5     1.1     SSE   150   1.7     SSE   156   9.26    264      -61.8
   01/14/2018 23:00      53.2      52.7       56     37.7      0.00      2.17      61.3     0.49      1020.7     0.7     SSE   163   1.4     SSE   159   9.26    264      -64.5
   01/14/2018 22:50      53.5      52.9       55     37.4      0.00      2.17      61.2     0.49      1020.8     0.3     SSE   159   1.0     SSE   154   9.26    264      -65.1
   01/14/2018 22:40      53.5      53.0       55     37.7      0.00      2.17      61.2     0.49      1020.8     0.5     SSE   168   1.1     SSE   162   9.26    264      -65.1
   01/14/2018 22:30      53.9      53.2       55     37.8      0.00      2.17      61.3     0.49      1020.8     0.8     SSE   168   1.6      SE   142   9.26    264      -64.9
   01/14/2018 22:20      54.6      53.6       54     37.5      0.00      2.17      61.3     0.49      1020.8     0.9     SSE   165   1.4      SE   146   9.26    264      -64.5
   01/14/2018 22:10      54.9      54.4       54     38.2      0.00      2.17      61.3     0.49      1020.8     0.2     SSE   157   0.8     SSE   154   9.26    264      -64.3
   01/14/2018 22:00      54.9      54.3       54     38.3      0.00      2.17      61.3     0.49      1020.8     0.9     NNW   327   2.4      NW   305   9.26    264      -64.7
   01/14/2018 21:50      54.9      54.5       54     38.2      0.00      2.17      61.3     0.49      1020.8     0.7     SSE   158   1.3      SE   140   9.27    264      -58.4
   01/14/2018 21:40      55.3      54.5       54     38.5      0.00      2.17      61.3     0.49      1020.5     0.6     SSE   164   1.2      SE   142   9.27    264      -51.8
   01/14/2018 21:30      55.8      54.9       53     38.6      0.00      2.17      61.3     0.49      1020.5     0.5     SSE   165   1.1       S   176   9.27    264      -51.3
   01/14/2018 21:20      55.8      55.4       52     38.0      0.00      2.17      61.3     0.49      1020.5     0.3      SE   141   1.1      SE   140   9.27    264      -51.6
   01/14/2018 21:10      56.0      55.5       51     37.9      0.00      2.17      61.3     0.49      1020.4     0.2       S   185   0.8      SE   141   9.27    264      -49.6
   01/14/2018 21:00      56.1      55.6       51     37.9      0.00      2.17      61.3     0.49      1020.2     0.4     SSE   160   1.1       S   173   9.27    264      -48.4
   01/14/2018 20:50      56.0      55.5       50     37.6      0.00      2.17      61.3     0.49      1020.0     0.7     SSE   155   1.4     SSE   168   9.27    264      -49.9
   01/14/2018 20:40      56.3      55.7       49     37.3      0.00      2.17      61.2     0.49      1019.8     0.6     SSE   151   1.5     SSE   149   9.27    264      -53.9
   01/14/2018 20:30      56.4      55.6       49     37.1      0.00      2.17      61.2     0.49      1019.6     0.7     SSW   197   1.3       S   177   9.27    264      -57.8
   01/14/2018 20:20      56.8      56.0       47     36.7      0.00      2.17      61.2     0.49      1019.4     0.7       S   175   1.2       S   180   9.27    264      -60.6
   01/14/2018 20:10      57.1      56.4       48     37.2      0.00      2.17      61.2     0.49      1019.4     0.6     SSE   160   1.4     SSE   149   9.27    264      -63.8
   01/14/2018 20:00      57.9      56.6       46     36.5      0.00      2.17      61.2     0.49      1019.3     0.7     SSE   169   1.6       S   191   9.27    263      -65.5
   01/14/2018 19:50      58.5      57.6       44     36.4      0.00      2.17      61.2     0.49      1019.1     0.8     SSE   169   1.8       S   190   9.28    263      -67.0
   01/14/2018 19:40      59.4      58.0       44     36.6      0.00      2.17      61.1     0.49      1018.9     0.0     SSW   214   0.6     SSW   214   9.28    263      -69.0
   01/14/2018 19:30      59.8      59.2       42     36.4      0.00      2.17      61.2     0.49      1018.9     0.7      SE   139   2.0      SE   141   9.28    263      -70.5
   01/14/2018 19:20      60.2      59.3       42     36.6      0.00      2.17      61.1     0.49      1019.0     0.9     SSE   157   1.8     SSE   152   9.28    263      -70.8
   01/14/2018 19:10      60.6      59.9       40     35.9      0.00      2.17      61.1     0.49      1019.1     0.9     SSE   152   2.4      SE   141   9.28    263      -71.5
   01/14/2018 19:00      60.6      60.0       40     36.0      0.00      2.17      61.0     0.49      1019.0     1.5     SSE   153   3.0      SE   142   9.28    263      -72.2
   01/14/2018 18:50      61.3      60.1       41     36.5      0.00      2.17      61.0     0.49      1018.9     1.0     SSE   160   2.2       S   171   9.28    263      -74.0
   01/14/2018 18:40      61.9      60.8       40     36.5      0.00      2.17      61.0     0.49      1018.9     0.8     SSE   159   2.0     SSE   153   9.29    263      -75.1
   01/14/2018 18:30      62.6      61.4       39     36.5      0.00      2.17      61.0     0.49      1018.9     1.1     SSE   162   2.9      SE   142   9.29    262      -75.7
   01/14/2018 18:20      63.0      62.1       37     36.1      0.00      2.17      60.9     0.49      1018.9     1.2     SSE   163   3.3     SSE   151   9.29    262      -76.7
   01/14/2018 18:10      63.9      62.7       36     36.1      0.00      2.17      60.9     0.49      1018.9     1.1     SSE   157   3.5     SSE   167   9.29    262      -77.5
   01/14/2018 18:00      64.6      63.4       36     36.2      0.00      2.17      60.9     0.49      1019.0     1.5     SSE   152   3.3      SE   141   9.29    262      -78.6
   01/14/2018 17:50      65.8      64.3       34     35.9      0.00      2.17      60.8     0.49      1019.1     1.4     SSE   166   3.4       S   176   9.30    262      -79.0
   01/14/2018 17:40      68.2      65.5       32     35.8      0.00      2.17      60.8     0.49      1019.4     1.0     SSE   163   2.4      SE   140   9.30    262      -80.1
   01/14/2018 17:30      71.8      68.0       28     35.0      0.00      2.17      60.8     0.49      1019.7     1.3     SSE   166   2.4      SW   217   9.30    261      -81.4
   01/14/2018 17:20      73.2      71.7       22     31.7      0.00      2.17      60.8     0.49      1019.6     1.6       W   266   4.7     WSW   243   9.30    261      -84.3
   01/14/2018 17:10      72.4      69.8       24     32.0      0.00      2.17      60.7     0.49      1019.7     3.1      SW   218   4.5      SW   216   9.31    261      -80.1
   01/14/2018 17:00      72.8      69.9       27     35.3      0.00      2.17      60.7     0.49      1019.6     0.8       S   178   3.0     SSW   213   9.31    261      -81.0
   01/14/2018 16:50      76.5      72.7       21     32.6      0.00      2.17      60.6     0.49      1019.5     1.1      SW   224   2.3     SSW   210   9.31    261      -81.9
   01/14/2018 16:40      78.0      76.3       18     30.6      0.00      2.17      60.6     0.49      1019.5     1.0     NNW   330   2.8       N    11   9.31    260      -80.8
   01/14/2018 16:30      78.9      77.8       17     29.8      0.00      2.17      60.5     0.49      1019.3     2.0       N   359   4.3       N     4   9.31    260      -61.3
   01/14/2018 16:20      79.1      78.6       17     29.9      0.00      2.17      60.5     0.49      1019.2     2.0       N    11   4.6     ENE    61   9.32    260      -38.9
   01/14/2018 16:10      79.6      78.8       16     29.1      0.00      2.17      60.5     0.49      1019.0     3.1     NNE    12   6.8       N   350   9.32    260      -17.9
   01/14/2018 16:00      80.1      79.2       16     28.8      0.00      2.17      60.5     0.48      1019.0     2.1      NE    38   3.2     ENE    65   9.32    260        2.7
   01/14/2018 15:50      80.8      79.8       15     28.8      0.00      2.17      60.4     0.48      1019.0     2.3      NE    41   3.9     NNE    21   9.32    260       20.1
   01/14/2018 15:40      81.5      80.6       15     28.6      0.00      2.17      60.4     0.48      1019.0     2.0     NNE    29   6.5      NE    41   9.33    260       43.3
   01/14/2018 15:30      82.5      81.4       14     27.7      0.00      2.17      60.4     0.48      1019.0     1.6     ENE    62   3.2      SE   134   9.33    259       70.3
   01/14/2018 15:20      83.2      81.8       13     27.3      0.00      2.17      60.3     0.48      1019.0     1.2       E    84   2.8     ENE    72   9.33    260       94.2
   01/14/2018 15:10      83.3      82.6       13     27.6      0.00      2.17      60.3     0.48      1019.0     0.9       N     9   3.3       N     0   9.33    259      116.2
   01/14/2018 15:00      83.6      82.5       14     28.4      0.00      2.17      60.3     0.48      1019.0     0.6      NE    49   2.1      NE    42   9.33    259      138.5
   01/14/2018 14:50      82.9      80.6       14     27.0      0.00      2.17      60.3     0.48      1019.1     1.2      NE    35   5.2     NNE    20   9.33    259      110.5
   01/14/2018 14:40      82.2      81.3       14     27.2      0.00      2.17      60.2     0.48      1019.2     2.4     NNE    29   5.9      NE    38   9.33    259      187.9
   01/14/2018 14:30      82.4      81.3       14     27.6      0.00      2.17      60.2     0.48      1019.2     2.2     NNE    18   4.7     NNE    11   9.33    259      207.7
   01/14/2018 14:20      82.3      81.4       14     28.4      0.00      2.17      60.1     0.48      1019.1     1.5     NNW   338   3.8      NE    39   9.33    259      160.7
   01/14/2018 14:10      81.7      80.5       14     27.7      0.00      2.17      60.1     0.48      1019.1     1.6     NNE    22   4.2       N     6   9.34    259      190.6
   01/14/2018 14:00      81.8      80.4       14     27.8      0.00      2.17      60.0     0.48      1019.1     2.7     NNE    24   5.7      NE    48   9.34    259      210.2
   01/14/2018 13:50      82.7      81.5       14     28.1      0.00      2.17      60.1     0.48      1019.1     2.1     ENE    74   4.4     ENE    57   9.34    259      223.8
   01/14/2018 13:40      82.9      81.8       14     28.6      0.00      2.17      60.0     0.48      1019.2     1.9      NE    48   5.0     NNE    17   9.34    259      260.1
   01/14/2018 13:30      82.9      81.8       14     28.0      0.00      2.17      60.0     0.48      1019.3     1.1     ESE   105   3.4     ESE   111   9.34    259      292.4
   01/14/2018 13:20      82.7      81.9       15     29.3      0.00      2.17      59.9     0.48      1019.6     1.2      NW   323   3.1     NNW   331   9.34    259      306.9
   01/14/2018 13:10      82.2      80.3       15     28.8      0.00      2.17      60.0     0.48      1019.8     0.9     WSW   253   3.1     WSW   243   9.34    259      320.8
   01/14/2018 13:00      80.7      78.8       15     28.2      0.00      2.17      59.9     0.48      1019.9     0.7     SSW   208   2.9     ESE   123   9.34    260      243.2
   01/14/2018 12:50      79.5      78.5       16     28.5      0.00      2.17      59.9     0.48      1020.1     3.2      SE   134   6.2     ESE   119   9.34    260      290.8
   01/14/2018 12:40      80.3      79.0       15     28.4      0.00      2.17      59.9     0.48      1020.4     2.0     ESE   101   4.4     ENE    78   9.34    260      196.6
   01/14/2018 12:30      80.6      79.9       15     28.7      0.00      2.17      59.9     0.48      1020.6     2.0     ENE    61   4.9       E    81   9.35    260      269.9
   01/14/2018 12:20      80.1      78.7       16     28.7      0.00      2.17      59.9     0.48      1020.8     1.9       E    81   3.8      SE   141   9.35    260      326.1
   01/14/2018 12:10      79.8      78.6       16     29.6      0.00      2.17      59.9     0.48      1020.9     2.7      SE   131   6.1      SE   133   9.34    260      300.5
   01/14/2018 12:00      80.0      78.8       16     28.9      0.00      2.17      59.9     0.48      1021.1     2.6     ESE   104   4.3     SSE   154   9.35    260      326.4
   01/14/2018 11:50      79.7      78.4       16     29.3      0.00      2.17      59.9     0.48      1021.2     1.7       E    97   3.9      NE    55   9.35    260      332.9
   01/14/2018 11:40      78.8      78.0       16     29.3      0.00      2.17      59.9     0.48      1021.4     1.8     ENE    58   4.8      NE    38   9.35    260      335.2
   01/14/2018 11:30      78.3      77.7       16     28.4      0.00      2.17      59.8     0.48      1021.5     1.9     ENE    66   4.2      NE    41   9.35    261      291.5
   01/14/2018 11:20      78.5      77.4       16     28.6      0.00      2.17      59.9     0.48      1021.7     1.4      NE    46   3.9      NE    41   9.35    260      320.7
   01/14/2018 11:10      77.8      76.9       16     27.8      0.00      2.17      59.9     0.48      1022.0     1.4     ESE   118   3.9     SSE   152   9.35    261      316.7
   01/14/2018 11:00      77.8      75.2       17     28.4      0.00      2.17      59.9     0.48      1022.2     0.9      SE   126   3.4     ESE   108   9.35    260      304.5
   01/14/2018 10:50      76.0      75.1       19     30.0      0.00      2.17      59.9     0.48      1022.3     1.8      NE    49   4.1      NE    38   9.35    261      294.3
   01/14/2018 10:40      76.0      75.4       19     30.9      0.00      2.17      59.9     0.48      1022.4     1.1     ENE    58   3.1       E    91   9.35    261      270.2
   01/14/2018 10:30      75.8      74.1       21     32.2      0.00      2.17      59.9     0.48      1022.4     0.8       E    92   2.3     ENE    66   9.35    261      293.8
   01/14/2018 10:20      74.2      72.2       23     33.1      0.00      2.17      60.0     0.48      1022.4     0.9       E    87   3.2     ESE   114   9.35    261      252.8
   01/14/2018 10:10      72.3      70.9       25     33.8      0.00      2.17      60.0     0.48      1022.4     1.4     ESE   112   2.5     ENE    71   9.35    261      212.0
   01/14/2018 10:00      70.8      69.3       25     32.9      0.00      2.17      60.0     0.48      1022.4     1.3     ESE   122   2.7     ESE   119   9.35    262      147.5
   01/14/2018 09:50      69.8      69.0       26     32.8      0.00      2.17      60.0     0.48      1022.2     2.0     ESE   121   5.4      SE   129   9.35    262       83.8
   01/14/2018 09:40      70.5      69.6       25     32.1      0.00      2.17      60.0     0.48      1022.1     1.7     ESE   121   4.0     SSE   161   9.35    262      102.0
   01/14/2018 09:30      69.8      69.0       24     31.0      0.00      2.17      60.0     0.48      1022.0     2.5     ESE   107   5.5     ESE   123   9.35    262      123.2
   01/14/2018 09:20      69.7      67.9       30     35.7      0.00      2.17      60.1     0.48      1021.9     2.1     ESE   118   4.9       S   179   9.35    262      184.4
   01/14/2018 09:10      68.0      65.6       39     41.2      0.00      2.17      60.1     0.48      1021.7     0.5     ENE    59   1.3     ESE   107   9.35    263      170.4
   01/14/2018 09:00      65.5      62.2       42     40.0      0.00      2.17      60.1     0.48      1021.7     0.6     WSW   246   2.8       N   351   9.35    263      197.0
   01/14/2018 08:50      62.1      60.3       44     38.8      0.00      2.17      60.1     0.48      1021.6     0.6      NE    47   2.0      NE    53   9.35    263      132.4
   01/14/2018 08:40      60.6      57.7       47     38.6      0.00      2.17      60.1     0.48      1021.7     0.6       E    85   1.6     SSW   198   9.35    263      103.6
   01/14/2018 08:30      57.9      56.6       50     38.4      0.00      2.17      60.1     0.48      1021.6     0.5      NE    41   1.9     NNE    28   9.35    264       77.3
   01/14/2018 08:20      56.7      55.9       49     37.3      0.00      2.17      60.2     0.48      1021.5     0.0       N   357   0.5       N     0   9.35    264       25.8
   01/14/2018 08:10      55.9      55.0       48     36.0      0.00      2.17      60.2     0.48      1021.4     0.5     SSE   159   1.3       S   173   9.35    264       12.8
   01/14/2018 08:00      55.1      54.5       48     35.3      0.00      2.17      60.2     0.48      1021.3     0.3     SSE   166   0.9       S   190   9.35    264        4.8
   01/14/2018 07:50      54.9      54.1       47     34.7      0.00      2.17      60.2     0.48      1021.3     0.3     SSE   150   1.4      SE   138   9.35    264       -3.2
   01/14/2018 07:40      54.6      54.0       46     34.0      0.00      2.17      60.2     0.48      1021.2     0.4     SSW   203   1.4      SW   222   9.35    264      -15.2
   01/14/2018 07:30      55.1      54.3       44     33.5      0.00      2.17      60.2     0.49      1021.0     0.4      SE   133   1.4       N     2   9.35    264      -32.8
   01/14/2018 07:20      55.2      53.0       44     32.5      0.00      2.17      60.2     0.49      1020.9     1.4      SE   142   2.5      SE   129   9.35    264      -44.6
   01/14/2018 07:10      54.0      53.1       48     34.4      0.00      2.17      60.3     0.49      1020.9     0.7       S   171   1.9     SSE   147   9.35    264      -49.9
   01/14/2018 07:00      54.9      53.7       47     34.3      0.00      2.17      60.3     0.49      1020.8     0.7     SSE   162   2.5     SSE   165   9.35    264      -48.8
   01/14/2018 06:50      55.4      54.5       45     33.7      0.00      2.17      60.3     0.49      1020.8     1.1     SSE   157   2.3     SSE   153   9.36    264      -44.4
   01/14/2018 06:40      55.9      55.1       43     33.0      0.00      2.17      60.3     0.49      1020.8     0.8     SSE   147   1.7      SE   142   9.36    264      -39.4
   01/14/2018 06:30      56.2      55.7       40     32.1      0.00      2.17      60.3     0.49      1020.8     1.1      SE   144   2.3     SSE   147   9.36    264      -36.3
   01/14/2018 06:20      55.9      55.0       41     32.0      0.00      2.17      60.3     0.49      1020.8     1.6     SSE   149   2.8      SE   142   9.36    264      -36.5
   01/14/2018 06:10      55.2      54.6       42     32.5      0.00      2.17      60.4     0.49      1020.7     1.2     SSE   168   2.7       S   179   9.36    264      -39.4
   01/14/2018 06:00      55.2      54.6       42     32.3      0.00      2.17      60.3     0.49      1020.6     1.8     SSE   157   3.5      SE   140   9.36    264      -43.0
   01/14/2018 05:50      54.9      54.0       43     32.2      0.00      2.17      60.4     0.49      1020.5     1.1     SSE   152   2.2     ESE   122   9.36    264      -45.4
   01/14/2018 05:40      54.3      53.8       44     32.9      0.00      2.17      60.4     0.49      1020.4     1.0     SSE   157   2.2      SE   140   9.36    264      -43.5
   01/14/2018 05:30      54.1      53.5       45     32.9      0.00      2.17      60.4     0.49      1020.4     0.6     SSE   162   2.2     SSE   157   9.36    264      -39.6
   01/14/2018 05:20      54.3      53.3       46     33.2      0.00      2.17      60.4     0.49      1020.3     0.6       S   178   2.5       S   183   9.36    264      -39.6
   01/14/2018 05:10      54.8      54.0       43     32.5      0.00      2.17      60.4     0.49      1020.4     0.7     SSE   151   2.1     SSE   159   9.36    264      -42.8
   01/14/2018 05:00      54.9      54.4       42     31.9      0.00      2.17      60.5     0.49      1020.3     1.2     SSE   147   2.9      SE   145   9.36    264      -46.2
   01/14/2018 04:50      54.9      54.5       41     31.4      0.00      2.17      60.5     0.49      1020.3     1.3     SSE   155   2.7      SE   140   9.36    264      -49.5
   01/14/2018 04:40      54.9      54.1       42     31.8      0.00      2.17      60.5     0.49      1020.3     1.4     SSE   162   2.8      SE   145   9.36    264      -51.9
   01/14/2018 04:30      55.1      54.4       41     31.3      0.00      2.17      60.5     0.49      1020.4     1.2     SSE   160   2.2       S   176   9.36    263      -54.6
   01/14/2018 04:20      56.4      54.9       39     31.2      0.00      2.17      60.5     0.49      1020.5     1.2     SSE   156   2.7       S   171   9.36    263      -56.7
   01/14/2018 04:10      56.4      55.3       37     30.3      0.00      2.17      60.5     0.49      1020.5     1.5     SSE   155   3.0     SSE   159   9.36    263      -57.6
   01/14/2018 04:00      56.8      55.5       38     30.5      0.00      2.17      60.5     0.49      1020.5     1.4     SSE   164   2.8     SSE   156   9.36    263      -58.4
   01/14/2018 03:50      56.6      54.5       38     29.9      0.00      2.17      60.5     0.49      1020.6     1.6     SSE   161   3.3      SE   144   9.36    263      -59.9
   01/14/2018 03:40      55.3      54.6       40     30.9      0.00      2.17      60.5     0.49      1020.6     1.5     SSE   161   2.7      SE   139   9.36    263      -61.9
   01/14/2018 03:30      56.4      55.0       39     30.9      0.00      2.17      60.5     0.49      1020.6     1.2     SSE   157   3.2       S   171   9.36    263      -64.1
   01/14/2018 03:20      56.7      56.0       37     30.1      0.00      2.17      60.6     0.49      1020.6     1.6       S   188   3.1       S   182   9.36    263      -64.7
   01/14/2018 03:10      56.9      55.4       37     30.0      0.00      2.17      60.6     0.49      1020.6     1.5       S   175   3.5     SSW   200   9.36    263      -64.5
   01/14/2018 03:00      56.8      55.6       38     30.6      0.00      2.17      60.5     0.49      1020.7     1.0     SSE   159   3.0     SSE   148   9.36    263      -66.0
   01/14/2018 02:50      57.0      56.0       37     30.2      0.00      2.17      60.6     0.49      1020.6     2.0     SSE   149   3.8       S   173   9.37    263      -65.5
   01/14/2018 02:40      57.2      56.4       36     30.0      0.00      2.17      60.6     0.49      1020.6     1.1     SSE   157   3.3     SSW   196   9.37    263      -65.8
   01/14/2018 02:30      57.8      56.6       36     30.2      0.00      2.17      60.6     0.49      1020.6     1.3     SSE   158   3.0     SSE   147   9.37    263      -66.8
   01/14/2018 02:20      57.9      57.3       35     29.9      0.00      2.17      60.6     0.49      1020.5     2.0     SSE   160   3.9      SE   135   9.37    263      -66.4
   01/14/2018 02:10      59.9      57.7       33     29.8      0.00      2.17      60.6     0.49      1020.4     1.4     SSE   157   3.7     SSW   198   9.37    263      -66.9
   01/14/2018 02:00      59.6      58.7       31     28.7      0.00      2.17      60.6     0.49      1020.4     2.1     SSE   158   3.8       S   188   9.37    263      -66.6
   01/14/2018 01:50      60.0      59.1       31     28.9      0.00      2.17      60.6     0.49      1020.5     1.8     SSE   160   3.6      SE   139   9.37    263      -65.5
   01/14/2018 01:40      60.9      59.8       30     28.7      0.00      2.17      60.6     0.49      1020.4     1.8     SSE   165   3.4       S   171   9.37    263      -65.2
   01/14/2018 01:30      61.2      59.9       30     28.4      0.00      2.17      60.6     0.49      1020.4     1.7     SSE   161   3.2      SE   141   9.37    263      -66.0
   01/14/2018 01:20      61.3      60.4       28     27.6      0.00      2.17      60.6     0.49      1020.4     1.5     SSE   162   3.0     SSE   154   9.37    263      -65.5
   01/14/2018 01:10      61.4      59.4       30     28.6      0.00      2.17      60.6     0.49      1020.3     2.0     SSE   160   3.9     SSE   158   9.37    263      -65.0
   01/14/2018 01:00      61.4      59.9       29     28.1      0.00      2.17      60.6     0.49      1020.4     1.4       S   177   2.9       S   183   9.37    262      -65.8
   01/14/2018 00:50      61.9      60.9       28     27.9      0.00      2.17      60.6     0.49      1020.4     1.8       S   170   3.4     SSE   166   9.38    262      -67.2
   01/14/2018 00:40      61.9      59.8       28     27.5      0.00      2.17      60.6     0.49      1020.5     1.7     SSE   151   2.8      SE   137   9.38    262      -68.0
   01/14/2018 00:30      62.2      59.8       29     28.4      0.00      2.17      60.6     0.49      1020.5     2.2     SSE   162   4.1      SE   145   9.38    263      -69.5
   01/14/2018 00:20      62.9      60.3       31     29.9      0.00      2.17      60.6     0.49      1020.4     1.3       S   174   3.9       S   180   9.38    263      -68.9
   01/14/2018 00:10      63.8      62.6       25     27.1      0.00      2.17      60.6     0.49      1020.5     1.5     SSE   164   3.1      SE   144   9.38    262      -68.5
   01/14/2018 00:00      63.0      61.5       28     28.6      0.00      2.17      60.6     0.49      1020.6     1.6      SE   145   4.1      SE   146   9.38    262      -66.7
   01/13/2018 23:50      66.8      62.9       25     28.1      0.00      2.17      60.6     0.49      1020.6     1.3     SSE   163   3.1       S   175   9.38    262      -65.0
   01/13/2018 23:40      66.7      65.4       22     25.9      0.00      2.17      60.6     0.49      1020.7     2.5     SSW   198   4.4       S   189   9.38    262      -63.2
   01/13/2018 23:30      66.2      65.1       22     26.3      0.00      2.17      60.6     0.49      1020.6     1.3       S   177   3.6       S   182   9.38    262      -61.8
   01/13/2018 23:20      65.3      62.1       25     26.7      0.00      2.17      60.6     0.49      1020.7     1.6     SSE   158   3.8       S   187   9.38    262      -59.0
   01/13/2018 23:10      63.3      61.8       29     29.7      0.00      2.17      60.6     0.49      1020.7     1.7       S   170   3.3      SE   130   9.38    262      -59.0
   01/13/2018 23:00      64.4      63.1       26     28.7      0.00      2.17      60.6     0.49      1020.8     1.9     SSE   161   3.4       S   175   9.38    262      -58.4
   01/13/2018 22:50      66.0      64.3       24     27.8      0.00      2.17      60.6     0.49      1020.8     1.4     SSE   167   3.2     SSE   165   9.39    262      -58.4
   01/13/2018 22:40      66.8      65.4       23     27.1      0.00      2.17      60.6     0.49      1020.8     1.9     SSE   159   3.8      SE   144   9.39    262      -59.3
   01/13/2018 22:30      68.7      66.5       21     26.1      0.00      2.17      60.6     0.49      1020.8     1.7     SSE   165   4.1       S   186   9.39    261      -62.7
   01/13/2018 22:20      69.5      68.4       19     24.9      0.00      2.17      60.5     0.49      1020.7     1.6      SE   126   5.9     NNW   342   9.39    261      -64.9
   01/13/2018 22:10      70.6      69.2       18     24.2      0.00      2.17      60.6     0.49      1020.7     1.4       E    93   5.1       N   354   9.39    261      -66.3
   01/13/2018 22:00      70.6      69.8       17     24.0      0.00      2.17      60.6     0.49      1020.7     2.3     NNE    18   7.0       N     5   9.39    261      -67.1
   01/13/2018 21:50      70.6      70.0       18     24.2      0.00      2.17      60.6     0.49      1020.7     2.4     NNE    16   6.3     NNW   344   9.39    261      -67.9
   01/13/2018 21:40      70.7      70.2       18     24.4      0.00      2.17      60.6     0.49      1020.6     3.0       N     8   6.6      NE    36   9.39    261      -68.7
   01/13/2018 21:30      70.6      69.9       18     24.5      0.00      2.17      60.5     0.49      1020.6     3.6       N     7   8.7     NNE    12   9.39    261      -67.5
   01/13/2018 21:20      70.0      66.6       19     24.8      0.00      2.17      60.5     0.49      1020.6     3.2       N    10   7.6     NNW   333   9.39    262      -65.0
   01/13/2018 21:10      66.8      65.0       23     26.9      0.00      2.17      60.5     0.49      1020.6     1.8       E   101   5.1     NNE    29   9.39    262      -64.9
   01/13/2018 21:00      65.4      63.3       27     29.0      0.00      2.17      60.5     0.49      1020.6     1.7     SSE   158   3.7       S   171   9.40    262      -64.3
   01/13/2018 20:50      64.3      63.5       28     29.8      0.00      2.17      60.5     0.49      1020.6     1.0     SSE   158   2.8     SSE   150   9.40    262      -66.3
   01/13/2018 20:40      65.5      64.0       26     29.4      0.00      2.17      60.5     0.49      1020.5     1.5       S   171   3.1     SSE   162   9.40    262      -68.2
   01/13/2018 20:30      65.5      64.3       26     28.9      0.00      2.17      60.5     0.49      1020.4     2.2     SSE   153   3.9       S   182   9.40    262      -69.8
   01/13/2018 20:20      67.9      64.6       26     30.0      0.00      2.17      60.5     0.49      1020.4     1.4     SSE   153   3.2      SE   133   9.40    262      -72.1
   01/13/2018 20:10      68.1      67.5       22     27.5      0.00      2.17      60.5     0.49      1020.3     1.6       S   170   4.4       N   355   9.40    261      -73.9
   01/13/2018 20:00      68.2      67.3       22     28.0      0.00      2.17      60.4     0.49      1020.1     1.8     SSE   150   4.6     SSE   157   9.40    261      -74.6
   01/13/2018 19:50      68.1      67.0       23     28.1      0.00      2.17      60.4     0.49      1020.0     2.8     SSE   161   5.1     SSE   151   9.41    261      -73.5
   01/13/2018 19:40      67.2      66.0       25     29.5      0.00      2.17      60.4     0.49      1020.1     2.0     SSE   160   4.7       S   180   9.41    262      -73.4
   01/13/2018 19:30      67.8      66.5       25     29.9      0.00      2.17      60.4     0.49      1020.1     1.5     SSE   155   4.3      SE   136   9.41    262      -75.4
   01/13/2018 19:20      70.6      67.4       23     29.4      0.00      2.17      60.3     0.49      1020.1     2.6     SSE   151   6.3      SE   129   9.41    261      -79.1
   01/13/2018 19:10      71.1      70.3       20     28.0      0.00      2.17      60.3     0.49      1020.0     1.9      NE    56   6.5     NNW   327   9.41    261      -81.3
   01/13/2018 19:00      71.4      70.8       20     28.1      0.00      2.17      60.3     0.49      1019.9     3.0     NNE    12   8.5       N     4   9.41    261      -82.2
   01/13/2018 18:50      71.5      71.0       20     28.4      0.00      2.17      60.3     0.49      1019.9     3.9     NNE    15   8.1     NNE    21   9.42    261      -82.6
   01/13/2018 18:40      71.5      71.0       20     28.6      0.00      2.17      60.2     0.49      1019.8     3.9     NNE    13   6.5     NNE    13   9.42    261      -83.1
   01/13/2018 18:30      71.5      71.1       20     28.7      0.00      2.17      60.2     0.49      1019.8     4.3       N     8   9.8       N   354   9.42    261      -83.7
   01/13/2018 18:20      71.8      71.2       21     28.9      0.00      2.17      60.2     0.49      1019.7     4.9       N     1  10.2       N    10   9.42    261      -84.3
   01/13/2018 18:10      72.1      71.2       21     29.1      0.00      2.17      60.2     0.49      1019.7     4.1       N    10  12.0      NE    36   9.43    261      -84.9
   01/13/2018 18:00      72.4      71.7       20     28.9      0.00      2.17      60.1     0.49      1019.6     4.3       N     7   8.3     NNE    31   9.43    261      -86.0
   01/13/2018 17:50      72.5      72.0       20     29.1      0.00      2.17      60.1     0.49      1019.5     4.1       N     8   8.8       N     4   9.43    261      -87.1
   01/13/2018 17:40      72.7      72.2       20     29.3      0.00      2.17      60.1     0.49      1019.4     4.7       N    11   9.2     NNW   329   9.43    261      -87.6
   01/13/2018 17:30      73.0      72.3       20     29.5      0.00      2.17      60.1     0.49      1019.3     4.5       N     5   7.6       N     7   9.43    261      -88.3
   01/13/2018 17:20      73.1      72.6       20     29.7      0.00      2.17      60.0     0.49      1019.3     5.5       N   354   9.7      NW   315   9.43    261      -89.0
   01/13/2018 17:10      73.7      72.8       20     29.9      0.00      2.17      60.0     0.49      1019.3     4.7       N   357   9.4     NNW   347   9.44    261      -88.7
   01/13/2018 17:00      74.0      73.4       20     29.7      0.00      2.17      60.0     0.49      1019.2     6.4       N   359  12.0     NNW   330   9.44    261      -84.3
   01/13/2018 16:50      74.2      73.7       20     30.1      0.00      2.17      59.9     0.49      1019.2     5.6       N   359  11.6     NNW   335   9.44    261      -78.8
   01/13/2018 16:40      74.7      74.0       20     30.6      0.00      2.17      59.9     0.49      1019.1     6.1       N     9  11.2       N     0   9.45    261      -70.0
   01/13/2018 16:30      75.5      74.4       20     31.3      0.00      2.17      59.9     0.49      1019.1     7.8       N     4  16.5       N     0   9.45    261      -46.6
   01/13/2018 16:20      75.7      75.0       20     31.0      0.00      2.17      59.8     0.49      1019.1     6.8       N    10  13.1     NNE    14   9.45    261      -35.1
   01/13/2018 16:10      76.2      75.3       19     30.6      0.00      2.17      59.8     0.49      1019.1     9.1       N     9  17.3     NNE    24   9.45    261      -13.3
   01/13/2018 16:00      76.5      75.7       19     30.6      0.00      2.17      59.7     0.49      1019.1     7.2       N     5  15.0     NNE    16   9.46    260        9.1
   01/13/2018 15:50      76.8      76.2       18     30.4      0.00      2.17      59.7     0.49      1019.1     8.6       N     5  16.6     NNW   342   9.46    261       29.0
   01/13/2018 15:40      77.4      76.5       18     30.5      0.00      2.17      59.6     0.49      1019.0     7.1       N     4  15.2       N   351   9.46    261       41.3
   01/13/2018 15:30      77.8      77.0       18     30.3      0.00      2.17      59.6     0.49      1019.1     7.8       N     5  14.0     NNW   346   9.47    260       74.6
   01/13/2018 15:20      78.0      77.3       17     29.9      0.00      2.17      59.6     0.49      1019.1     7.1       N   359  13.1       N     8   9.47    261       97.4
   01/13/2018 15:10      78.1      77.6       17     29.6      0.00      2.17      59.6     0.49      1019.1     7.0       N     4  12.8     NNE    13   9.47    260      118.7
   01/13/2018 15:00      78.8      77.7       16     29.0      0.00      2.17      59.6     0.49      1019.0     7.3       N   358  14.9      NW   322   9.47    260      141.1
   01/13/2018 14:50      78.8      78.4       16     28.8      0.00      2.17      59.5     0.49      1019.0     6.1       N     5  13.8     NNE    20   9.48    260      160.6
   01/13/2018 14:40      79.4      78.5       16     28.1      0.00      2.17      59.5     0.49      1019.0     7.4       N     2  17.3       N     2   9.48    260      180.6
   01/13/2018 14:30      79.5      78.8       15     27.6      0.00      2.17      59.4     0.49      1019.0     5.7       N   355  11.2     NNE    20   9.48    260      197.9
   01/13/2018 14:20      79.0      78.5       15     26.9      0.00      2.17      59.4     0.49      1019.1     6.9       N   356  13.8      NE    36   9.48    260      214.6
   01/13/2018 14:10      78.8      78.5       14     26.4      0.00      2.17      59.4     0.49      1019.0     8.4       N   359  15.7     NNE    21   9.48    260      229.2
   01/13/2018 14:00      79.3      78.6       14     26.1      0.00      2.17      59.3     0.49      1019.1     8.2       N     7  12.6     NNE    13   9.49    260      223.2
   01/13/2018 13:50      79.5      78.6       14     25.9      0.00      2.17      59.3     0.49      1019.2     8.0       N   360  15.2      NE    38   9.49    260      263.1
   01/13/2018 13:40      79.7      78.8       14     26.2      0.00      2.17      59.3     0.49      1019.2     7.9       N     8  14.3       N     6   9.49    260      270.5
   01/13/2018 13:30      80.0      79.1       14     26.5      0.00      2.17      59.2     0.49      1019.2     7.2       N   350  13.5      NE    40   9.49    260      281.1
   01/13/2018 13:20      79.7      79.2       14     26.6      0.00      2.17      59.2     0.48      1019.3     6.0       N     3  13.8       N     4   9.50    260      282.8
   01/13/2018 13:10      79.8      79.2       14     26.7      0.00      2.17      59.2     0.49      1019.3     6.8       N     7  13.9     NNE    18   9.50    260      302.1
   01/13/2018 13:00      79.8      79.2       15     27.1      0.00      2.17      59.2     0.49      1019.5     7.3       N     4  15.9     NNW   342   9.50    260      300.0
   01/13/2018 12:50      80.0      79.3       14     27.0      0.00      2.17      59.2     0.48      1019.6     7.0       N   351  14.6       N     7   9.50    260      319.3
   01/13/2018 12:40      80.0      79.0       15     27.6      0.00      2.17      59.1     0.48      1019.8     5.7       N    11  12.5     NNE    23   9.50    260      316.2
   01/13/2018 12:30      79.7      79.0       15     27.0      0.00      2.17      59.2     0.48      1020.0     7.5       N     7  14.5     NNW   344   9.50    260      321.3
   01/13/2018 12:20      79.5      79.0       15     27.6      0.00      2.17      59.1     0.48      1020.2     7.3       N     5  13.6     ENE    61   9.50    260      328.2
   01/13/2018 12:10      79.3      78.8       15     28.0      0.00      2.17      59.1     0.48      1020.4     6.8       N     2  11.8       N   353   9.50    261      332.0
   01/13/2018 12:00      79.5      78.5       15     28.0      0.00      2.17      59.1     0.48      1020.6     6.4       N     2  14.2       N   352   9.50    261      332.1
   01/13/2018 11:50      78.9      78.3       16     28.2      0.00      2.17      59.0     0.48      1020.7     6.8       N     2  13.2       N     6   9.51    261      325.1
   01/13/2018 11:40      78.8      78.3       16     28.3      0.00      2.17      59.1     0.48      1020.9     6.6       N     4  13.0     NNE    27   9.51    261      320.6
   01/13/2018 11:30      78.7      78.2       16     28.1      0.00      2.17      59.1     0.48      1021.1     6.1       N     9  11.6     NNE    23   9.51    261      330.9
   01/13/2018 11:20      78.7      78.1       16     28.8      0.00      2.17      59.1     0.48      1021.3     5.9       N     9  11.7     NNW   340   9.51    261      324.4
   01/13/2018 11:10      78.4      77.6       17     29.0      0.00      2.17      59.1     0.48      1021.5     4.7       N     6   9.7      NW   318   9.51    261      311.1
   01/13/2018 11:00      77.6      77.0       17     28.4      0.00      2.17      59.1     0.48      1021.7     5.3     NNE    12   9.9     NNE    15   9.51    261      300.8
   01/13/2018 10:50      77.6      76.8       17     29.3      0.00      2.17      59.2     0.48      1021.9     5.7       N     3   9.2     NNW   330   9.51    261      297.5
   01/13/2018 10:40      77.7      76.8       18     30.2      0.00      2.17      59.2     0.48      1022.0     3.5       N     6   6.8       N   352   9.51    261      287.6
   01/13/2018 10:30      77.1      76.0       18     30.1      0.00      2.17      59.1     0.48      1022.1     3.6       N     4   8.5       N     8   9.51    261      278.2
   01/13/2018 10:20      76.6      75.6       18     30.1      0.00      2.17      59.2     0.48      1022.2     3.5       N     8   7.2     NNE    25   9.51    261      274.8
   01/13/2018 10:10      75.7      74.6       19     30.0      0.00      2.17      59.2     0.48      1022.2     3.7       N     9   7.4     NNE    16   9.51    261      266.5
   01/13/2018 10:00      74.8      74.2       19     30.0      0.00      2.17      59.2     0.48      1022.2     4.6       N     3   9.3     NNE    30   9.51    262      253.5
   01/13/2018 09:50      74.4      73.4       20     30.6      0.00      2.17      59.3     0.48      1022.3     3.7       N   360   7.4       N    10   9.51    262      237.5
   01/13/2018 09:40      73.9      73.3       21     31.5      0.00      2.17      59.3     0.48      1022.3     3.3       N     9   6.3     NNE    13   9.51    262      222.1
   01/13/2018 09:30      73.7      73.2       21     31.6      0.00      2.17      59.3     0.48      1022.3     2.2       N     8   6.0       N     6   9.51    262      205.9
   01/13/2018 09:20      74.2      73.3       21     30.9      0.00      2.17      59.3     0.48      1022.2     1.9     NNW   330   4.5     NNW   338   9.51    262      189.7
   01/13/2018 09:10      74.0      72.6       22     32.2      0.00      2.17      59.4     0.49      1022.2     0.7     NNE    20   3.3     ENE    68   9.51    262      173.3
   01/13/2018 09:00      72.6      70.6       25     33.7      0.00      2.17      59.4     0.49      1022.1     0.8       S   185   2.8     SSW   193   9.51    263      152.4
   01/13/2018 08:50      70.9      70.1       26     33.9      0.00      2.17      59.4     0.49      1021.9     1.9     SSW   210   4.4     SSW   207   9.51    263      118.1
   01/13/2018 08:40      70.6      68.2       28     34.9      0.00      2.17      59.5     0.49      1021.8     0.3     SSW   193   1.6      SW   231   9.51    263      107.1
   01/13/2018 08:30      68.2      65.0       31     34.7      0.00      2.17      59.4     0.49      1021.8     0.5     SSE   159   2.0      NW   309   9.51    264       98.4
   01/13/2018 08:20      65.0      62.1       33     34.5      0.00      2.17      59.5     0.49      1021.7     1.2      SE   138   3.7       S   171   9.51    264       76.6
   01/13/2018 08:10      62.3      59.4       36     34.1      0.00      2.17      59.5     0.49      1021.6     1.7     SSE   159   3.5     SSW   212   9.51    264       42.1
   01/13/2018 08:00      59.9      59.0       40     35.1      0.00      2.17      59.5     0.49      1021.4     1.3      SE   126   3.7       S   185   9.51    265      -38.8
   01/13/2018 07:50      59.5      58.4       39     34.0      0.00      2.17      59.5     0.49      1021.4     1.5     SSE   165   3.4       S   187   9.51    265      -43.5
   01/13/2018 07:40      58.2      55.2       43     33.8      0.00      2.17      59.5     0.49      1021.3     2.2       S   172   4.2       S   178   9.51    265      -46.2
   01/13/2018 07:30      55.7      54.2       45     33.6      0.00      2.17      59.5     0.49      1021.3     1.8     SSE   167   3.7     SSW   202   9.51    265      -49.4
   01/13/2018 07:20      55.8      53.1       46     33.9      0.00      2.17      59.6     0.49      1021.2     1.5     SSE   156   3.8     SSW   197   9.51    265      -54.3
   01/13/2018 07:10      53.5      52.8       49     34.4      0.00      2.17      59.6     0.49      1021.1     1.2     SSE   167   2.5     SSE   163   9.51    265      -59.3
   01/13/2018 07:00      53.9      53.2       48     34.3      0.00      2.17      59.6     0.49      1021.0     1.7     SSE   165   3.4     SSW   213   9.51    265      -61.7
   01/13/2018 06:50      54.0      53.3       48     34.3      0.00      2.17      59.6     0.49      1021.0     1.3     SSE   159   2.8      SE   130   9.51    265      -62.9
   01/13/2018 06:40      54.3      53.1       47     34.1      0.00      2.17      59.6     0.49      1020.9     1.8     SSE   155   3.6      SW   219   9.51    265      -63.2
   01/13/2018 06:30      54.3      53.3       47     34.2      0.00      2.17      59.6     0.49      1020.8     1.2       S   173   2.6     SSE   158   9.51    265      -63.5
   01/13/2018 06:20      54.6      53.6       47     34.1      0.00      2.17      59.7     0.49      1020.8     1.9     SSE   154   4.0      SE   136   9.51    266      -63.5
   01/13/2018 06:10      54.1      53.0       48     34.4      0.00      2.17      59.7     0.49      1020.8     1.5     SSE   150   3.2     SSE   162   9.51    265      -63.5
   01/13/2018 06:00      54.3      53.2       48     34.7      0.00      2.17      59.7     0.49      1020.6     1.4     SSE   160   3.6       S   178   9.52    265      -63.4
   01/13/2018 05:50      54.3      53.2       48     34.6      0.00      2.17      59.7     0.49      1020.5     1.5     SSE   152   3.2      SE   138   9.52    265      -64.1
   01/13/2018 05:40      54.2      53.1       49     35.0      0.00      2.17      59.7     0.49      1020.5     1.6      SE   144   3.1      SE   145   9.52    265      -63.4
   01/13/2018 05:30      55.1      53.9       47     34.8      0.00      2.17      59.8     0.49      1020.5     1.2     SSE   152   2.3      SE   137   9.52    265      -63.1
   01/13/2018 05:20      55.2      54.5       46     34.5      0.00      2.17      59.8     0.49      1020.4     1.9     SSE   153   3.4      SE   139   9.52    265      -63.0
   01/13/2018 05:10      55.4      54.5       46     34.5      0.00      2.17      59.8     0.49      1020.3     2.1     SSE   152   3.5      SE   146   9.52    265      -62.9
   01/13/2018 05:00      55.8      55.1       45     34.4      0.00      2.17      59.8     0.49      1020.3     1.3     SSE   165   3.3      SE   145   9.52    265      -63.0
   01/13/2018 04:50      55.8      54.4       45     34.0      0.00      2.17      59.8     0.49      1020.3     1.3     SSE   165   2.6     SSE   154   9.52    265      -62.1
   01/13/2018 04:40      54.6      53.7       48     34.9      0.00      2.17      59.8     0.49      1020.3     1.6     SSE   164   2.8       S   170   9.52    265      -62.2
   01/13/2018 04:30      54.8      54.1       47     34.6      0.00      2.17      59.8     0.49      1020.2     1.3     SSE   148   2.4      SE   142   9.52    265      -62.2
   01/13/2018 04:20      55.4      54.3       46     34.8      0.00      2.17      59.8     0.49      1020.2     1.3     SSE   167   2.6      SE   142   9.52    265      -62.6
   01/13/2018 04:10      56.4      55.2       45     34.5      0.00      2.17      59.8     0.49      1020.3     1.4     SSE   147   3.0     SSE   157   9.52    265      -62.9
   01/13/2018 04:00      57.5      56.2       42     33.8      0.00      2.17      59.8     0.49      1020.3     1.2     SSE   159   3.5     SSW   199   9.52    264      -63.5
   01/13/2018 03:50      55.9      55.0       45     34.6      0.00      2.17      59.9     0.49      1020.4     1.5      SE   145   5.1       S   184   9.52    265      -64.5
   01/13/2018 03:40      55.6      53.9       47     34.7      0.00      2.17      59.9     0.49      1020.4     1.8     SSE   154   4.2       S   181   9.52    265      -63.6
   01/13/2018 03:30      55.5      53.8       49     35.8      0.00      2.17      59.9     0.49      1020.4     1.5       S   173   2.7     SSW   198   9.52    265      -64.5
   01/13/2018 03:20      55.4      54.7       47     35.5      0.00      2.17      59.9     0.49      1020.3     1.2     SSE   158   2.6     SSE   151   9.53    265      -64.2
   01/13/2018 03:10      56.1      54.9       46     35.2      0.00      2.17      59.9     0.49      1020.5     1.1     SSE   151   3.0       S   182   9.53    265      -63.9
   01/13/2018 03:00      55.9      54.9       48     35.8      0.00      2.17      59.9     0.49      1020.5     0.9       S   184   2.3       S   190   9.53    265      -63.8
   01/13/2018 02:50      56.0      55.5       46     35.5      0.00      2.17      59.9     0.49      1020.6     1.5     SSE   156   3.9      SE   134   9.53    265      -62.7
   01/13/2018 02:40      56.4      55.1       47     36.0      0.00      2.17      59.9     0.49      1020.6     1.3     SSE   165   2.5     SSW   196   9.53    265      -62.2
   01/13/2018 02:30      56.3      54.6       48     35.9      0.00      2.17      59.9     0.49      1020.7     1.5     SSE   164   3.4     WSW   242   9.53    265      -62.8
   01/13/2018 02:20      55.7      54.9       50     36.7      0.00      2.17      59.9     0.49      1020.7     1.6      SE   142   3.5     SSE   152   9.53    265      -61.9
   01/13/2018 02:10      56.8      55.3       49     36.9      0.00      2.17      59.9     0.49      1020.7     1.4     SSE   154   2.7      SE   134   9.53    265      -61.5
   01/13/2018 02:00      57.1      56.4       47     36.6      0.00      2.17      59.9     0.49      1020.8     1.4     SSE   150   3.2      SE   138   9.53    265      -61.4
   01/13/2018 01:50      57.1      55.2       49     36.9      0.00      2.17      60.0     0.49      1020.8     1.3     SSE   159   3.1     SSW   209   9.53    265      -59.6
   01/13/2018 01:40      55.7      54.9       51     37.4      0.00      2.17      59.9     0.49      1020.8     1.5     SSE   158   3.0       S   183   9.53    265      -60.1
   01/13/2018 01:30      55.7      54.8       53     38.2      0.00      2.17      60.0     0.49      1020.8     1.4     SSE   166   2.5     SSE   148   9.53    265      -60.9
   01/13/2018 01:20      56.3      55.5       51     38.1      0.00      2.17      60.0     0.49      1020.8     0.8      SE   131   2.5     SSE   166   9.53    265      -62.0
   01/13/2018 01:10      56.5      55.7       51     38.1      0.00      2.17      59.9     0.49      1020.7     1.4     SSE   157   2.7     SSE   152   9.53    265      -61.0
   01/13/2018 01:00      56.8      56.0       51     38.6      0.00      2.17      60.0     0.49      1020.7     1.0      SE   139   2.2      SE   138   9.53    265      -61.4
   01/13/2018 00:50      57.7      56.5       49     38.4      0.00      2.17      60.0     0.49      1020.8     1.6     SSE   165   3.4       S   171   9.53    265      -61.3
   01/13/2018 00:40      57.2      56.0       51     38.5      0.00      2.17      60.0     0.49      1020.9     1.9     SSE   157   3.1     SSE   149   9.53    265      -61.2
   01/13/2018 00:30      56.9      56.3       52     39.0      0.00      2.17      60.0     0.49      1020.9     2.1      SE   136   3.1      SE   130   9.53    265      -61.9
   01/13/2018 00:20      56.4      55.3       55     39.7      0.00      2.17      60.0     0.49      1021.0     0.9     SSE   162   2.3       S   186   9.53    265      -61.4
   01/13/2018 00:10      56.8      56.0       53     39.6      0.00      2.17      59.9     0.49      1021.0     1.2      SE   145   2.7      SE   145   9.53    265      -62.0
   01/13/2018 00:00      56.8      56.4       53     39.4      0.00      2.17      59.9     0.49      1021.2     1.2       S   188   3.4       S   172   9.53    265      -61.6
   01/12/2018 23:50      57.0      56.4       54     40.0      0.00      2.17      59.9     0.49      1021.2     1.3      SW   219   2.9     SSW   196   9.54    265      -63.0
   01/12/2018 23:40      57.5      56.5       53     39.8      0.00      2.17      59.9     0.49      1021.2     1.4     SSE   164   2.6       S   175   9.54    265      -62.3
   01/12/2018 23:30      57.3      56.5       53     40.0      0.00      2.17      59.9     0.49      1021.2     1.4     SSE   162   3.3      SE   144   9.54    264      -63.5
   01/12/2018 23:20      57.0      56.1       55     40.5      0.00      2.17      59.9     0.49      1021.2     1.5       S   169   3.7     SSE   157   9.54    264      -63.0
   01/12/2018 23:10      57.8      56.8       54     40.7      0.00      2.17      59.9     0.49      1021.2     1.6     SSE   156   2.8      SE   146   9.54    264      -63.2
   01/12/2018 23:00      58.0      57.5       52     40.5      0.00      2.17      59.9     0.49      1021.1     1.5     SSE   168   3.0     SSW   195   9.54    264      -64.2
   01/12/2018 22:50      57.8      57.2       54     40.9      0.00      2.17      59.9     0.49      1021.2     0.9       S   182   2.8       S   182   9.54    264      -65.5
   01/12/2018 22:40      59.6      57.5       52     41.0      0.00      2.17      59.9     0.49      1021.2     1.7     SSE   154   3.4      SE   141   9.54    264      -66.2
   01/12/2018 22:30      61.6      59.3       49     40.7      0.00      2.17      59.9     0.49      1021.0     1.0     SSE   168   2.8       S   181   9.54    264      -67.2
   01/12/2018 22:20      63.5      61.3       43     39.7      0.00      2.17      59.9     0.49      1020.9     2.2       S   171   4.1     SSW   191   9.54    264      -66.2
   01/12/2018 22:10      63.5      62.8       40     38.6      0.00      2.17      59.9     0.49      1020.8     0.6       S   169   2.1      SE   142   9.55    264      -66.8
   01/12/2018 22:00      62.9      61.2       44     39.5      0.00      2.17      59.8     0.49      1020.8     1.0       S   170   3.0       N   349   9.55    264      -67.2
   01/12/2018 21:50      63.3      62.1       43     39.7      0.00      2.17      59.8     0.49      1020.7     1.4     SSE   168   3.1       S   184   9.55    264      -68.0
   01/12/2018 21:40      63.2      62.7       42     39.3      0.00      2.17      59.8     0.49      1020.6     1.9       S   173   3.4       S   177   9.55    264      -69.7
   01/12/2018 21:30      64.3      62.5       42     39.9      0.00      2.17      59.8     0.49      1020.6     1.9     SSE   164   4.8     ENE    78   9.55    264      -70.7
   01/12/2018 21:20      64.3      63.6       41     39.5      0.00      2.17      59.8     0.49      1020.5     1.4     SSE   159   3.6       S   177   9.55    264      -71.2
   01/12/2018 21:10      64.4      63.3       42     39.9      0.00      2.17      59.8     0.49      1020.5     2.0     SSE   169   4.4       S   183   9.55    264      -70.7
   01/12/2018 21:00      64.8      64.2       40     39.8      0.00      2.17      59.7     0.49      1020.5     2.2       S   184   4.2     SSW   196   9.55    264      -71.6
   01/12/2018 20:50      66.6      64.2       40     40.2      0.00      2.17      59.8     0.49      1020.4     1.7     SSE   165   3.5       S   170   9.55    264      -73.4
   01/12/2018 20:40      67.9      66.4       35     39.0      0.00      2.17      59.7     0.49      1020.4     1.9     SSE   152   5.3      SE   141   9.55    263      -76.2
   01/12/2018 20:30      68.2      67.4       35     38.9      0.00      2.17      59.7     0.49      1020.2     1.5       E    99   3.4       E    92   9.56    263      -77.1
   01/12/2018 20:20      69.5      67.6       35     39.6      0.00      2.17      59.7     0.49      1020.1     1.1     SSW   206   3.3       W   269   9.56    263      -77.7
   01/12/2018 20:10      69.5      69.0       34     39.4      0.00      2.17      59.7     0.49      1020.1     3.4     NNW   347  10.5      NE    41   9.56    263      -79.5
   01/12/2018 20:00      69.3      68.8       34     39.9      0.00      2.17      59.7     0.49      1020.1     5.1       N     4  10.9       N     0   9.56    263      -80.1
   01/12/2018 19:50      69.5      68.8       35     40.1      0.00      2.17      59.6     0.49      1020.0     5.8       N     4  11.5     NNE    27   9.56    263      -80.8
   01/12/2018 19:40      69.5      68.9       35     40.2      0.00      2.17      59.6     0.49      1020.1     5.5       N     8  10.2       N     9   9.56    263      -80.9
   01/12/2018 19:30      69.3      69.0       35     40.5      0.00      2.17      59.6     0.49      1020.0     4.5       N     2  11.2     NNW   343   9.57    263      -81.6
   01/12/2018 19:20      69.6      68.8       36     40.9      0.00      2.17      59.6     0.49      1020.0     4.4     NNE    12   8.7       N     9   9.57    263      -82.2
   01/12/2018 19:10      69.8      69.1       36     41.2      0.00      2.17      59.5     0.49      1020.0     4.7       N     0  12.1     NNW   345   9.57    263      -82.8
   01/12/2018 19:00      69.8      69.3       36     41.4      0.00      2.17      59.5     0.49      1020.0     5.9       N     8  12.0       N     5   9.57    263      -82.9
   01/12/2018 18:50      70.0      69.4       36     41.5      0.00      2.17      59.5     0.49      1020.0     6.1       N     9  13.9       S   177   9.57    263      -83.2
   01/12/2018 18:40      70.2      69.6       35     41.3      0.00      2.17      59.4     0.49      1019.9     6.1       N   352  13.1     NNW   340   9.57    263      -83.8
   01/12/2018 18:30      70.4      69.8       35     40.8      0.00      2.17      59.4     0.49      1020.0     5.7       N     6  10.7     NNE    16   9.58    263      -84.1
   01/12/2018 18:20      70.7      70.1       34     40.5      0.00      2.17      59.4     0.49      1019.8     6.0       N   360  12.5       N   354   9.58    263      -85.2
   01/12/2018 18:10      71.5      70.6       32     39.6      0.00      2.17      59.3     0.49      1019.8     6.8       N     5  12.4       N   353   9.58    262      -86.2
   01/12/2018 18:00      72.0      71.2       30     38.6      0.00      2.17      59.3     0.49      1019.8     6.9       N   354  15.2       N   355   9.58    262      -86.7
   01/12/2018 17:50      72.5      71.6       29     37.6      0.00      2.17      59.3     0.49      1019.8     5.9       N     0  13.6     NNW   333   9.58    262      -87.3
   01/12/2018 17:40      72.9      72.1       27     36.9      0.00      2.17      59.2     0.49      1019.8     5.8       N     3  10.8     NNW   329   9.59    262      -88.2
   01/12/2018 17:30      73.2      72.5       27     36.6      0.00      2.17      59.2     0.49      1019.5     6.5       N     2  11.9       N     9   9.59    262      -90.2
   01/12/2018 17:20      73.5      72.7       26     36.4      0.00      2.17      59.1     0.49      1019.5     6.6       N     0  12.6       N   354   9.59    262      -90.1
   01/12/2018 17:10      74.1      73.2       26     36.2      0.00      2.17      59.1     0.49      1019.4     6.0       N     7  12.8      NW   323   9.59    262      -89.3
   01/12/2018 17:00      74.9      73.8       24     35.5      0.00      2.17      59.1     0.49      1019.3     7.3       N     9  13.8      NE    40   9.59    262      -86.4
   01/12/2018 16:50      75.3      74.6       23     35.2      0.00      2.17      59.0     0.49      1019.3     7.6     NNE    22  14.4     ENE    59   9.59    262      -82.4
   01/12/2018 16:40      76.6      75.0       23     35.3      0.00      2.17      59.0     0.49      1019.2     4.4     NNE    23  10.6       N   354   9.60    262      -75.3
   01/12/2018 16:30      77.7      76.3       22     35.1      0.00      2.17      59.0     0.49      1019.0     5.1     NNE    19   9.0     NNE    25   9.60    261      -54.5
   01/12/2018 16:20      78.1      77.4       21     34.8      0.00      2.17      58.9     0.49      1018.9     5.6       N     0  10.6       N     5   9.60    261      -37.3
   01/12/2018 16:10      78.4      77.8       22     35.8      0.00      2.17      58.9     0.49      1019.0     5.6       N   360  10.4       N     3   9.60    261      -17.3
   01/12/2018 16:00      79.3      78.1       22     36.3      0.00      2.17      58.8     0.49      1019.0     7.0     NNE    14  12.2       N     9   9.61    261       -3.8
   01/12/2018 15:50      79.6      79.1       22     37.1      0.00      2.17      58.8     0.49      1019.0     4.8       N    10   9.0       N   350   9.61    261       18.9
   01/12/2018 15:40      80.1      79.3       21     36.0      0.00      2.17      58.7     0.49      1019.0     4.8     NNE    18   9.9     NNE    30   9.61    261       28.3
   01/12/2018 15:30      80.3      79.8       21     36.5      0.00      2.17      58.7     0.49      1019.0     5.2       N     7   9.4      NE    52   9.61    261       68.8
   01/12/2018 15:20      81.5      80.2       21     36.9      0.00      2.17      58.6     0.49      1019.0     6.1     NNE    18  15.7      NE    48   9.61    261       93.2
   01/12/2018 15:10      82.1      81.1       19     35.1      0.00      2.17      58.6     0.49      1019.0     5.0       N   356   9.8     NNW   343   9.62    261      113.2
   01/12/2018 15:00      82.8      81.8       17     32.8      0.00      2.17      58.6     0.49      1018.9     5.2       N   351   9.1     NNW   344   9.62    260      139.2
   01/12/2018 14:50      83.2      82.3       16     31.1      0.00      2.17      58.5     0.49      1018.9     4.9       N     2   8.7      NW   308   9.62    260      153.8
   01/12/2018 14:40      83.6      82.7       17     33.5      0.00      2.17      58.5     0.49      1018.9     3.4     NNW   332   6.6     NNW   348   9.62    261      169.0
   01/12/2018 14:30      83.7      83.0       16     32.9      0.00      2.17      58.5     0.49      1018.9     3.3      NW   305   6.6      NW   325   9.62    261      186.9
   01/12/2018 14:20      84.2      83.2       16     32.8      0.00      2.17      58.4     0.49      1018.9     3.6      NW   308   7.1     WNW   300   9.62    261      196.9
   01/12/2018 14:10      84.7      83.5       16     33.0      0.00      2.17      58.4     0.49      1018.9     3.1     WNW   302   6.5     WNW   287   9.62    260      220.0
   01/12/2018 14:00      84.6      83.4       17     33.8      0.00      2.17      58.4     0.49      1018.9     2.5     NNW   327   5.7     NNW   343   9.62    261      237.3
   01/12/2018 13:50      84.2      83.4       16     32.4      0.00      2.17      58.3     0.49      1018.9     2.9     WNW   292   7.9       W   275   9.62    260      239.1
   01/12/2018 13:40      84.3      83.4       16     33.5      0.00      2.17      58.3     0.49      1018.9     1.8     WSW   258   5.3     WSW   251   9.62    261      225.3
   01/12/2018 13:30      83.4      82.7       17     33.3      0.00      2.17      58.2     0.49      1018.9     2.3      NW   321   5.2     NNW   343   9.63    261      270.3
   01/12/2018 13:20      82.9      81.9       16     31.9      0.00      2.17      58.2     0.49      1019.0     2.8     WNW   286   5.7       W   273   9.63    261      287.7
   01/12/2018 13:10      82.4      81.4       16     31.5      0.00      2.17      58.2     0.49      1019.2     3.7      NW   314   6.7      NW   306   9.63    261      302.7
   01/12/2018 13:00      82.4      81.5       17     32.2      0.00      2.17      58.2     0.49      1019.3     3.1       W   275   7.3     NNW   341   9.63    261      312.4
   01/12/2018 12:50      81.7      81.2       17     31.9      0.00      2.17      58.1     0.49      1019.5     3.5      NW   314   7.1     NNW   329   9.63    261      314.8
   01/12/2018 12:40      81.7      81.1       17     32.1      0.00      2.17      58.2     0.49      1019.7     3.5      NW   308   7.1     NNW   328   9.63    261      317.8
   01/12/2018 12:30      81.4      80.4       17     32.4      0.00      2.17      58.1     0.49      1019.9     4.5      NW   318   7.7       N   351   9.63    261      307.9
   01/12/2018 12:20      81.3      80.6       17     32.2      0.00      2.17      58.1     0.49      1020.1     4.5      NW   311   9.3      NW   306   9.63    261      306.3
   01/12/2018 12:10      81.5      80.8       18     33.4      0.00      2.17      58.1     0.49      1020.4     3.4     WNW   290   8.1       W   276   9.63    261      327.5
   01/12/2018 12:00      80.9      79.8       18     32.2      0.00      2.17      58.1     0.49      1020.5     3.5     WNW   296   7.7      NW   324   9.63    262      331.5
   01/12/2018 11:50      80.1      79.7       18     32.6      0.00      2.17      58.1     0.49      1020.8     4.2     WNW   293   9.0       W   260   9.63    262      315.6
   01/12/2018 11:40      79.6      78.4       21     35.9      0.00      2.17      58.1     0.49      1021.1     4.8       W   261   8.1     WSW   245   9.63    263      323.6
   01/12/2018 11:30      78.4      77.3       24     37.8      0.00      2.17      58.1     0.49      1021.2     4.0      SW   220   6.4     WSW   258   9.63    263      314.7
   01/12/2018 11:20      77.5      76.6       26     39.6      0.00      2.17      58.1     0.49      1021.5     3.4     SSW   211   5.8     SSW   211   9.63    263      317.7
   01/12/2018 11:10      76.9      76.2       27     40.4      0.00      2.17      58.1     0.49      1021.7     3.8      SW   223   6.2      SW   217   9.63    263      319.9
   01/12/2018 11:00      76.4      75.4       28     40.2      0.00      2.17      58.2     0.49      1021.9     3.6     WSW   255   6.0       W   278   9.63    263      316.3
   01/12/2018 10:50      75.6      75.0       29     40.5      0.00      2.17      58.2     0.49      1022.1     4.6      SW   236   7.5       W   261   9.63    264      312.4
   01/12/2018 10:40      75.4      74.4       30     41.9      0.00      2.17      58.2     0.49      1022.2     3.7     WSW   244   6.8     WSW   238   9.63    264      307.3
   01/12/2018 10:30      74.6      73.8       32     42.0      0.00      2.17      58.2     0.49      1022.5     3.5     WSW   243   5.4     WSW   236   9.63    264      296.2
   01/12/2018 10:20      73.9      71.4       35     43.2      0.00      2.17      58.2     0.49      1022.7     2.1     WSW   258   4.5       W   259   9.63    265      284.3
   01/12/2018 10:10      71.4      70.1       48     50.2      0.00      2.17      58.3     0.49      1022.8     0.8      NE    42   2.4     ENE    72   9.63    266      276.7
   01/12/2018 10:00      71.0      67.5       49     49.7      0.00      2.17      58.3     0.49      1022.8     0.4       N     5   1.4     NNE    32   9.63    266      259.3
   01/12/2018 09:50      67.6      66.1       55     49.9      0.00      2.17      58.3     0.49      1023.0     0.2     NNE    16   1.3     NNE    18   9.63    267      254.7
   01/12/2018 09:40      66.1      64.2       58     49.6      0.00      2.17      58.3     0.49      1023.1     0.3      NE    41   1.1      NE    39   9.63    273      234.1
   01/12/2018 09:30      64.4      62.0       61     49.7      0.00      2.17      58.4     0.49      1023.1     0.9     ENE    74   2.2     ENE    78   9.63    298      232.5
   01/12/2018 09:20      61.9      59.7       64     48.4      0.00      2.17      58.4     0.49      1023.1     1.0     NNE    16   2.1     NNE    23   9.63    350      270.9
   01/12/2018 09:10      59.9      57.5       69     48.2      0.00      2.17      58.4     0.49      1022.9     0.5     NNE    20   1.9       N   353   9.63    386      255.7
   01/12/2018 09:00      57.6      56.0       73     48.4      0.00      2.17      58.4     0.49      1022.9     0.9       N     7   2.6     NNE    24   9.63    411      229.4
   01/12/2018 08:50      56.2      53.2       80     48.9      0.00      2.17      58.5     0.49      1022.9     0.0     NNW   343   0.9     NNW   346   9.63    428      188.2
   01/12/2018 08:40      53.2      51.1       86     47.7      0.00      2.17      58.5     0.49      1022.9     0.2     NNE    16   1.5     NNE    17   9.63    438      133.0
   01/12/2018 08:30      51.3      50.0       88     47.2      0.00      2.17      58.5     0.49      1022.8     0.5      SE   129   1.6     ESE   109   9.63    442       75.4
   01/12/2018 08:20      50.0      48.3       92     46.9      0.00      2.17      58.5     0.49      1022.8     0.6      SE   137   1.8     SSE   147   9.63    446       71.1
   01/12/2018 08:10      48.2      47.0       93     45.4      0.00      2.17      58.5     0.49      1022.8     0.4      NE    49   1.3     NNE    26   9.63    449       56.0
   01/12/2018 08:00      47.3      47.0       93     45.1      0.00      2.17      58.6     0.49      1022.6     0.8     ESE   115   1.7     ESE   103   9.63    450       17.5
   01/12/2018 07:50      47.1      45.9       94     44.6      0.00      2.17      58.6     0.49      1022.6     1.1       N   359   2.7       W   278   9.63    449       14.1
   01/12/2018 07:40      45.9      44.9       94     43.7      0.00      2.17      58.6     0.49      1022.5     1.3       N     6   3.5       N     0   9.63    448        9.7
   01/12/2018 07:30      45.1      44.0       94     42.8      0.00      2.17      58.6     0.49      1022.5     1.0     SSE   158   3.4     SSE   147   9.63    446        4.0
   01/12/2018 07:20      44.2      43.5       94     42.1      0.00      2.17      58.6     0.49      1022.7     0.7     SSE   147   1.8     SSE   147   9.63    444       -3.9
   01/12/2018 07:10      43.9      43.2       94     41.7      0.00      2.17      58.6     0.49      1022.7     1.1     SSE   157   2.5      SE   137   9.63    441       -9.5
   01/12/2018 07:00      44.2      43.5       93     42.0      0.00      2.17      58.7     0.49      1022.5     0.6       E    96   2.1     ESE   104   9.63    438      -13.3
   01/12/2018 06:50      44.4      43.7       93     42.2      0.00      2.17      58.7     0.49      1022.4     0.5     WNW   302   1.4       N     0   9.63    436      -14.8
   01/12/2018 06:40      44.5      44.0       94     42.5      0.00      2.17      58.8     0.49      1022.3     0.7     SSE   160   1.3     SSE   149   9.63    433      -14.9
   01/12/2018 06:30      44.6      43.9       93     42.4      0.00      2.17      58.7     0.49      1022.2     0.6     SSE   167   1.4       S   175   9.63    431      -14.7
   01/12/2018 06:20      44.7      44.0       93     42.3      0.00      2.17      58.8     0.49      1022.3     0.8       S   176   2.4       S   191   9.63    428      -14.7
   01/12/2018 06:10      44.6      44.2       93     42.5      0.00      2.17      58.8     0.49      1022.1     0.9       S   184   2.0       S   176   9.63    426      -15.1
   01/12/2018 06:00      44.5      43.9       93     42.3      0.00      2.17      58.8     0.49      1022.1     0.6       S   182   1.6       S   180   9.63    423      -15.7
   01/12/2018 05:50      44.8      44.1       93     42.6      0.00      2.17      58.8     0.49      1022.0     0.0     NNE    33   0.5     NNE    33   9.63    421      -15.8
   01/12/2018 05:40      45.0      44.4       93     43.0      0.00      2.17      58.8     0.49      1021.9     0.7     SSW   198   1.9     SSW   202   9.63    418      -15.5
   01/12/2018 05:30      44.6      44.0       93     42.3      0.00      2.17      58.8     0.49      1021.9     0.7     WSW   240   2.0      SW   228   9.63    416      -16.0
   01/12/2018 05:20      45.1      44.4       93     42.7      0.00      2.17      58.9     0.49      1021.7     0.2      SE   144   0.9      SE   130   9.63    414      -16.1
   01/12/2018 05:10      45.3      44.5       93     42.9      0.00      2.17      58.9     0.49      1021.7     0.6       S   188   1.8     SSW   194   9.63    411      -16.1
   01/12/2018 05:00      45.6      45.0       93     43.3      0.00      2.17      58.9     0.49      1021.7     0.0     ENE    66   0.7     ENE    76   9.63    409      -16.2
   01/12/2018 04:50      45.8      45.1       93     43.5      0.00      2.17      58.9     0.49      1021.6     0.3     SSW   196   1.4     WSW   240   9.63    406      -16.2
   01/12/2018 04:40      45.5      44.9       93     43.2      0.00      2.17      59.0     0.49      1021.7     0.6      NE    45   1.9     ENE    60   9.63    403      -16.8
   01/12/2018 04:30      45.6      45.0       93     43.4      0.00      2.17      59.0     0.49      1021.8     0.8     SSE   151   2.2     SSE   152   9.63    400      -16.4
   01/12/2018 04:20      45.7      45.0       93     43.3      0.00      2.17      59.0     0.49      1021.9     1.1     SSE   160   2.6       S   186   9.63    398      -16.5
   01/12/2018 04:10      45.6      45.0       93     43.4      0.00      2.17      59.0     0.49      1021.8     1.1       S   189   2.2     SSW   193   9.63    395      -16.7
   01/12/2018 04:00      45.6      45.0       93     43.2      0.00      2.17      59.1     0.49      1021.9     0.5     NNE    30   1.4      NE    38   9.63    392      -17.4
   01/12/2018 03:50      45.6      44.9       93     43.1      0.00      2.17      59.0     0.49      1021.8     0.4     SSE   163   1.3       S   188   9.63    389      -17.3
   01/12/2018 03:40      46.1      45.4       92     43.5      0.00      2.17      59.0     0.49      1021.9     1.0     SSE   147   1.7      SE   140   9.63    386      -17.3
   01/12/2018 03:30      46.0      45.4       92     43.6      0.00      2.17      59.1     0.49      1022.1     0.5     SSW   199   1.2       S   177   9.63    382      -17.2
   01/12/2018 03:20      46.2      45.6       92     43.8      0.00      2.17      59.1     0.49      1022.1     0.0       N     0   0.0     SSW   213   9.63    380      -17.7
   01/12/2018 03:10      46.2      45.7       92     43.8      0.00      2.17      59.1     0.49      1022.1     0.1      SW   218   0.9       N     0   9.63    376      -17.5
   01/12/2018 03:00      46.7      45.9       92     43.9      0.00      2.17      59.1     0.49      1022.2     0.7      SE   134   2.2      SE   141   9.63    372      -17.4
   01/12/2018 02:50      46.5      46.1       92     44.1      0.00      2.17      59.1     0.49      1022.4     0.3     SSW   195   1.2       S   176   9.63    366      -17.8
   01/12/2018 02:40      46.9      46.3       92     44.2      0.00      2.17      59.1     0.49      1022.4     0.0      SE   126   0.5      SE   126   9.63    360      -17.8
   01/12/2018 02:30      46.9      46.5       92     44.6      0.00      2.17      59.1     0.49      1022.5     0.2     SSE   154   0.9       S   183   9.63    353      -17.9
   01/12/2018 02:20      47.0      46.4       92     44.4      0.00      2.17      59.2     0.49      1022.6     0.4       S   179   1.6       S   184   9.63    348      -18.3
   01/12/2018 02:10      47.1      46.5       92     44.5      0.00      2.17      59.2     0.49      1022.7     0.5     SSE   162   1.8       S   185   9.63    344      -18.6
   01/12/2018 02:00      47.6      46.8       92     44.9      0.00      2.17      59.2     0.49      1022.7     0.4       E    86   1.7      SE   144   9.63    339      -18.6
   01/12/2018 01:50      47.9      47.3       92     45.3      0.00      2.17      59.2     0.49      1022.7     0.0       N     0   0.0     SSE   166   9.63    335      -18.9
   01/12/2018 01:40      47.9      47.3       92     45.3      0.00      2.17      59.2     0.49      1022.7     0.1     SSE   163   0.7     SSE   166   9.63    332      -18.7
   01/12/2018 01:30      48.2      47.5       92     45.5      0.00      2.17      59.2     0.49      1022.7     0.3     SSE   151   0.8     SSE   164   9.64    329      -19.3
   01/12/2018 01:20      48.3      47.8       92     45.9      0.00      2.17      59.2     0.49      1022.8     0.2     SSE   158   1.1     SSE   149   9.64    326      -19.7
   01/12/2018 01:10      48.4      47.8       92     45.8      0.00      2.17      59.3     0.49      1022.8     0.8     SSE   155   1.8      SE   140   9.64    323      -20.2
   01/12/2018 01:00      48.2      47.8       92     45.6      0.00      2.17      59.2     0.49      1022.8     0.5       S   172   1.3     SSW   191   9.64    320      -20.8
   01/12/2018 00:50      48.7      47.9       91     45.8      0.00      2.17      59.3     0.49      1022.9     0.2     SSE   159   0.9     SSE   157   9.64    316      -21.6
   01/12/2018 00:40      48.5      47.8       91     45.6      0.00      2.17      59.3     0.49      1022.9     0.5     SSW   203   1.4      SW   222   9.64    313      -21.9
   01/12/2018 00:30      48.7      48.0       91     45.6      0.00      2.17      59.2     0.49      1023.0     0.0       S   181   0.7     SSW   196   9.64    309      -23.1
   01/12/2018 00:20      49.2      48.3       90     45.9      0.00      2.17      59.3     0.49      1023.0     0.6      SE   141   1.4      SE   140   9.64    307      -23.4
   01/12/2018 00:10      49.1      48.7       90     46.1      0.00      2.17      59.3     0.49      1023.0     0.0       S   178   0.7       S   176   9.64    303      -24.2
   01/12/2018 00:00      49.5      48.9       90     46.4      0.00      2.17      59.3     0.49      1023.0     0.0       N     0   0.0       S   178   9.64    300      -25.3
   01/11/2018 23:50      49.5      49.0       90     46.4      0.00      2.17      59.3     0.49      1023.0     0.2       S   184   1.0       S   182   9.64    298      -25.8
   01/11/2018 23:40      49.5      49.2       89     46.3      0.00      2.17      59.3     0.49      1023.0     0.3     SSE   154   1.2     SSE   146   9.64    296      -27.1
   01/11/2018 23:30      49.7      49.2       89     46.2      0.00      2.17      59.3     0.50      1023.1     0.5       S   173   1.1       S   181   9.64    294      -28.3
   01/11/2018 23:20      50.1      49.4       88     46.4      0.00      2.17      59.3     0.50      1023.2     0.1     ESE   115   0.6       E    95   9.64    291      -29.6
   01/11/2018 23:10      50.5      49.7       88     46.6      0.00      2.17      59.3     0.50      1023.2     0.4     SSE   159   1.0      SE   132   9.64    289      -31.0
   01/11/2018 23:00      50.6      50.1       88     46.9      0.00      2.17      59.3     0.50      1023.3     0.3      SE   143   1.4      SE   138   9.64    287      -32.5
   01/11/2018 22:50      50.6      50.1       88     46.9      0.00      2.17      59.4     0.50      1023.3     0.9     SSE   163   1.9      SE   135   9.64    285      -33.9
   01/11/2018 22:40      51.0      50.2       87     46.9      0.00      2.17      59.4     0.50      1023.3     0.8     SSE   163   2.4      SE   138   9.64    283      -36.4
   01/11/2018 22:30      51.1      50.7       87     47.2      0.00      2.17      59.4     0.50      1023.3     0.6     SSE   163   1.4       S   180   9.64    281      -38.3
   01/11/2018 22:20      51.1      50.8       87     47.2      0.00      2.17      59.4     0.50      1023.2     0.7       S   176   1.3     SSW   196   9.64    279      -40.5
   01/11/2018 22:10      51.3      50.8       87     47.3      0.00      2.17      59.3     0.50      1023.3     0.3     SSE   158   1.3      SW   226   9.64    278      -43.4
   01/11/2018 22:00      51.5      51.0       86     47.3      0.00      2.17      59.4     0.50      1023.2     0.5       S   169   1.5      SE   139   9.64    277      -45.9
   01/11/2018 21:50      52.1      51.3       86     47.5      0.00      2.17      59.3     0.50      1023.3     1.5     SSE   156   2.7       S   177   9.64    275      -47.5
   01/11/2018 21:40      52.0      51.6       86     47.7      0.00      2.17      59.3     0.50      1023.2     0.6     WSW   241   1.8     SSW   213   9.64    275      -49.0
   01/11/2018 21:30      52.2      51.8       85     47.6      0.00      2.17      59.3     0.50      1023.1     0.3      SE   142   1.0      SE   142   9.64    273      -51.9
   01/11/2018 21:20      52.7      51.9       84     47.8      0.00      2.17      59.3     0.50      1023.1     0.5     SSE   158   1.2      SE   141   9.65    272      -54.8
   01/11/2018 21:10      53.2      52.2       84     47.8      0.00      2.17      59.3     0.50      1023.0     0.4       S   174   1.2       S   176   9.65    270      -56.7
   01/11/2018 21:00      53.0      52.7       83     47.9      0.00      2.17      59.3     0.50      1022.9     0.0     SSE   159   0.5     SSE   156   9.65    270      -58.7
   01/11/2018 20:50      53.5      52.6       82     47.8      0.00      2.17      59.3     0.50      1022.8     0.5     SSE   152   1.4      SE   142   9.65    269      -60.3
   01/11/2018 20:40      54.0      53.2       81     47.8      0.00      2.17      59.3     0.50      1022.7     0.5       S   176   1.3     SSE   155   9.65    268      -60.2
   01/11/2018 20:30      54.0      53.5       81     48.0      0.00      2.17      59.3     0.50      1022.6     0.6     SSE   163   1.6       S   175   9.65    268      -59.8
   01/11/2018 20:20      54.0      53.5       81     48.0      0.00      2.17      59.3     0.50      1022.7     0.3       S   170   1.5     SSW   203   9.65    268      -59.9
   01/11/2018 20:10      54.5      53.8       80     48.1      0.00      2.17      59.2     0.50      1022.6     0.5      SE   144   1.6       S   181   9.65    268      -60.8
   01/11/2018 20:00      54.6      54.1       80     48.4      0.00      2.17      59.2     0.50      1022.5     0.4     SSE   163   1.4     SSE   163   9.65    268      -60.7
   01/11/2018 19:50      55.0      54.3       79     48.2      0.00      2.17      59.2     0.50      1022.4     0.6     SSE   159   1.2     SSE   169   9.65    267      -61.6
   01/11/2018 19:40      55.4      54.8       78     48.3      0.00      2.17      59.2     0.50      1022.3     0.6     SSE   161   1.3     SSE   160   9.65    267      -61.6
   01/11/2018 19:30      55.8      55.0       77     48.1      0.00      2.17      59.2     0.50      1022.3     0.3     SSE   166   0.9       S   170   9.65    267      -62.0
   01/11/2018 19:20      56.0      55.4       75     48.0      0.00      2.17      59.2     0.50      1022.3     0.3     SSE   156   1.4      SE   143   9.65    267      -62.4
   01/11/2018 19:10      56.6      55.6       75     48.3      0.00      2.17      59.1     0.50      1022.2     0.5     SSE   168   1.3     SSE   152   9.65    267      -62.3
   01/11/2018 19:00      56.9      56.1       75     48.6      0.00      2.17      59.1     0.50      1022.3     0.4     SSE   161   1.5     SSE   151   9.65    267      -63.1
   01/11/2018 18:50      57.4      56.5       74     48.7      0.00      2.17      59.1     0.50      1022.3     0.5     SSE   155   1.3     SSE   151   9.65    266      -63.6
   01/11/2018 18:40      57.7      57.0       72     48.4      0.00      2.17      59.0     0.50      1022.2     0.7      SE   146   1.5      SE   144   9.66    266      -64.0
   01/11/2018 18:30      58.2      57.2       70     47.9      0.00      2.17      59.0     0.50      1022.1     0.6     SSE   157   1.2      SE   144   9.66    266      -64.4
   01/11/2018 18:20      58.8      58.0       68     47.7      0.00      2.17      58.9     0.50      1022.0     0.6     SSE   156   1.3     SSE   165   9.66    266      -64.7
   01/11/2018 18:10      59.2      58.4       66     47.6      0.00      2.17      58.9     0.50      1021.8     0.7     SSE   149   2.1     SSE   153   9.66    266      -65.0
   01/11/2018 18:00      59.4      58.9       66     47.8      0.00      2.17      59.0     0.50      1021.8     0.4     SSE   158   1.3     SSE   155   9.66    266      -65.2
   01/11/2018 17:50      60.1      59.2       66     48.1      0.00      2.17      58.9     0.50      1021.7     0.6     SSE   157   1.7      SE   140   9.66    266      -66.3
   01/11/2018 17:40      60.8      59.7       65     48.3      0.00      2.17      58.9     0.50      1021.6     1.2     SSE   147   2.6     SSE   150   9.66    266      -67.8
   01/11/2018 17:30      61.3      60.5       63     48.0      0.00      2.17      58.9     0.50      1021.6     0.8     SSE   161   1.6       S   183   9.66    266      -69.0
   01/11/2018 17:20      62.5      60.9       62     48.5      0.00      2.17      58.8     0.50      1021.5     1.1     SSE   168   1.9       S   173   9.66    266      -69.6
   01/11/2018 17:10      64.4      62.2       58     48.1      0.00      2.17      58.8     0.50      1021.5     0.9     SSE   156   2.5      SE   133   9.66    265      -69.9
   01/11/2018 17:00      67.2      64.2       53     47.9      0.00      2.17      58.8     0.50      1021.5     0.8     SSE   167   1.7       S   178   9.66    264      -68.3
   01/11/2018 16:50      71.0      67.2       45     46.9      0.00      2.17      58.7     0.50      1021.4     0.3       S   173   1.0       S   169   9.66    264      -66.9
   01/11/2018 16:40      73.0      70.8       39     46.0      0.00      2.17      58.7     0.50      1021.3     0.0     SSE   149   0.8     SSE   149   9.67    263      -64.5
   01/11/2018 16:30      73.0      72.5       38     45.8      0.00      2.17      58.7     0.50      1021.2     0.0      SE   139   0.9      SE   130   9.67    262      -45.6
   01/11/2018 16:20      72.8      72.2       38     45.2      0.00      2.17      58.6     0.50      1021.2     0.4     ENE    67   1.7     ENE    77   9.67    262      -31.8
   01/11/2018 16:10      72.9      72.3       36     44.5      0.00      2.17      58.6     0.50      1021.2     1.1     ENE    64   3.0     ENE    72   9.67    263      -12.9
   01/11/2018 16:00      73.3      72.7       36     44.1      0.00      2.17      58.6     0.50      1021.1     1.2     ENE    56   2.6      NE    55   9.67    262        7.2
   01/11/2018 15:50      73.2      72.8       35     44.0      0.00      2.17      58.5     0.50      1021.1     1.3       E    96   3.7     ESE   117   9.67    262       30.4
   01/11/2018 15:40      73.8      72.9       35     44.2      0.00      2.17      58.5     0.50      1021.1     1.6     ESE   107   3.5      SE   129   9.67    262       52.8
   01/11/2018 15:30      74.1      72.8       34     43.7      0.00      2.17      58.5     0.50      1021.2     1.0     ESE   106   3.2       E    90   9.67    262       74.4
   01/11/2018 15:20      75.0      72.8       34     43.7      0.00      2.17      58.5     0.50      1021.2     2.0     ESE   115   4.1      SE   142   9.67    263       97.3
   01/11/2018 15:10      75.2      74.6       33     43.9      0.00      2.17      58.4     0.50      1021.3     1.4      SW   225   3.8     ESE   102   9.67    261      117.0
   01/11/2018 15:00      75.3      73.0       34     43.7      0.00      2.17      58.4     0.49      1021.4     0.5       S   177   1.5       S   180   9.67    261      138.5
   01/11/2018 14:50      73.8      73.2       35     43.8      0.00      2.17      58.4     0.50      1021.4     1.1      SE   130   2.7      SE   126   9.67    262      158.9
   01/11/2018 14:40      74.1      73.1       35     44.0      0.00      2.17      58.3     0.50      1021.4     1.6     NNE    18   3.2     NNE    29   9.67    262      176.5
   01/11/2018 14:30      74.0      72.8       34     43.6      0.00      2.17      58.3     0.50      1021.5     1.2     NNE    18   3.3     WNW   292   9.67    262      192.7
   01/11/2018 14:20      73.1      72.3       35     43.2      0.00      2.17      58.2     0.49      1021.5     1.1     NNW   341   2.8       N     9   9.67    261      208.2
   01/11/2018 14:10      73.8      72.3       36     44.3      0.00      2.17      58.2     0.49      1021.5     1.7       N   354   4.5     NNE    22   9.67    262      224.7
   01/11/2018 14:00      73.3      72.3       36     44.2      0.00      2.17      58.2     0.49      1021.6     1.2       N   354   2.9     NNE    27   9.67    262      238.9
   01/11/2018 13:50      72.5      70.9       38     44.7      0.00      2.17      58.1     0.49      1021.7     1.1       N    10   2.6      NE    44   9.67    263      253.1
   01/11/2018 13:40      71.1      70.5       39     44.6      0.00      2.17      58.1     0.49      1021.8     2.1     NNW   333   3.9      NW   310   9.67    263      265.6
   01/11/2018 13:30      71.4      70.0       40     45.2      0.00      2.17      58.1     0.49      1021.8     1.4       N     2   5.1     NNE    21   9.67    263      277.6
   01/11/2018 13:20      69.8      69.0       43     45.9      0.00      2.17      58.1     0.49      1021.8     1.5      NW   324   3.4      NW   318   9.67    263      286.8
   01/11/2018 13:10      70.8      69.3       43     46.4      0.00      2.17      58.1     0.50      1021.9     1.5       N   357   4.3       N   350   9.67    263      295.3
   01/11/2018 13:00      70.3      68.6       45     46.8      0.00      2.17      58.1     0.50      1021.9     1.4     NNE    28   3.4      NE    54   9.67    263      302.4
   01/11/2018 12:50      69.9      68.1       45     47.0      0.00      2.17      58.0     0.50      1022.0     0.8     NNE    30   2.4       W   280   9.67    263      315.5
   01/11/2018 12:40      68.4      66.6       47     46.7      0.00      2.17      58.1     0.50      1022.1     1.2     NNE    14   3.3       N    10   9.67    263      317.9
   01/11/2018 12:30      66.9      66.4       49     46.7      0.00      2.17      58.1     0.50      1022.2     2.2     NNE    18   4.6      NE    46   9.67    263      323.8
   01/11/2018 12:20      66.7      66.4       51     47.7      0.00      2.17      58.1     0.49      1022.4     2.2       N    11   3.7     NNE    26   9.67    264      325.5
   01/11/2018 12:10      66.4      65.6       52     47.7      0.00      2.17      58.0     0.49      1022.6     1.5     NNE    29   2.9     NNW   344   9.67    264      328.4
   01/11/2018 12:00      65.7      64.7       53     47.9      0.00      2.17      58.0     0.49      1022.9     2.0     NNE    23   4.1      NE    41   9.67    264      329.0
   01/11/2018 11:50      65.2      63.6       54     47.4      0.00      2.17      58.0     0.49      1023.1     1.4     NNW   337   3.5       N     5   9.67    265      327.1
   01/11/2018 11:40      64.1      63.1       56     47.7      0.00      2.17      58.1     0.49      1023.3     2.2      SW   216   3.5     SSW   201   9.67    266      329.4
   01/11/2018 11:30      64.4      63.6       55     47.6      0.00      2.17      58.1     0.49      1023.7     1.2       S   186   2.3     SSW   203   9.67    266      324.5
   01/11/2018 11:20      63.7      63.0       57     47.7      0.00      2.17      58.1     0.49      1023.8     1.1       S   190   3.1     SSE   153   9.67    266      320.4
   01/11/2018 11:10      63.1      62.6       59     48.1      0.00      2.17      58.1     0.49      1023.9     1.2      NW   309   2.4       N     3   9.67    266      315.4
   01/11/2018 11:00      63.1      61.8       60     48.5      0.00      2.17      58.2     0.49      1024.1     0.8       N   358   2.2     NNW   332   9.67    266      312.7
   01/11/2018 10:50      61.9      61.0       62     48.3      0.00      2.17      58.1     0.49      1024.2     1.3     NNE    34   3.3       N    10   9.67    266      299.5
   01/11/2018 10:40      61.6      60.5       63     48.4      0.00      2.17      58.1     0.49      1024.5     0.8     NNW   341   2.1      NE    40   9.67    266      294.9
   01/11/2018 10:30      60.6      59.3       65     48.2      0.00      2.17      58.2     0.49      1024.6     0.9       E    81   3.6       E    93   9.67    266      284.6
   01/11/2018 10:20      59.2      58.4       67     48.0      0.00      2.17      58.2     0.50      1024.7     1.4     ENE    64   3.3     NNE    28   9.67    267      276.9
   01/11/2018 10:10      58.7      58.1       69     48.1      0.00      2.17      58.2     0.50      1024.9     1.3      NE    47   2.8     ENE    63   9.67    268      264.6
   01/11/2018 10:00      58.2      57.2       70     48.0      0.00      2.17      58.3     0.50      1024.9     1.1       N   360   2.8       N     9   9.69    278      250.1
   01/11/2018 09:50      57.2      56.3       73     48.0      0.00      2.17      58.3     0.50      1024.8     1.4       N     9   3.5     NNW   343   9.68    300      234.5
   01/11/2018 09:40      56.8      56.4       73     48.1      0.00      2.17      58.3     0.50      1024.7     1.8       N   356   4.0       N     5   9.69    345      229.2
   01/11/2018 09:30      56.8      56.3       75     48.6      0.00      2.17      58.4     0.50      1024.7     1.1       N     1   3.3       N     4   9.69    382      245.0
   01/11/2018 09:20      56.3      54.1       80     49.2      0.00      2.17      58.4     0.49      1024.6     0.6       W   264   1.8     WSW   244   9.68    406      230.5
   01/11/2018 09:10      54.1      52.2       86     49.0      0.00      2.17      58.5     0.49      1024.6     1.1      SW   230   2.6     SSW   212   9.69    423      208.9
   01/11/2018 09:00      52.4      51.0       91     49.0      0.00      2.17      58.5     0.49      1024.3     1.3       W   264   2.4      SW   218   9.69    433      184.7
   01/11/2018 08:50      51.1      50.0       92     48.6      0.00      2.17      58.5     0.49      1024.1     0.5      NW   321   1.6     WNW   302   9.68    443      155.0
   01/11/2018 08:40      50.2      48.6       93     47.3      0.00      2.17      58.5     0.49      1024.0     0.7      NW   309   2.3       W   279   9.69    451      125.1
   01/11/2018 08:30      48.8      47.6       94     46.5      0.00      2.17      58.5     0.49      1023.8     0.6     NNW   337   2.1     NNW   335   9.69    456       97.3
   01/11/2018 08:20      47.6      45.1       95     44.8      0.00      2.17      58.5     0.50      1023.6     0.0       N     0   0.0      SE   126   9.69    460       71.5
   01/11/2018 08:10      45.3      44.0       94     43.0      0.00      2.17      58.6     0.50      1023.5     0.3       E    90   1.1     ENE    78   9.69    461       53.9
   01/11/2018 08:00      44.5      44.0       94     42.7      0.00      2.17      58.6     0.50      1023.3     0.1      NE    48   0.8      NE    35   9.69    460       21.3
   01/11/2018 07:50      44.4      43.4       95     42.6      0.00      2.17      58.6     0.50      1023.1     0.4       N   353   1.1      NW   316   9.69    457       14.4
   01/11/2018 07:40      43.7      42.9       95     41.7      0.00      2.17      58.6     0.50      1023.0     0.1       W   264   1.2       W   263   9.69    455        7.8
   01/11/2018 07:30      43.2      42.2       95     41.2      0.00      2.17      58.7     0.50      1023.1     0.7       S   182   1.5       S   186   9.69    452        1.6
   01/11/2018 07:20      42.7      42.1       95     40.9      0.00      2.17      58.7     0.50      1023.1     0.9      SE   129   2.5      SE   138   9.69    449       -4.6
   01/11/2018 07:10      42.6      42.0       95     40.9      0.00      2.17      58.7     0.50      1023.0     1.9       S   180   2.7     SSW   199   9.69    446       -9.6
   01/11/2018 07:00      42.5      41.6       94     40.3      0.00      2.17      58.8     0.50      1022.9     0.5       S   190   1.2     SSW   211   9.69    443      -14.3
   01/11/2018 06:50      42.4      41.9       94     40.6      0.00      2.17      58.8     0.50      1022.8     0.0     SSE   151   0.4      SE   132   9.69    440      -15.9
   01/11/2018 06:40      42.5      42.0       94     40.6      0.00      2.17      58.8     0.50      1022.8     0.0       N     0   0.0      SE   143   9.69    437      -16.6
   01/11/2018 06:30      43.0      42.3       94     41.1      0.00      2.17      58.8     0.50      1022.8     0.2     SSE   151   1.2      SE   145   9.69    434      -16.6
   01/11/2018 06:20      42.9      42.3       94     41.2      0.00      2.17      58.9     0.50      1022.7     1.1       S   178   1.7      SE   132   9.69    431      -16.4
   01/11/2018 06:10      43.8      42.4       94     41.4      0.00      2.17      58.9     0.50      1022.6     1.1     SSE   167   2.7     SSW   210   9.69    428      -16.4
   01/11/2018 06:00      44.0      43.2       94     42.0      0.00      2.17      58.9     0.50      1022.5     2.4     SSW   200   3.5     SSW   210   9.69    425      -16.1
   01/11/2018 05:50      43.8      43.0       95     41.9      0.00      2.17      58.9     0.50      1022.3     1.9       S   190   3.0     SSW   199   9.69    423      -16.9
   01/11/2018 05:40      43.1      42.7       94     41.4      0.00      2.17      58.9     0.50      1022.2     1.1     SSE   155   2.3       S   176   9.69    420      -17.3
   01/11/2018 05:30      43.0      42.3       94     40.9      0.00      2.17      58.9     0.50      1022.1     0.6      SE   127   1.7      SE   139   9.69    417      -17.6
   01/11/2018 05:20      42.9      42.1       94     40.7      0.00      2.17      59.0     0.50      1022.0     0.1      SE   136   0.7       E    90   9.69    414      -17.6
   01/11/2018 05:10      43.5      42.5       94     41.2      0.00      2.17      59.0     0.50      1021.8     0.2     ESE   116   1.0       E    97   9.69    410      -17.6
   01/11/2018 05:00      43.4      43.0       94     41.5      0.00      2.17      59.0     0.50      1021.5     0.3     SSW   195   1.1     SSW   206   9.69    408      -17.6
   01/11/2018 04:50      43.4      43.0       94     41.5      0.00      2.17      59.0     0.50      1021.2     0.4       W   262   1.2     WNW   303   9.69    405      -17.6
   01/11/2018 04:40      43.5      43.0       94     41.6      0.00      2.17      59.0     0.50      1021.0     1.1     SSE   162   2.0      SW   235   9.69    401      -17.8
   01/11/2018 04:30      43.8      43.0       94     41.5      0.00      2.17      59.1     0.50      1020.9     0.4     WSW   244   1.5      NW   304   9.69    398      -18.3
   01/11/2018 04:20      43.7      43.3       94     41.8      0.00      2.17      59.1     0.50      1020.8     0.0       N     0   0.0     NNW   346   9.69    395      -18.7
   01/11/2018 04:10      43.9      43.4       94     41.9      0.00      2.17      59.1     0.50      1020.8     0.0       N     0   0.0     NNW   347   9.69    391      -19.1
   01/11/2018 04:00      43.9      43.6       94     42.0      0.00      2.17      59.1     0.50      1020.8     0.5     SSW   200   1.6     WSW   247   9.69    388      -18.8
   01/11/2018 03:50      44.3      43.5       94     42.1      0.00      2.17      59.1     0.50      1020.9     0.2     SSE   165   1.2     WSW   238   9.69    384      -19.1
   01/11/2018 03:40      44.3      43.5       94     42.0      0.00      2.17      59.2     0.50      1020.9     0.7      SW   226   2.5       W   264   9.69    380      -19.5
   01/11/2018 03:30      44.2      43.7       94     42.2      0.00      2.17      59.2     0.50      1020.8     0.5     SSE   160   1.2      SE   139   9.69    376      -19.8
   01/11/2018 03:20      44.4      43.9       93     42.3      0.00      2.17      59.2     0.50      1020.7     0.0       S   183   0.7       S   171   9.69    371      -20.1
   01/11/2018 03:10      44.5      43.9       93     42.3      0.00      2.17      59.2     0.50      1020.8     0.2       S   180   1.1       S   188   9.69    366      -20.4
   01/11/2018 03:00      44.4      44.0       93     42.4      0.00      2.17      59.2     0.50      1020.9     0.0     SSE   160   0.6     SSE   160   9.69    356      -20.7
   01/11/2018 02:50      44.8      44.1       93     42.5      0.00      2.17      59.2     0.50      1020.9     0.4     SSE   163   1.2       S   175   9.69    350      -21.2
   01/11/2018 02:40      44.8      44.3       93     42.6      0.00      2.17      59.3     0.50      1020.9     0.2     ESE   120   1.0       E    79   9.69    344      -21.9
   01/11/2018 02:30      45.1      44.6       93     43.0      0.00      2.17      59.2     0.50      1021.1     0.2     SSE   148   1.0     SSE   149   9.69    339      -21.9
   01/11/2018 02:20      45.3      44.9       93     43.1      0.00      2.17      59.3     0.50      1021.3     0.4     SSE   148   1.3      SE   145   9.69    335      -22.1
   01/11/2018 02:10      45.7      45.0       93     43.2      0.00      2.17      59.3     0.50      1021.3     0.6       S   169   1.8       S   181   9.69    331      -22.5
   01/11/2018 02:00      46.2      45.3       92     43.6      0.00      2.17      59.3     0.50      1021.3     0.6     SSE   152   1.6      SE   142   9.69    326      -23.2
   01/11/2018 01:50      46.1      45.3       93     43.5      0.00      2.17      59.3     0.50      1021.2     0.8       W   259   2.4     WSW   257   9.69    322      -23.4
   01/11/2018 01:40      46.0      45.4       92     43.5      0.00      2.17      59.3     0.50      1021.1     0.4     SSE   148   2.1      SE   141   9.69    318      -24.0
   01/11/2018 01:30      46.6      45.6       92     43.8      0.00      2.17      59.3     0.50      1020.9     0.8     SSE   158   2.6      SE   142   9.69    314      -24.4
   01/11/2018 01:20      46.5      46.1       92     44.1      0.00      2.17      59.4     0.50      1020.9     0.4      SW   216   1.5     NNW   335   9.69    310      -24.9
   01/11/2018 01:10      46.5      45.9       92     43.8      0.00      2.17      59.3     0.50      1020.8     0.2     WSW   258   1.1       W   269   9.69    305      -25.9
   01/11/2018 01:00      46.9      46.2       91     44.1      0.00      2.17      59.4     0.50      1020.8     0.0      SE   141   0.8      SE   141   9.69    303      -26.6
   01/11/2018 00:50      47.2      46.7       91     44.6      0.00      2.17      59.4     0.51      1020.7     0.5     SSE   149   1.5      SE   144   9.69    299      -27.3
   01/11/2018 00:40      47.6      46.8       91     44.6      0.00      2.17      59.4     0.51      1020.7     0.2     SSW   203   1.1     WSW   248   9.69    296      -28.6
   01/11/2018 00:30      47.6      47.0       91     44.6      0.00      2.17      59.4     0.51      1020.5     0.1     SSE   168   0.7       S   170   9.70    292      -30.1
   01/11/2018 00:20      48.0      47.2       91     44.9      0.00      2.17      59.4     0.51      1020.5     0.4     SSE   165   1.1       S   180   9.70    290      -31.6
   01/11/2018 00:10      48.0      47.5       91     45.1      0.00      2.17      59.4     0.51      1020.5     1.0     SSE   157   2.1      SE   130   9.70    287      -33.2
   01/11/2018 00:00      48.2      47.5       90     44.8      0.00      2.17      59.4     0.51      1020.5     1.1       S   176   2.4      SE   141   9.70    284      -35.5
   01/10/2018 23:50      48.9      47.9       89     45.3      0.00      2.17      59.4     0.51      1020.6     0.2       S   174   0.9      SE   135   9.70    281      -37.8
   01/10/2018 23:40      48.9      48.3       90     45.7      0.00      2.17      59.5     0.51      1020.6     2.2       S   172   3.9      SE   136   9.70    279      -39.5
   01/10/2018 23:30      48.7      47.6       89     44.9      0.00      2.17      59.5     0.51      1020.5     1.2     SSW   193   2.9       S   184   9.70    277      -46.2
   01/10/2018 23:20      49.0      47.8       88     44.9      0.00      2.17      59.5     0.51      1020.5     0.2     SSE   152   1.2      SE   146   9.70    275      -52.1
   01/10/2018 23:10      49.0      48.5       88     45.3      0.00      2.17      59.4     0.51      1020.5     0.4      SE   131   1.1       S   173   9.70    273      -56.4
   01/10/2018 23:00      49.5      48.8       87     45.3      0.00      2.17      59.5     0.51      1020.5     0.7     SSE   160   1.5      SE   136   9.70    272      -60.7
   01/10/2018 22:50      50.0      49.2       85     45.3      0.00      2.17      59.5     0.51      1020.4     0.7     SSW   197   1.6     SSW   206   9.70    270      -63.7
   01/10/2018 22:40      51.0      49.8       84     45.5      0.00      2.17      59.5     0.51      1020.5     1.1     SSE   154   2.0       S   189   9.70    269      -64.1
   01/10/2018 22:30      51.4      50.8       82     45.8      0.00      2.17      59.5     0.51      1020.5     0.6     SSW   207   1.9       S   174   9.70    268      -64.4
   01/10/2018 22:20      52.4      51.2       80     45.8      0.00      2.17      59.5     0.51      1020.5     1.0     SSE   167   2.3     SSE   150   9.70    268      -64.7
   01/10/2018 22:10      53.5      52.0       77     45.8      0.00      2.17      59.5     0.51      1020.4     1.6       S   185   3.0     SSW   209   9.70    267      -64.9
   01/10/2018 22:00      53.7      53.2       76     46.0      0.00      2.17      59.5     0.51      1020.2     1.0     WSW   236   3.2       W   261   9.70    267      -64.9
   01/10/2018 21:50      54.0      53.2       74     45.4      0.00      2.17      59.5     0.51      1020.2     1.3     SSE   160   3.2      SE   140   9.70    267      -65.1
   01/10/2018 21:40      54.3      53.7       70     44.4      0.00      2.17      59.5     0.51      1020.0     1.3     SSE   157   2.4      SE   144   9.70    267      -65.0
   01/10/2018 21:30      54.1      53.3       69     43.8      0.00      2.17      59.5     0.51      1020.0     0.4     ENE    72   2.0       E    95   9.70    267      -65.2
   01/10/2018 21:20      54.9      53.5       68     43.8      0.00      2.17      59.5     0.51      1019.9     1.1     SSE   151   2.2       S   178   9.70    267      -65.7
   01/10/2018 21:10      55.8      54.6       65     43.7      0.00      2.17      59.5     0.51      1019.8     0.8      NE    53   2.6       E    85   9.70    267      -67.0
   01/10/2018 21:00      55.8      54.6       65     43.7      0.00      2.17      59.5     0.51      1019.7     4.3     SSW   194   7.2       S   184   9.70    266      -67.0
   01/10/2018 20:50      56.8      55.4       62     43.6      0.00      2.17      59.5     0.51      1019.6     2.3     SSW   208   4.6      SE   140   9.70    266      -68.1
   01/10/2018 20:40      56.8      56.1       61     43.3      0.00      2.17      59.5     0.51      1019.4     2.7       W   274   5.4      NW   312   9.70    266      -67.6
   01/10/2018 20:30      56.3      54.9       63     43.2      0.00      2.17      59.5     0.51      1019.6     2.7     WNW   292   4.7      NW   312   9.70    266      -65.6
   01/10/2018 20:20      54.9      52.8       70     44.0      0.00      2.17      59.5     0.51      1019.2     1.2      NW   319   2.7       N     3   9.70    266      -64.7
   01/10/2018 20:10      54.4      52.9       70     44.1      0.00      2.17      59.4     0.51      1019.1     1.2     ESE   118   2.8      SE   138   9.70    266      -65.1
   01/10/2018 20:00      54.3      53.6       70     44.3      0.00      2.17      59.4     0.51      1019.0     0.8     SSW   194   1.9      SE   141   9.70    266      -65.3
   01/10/2018 19:50      54.9      54.0       69     44.5      0.00      2.17      59.5     0.51      1018.9     0.8     SSE   150   3.2      SE   136   9.71    266      -66.3
   01/10/2018 19:40      56.4      54.5       66     44.3      0.00      2.17      59.4     0.51      1018.8     1.6     SSE   147   3.9      SE   141   9.71    266      -67.3
   01/10/2018 19:30      56.7      56.0       63     43.8      0.00      2.17      59.4     0.51      1018.6     1.3      SW   221   2.3      SW   223   9.71    266      -67.1
   01/10/2018 19:20      57.9      56.4       61     43.9      0.00      2.17      59.4     0.51      1018.5     1.0      NW   305   2.9       N   354   9.71    266      -67.8
   01/10/2018 19:10      58.5      57.5       58     43.4      0.00      2.17      59.4     0.51      1018.6     1.3      SE   145   2.6       E   100   9.71    266      -69.4
   01/10/2018 19:00      59.0      58.2       56     43.2      0.00      2.17      59.4     0.51      1018.5     1.7     ENE    75   4.4      NE    55   9.71    266      -70.3
   01/10/2018 18:50      59.6      58.7       55     42.8      0.00      2.17      59.3     0.51      1018.3     3.2     NNE    31   8.2       N     2   9.71    266      -70.5
   01/10/2018 18:40      59.3      58.3       55     42.6      0.00      2.17      59.3     0.51      1018.1     2.7      NW   323   6.5     NNE    22   9.71    266      -70.1
   01/10/2018 18:30      58.7      58.3       57     43.2      0.00      2.17      59.3     0.51      1018.1     1.9     WSW   251   3.9       W   267   9.71    266      -70.7
   01/10/2018 18:20      59.2      58.4       56     43.1      0.00      2.17      59.3     0.51      1018.2     2.7      SW   233   4.5     WSW   239   9.71    266      -71.3
   01/10/2018 18:10      59.2      58.8       55     42.9      0.00      2.17      59.3     0.51      1018.2     2.0       W   263   4.3       W   267   9.71    266      -71.2
   01/10/2018 18:00      59.7      58.8       55     43.1      0.00      2.17      59.2     0.51      1018.2     2.4     WSW   243   4.2      SW   219   9.71    266      -71.2
   01/10/2018 17:50      60.3      59.5       53     42.8      0.00      2.17      59.2     0.51      1018.1     1.5       W   272   4.4       N     0   9.71    266      -72.6
   01/10/2018 17:40      60.8      60.0       52     42.7      0.00      2.17      59.2     0.51      1018.0     1.0      NW   313   3.2      NW   308   9.71    266      -73.7
   01/10/2018 17:30      61.3      60.5       51     42.8      0.00      2.17      59.2     0.51      1018.0     1.9       N   351   5.2      NW   326   9.71    265      -74.0
   01/10/2018 17:20      61.9      60.9       51     42.9      0.00      2.17      59.1     0.51      1018.1     1.4       N     2   4.9      NW   311   9.71    266      -73.2
   01/10/2018 17:10      62.5      61.4       49     42.8      0.00      2.17      59.1     0.51      1017.9     3.4       N    11   6.4       N   353   9.72    265      -71.7
   01/10/2018 17:00      63.2      62.2       48     42.8      0.00      2.17      59.1     0.51      1017.8     3.9     NNE    12   7.9     NNE    31   9.72    265      -66.9
   01/10/2018 16:50      63.8      63.0       47     42.6      0.00      2.17      59.0     0.51      1017.7     3.3     NNE    19   6.0     NNE    27   9.72    264      -60.6
   01/10/2018 16:40      64.6      63.5       46     42.7      0.00      2.17      59.0     0.51      1017.5     3.2     NNE    20   5.5      NE    37   9.72    264      -53.0
   01/10/2018 16:30      65.5      64.3       44     42.6      0.00      2.17      59.0     0.51      1017.3     3.1     NNE    20   7.5     NNE    24   9.72    264      -34.6
   01/10/2018 16:20      66.0      65.2       43     42.6      0.00      2.17      59.0     0.51      1017.2     2.7     NNE    22   5.3       N     5   9.72    264      -16.0
   01/10/2018 16:10      66.2      65.7       42     42.4      0.00      2.17      58.9     0.51      1017.2     3.6       N     2   6.4       N     0   9.72    263        5.8
   01/10/2018 16:00      66.5      65.8       42     42.5      0.00      2.17      58.9     0.51      1017.2     3.7     NNE    17   7.6     NNE    23   9.73    263       10.9
   01/10/2018 15:50      66.9      66.1       41     42.0      0.00      2.17      58.9     0.51      1017.0     3.1     NNE    24   5.7     NNE    14   9.73    263       27.4
   01/10/2018 15:40      67.2      66.4       41     41.9      0.00      2.17      58.8     0.51      1016.9     2.6     NNE    31   5.0      NE    36   9.73    263       56.5
   01/10/2018 15:30      68.0      67.1       39     42.1      0.00      2.17      58.8     0.51      1016.7     2.5     NNE    19   5.0     NNE    19   9.73    263       65.9
   01/10/2018 15:20      67.9      67.2       40     42.0      0.00      2.17      58.8     0.51      1016.7     1.6      NE    53   3.8     NNE    27   9.73    263       79.8
   01/10/2018 15:10      68.1      67.4       40     42.8      0.00      2.17      58.8     0.51      1016.6     1.7       E    82   4.3      NE    43   9.73    263       97.0
   01/10/2018 15:00      68.0      67.3       43     44.2      0.00      2.17      58.7     0.51      1016.6     1.6       E    91   4.7     SSE   166   9.73    263      115.4
   01/10/2018 14:50      68.5      67.6       42     44.1      0.00      2.17      58.7     0.51      1016.6     1.7      NE    36   4.8      NE    51   9.73    263      157.6
   01/10/2018 14:40      68.1      67.3       43     44.5      0.00      2.17      58.7     0.51      1016.6     1.9      NW   317   4.7     NNW   331   9.73    263      181.2
   01/10/2018 14:30      68.3      67.6       45     45.7      0.00      2.17      58.6     0.51      1016.6     2.0     WNW   288   4.6     WSW   245   9.73    263      194.4
   01/10/2018 14:20      68.1      66.9       46     46.2      0.00      2.17      58.6     0.51      1016.6     1.5     NNE    30   4.6      NE    42   9.73    263      204.1
   01/10/2018 14:10      67.8      66.7       46     45.8      0.00      2.17      58.6     0.51      1016.6     1.1      NW   316   3.5      NW   316   9.73    263      232.4
   01/10/2018 14:00      68.1      67.2       46     46.1      0.00      2.17      58.5     0.51      1016.6     1.7      NW   323   4.4     WNW   296   9.73    263      249.1
   01/10/2018 13:50      69.1      67.6       45     46.2      0.00      2.17      58.5     0.51      1016.6     1.3      SW   217   4.2     SSW   207   9.73    263      265.0
   01/10/2018 13:40      68.0      66.8       46     46.2      0.00      2.17      58.5     0.51      1016.6     1.1      NW   321   2.8       N     3   9.73    263      270.4
   01/10/2018 13:30      66.8      65.8       49     46.5      0.00      2.17      58.5     0.51      1016.6     1.4       S   190   3.2     SSW   208   9.73    264      293.8
   01/10/2018 13:20      66.4      65.6       50     46.9      0.00      2.17      58.5     0.52      1016.7     1.5      NW   313   3.8       W   275   9.73    263      302.7
   01/10/2018 13:10      67.1      65.5       50     47.3      0.00      2.17      58.4     0.51      1016.7     1.6     NNW   343   4.4      NW   321   9.73    264      283.7
   01/10/2018 13:00      67.0      65.6       51     47.9      0.00      2.17      58.5     0.51      1016.8     0.8     SSW   200   2.1      SW   229   9.73    264      310.7
   01/10/2018 12:50      65.6      64.8       52     47.2      0.00      2.17      58.4     0.51      1017.0     1.0      SE   133   2.7     SSW   193   9.73    265      327.8
   01/10/2018 12:40      66.6      65.2       52     47.6      0.00      2.17      58.4     0.51      1017.1     1.5      SW   217   4.0     SSW   209   9.73    265      332.7
   01/10/2018 12:30      66.3      64.5       53     47.4      0.00      2.17      58.4     0.51      1017.3     0.5     ESE   120   2.3     ESE   103   9.73    266      332.1
   01/10/2018 12:20      65.4      64.5       53     47.6      0.00      2.17      58.4     0.51      1017.5     1.2       E    85   3.7     ESE   116   9.73    270      334.3
   01/10/2018 12:10      64.9      63.6       56     48.0      0.00      2.17      58.4     0.51      1017.5     0.7     NNW   345   2.2       S   178   9.73    279      339.9
   01/10/2018 12:00      63.8      62.0       59     48.3      0.00      2.17      58.4     0.51      1017.7     0.6       W   276   1.9       W   279   9.73    291      336.6
   01/10/2018 11:50      62.4      61.9       61     48.7      0.00      2.17      58.4     0.51      1018.0     1.4     ESE   115   2.7      NE    35   9.73    304      346.7
   01/10/2018 11:40      62.0      61.1       62     48.5      0.00      2.17      58.4     0.51      1018.1     1.5     NNE    12   4.7       N     4   9.73    328      346.4
   01/10/2018 11:30      61.3      60.4       64     48.5      0.00      2.17      58.4     0.51      1018.2     1.5     WNW   300   3.3      NW   315   9.73    364      339.8
   01/10/2018 11:20      60.8      60.0       65     48.6      0.00      2.17      58.5     0.51      1018.3     2.0       W   261   4.8       W   261   9.73    392      358.7
   01/10/2018 11:10      61.6      60.4       64     48.7      0.00      2.17      58.5     0.51      1018.5     1.8     WNW   296   4.3       W   262   9.73    421      411.7
   01/10/2018 11:00      61.3      59.7       65     48.3      0.00      2.17      58.5     0.51      1018.7     0.8       N   354   2.9     WNW   287   9.73    465      414.2
   01/10/2018 10:50      60.3      59.3       66     48.6      0.00      2.17      58.5     0.51      1018.7     0.9     SSW   208   2.7      SW   227   9.73    515      408.6
   01/10/2018 10:40      59.5      58.6       68     48.5      0.00      2.17      58.5     0.51      1018.8     0.5       W   268   1.9     SSW   199   9.73    549      398.2
   01/10/2018 10:30      59.8      58.4       67     48.2      0.00      2.17      58.5     0.51      1019.0     1.0      SW   227   2.8     SSW   211   9.73    576      391.4
   01/10/2018 10:20      59.5      57.2       70     48.9      0.00      2.17      58.6     0.51      1019.1     0.3      NW   321   1.7     NNE    31   9.73    601      384.2
   01/10/2018 10:10      57.4      55.9       74     48.0      0.00      2.17      58.6     0.51      1019.1     0.8     SSW   209   2.2      SW   230   9.73    623      348.4
   01/10/2018 10:00      56.1      55.3       76     48.0      0.00      2.17      58.6     0.51      1019.0     1.1       N   350   2.8     NNE    14   9.73    638      343.8
   01/10/2018 09:50      55.5      54.3       78     48.1      0.00      2.17      58.6     0.51      1018.9     1.0      NW   308   2.1     WNW   297   9.73    654      323.7
   01/10/2018 09:40      54.6      53.5       81     48.4      0.00      2.17      58.7     0.51      1018.6     1.1       W   273   2.7     SSW   200   9.73    667      310.7
   01/10/2018 09:30      53.7      52.9       85     49.1      0.00      2.17      58.7     0.51      1018.6     1.2       W   264   3.7     WSW   252   9.73    677      294.8
   01/10/2018 09:20      52.9      52.1       88     49.1      0.00      2.17      58.7     0.51      1018.3     0.5     NNW   333   1.7      SW   222   9.73    687      267.3
   01/10/2018 09:10      52.1      51.2       90     48.6      0.00      2.17      58.8     0.51      1018.2     0.9       W   261   2.7       W   269   9.73    695      239.4
   01/10/2018 09:00      51.8      50.6       92     48.7      0.00      2.17      58.8     0.51      1018.1     0.5      SW   218   1.9     SSW   205   9.73    701      197.5
   01/10/2018 08:50      51.2      50.0       93     48.5      0.00      2.17      58.8     0.51      1018.1     0.5      SE   143   2.1      SE   135   9.73    704      168.5
   01/10/2018 08:40      50.5      48.4       95     47.9      0.00      2.17      58.8     0.51      1018.0     0.5     SSE   150   1.6      SE   126   9.73    707      151.5
   01/10/2018 08:30      48.9      47.4       95     46.5      0.00      2.17      58.9     0.52      1017.8     1.0     SSE   163   2.3     SSW   208   9.73    709      109.6
   01/10/2018 08:20      47.6      45.9       95     45.4      0.00      2.17      58.9     0.52      1017.6     1.3      SW   221   2.8      SW   216   9.73    710       81.4
   01/10/2018 08:10      46.1      45.1       95     44.3      0.00      2.17      58.9     0.52      1017.4     2.4      SW   216   3.5     WSW   253   9.73    712       67.3
   01/10/2018 08:00      45.3      44.5       96     43.6      0.00      2.17      58.9     0.52      1017.1     2.3      SW   232   3.9     WSW   247   9.73    713       25.0
   01/10/2018 07:50      44.6      43.2       96     42.6      0.00      2.17      59.0     0.52      1017.0     1.1     WSW   239   3.3     WSW   256   9.73    713       16.8
   01/10/2018 07:40      43.2      42.3       95     41.5      0.00      2.17      59.0     0.52      1016.6     0.9     SSW   212   2.1     WSW   244   9.73    713       12.8
   01/10/2018 07:30      42.8      42.1       95     41.3      0.00      2.17      59.0     0.52      1016.5     0.5     SSW   201   1.8      SW   217   9.73    712        6.6
   01/10/2018 07:20      42.9      42.1       95     41.2      0.00      2.17      59.0     0.52      1016.5     0.4       S   189   1.7     SSW   212   9.73    710        2.9
   01/10/2018 07:10      42.9      42.1       95     41.3      0.00      2.17      59.1     0.52      1016.4     1.0     SSW   195   1.7     SSW   209   9.73    709       -0.2
   01/10/2018 07:00      42.4      42.1       95     40.9      0.00      2.17      59.1     0.52      1016.4     0.0     SSE   162   0.3     SSE   162   9.73    708       -2.4
   01/10/2018 06:50      43.3      42.2       95     41.4      0.00      2.17      59.1     0.52      1016.3     0.0       N     0   0.0     NNW   347   9.73    707       -4.5
   01/10/2018 06:40      43.2      42.7       95     41.6      0.00      2.17      59.1     0.52      1016.2     0.2       N   351   1.0     NNW   347   9.73    704       -5.1
   01/10/2018 06:30      43.2      42.8       95     41.8      0.00      2.17      59.1     0.52      1016.0     0.0     WNW   295   0.9     NNW   347   9.73    702       -5.5
   01/10/2018 06:20      43.2      42.6       95     41.6      0.00      2.17      59.2     0.52      1016.0     0.5     SSW   200   1.3     SSW   193   9.73    699       -5.4
   01/10/2018 06:10      43.4      42.6       95     41.6      0.00      2.17      59.2     0.52      1015.9     0.0       S   188   0.9       S   187   9.73    698       -5.7
   01/10/2018 06:00      43.6      43.0       95     42.0      0.00      2.17      59.2     0.52      1015.7     0.0       N     0   0.0     SSE   161   9.73    697       -5.5
   01/10/2018 05:50      43.8      43.2       95     42.0      0.00      2.17      59.3     0.52      1015.7     0.1      SE   135   0.8      SE   135   9.73    695       -5.5
   01/10/2018 05:40      43.9      43.5       95     42.4      0.00      2.17      59.3     0.52      1015.6     0.4     ESE   112   1.2     ESE   121   9.73    693       -5.1
   01/10/2018 05:30      43.8      43.0       95     42.2      0.00      2.17      59.3     0.52      1015.4     0.8      SE   137   2.4      SE   132   9.73    691       -5.0
   01/10/2018 05:20      43.3      42.9       95     41.8      0.00      2.17      59.3     0.52      1015.2     0.2      SE   136   0.8      SE   136   9.73    690       -4.6
   01/10/2018 05:10      43.4      42.8       95     41.7      0.00      2.17      59.3     0.52      1015.0     0.2     ESE   102   1.3     ESE   102   9.73    688       -4.1
   01/10/2018 05:00      43.8      43.0       95     42.0      0.00      2.17      59.4     0.52      1014.7     0.0       N     0   0.0     NNW   345   9.74    687       -4.1
   01/10/2018 04:50      43.8      43.2       95     42.1      0.00      2.17      59.4     0.52      1014.5     0.0     NNW   345   0.7     NNW   345   9.74    686       -4.1
   01/10/2018 04:40      43.7      43.2       95     42.1      0.00      2.17      59.4     0.52      1014.3     0.5       S   186   1.4     SSW   199   9.74    685       -3.9
   01/10/2018 04:30      43.5      43.1       95     42.0      0.00      2.17      59.4     0.52      1014.5     0.0     SSW   210   1.6     SSW   210   9.74    684       -4.3
   01/10/2018 04:20      43.3      42.7       95     41.6      0.00      2.17      59.5     0.52      1014.5     0.0     WSW   244   0.7     WSW   244   9.74    683       -5.4
   01/10/2018 04:10      43.5      43.0       95     41.9      0.00      2.17      59.5     0.52      1014.5     0.4      SE   145   1.4      SE   137   9.74    682       -5.7
   01/10/2018 04:00      43.6      43.1       95     41.9      0.00      2.17      59.5     0.52      1014.4     0.2       S   187   1.0       S   178   9.74    681       -5.8
   01/10/2018 03:50      43.5      43.0       95     41.9      0.00      2.17      59.5     0.52      1014.3     0.5       S   178   1.6      SW   234   9.74    682       -5.5
   01/10/2018 03:40      43.6      43.0       95     41.9      0.00      2.17      59.6     0.52      1014.2     1.2      SW   228   2.1     SSW   211   9.74    680       -5.5
   01/10/2018 03:30      43.9      43.1       95     42.0      0.00      2.17      59.6     0.52      1014.3     0.5     ESE   122   1.5     ENE    57   9.74    679       -5.7
   01/10/2018 03:20      44.1      43.5       95     42.5      0.00      2.17      59.6     0.52      1014.3     0.4       S   176   1.3     SSW   194   9.74    677       -5.3
   01/10/2018 03:10      44.2      43.8       95     42.6      0.00      2.17      59.6     0.52      1014.3     0.4     SSE   158   1.7     SSE   147   9.74    674       -5.3
   01/10/2018 03:00      44.0      43.5       95     42.4      0.00      2.17      59.7     0.52      1014.3     0.4     SSE   152   1.3     SSE   151   9.74    672       -5.6
   01/10/2018 02:50      44.2      43.6       95     42.4      0.00      2.17      59.7     0.52      1014.1     0.9      SE   144   2.1      SE   137   9.74    670       -5.5
   01/10/2018 02:40      44.2      43.4       95     42.3      0.00      2.17      59.7     0.52      1014.2     1.1       S   190   2.3     SSW   194   9.74    668       -5.7
   01/10/2018 02:30      43.9      43.3       94     42.0      0.00      2.17      59.7     0.52      1014.3     0.0       N     0   0.0     ENE    59   9.74    668       -6.2
   01/10/2018 02:20      44.4      43.5       94     42.5      0.00      2.17      59.7     0.53      1014.1     0.2     ENE    78   0.9       E    94   9.74    666       -6.1
   01/10/2018 02:10      44.5      44.0       95     42.8      0.00      2.17      59.8     0.53      1013.8     0.0       E    94   0.0       E    94   9.74    665       -5.9
   01/10/2018 02:00      44.6      44.1       95     42.8      0.00      2.17      59.8     0.53      1013.7     0.2     ESE   112   1.5       S   179   9.74    663       -5.8
   01/10/2018 01:50      45.3      44.2       94     43.1      0.00      2.17      59.8     0.53      1013.6     0.8       S   179   1.6       S   181   9.74    665       -5.6
   01/10/2018 01:40      45.2      44.7       95     43.6      0.00      2.17      59.8     0.53      1013.6     1.4     SSE   160   3.5     SSW   197   9.74    663       -5.3
   01/10/2018 01:30      45.0      44.0       94     42.8      0.00      2.17      59.8     0.53      1013.4     1.6       S   180   3.8     SSW   207   9.74    661       -5.7
   01/10/2018 01:20      44.8      44.1       95     43.0      0.00      2.17      59.9     0.53      1013.2     0.4     ESE   114   1.9      SE   132   9.74    660       -5.6
   01/10/2018 01:10      44.7      44.1       94     42.9      0.00      2.17      59.9     0.53      1013.0     0.5     SSE   157   1.9      SE   141   9.74    657       -6.3
   01/10/2018 01:00      44.8      44.2       94     42.9      0.00      2.17      59.9     0.53      1012.9     0.4       S   170   1.1       S   177   9.75    655       -6.1
   01/10/2018 00:50      45.1      44.2       94     42.9      0.00      2.17      59.9     0.53      1013.2     0.7     ESE   121   1.5      SE   137   9.75    654       -6.1
   01/10/2018 00:40      45.5      44.9       94     43.5      0.00      2.17      60.0     0.53      1013.1     0.3     ESE   108   0.9      SE   129   9.75    652       -5.8
   01/10/2018 00:30      45.5      44.9       94     43.5      0.00      2.17      60.0     0.53      1013.1     0.1     ESE   121   0.9     ESE   115   9.75    650       -5.7
   01/10/2018 00:20      45.7      45.3       94     43.9      0.00      2.17      60.0     0.53      1012.9     0.2      SE   136   1.0      SE   136   9.75    648       -6.0
   01/10/2018 00:10      45.7      45.3       94     43.8      0.00      2.17      60.0     0.53      1012.8     0.2     SSW   205   1.4     SSW   193   9.75    646       -6.2
   01/10/2018 00:00      45.7      45.1       94     43.9      0.00      2.17      60.0     0.53      1012.7     0.7     SSW   210   1.5       S   181   9.75    645       -6.0
   01/09/2018 23:50      45.6      44.8       94     43.4      0.00      2.17      60.0     0.53      1012.6     0.2       S   180   1.4       S   170   9.75    643       -5.9
   01/09/2018 23:40      46.1      45.3       94     44.0      0.00      2.17      60.1     0.53      1012.7     0.7       S   181   1.3       S   178   9.75    641       -5.7
   01/09/2018 23:30      46.2      45.7       94     44.2      0.00      2.17      60.1     0.53      1012.4     0.6     SSE   164   2.7     SSW   202   9.75    640       -5.7
   01/09/2018 23:20      46.5      45.4       93     44.1      0.00      2.17      60.1     0.53      1012.2     0.5      SE   137   2.0     SSW   196   9.75    637       -6.0
   01/09/2018 23:10      46.4      45.8       94     44.3      0.00      2.17      60.1     0.53      1012.3     0.4     NNE    19   1.2       N     4   9.75    636       -5.8
   01/09/2018 23:00      46.5      46.0       93     44.4      0.00      2.17      60.1     0.53      1012.1     0.0      NW   323   1.0      NW   323   9.75    633       -5.8
   01/09/2018 22:50      46.7      45.9       93     44.4      0.00      2.17      60.1     0.53      1012.0     0.6      SE   144   1.9      SE   124   9.75    631       -5.8
   01/09/2018 22:40      46.7      46.1       93     44.4      0.00      2.17      60.1     0.54      1011.9     1.4     SSE   168   2.4     SSW   204   9.75    629       -5.8
   01/09/2018 22:30      46.8      46.4       93     44.5      0.00      2.17      60.1     0.54      1011.6     1.1       S   169   1.9     SSW   192   9.76    627       -5.8
   01/09/2018 22:20      47.0      46.4       92     44.6      0.00      2.17      60.2     0.54      1011.7     0.5     SSE   156   1.4       S   187   9.76    635       -5.8
   01/09/2018 22:10      47.3      46.7       92     44.7      0.00      2.17      60.2     0.54      1011.5     0.1       S   179   1.2       S   175   9.76    633       -6.2
   01/09/2018 22:00      47.7      46.9       92     44.9      0.00      2.17      60.2     0.54      1011.5     0.4       S   180   1.2      SW   219   9.76    631       -6.1
   01/09/2018 21:50      48.1      47.3       91     45.2      0.00      2.17      60.2     0.54      1011.5     0.4       E    94   1.6      SE   134   9.76    630       -5.7
   01/09/2018 21:40      49.1      47.8       91     45.9      0.00      2.17      60.2     0.54      1011.5     1.0     SSE   163   2.0       S   180   9.76    628       -5.5
   01/09/2018 21:30      49.4      48.8       91     46.4      0.00      2.17      60.2     0.54      1011.6     0.9     SSW   212   1.8     SSW   198   9.76    626       -5.9
   01/09/2018 21:20      49.4      48.7       91     46.5      0.00      2.17      60.2     0.54      1011.5     1.5      SW   216   3.2     SSW   211   9.76    624       -6.0
   01/09/2018 21:10      49.2      48.4       90     45.9      0.00      2.17      60.2     0.54      1011.3     0.7       S   187   2.1      SW   215   9.76    624       -5.9
   01/09/2018 21:00      49.9      48.9       89     46.4      0.00      2.17      60.3     0.54      1011.0     1.0     SSE   152   2.1     SSW   210   9.76    622       -5.7
   01/09/2018 20:50      50.0      49.6       90     46.9      0.00      2.17      60.3     0.54      1011.0     1.7     SSW   197   2.9      SW   216   9.77    621       -5.7
   01/09/2018 20:40      50.0      49.7       91     47.2      0.00      2.17      60.3     0.54      1011.0     2.2     SSW   204   5.3     WSW   249   9.77    621       -5.4
   01/09/2018 20:30      49.9      49.3       92     47.4      0.00      2.17      60.3     0.54      1011.0     2.8      SW   221   5.4      SW   224   9.77    621       -5.3
   01/09/2018 20:20      49.8      49.2       93     47.4      0.00      2.17      60.3     0.54      1010.5     1.5      SW   216   4.6     SSW   210   9.77    622       -5.9
   01/09/2018 20:10      50.0      49.5       93     47.8      0.00      2.17      60.3     0.54      1010.2     1.7     SSW   210   3.7      SW   219   9.77    622       -5.8
   01/09/2018 20:00      50.0      49.6       94     48.0      0.00      2.17      60.3     0.55      1010.1     2.2     SSW   196   3.2     SSW   209   9.77    622       -5.8
   01/09/2018 19:50      49.9      49.1       94     47.6      0.00      2.17      60.3     0.55      1010.0     1.3       S   181   3.6       S   190   9.77    620       -6.5
   01/09/2018 19:40      49.5      48.7       93     47.1      0.00      2.17      60.3     0.55      1009.9     0.6       S   179   1.9     SSW   197   9.78    619       -7.0
   01/09/2018 19:30      50.2      49.2       93     47.7      0.00      2.17      60.3     0.55      1009.6     0.4      SE   136   1.2      SE   140   9.78    617       -6.5
   01/09/2018 19:20      50.1      49.7       93     48.0      0.00      2.17      60.3     0.55      1009.5     1.2       S   184   1.6       S   180   9.78    615       -6.7
   01/09/2018 19:10      50.2      49.7       93     48.1      0.00      2.17      60.3     0.55      1009.4     0.4     SSW   196   1.9     SSW   195   9.78    613       -7.0
   01/09/2018 19:00      50.1      49.7       93     47.8      0.00      2.17      60.3     0.55      1009.2     0.5       S   183   1.8     SSW   200   9.79    610       -7.2
   01/09/2018 18:50      51.0      49.9       92     48.4      0.00      2.17      60.3     0.55      1009.0     0.7     SSE   163   1.6     SSE   168   9.79    609       -6.9
   01/09/2018 18:40      51.2      50.6       92     48.7      0.00      2.17      60.3     0.55      1009.1     0.6       S   169   2.8     SSW   195   9.79    606       -5.9
   01/09/2018 18:30      51.3      50.8       92     48.8      0.00      2.17      60.3     0.55      1009.0     1.5      SW   220   3.5     SSW   198   9.80    604       -5.6
   01/09/2018 18:20      51.5      50.8       92     48.8      0.00      2.17      60.3     0.55      1008.7     1.2     SSW   203   2.8     SSW   211   9.80    604       -7.3
   01/09/2018 18:10      52.1      51.2       91     49.2      0.00      2.17      60.3     0.56      1008.6     0.2      SE   145   1.2      SE   142   9.80    602       -7.8
   01/09/2018 18:00      52.5      51.8       92     49.7      0.00      2.17      60.3     0.56      1008.5     0.3     ENE    59   1.4     ENE    62   9.81    600       -7.3
   01/09/2018 17:50      52.6      52.1       91     49.9      0.00      2.17      60.3     0.56      1008.6     0.4      NE    40   1.5       N   354   9.81    599       -4.3
   01/09/2018 17:40      52.7      52.2       91     49.9      0.00      2.17      60.3     0.56      1008.4     0.4     NNE    28   1.2      NE    43   9.81    599       -3.8
   01/09/2018 17:30      53.0      52.4       91     50.0      0.02      2.17      60.3     0.56      1008.2     0.8     NNE    32   2.7     NNE    25   9.81    594       -3.9
   01/09/2018 17:20      53.0      52.5       91     50.0      0.01      2.15      60.3     0.56      1008.2     1.3       N     7   3.0     NNW   348   9.81    564       -3.8
   01/09/2018 17:10      52.8      52.4       91     49.9      0.00      2.14      60.3     0.56      1008.0     0.7     NNE    26   1.9     NNE    32   9.81    472       -3.2
   01/09/2018 17:00      52.8      52.3       90     49.7      0.00      2.14      60.3     0.56      1007.7     0.3      NE    51   0.9       E    86   9.81    468        1.1
   01/09/2018 16:50      53.3      52.5       90     49.9      0.00      2.14      60.3     0.57      1007.6     0.9       E    93   2.3       E    89   9.82    470        4.5
   01/09/2018 16:40      53.3      52.9       90     50.1      0.00      2.14      60.3     0.57      1007.6     0.4     ENE    72   1.8     ENE    76   9.82    471        7.0
   01/09/2018 16:30      53.3      52.9       89     50.0      0.00      2.14      60.3     0.57      1007.5     0.4     ENE    68   1.1      NE    50   9.83    473       13.2
   01/09/2018 16:20      54.0      53.0       89     50.2      0.00      2.14      60.2     0.57      1007.3     1.1      NE    56   2.7     ENE    64   9.83    475       22.3
   01/09/2018 16:10      53.8      53.0       90     50.6      0.00      2.14      60.2     0.57      1006.9     0.5     ENE    62   1.7     ENE    65   9.84    478       59.7
   01/09/2018 16:00      53.7      53.0       90     50.3      0.00      2.14      60.2     0.57      1006.6     1.5     ENE    58   2.4      NE    49   9.86    488       41.5
   01/09/2018 15:50      53.6      52.8       90     50.4      0.00      2.14      60.1     0.58      1006.6     0.8     ENE    63   2.8     ENE    59   9.87    492       79.2
   01/09/2018 15:40      53.7      53.0       90     50.4      0.00      2.14      60.1     0.58      1006.5     1.6     ENE    78   4.2       E    92   9.88    496      104.2
   01/09/2018 15:30      53.4      52.8       91     50.5      0.00      2.14      60.0     0.58      1006.4     1.3       E    82   3.4     ESE   110   9.89    503      141.7
   01/09/2018 15:20      53.0      52.6       91     50.3      0.00      2.14      60.0     0.59      1006.4     1.2       E    90   2.9       E    94   9.91    513      115.5
   01/09/2018 15:10      53.2      52.7       92     50.5      0.01      2.14      60.0     0.60      1006.4     1.3       E    79   3.5     ENE    76   9.93    512       91.6
   01/09/2018 15:00      53.3      52.8       92     50.6      0.00      2.13      60.1     0.60      1006.5     0.0     NNE    31   1.2      NE    41   9.95    501       56.8
   01/09/2018 14:50      52.8      52.5       92     50.3      0.02      2.13      60.2     0.61      1006.4     0.5      NE    50   2.1     ENE    60   9.97    484       47.9
   01/09/2018 14:40      52.8      52.2       91     49.9      0.03      2.11      60.4     0.61      1006.4     1.6      NE    43   3.0     NNE    20  10.00    473       35.8
   01/09/2018 14:30      52.8      52.2       90     49.6      0.15      2.08      60.8     0.62      1006.3     1.7     NNE    27   4.5     NNE    29  10.01    445       24.4
   01/09/2018 14:20      52.7      52.3       90     49.6      0.12      1.93      61.0     0.49      1006.2     1.6     WSW   243   3.4     WNW   287   9.96    463       14.5
   01/09/2018 14:10      52.5      52.1       90     49.3      0.03      1.81      61.1     0.47      1006.0     1.7     ESE   109   4.5     ESE   102   9.90    474       12.6
   01/09/2018 14:00      52.3      52.0       89     49.0      0.03      1.78      61.2     0.45      1005.9     2.9       E    85  10.5       E    83   9.88    456        8.7
   01/09/2018 13:50      52.5      51.8       88     48.5      0.06      1.75      61.3     0.44      1006.0     3.5     ESE   105   8.5       E    82   9.87    480       11.9
   01/09/2018 13:40      52.8      52.0       87     48.5      0.03      1.69      61.3     0.43      1006.1     4.1      SE   142  10.1      SE   136   9.81    480       16.2
   01/09/2018 13:30      53.1      52.6       87     49.0      0.04      1.66      61.3     0.43      1006.2     4.2      SE   127  10.1      SE   130   9.78    484       17.4
   01/09/2018 13:20      53.6      52.9       87     49.3      0.05      1.62      61.2     0.42      1006.4     3.0     ESE   123   6.7       E   100   9.75    486       15.3
   01/09/2018 13:10      53.9      53.3       86     49.5      0.02      1.57      61.3     0.42      1006.5     2.5     ESE   121   6.7     ESE   103   9.71    486       12.8
   01/09/2018 13:00      53.9      53.5       87     49.8      0.01      1.55      61.3     0.42      1006.6     1.5      SE   128   7.8      SE   132   9.69    523       29.8
   01/09/2018 12:50      54.3      53.6       86     49.9      0.00      1.54      61.2     0.41      1006.7     1.1     ENE    63   2.7     NNE    17   9.68    507       34.3
   01/09/2018 12:40      54.5      54.0       84     49.6      0.05      1.54      61.2     0.41      1007.0     1.8       E    89   3.6     ESE   115   9.67    468       40.3
   01/09/2018 12:30      54.2      53.4       84     49.1      0.00      1.49      61.2     0.41      1007.3     2.0      SE   133   5.0     SSE   150   9.64    316      226.6
   01/09/2018 12:20      53.4      52.9       82     47.9      0.00      1.49      61.2     0.41      1007.6     3.9     SSE   161   7.9       S   189   9.64    322      150.5
   01/09/2018 12:10      55.0      53.1       80     48.4      0.04      1.49      61.3     0.41      1007.7     5.7       S   183  11.6     SSW   191   9.64    326       51.0
   01/09/2018 12:00      55.9      54.8       79     49.0      0.00      1.45      61.3     0.41      1007.6     4.0      SE   136   7.8     ESE   123   9.61    329       68.9
   01/09/2018 11:50      56.2      55.5       78     49.2      0.00      1.45      61.2     0.41      1007.8     4.6      SE   137  10.4     ESE   121   9.61    337      174.7
   01/09/2018 11:40      56.1      55.2       80     49.6      0.00      1.45      61.3     0.41      1008.0     5.2     SSE   152  10.6      SE   124   9.61    354      324.9
   01/09/2018 11:30      55.5      54.8       84     50.4      0.01      1.45      61.3     0.41      1008.1     2.4      SE   140   5.6      SE   140   9.61    394      289.6
   01/09/2018 11:20      55.4      54.7       81     49.3      0.01      1.44      61.3     0.40      1008.3     3.9     SSE   162   7.4       S   176   9.60    407      130.0
   01/09/2018 11:10      55.6      55.0       81     49.7      0.00      1.43      61.3     0.40      1008.5     3.2     SSE   148   5.0     SSE   162   9.59    413      202.3
   01/09/2018 11:00      57.4      55.4       77     49.3      0.01      1.43      61.3     0.40      1008.6     3.8     SSE   167   8.3     SSE   150   9.59    424      193.2
   01/09/2018 10:50      57.7      56.8       75     49.4      0.00      1.42      61.3     0.40      1008.6     4.1     SSE   148   8.5       S   183   9.58    437      330.4
   01/09/2018 10:40      57.0      55.3       80     50.0      0.00      1.42      61.3     0.40      1008.7     3.4     SSE   159   9.7      SW   214   9.58    464      416.4
   01/09/2018 10:30      55.7      55.3       81     49.6      0.00      1.42      61.3     0.40      1008.8     3.5     SSE   162   9.7       S   183   9.58    493      178.6
   01/09/2018 10:20      55.6      53.7       86     50.5      0.00      1.42      61.4     0.40      1008.9     2.4       S   187   9.1       E    86   9.58    514      320.9
   01/09/2018 10:10      53.7      53.1       89     50.2      0.00      1.42      61.4     0.40      1009.0     2.9      SW   219   5.8      SW   234   9.57    543      214.1
   01/09/2018 10:00      54.9      53.4       89     50.9      0.00      1.42      61.4     0.40      1009.0     3.7     WSW   241   6.7       W   267   9.57    555       69.1
   01/09/2018 09:50      55.0      53.9       91     51.9      0.00      1.42      61.4     0.40      1008.9     1.7       W   265   3.7      SW   225   9.57    564      285.8
   01/09/2018 09:40      53.9      53.3       91     51.0      0.01      1.42      61.4     0.40      1008.9     2.3     WSW   244   5.5      SW   215   9.57    572      230.7
   01/09/2018 09:30      53.5      53.1       91     50.8      0.02      1.41      61.4     0.40      1008.8     1.4     WSW   238   4.1     WSW   238   9.55    576      120.2
   01/09/2018 09:20      53.3      52.8       91     50.6      0.00      1.39      61.5     0.40      1008.6     0.6       E    93   1.9     ENE    68   9.55    576       81.6
   01/09/2018 09:10      53.0      52.6       91     50.2      0.01      1.39      61.5     0.40      1008.4     1.0     ENE    71   2.8       E    81   9.55    555       84.4
   01/09/2018 09:00      52.8      52.4       91     49.9      0.00      1.38      61.5     0.40      1008.3     1.0     ENE    67   1.8      NE    52   9.55    538       71.9
   01/09/2018 08:50      52.6      52.0       90     49.5      0.00      1.38      61.5     0.40      1008.3     0.3     ENE    76   1.6     ENE    65   9.55    536      117.9
   01/09/2018 08:40      52.2      51.7       89     48.9      0.00      1.38      61.4     0.40      1008.1     0.9     ESE   122   2.3     SSW   204   9.54    524       81.1
   01/09/2018 08:30      52.4      51.7       89     48.7      0.00      1.38      61.5     0.40      1007.9     1.8     SSE   155   4.4      SE   136   9.54    499       58.7
   01/09/2018 08:20      52.2      51.7       89     48.8      0.00      1.38      61.5     0.40      1007.7     1.2      SE   124   2.8      SE   143   9.63    504       58.2
   01/09/2018 08:10      52.1      51.6       90     48.9      0.00      1.38      61.5     0.40      1007.5     1.7       S   178   4.5     SSW   194   9.89    511       19.8
   01/09/2018 08:00      52.1      51.6       90     49.1      0.00      1.38      61.6     0.40      1007.2     0.5     SSE   160   1.6      SE   136   9.90    516       14.4
   01/09/2018 07:50      51.9      51.5       91     49.1      0.00      1.38      61.6     0.40      1007.1     1.1     SSW   196   4.0       S   187   9.91    519       14.9
   01/09/2018 07:40      52.1      51.6       92     49.4      0.00      1.38      61.6     0.40      1006.9     0.6       S   186   1.9       S   187   9.91    522       10.7
   01/09/2018 07:30      52.0      51.7       92     49.5      0.00      1.38      61.6     0.40      1006.8     0.2       E    90   0.9       E    83   9.92    524        3.7
   01/09/2018 07:20      52.2      51.7       91     49.5      0.01      1.38      61.7     0.40      1006.5     0.4     ENE    62   1.7       E    95   9.93    527        0.5
   01/09/2018 07:10      52.4      51.8       91     49.5      0.01      1.37      61.7     0.40      1006.5     0.5     ESE   122   1.8     ESE   107   9.93    517       -1.2
   01/09/2018 07:00      52.5      52.0       90     49.5      0.01      1.36      61.7     0.40      1006.2     0.2     ESE   110   1.3     WSW   259   9.93    517       -2.0
   01/09/2018 06:50      52.4      52.0       90     49.3      0.02      1.35      61.7     0.40      1006.0     0.2     WNW   297   1.2       W   269   9.93    462       -2.4
   01/09/2018 06:40      52.2      51.8       90     49.2      0.01      1.33      61.7     0.40      1005.9     1.3      SW   219   4.0     SSW   209   9.93    435       -1.8
   01/09/2018 06:30      52.7      52.0       90     49.5      0.00      1.32      61.8     0.40      1005.9     4.4     SSW   209   7.3     SSW   210   9.93    436       -1.2
   01/09/2018 06:20      53.0      52.3       90     49.9      0.02      1.32      61.8     0.40      1005.7     5.0      SW   229  11.5     SSW   193   9.93    439       -1.0
   01/09/2018 06:10      53.2      52.6       89     49.8      0.02      1.30      61.8     0.40      1005.5     5.1      SW   229  11.0       W   261   9.93    443       -0.9
   01/09/2018 06:00      53.9      52.9       89     50.0      0.02      1.28      61.9     0.40      1005.2     6.6      SW   232  12.0     WSW   244   9.94    446       -1.0
   01/09/2018 05:50      56.9      53.6       89     51.2      0.00      1.26      61.9     0.40      1004.7     7.4      SW   233  13.4     WNW   283   9.96    450       -0.4
   01/09/2018 05:40      57.0      56.5       92     54.4      0.04      1.26      61.9     0.40      1004.3     4.7      SW   220  10.0      SW   227   9.99    457       -0.3
   01/09/2018 05:30      56.8      56.3       92     54.2      0.05      1.22      61.9     0.40      1003.7     4.5     SSE   151   8.5      SW   223  10.01    462       -0.2
   01/09/2018 05:20      56.6      56.2       92     54.1      0.06      1.17      61.9     0.39      1003.3     5.1     ESE   107   9.2     ESE   115  10.02    540       -0.2
   01/09/2018 05:10      56.6      56.1       92     54.1      0.05      1.11      62.0     0.39      1003.1     4.9       E   101  10.3     ESE   123   9.99    471       -0.3
   01/09/2018 05:00      56.7      56.3       92     54.1      0.07      1.06      62.0     0.38      1003.3     4.4       E    97  10.7       E    98   9.98    467       -0.2
   01/09/2018 04:50      56.8      56.4       91     54.1      0.07      0.99      62.0     0.38      1003.5     5.5       E   100  10.8     ESE   112   9.93    458       -0.2
   01/09/2018 04:40      56.9      56.4       92     54.1      0.01      0.92      62.0     0.37      1003.2     5.8       E    95  11.6     ENE    72   9.87    513       -0.6
   01/09/2018 04:30      57.0      56.6       91     54.2      0.02      0.91      62.0     0.37      1004.1     5.4     ESE   106  12.8     ENE    74   9.86    517       -0.3
   01/09/2018 04:20      57.2      56.6       91     54.2      0.01      0.89      62.0     0.37      1004.2     4.5       E    89  11.5       E    83   9.84    535       -0.2
   01/09/2018 04:10      57.4      56.8       91     54.3      0.01      0.88      62.0     0.37      1004.4     5.7     ESE   102  12.5     ENE    78   9.83    495       -0.4
   01/09/2018 04:00      57.3      56.9       91     54.4      0.03      0.87      62.1     0.37      1004.6     4.7       E    98  13.8     ENE    59   9.82    477       -1.0
   01/09/2018 03:50      57.2      56.9       92     54.6      0.01      0.84      62.0     0.36      1004.8     5.4       E    88  11.2       E    81   9.80    501       -0.9
   01/09/2018 03:40      57.2      56.9       92     54.7      0.02      0.83      62.0     0.36      1005.1     3.8       E    87   8.4     ESE   111   9.78    515       -0.9
   01/09/2018 03:30      57.2      56.9       92     54.7      0.04      0.81      62.0     0.36      1005.4     3.8     ESE   109   7.4     ESE   121   9.77    512       -0.9
   01/09/2018 03:20      57.4      56.9       92     54.7      0.02      0.77      62.1     0.36      1005.3     2.7       E    94   9.2     ESE   122   9.74    510       -0.8
   01/09/2018 03:10      57.4      57.0       91     54.6      0.02      0.75      62.1     0.36      1005.6     2.8       E   101   7.6     ENE    63   9.72    553       -0.9
   01/09/2018 03:00      57.4      57.0       91     54.5      0.00      0.73      62.1     0.36      1005.8     5.5       E    91  11.7       E    92   9.70    577       -0.9
   01/09/2018 02:50      57.5      56.9       91     54.5      0.01      0.73      62.1     0.36      1006.3     5.1       E    83  11.4      SE   131   9.70    588       -1.1
   01/09/2018 02:40      57.4      57.0       91     54.5      0.00      0.72      62.1     0.36      1006.6     4.9     ENE    77  12.4      NE    53   9.69    577       -1.3
   01/09/2018 02:30      57.2      56.9       91     54.4      0.00      0.72      62.1     0.36      1006.7     3.2       E    86   8.1       E    88   9.69    535       -1.4
   01/09/2018 02:20      57.3      56.9       91     54.4      0.01      0.72      62.1     0.35      1007.0     3.7     ENE    75   9.4     ENE    58   9.69    535       -1.5
   01/09/2018 02:10      57.1      56.8       91     54.4      0.00      0.71      62.1     0.35      1007.2     3.1       E    88   8.6     ENE    56   9.68    526       -1.7
   01/09/2018 02:00      57.2      56.8       91     54.3      0.02      0.71      62.1     0.35      1007.5     4.2       E    93   8.1      NE    50   9.68    505       -1.8
   01/09/2018 01:50      57.4      56.8       91     54.5      0.02      0.69      62.1     0.35      1007.8     2.8       E   100   5.7     ENE    70   9.66    574       -2.0
   01/09/2018 01:40      57.4      56.9       92     54.8      0.01      0.67      62.1     0.35      1008.0     3.2     ESE   112  10.1       E    92   9.65    558       -1.6
   01/09/2018 01:30      57.5      56.9       92     54.7      0.03      0.66      62.1     0.35      1008.1     2.0       E    91   5.9       E    81   9.63    544       -1.6
   01/09/2018 01:20      57.4      56.9       91     54.5      0.03      0.63      62.2     0.35      1008.2     1.3     ENE    72   3.8     ESE   114   9.60    545       -1.7
   01/09/2018 01:10      57.4      57.0       91     54.4      0.01      0.60      62.1     0.35      1008.4     2.4       E    89   6.2      NE    41   9.58    579       -1.7
   01/09/2018 01:00      57.7      57.0       90     54.2      0.02      0.59      62.2     0.34      1008.5     2.4       E    87   4.8     ENE    70   9.57    544       -1.8
   01/09/2018 00:50      57.9      57.4       88     54.0      0.02      0.57      62.2     0.34      1008.6     2.7     ESE   106   6.5      SE   125   9.55    502       -2.6
   01/09/2018 00:40      58.3      57.5       86     53.7      0.03      0.55      62.1     0.33      1008.6     2.9       E    94   9.0       E    93   9.53    528       -3.6
   01/09/2018 00:30      58.3      57.8       85     53.6      0.01      0.52      62.2     0.33      1008.7     4.5     ESE   108  12.6     ESE   117   9.51    502       -5.2
   01/09/2018 00:20      58.0      57.5       87     54.0      0.00      0.51      62.2     0.33      1008.8     2.6     ESE   108   7.6     ENE    74   9.50    475       -3.6
   01/09/2018 00:10      58.2      57.5       88     54.1      0.00      0.51      62.2     0.33      1009.0     1.9       E    98   5.1     ENE    74   9.50    465       -3.3
   01/09/2018 00:00      58.8      58.0       85     53.8      0.01      0.51      62.2     0.33      1009.3     2.8       E    90   7.5     ESE   117   9.50    464       -4.3
   01/08/2018 23:50      59.8      58.5       81     53.2      0.01      0.50      62.2     0.33      1009.4     3.1       E    95   5.9      NE    41   9.49    380       -5.8
   01/08/2018 23:40      60.1      59.6       77     52.5      0.00      0.49      62.2     0.33      1009.6     3.0       E    97   6.2     ESE   121   9.48    346       -4.7
   01/08/2018 23:30      59.9      59.3       77     52.5      0.00      0.49      62.2     0.33      1009.6     2.6       E    93   5.9     ENE    72   9.48    345       -4.0
   01/08/2018 23:20      59.6      58.2       82     53.3      0.00      0.49      62.2     0.33      1009.8     2.6       E    91   6.1     ESE   113   9.48    356       -4.1
   01/08/2018 23:10      58.5      57.7       88     54.4      0.00      0.49      62.2     0.33      1010.0     1.6       E    81   6.6      SE   142   9.48    367       -3.2
   01/08/2018 23:00      58.3      57.7       89     54.8      0.00      0.49      62.2     0.33      1010.2     0.9       S   190   2.5      SW   224   9.47    373       -2.6
   01/08/2018 22:50      58.3      57.9       88     54.6      0.00      0.49      62.2     0.33      1010.3     0.2     ESE   122   0.8     ENE    67   9.47    375       -2.4
   01/08/2018 22:40      58.5      58.0       88     54.6      0.00      0.49      62.2     0.33      1010.4     0.0     SSE   165   0.4     SSE   165   9.47    375       -3.3
   01/08/2018 22:30      58.7      58.2       87     54.6      0.00      0.49      62.2     0.33      1010.5     0.2     NNE    19   1.2       N   355   9.47    379       -3.5
   01/08/2018 22:20      58.8      58.3       87     54.5      0.00      0.49      62.3     0.33      1010.8     0.3       N   354   1.4     WSW   239   9.47    377       -3.3
   01/08/2018 22:10      58.9      58.3       86     54.3      0.01      0.49      62.2     0.33      1010.9     0.1     SSW   207   1.2     SSW   205   9.47    378       -3.7
   01/08/2018 22:00      58.8      58.5       85     54.2      0.00      0.48      62.3     0.33      1010.9     0.0     ESE   110   0.7     SSW   192   9.47    379       -4.0
   01/08/2018 21:50      58.8      58.3       86     54.3      0.00      0.48      62.2     0.33      1010.8     1.0     ESE   110   2.7      SE   146   9.47    377       -4.1
   01/08/2018 21:40      58.8      58.3       87     54.5      0.00      0.48      62.2     0.33      1010.7     0.5       E   101   2.6      SE   140   9.46    380       -3.1
   01/08/2018 21:30      59.1      58.4       86     54.6      0.00      0.48      62.3     0.33      1010.7     0.0     ENE    78   0.7     ENE    78   9.46    382       -3.4
   01/08/2018 21:20      59.2      58.8       85     54.4      0.00      0.48      62.3     0.33      1010.9     0.5     NNE    29   1.7       N     7   9.46    383       -3.8
   01/08/2018 21:10      59.0      58.5       86     54.5      0.00      0.48      62.3     0.33      1011.1     0.9     ESE   104   2.8     ENE    65   9.46    391       -4.0
   01/08/2018 21:00      58.7      58.4       87     54.9      0.00      0.48      62.3     0.33      1011.0     1.2       E    91   3.9      NE    56   9.46    396       -3.6
   01/08/2018 20:50      58.7      58.3       88     55.1      0.00      0.48      62.3     0.33      1011.1     0.9       E    92   2.6     ESE   103   9.46    405       -3.2
   01/08/2018 20:40      58.7      58.3       88     55.1      0.00      0.48      62.3     0.33      1011.1     0.8     ENE    76   2.7      NE    41   9.46    413       -3.0
   01/08/2018 20:30      58.8      58.3       88     55.1      0.00      0.48      62.3     0.33      1011.3     0.0       N     0   0.0     NNE    15   9.46    416       -2.9
   01/08/2018 20:20      58.6      58.3       89     55.1      0.01      0.48      62.3     0.33      1011.4     0.6       E    88   3.2     ENE    72   9.46    416       -3.1
   01/08/2018 20:10      58.6      58.2       89     55.0      0.00      0.47      62.3     0.33      1011.3     0.7     ENE    71   3.3      NE    49   9.46    418       -2.9
   01/08/2018 20:00      58.6      58.1       89     55.0      0.00      0.47      62.3     0.33      1011.4     0.9      NE    55   3.4      NE    48   9.46    423       -2.8
   01/08/2018 19:50      58.3      57.9       89     54.9      0.00      0.47      62.3     0.33      1011.4     0.9     ENE    61   2.8     ENE    61   9.46    428       -3.2
   01/08/2018 19:40      58.2      57.9       89     54.9      0.00      0.47      62.3     0.33      1011.3     1.8      NE    51   3.6     ENE    57   9.46    433       -3.2
   01/08/2018 19:30      58.2      57.9       89     54.9      0.00      0.47      62.2     0.33      1011.5     1.5     ENE    62   3.0     ENE    63   9.46    440       -3.4
   01/08/2018 19:20      58.3      57.9       89     54.8      0.00      0.47      62.3     0.33      1011.5     1.0       E    84   4.0     ESE   119   9.46    443       -4.4
   01/08/2018 19:10      58.3      57.9       90     55.1      0.00      0.47      62.3     0.33      1011.6     2.0     ENE    79   6.9     ENE    70   9.46    444       -4.3
   01/08/2018 19:00      58.5      57.9       91     55.4      0.00      0.47      62.3     0.34      1011.8     1.5       E    86   4.9     ENE    74   9.46    446       -4.0
   01/08/2018 18:50      58.5      58.0       92     55.7      0.00      0.47      62.3     0.34      1012.0     2.1       E    89   5.5     ESE   118   9.46    448       -2.8
   01/08/2018 18:40      58.7      58.2       92     56.2      0.00      0.47      62.3     0.34      1012.2     1.8       E    94   4.7     ESE   106   9.46    450       -2.3
   01/08/2018 18:30      58.6      58.3       92     56.2      0.00      0.47      62.3     0.34      1012.2     1.5       E    85   4.4       E    88   9.46    452       -1.7
   01/08/2018 18:20      58.6      58.3       92     56.2      0.00      0.47      62.2     0.34      1012.2     0.9     ENE    61   2.6      NE    52   9.46    453       -2.0
   01/08/2018 18:10      58.6      58.2       92     56.2      0.00      0.47      62.2     0.34      1012.2     0.6      NE    54   1.8     ENE    63   9.45    454       -2.1
   01/08/2018 18:00      58.6      58.2       92     56.1      0.00      0.47      62.3     0.34      1012.4     0.5     ENE    62   1.8     ENE    77   9.45    454       -2.1
   01/08/2018 17:50      58.5      58.0       92     56.0      0.00      0.47      62.2     0.34      1012.5     0.2     ENE    59   1.3     ENE    60   9.45    455       -2.3
   01/08/2018 17:40      58.4      58.0       92     55.9      0.00      0.47      62.2     0.34      1012.4     1.5     ENE    72   3.3     ENE    77   9.45    455       -2.8
   01/08/2018 17:30      58.3      57.9       92     55.8      0.00      0.47      62.3     0.34      1012.5     0.7     ENE    75   2.2      NE    38   9.45    456       -2.9
   01/08/2018 17:20      58.3      57.9       92     55.7      0.00      0.47      62.2     0.34      1012.5     1.9       E    79   4.5      NE    36   9.45    456       -2.8
   01/08/2018 17:10      58.2      57.9       92     55.6      0.03      0.47      62.2     0.34      1012.4     1.8     ENE    67   4.4     ESE   110   9.45    452       -2.5
   01/08/2018 17:00      58.3      57.9       91     55.5      0.02      0.44      62.2     0.34      1012.5     1.7       E    86   3.1      SE   127   9.42    452       -0.6
   01/08/2018 16:50      58.3      57.9       91     55.5      0.01      0.42      62.1     0.33      1012.5     0.8     ENE    57   2.0      NE    51   9.40    452        1.7
   01/08/2018 16:40      58.3      57.9       91     55.4      0.01      0.41      62.2     0.33      1012.5     1.0     NNE    23   2.9      NE    39   9.39    448        1.7
   01/08/2018 16:30      58.3      58.0       91     55.4      0.03      0.40      62.2     0.33      1012.8     0.6     NNE    27   2.3      NE    53   9.38    431        2.6
   01/08/2018 16:20      58.6      58.0       90     55.3      0.02      0.37      62.2     0.32      1013.0     0.4      NE    46   1.6      NE    42   9.36    428        1.6
   01/08/2018 16:10      58.5      58.2       90     55.3      0.03      0.35      62.2     0.32      1013.0     0.0      NE    54   0.4      NE    54   9.34    407        1.0
   01/08/2018 16:00      58.7      58.2       90     55.4      0.01      0.32      62.1     0.31      1013.0     0.2      NE    43   1.2     ENE    57   9.31    402        1.6
   01/08/2018 15:50      58.8      58.4       90     55.5      0.02      0.31      62.1     0.31      1012.9     0.0       E    93   1.1       E    90   9.29    393        4.2
   01/08/2018 15:40      59.1      58.5       90     55.7      0.02      0.29      62.1     0.30      1012.9     0.4     NNE    33   1.4     NNE    25   9.28    388        7.4
   01/08/2018 15:30      59.1      58.6       89     55.7      0.01      0.27      62.1     0.29      1013.0     0.0     ESE   109   0.8     ESE   106   9.26    384        7.2
   01/08/2018 15:20      59.2      58.7       89     55.7      0.01      0.26      62.1     0.29      1013.0     0.6     ENE    66   1.4      NE    40   9.24    383       11.2
   01/08/2018 15:10      59.5      58.9       89     55.9      0.00      0.25      62.1     0.28      1013.1     1.0      NE    48   2.9      NE    49   9.24    377       19.5
   01/08/2018 15:00      59.9      59.3       89     56.2      0.02      0.25      62.1     0.28      1013.2     0.9      NE    54   2.5      NE    43   9.23    366       12.2
   01/08/2018 14:50      60.3      59.7       89     56.8      0.00      0.23      62.1     0.28      1013.2     0.6      NE    42   2.2      NE    44   9.22    348       20.1
   01/08/2018 14:40      60.3      59.9       89     56.8      0.02      0.23      62.1     0.28      1013.2     0.8      NE    40   2.7     NNE    25   9.22    344       20.5
   01/08/2018 14:30      60.5      60.0       88     56.6      0.00      0.21      62.1     0.27      1013.2     1.3     NNE    23   3.6     NNE    16   9.20    332       15.2
   01/08/2018 14:20      60.9      60.1       87     56.4      0.01      0.21      62.1     0.27      1013.4     1.1     NNE    32   2.2      NE    37   9.19    305       17.5
   01/08/2018 14:10      61.2      60.5       86     56.7      0.01      0.20      62.0     0.27      1013.5     1.1       N     0   2.4      NW   322   9.18    290       14.8
   01/08/2018 14:00      61.4      60.9       86     57.0      0.00      0.19      62.1     0.27      1013.4     0.5       W   277   1.9      NW   308   9.18    281       18.3
   01/08/2018 13:50      61.8      61.0       85     56.9      0.02      0.19      62.1     0.27      1013.2     0.0       N     0   0.0      NE    55   9.17    281       33.2
   01/08/2018 13:40      61.7      61.3       85     56.7      0.01      0.17      62.1     0.27      1013.0     0.2     WNW   300   1.4     NNW   336   9.16    279       30.0
   01/08/2018 13:30      62.0      61.4       83     56.4      0.01      0.16      62.1     0.27      1013.0     1.0      NW   319   1.8      NW   305   9.15    277       24.7
   01/08/2018 13:20      62.1      61.7       81     55.9      0.01      0.15      62.0     0.27      1013.0     0.2     WNW   302   1.3     WNW   302   9.14    274       23.3
   01/08/2018 13:10      62.7      61.8       78     55.2      0.00      0.14      62.1     0.27      1013.0     0.2      NE    35   0.8      NE    45   9.13    271       25.2
   01/08/2018 13:00      63.3      62.5       76     55.1      0.02      0.14      62.1     0.27      1013.1     0.0     ENE    66   1.1     ENE    59   9.12    270       27.5
   01/08/2018 12:50      63.2      62.8       73     54.3      0.00      0.12      62.0     0.27      1013.0     0.4      NE    35   1.9     NNE    23   9.12    269       35.6
   01/08/2018 12:40      63.3      63.0       72     54.1      0.00      0.12      62.0     0.27      1012.9     0.6     NNW   334   1.5     NNW   335   9.11    268       48.5
   01/08/2018 12:30      64.0      62.9       71     53.6      0.00      0.12      62.0     0.27      1012.9     1.1      NE    48   2.2      NE    51   9.11    268       43.4
   01/08/2018 12:20      64.0      63.5       68     53.0      0.00      0.12      62.0     0.27      1013.1     0.1      NE    36   0.9      NE    41   9.11    268       44.0
   01/08/2018 12:10      64.1      63.7       67     52.5      0.00      0.12      62.0     0.27      1013.3     0.3       N   350   1.6     NNW   335   9.11    267       48.3
   01/08/2018 12:00      64.0      63.2       67     52.6      0.00      0.12      62.0     0.27      1013.4     0.2       N   350   1.0     SSW   205   9.11    267       76.9
   01/08/2018 11:50      63.5      62.7       69     52.6      0.00      0.12      62.0     0.27      1013.5     0.8      SE   128   2.8      SE   138   9.11    267       88.6
   01/08/2018 11:40      63.0      62.5       70     52.9      0.00      0.12      62.0     0.27      1013.7     1.3      SE   126   2.6      SE   141   9.11    267       71.1
   01/08/2018 11:30      62.9      62.1       72     53.4      0.00      0.12      62.1     0.27      1013.9     1.2     SSE   162   2.5      SE   139   9.11    267       93.4
   01/08/2018 11:20      62.3      61.9       72     53.1      0.00      0.12      62.0     0.27      1014.2     2.1      SE   134   3.9      SE   127   9.11    267       86.0
   01/08/2018 11:10      62.1      61.6       72     52.7      0.00      0.12      62.0     0.27      1014.3     1.3     ESE   123   2.7      SE   137   9.11    267       96.7
   01/08/2018 11:00      61.8      60.8       72     52.0      0.00      0.12      62.1     0.27      1014.5     0.9      SE   143   2.1      SE   136   9.11    267      130.0
   01/08/2018 10:50      61.2      60.7       77     53.5      0.00      0.12      62.0     0.27      1014.8     1.0     SSE   163   2.0      SE   146   9.11    267       76.9
   01/08/2018 10:40      61.0      60.5       80     54.7      0.00      0.12      62.0     0.27      1015.1     0.8       S   170   2.2       S   171   9.11    268       81.0
   01/08/2018 10:30      60.9      60.3       81     54.6      0.00      0.12      62.1     0.27      1015.2     0.4       S   178   1.7       S   175   9.11    268       98.6
   01/08/2018 10:20      60.7      60.2       81     54.5      0.00      0.12      62.1     0.27      1015.4     0.0       E    93   0.7      NE    55   9.11    269       70.7
   01/08/2018 10:10      60.4      60.0       81     54.3      0.00      0.12      62.0     0.27      1015.6     0.5       N    10   1.8     NNW   343   9.11    269       63.4
   01/08/2018 10:00      60.7      60.0       80     54.3      0.00      0.12      62.0     0.27      1015.7     1.4     WNW   297   2.8     NNW   329   9.11    270       41.6
   01/08/2018 09:50      60.8      60.4       78     53.8      0.00      0.12      62.1     0.27      1015.8     1.1     NNW   334   2.8       N     0   9.11    271       30.5
   01/08/2018 09:40      60.7      60.2       77     53.1      0.00      0.12      62.1     0.27      1015.9     0.8     WNW   289   2.8     NNW   331   9.11    268       42.9
   01/08/2018 09:30      60.8      60.2       75     52.5      0.00      0.12      62.0     0.27      1015.7     1.4      NW   319   3.5     WNW   282   9.11    268       42.3
   01/08/2018 09:20      60.8      60.4       73     51.8      0.01      0.12      62.1     0.27      1015.7     0.0      NE    53   0.9      NE    53   9.11    268       27.6
   01/08/2018 09:10      60.6      59.9       71     50.8      0.00      0.11      62.0     0.27      1015.8     1.4      SW   231   2.3     WSW   246   9.11    268       20.9
   01/08/2018 09:00      60.2      59.8       74     51.7      0.00      0.11      62.1     0.27      1015.6     0.8       S   185   1.9       S   190   9.11    268       16.3
   01/08/2018 08:50      60.1      59.5       74     51.4      0.00      0.11      62.1     0.27      1015.5     1.2       S   174   2.5     SSE   160   9.11    268       31.3
   01/08/2018 08:40      59.7      58.8       77     52.0      0.00      0.11      62.1     0.27      1015.4     1.9     SSW   195   3.2       S   180   9.11    269       49.8
   01/08/2018 08:30      59.0      58.3       83     53.5      0.00      0.11      62.1     0.27      1015.2     1.4       S   170   2.8       S   182   9.11    270       50.8
   01/08/2018 08:20      58.5      57.9       87     54.3      0.00      0.11      62.1     0.27      1015.1     0.5      SE   143   1.6     SSE   166   9.11    271       29.8
   01/08/2018 08:10      58.1      57.7       89     54.6      0.00      0.11      62.0     0.27      1015.0     0.0     SSE   151   1.0      SE   141   9.10    272       27.8
   01/08/2018 08:00      57.9      57.4       90     54.5      0.00      0.11      62.1     0.27      1015.2     1.7     SSE   160   3.5     SSE   154   9.10    272       18.3
   01/08/2018 07:50      57.7      57.2       90     54.5      0.00      0.11      62.1     0.27      1015.0     0.7      SE   140   2.1       S   177   9.10    274       17.6
   01/08/2018 07:40      57.7      57.2       90     54.4      0.00      0.11      62.1     0.27      1015.0     0.5       S   175   2.3       S   176   9.10    274        8.4
   01/08/2018 07:30      57.7      57.3       90     54.4      0.00      0.11      62.1     0.27      1015.2     0.6      SE   145   2.4       S   176   9.10    274        1.5
   01/08/2018 07:20      57.9      57.3       89     54.3      0.00      0.11      62.1     0.27      1015.5     0.7      SE   128   2.3      SE   144   9.10    274        0.4
   01/08/2018 07:10      58.3      57.4       88     54.1      0.00      0.11      62.1     0.27      1015.6     0.5      SE   129   1.9     ENE    58   9.10    273       -1.3
   01/08/2018 07:00      58.3      57.9       87     54.1      0.00      0.11      62.1     0.27      1015.7     1.1     WSW   246   2.6     WSW   252   9.10    272       -3.3
   01/08/2018 06:50      58.2      57.9       86     53.9      0.00      0.11      62.1     0.27      1015.6     0.9     ENE    66   2.2     WSW   243   9.10    272       -3.9
   01/08/2018 06:40      58.2      57.7       86     53.9      0.00      0.11      62.1     0.27      1015.7     1.0       N   352   2.3      NW   314   9.10    271       -4.4
   01/08/2018 06:30      58.1      57.6       87     53.9      0.00      0.11      62.1     0.27      1015.7     1.2     SSW   196   3.4       S   182   9.09    270       -3.6
   01/08/2018 06:20      58.3      57.8       86     54.0      0.00      0.11      62.1     0.27      1015.3     0.3       S   189   1.1       S   180   9.09    271       -3.8
   01/08/2018 06:10      58.3      57.9       86     53.8      0.00      0.11      62.1     0.27      1015.4     0.1      SE   140   0.8      SE   141   9.09    271       -3.8
   01/08/2018 06:00      58.5      58.0       85     53.7      0.00      0.11      62.1     0.27      1015.3     0.2      SE   141   0.9      NE    52   9.09    270       -4.1
   01/08/2018 05:50      58.3      57.9       85     53.6      0.00      0.11      62.1     0.27      1015.3     0.2      NE    35   1.4     WSW   257   9.09    270       -4.3
   01/08/2018 05:40      57.9      57.5       86     53.7      0.00      0.11      62.1     0.27      1015.2     0.6       W   274   2.5     WSW   237   9.09    270       -4.1
   01/08/2018 05:30      58.3      57.5       86     53.6      0.00      0.11      62.1     0.27      1015.0     0.8       S   175   2.1       S   180   9.09    270       -3.9
   01/08/2018 05:20      58.2      57.9       85     53.4      0.00      0.11      62.1     0.27      1014.9     0.0      NE    48   0.9      NE    51   9.09    270       -4.0
   01/08/2018 05:10      58.3      57.7       84     53.0      0.00      0.11      62.1     0.27      1014.9     0.5     SSE   158   1.5     SSW   198   9.09    270       -4.3
   01/08/2018 05:00      58.7      58.0       81     52.6      0.00      0.11      62.1     0.27      1014.9     0.3       S   187   1.5     SSW   197   9.09    269       -4.4
   01/08/2018 04:50      59.0      58.5       79     52.2      0.00      0.11      62.2     0.27      1014.8     0.0       N     0   0.0     ENE    57   9.09    269       -4.4
   01/08/2018 04:40      59.0      58.5       77     51.4      0.00      0.11      62.1     0.27      1014.9     0.2     SSE   155   0.9     SSE   151   9.09    268       -5.8
   01/08/2018 04:30      59.0      58.5       76     51.0      0.00      0.11      62.1     0.27      1014.8     0.7     SSW   209   1.6       S   186   9.09    267       -6.5
   01/08/2018 04:20      59.4      58.6       75     51.0      0.00      0.11      62.1     0.27      1014.7     0.3       S   190   1.4     SSW   207   9.09    267       -6.6
   01/08/2018 04:10      59.4      58.9       73     50.6      0.00      0.11      62.1     0.27      1014.7     0.0       E    98   0.7       E   100   9.09    267       -8.0
   01/08/2018 04:00      59.7      59.1       74     50.9      0.00      0.11      62.2     0.27      1014.7     0.0     ENE    60   0.8     ENE    60   9.09    267       -8.8
   01/08/2018 03:50      59.7      59.2       74     51.0      0.00      0.11      62.1     0.27      1014.7     0.6       N     8   1.7     NNE    13   9.09    267       -8.7
   01/08/2018 03:40      59.6      58.8       72     50.0      0.00      0.11      62.2     0.27      1014.6     0.5     ESE   106   1.4      SE   139   9.09    267       -8.8
   01/08/2018 03:30      59.3      58.7       72     50.1      0.00      0.11      62.1     0.27      1014.7     0.5       S   180   1.9       S   188   9.09    266       -9.3
   01/08/2018 03:20      59.3      59.0       72     50.2      0.00      0.11      62.2     0.27      1014.7     0.0       N     0   0.0      SW   227   9.09    266      -10.3
   01/08/2018 03:10      59.4      59.0       72     50.2      0.00      0.11      62.1     0.27      1014.7     0.0       N     0   0.0      SW   227   9.09    266      -11.8
   01/08/2018 03:00      59.6      59.0       72     50.4      0.00      0.11      62.2     0.27      1015.0     0.0       N     0   0.0     SSE   149   9.09    266      -13.9
   01/08/2018 02:50      59.6      59.1       73     50.7      0.00      0.11      62.1     0.27      1015.2     0.7      SE   145   2.2      SE   127   9.09    266      -15.8
   01/08/2018 02:40      59.3      58.8       74     50.7      0.00      0.11      62.1     0.27      1015.3     0.6      SE   139   1.9      SE   137   9.09    266      -15.3
   01/08/2018 02:30      59.6      59.0       73     50.6      0.00      0.11      62.2     0.27      1015.4     0.5      SE   128   1.7      SE   142   9.09    267      -13.9
   01/08/2018 02:20      59.6      59.1       73     50.8      0.00      0.11      62.2     0.27      1015.5     0.7     ESE   106   1.9      SE   140   9.09    267      -14.8
   01/08/2018 02:10      59.8      59.2       73     50.6      0.00      0.11      62.2     0.27      1015.8     1.1     SSE   152   2.5      SE   142   9.09    266      -14.1
   01/08/2018 02:00      59.8      59.3       72     50.5      0.00      0.11      62.2     0.27      1016.0     0.9       S   170   1.8       S   175   9.09    266      -14.2
   01/08/2018 01:50      59.7      59.2       71     49.9      0.00      0.11      62.2     0.27      1016.0     0.9       S   181   1.9     SSW   211   9.09    266      -15.6
   01/08/2018 01:40      59.5      59.0       72     50.1      0.00      0.11      62.2     0.27      1016.0     0.9     SSW   210   2.3     WSW   238   9.09    266      -16.4
   01/08/2018 01:30      59.7      59.1       72     50.2      0.00      0.11      62.2     0.27      1016.1     0.3     SSE   169   1.4       S   182   9.09    266      -16.6
   01/08/2018 01:20      59.8      59.3       70     49.6      0.00      0.11      62.1     0.27      1016.2     0.2      SE   138   1.3       S   181   9.09    266      -13.6
   01/08/2018 01:10      59.7      59.3       68     49.1      0.00      0.11      62.2     0.27      1016.3     0.0     SSE   157   0.4     SSE   150   9.09    266      -13.0
   01/08/2018 01:00      59.8      59.3       68     48.9      0.00      0.11      62.2     0.27      1016.3     0.0     SSE   165   0.6     SSE   156   9.09    266      -13.3
   01/08/2018 00:50      60.2      59.4       67     48.6      0.00      0.11      62.1     0.27      1016.3     0.2     SSE   167   0.9       S   182   9.09    266      -14.0
   01/08/2018 00:40      60.3      59.8       65     48.1      0.00      0.11      62.2     0.27      1016.2     0.2     SSE   154   1.2      SE   146   9.09    266      -14.2
   01/08/2018 00:30      60.2      59.8       65     48.1      0.00      0.11      62.2     0.27      1016.1     0.1      SW   234   1.1      SW   229   9.09    266      -13.7
   01/08/2018 00:20      59.9      59.4       65     48.0      0.00      0.11      62.1     0.27      1016.2     0.1       S   170   0.9     SSE   153   9.09    266      -15.6
   01/08/2018 00:10      59.9      59.4       65     47.8      0.00      0.11      62.2     0.27      1016.3     0.0     SSE   148   1.1      SE   145   9.09    266      -17.2
   01/08/2018 00:00      59.8      59.4       65     47.7      0.00      0.11      62.2     0.27      1016.2     0.3       S   190   1.1      SE   145   9.09    266      -16.8
   01/07/2018 23:50      60.1      59.4       64     47.6      0.00      0.11      62.2     0.27      1016.2     0.0       N     0   0.0     SSE   161   9.09    266      -16.8
   01/07/2018 23:40      60.2      59.8       64     47.7      0.00      0.11      62.2     0.27      1016.3     0.0       N     0   0.0     SSE   161   9.09    266      -17.0
   01/07/2018 23:30      60.3      59.8       64     47.8      0.00      0.11      62.2     0.27      1016.3     0.0       N     0   0.0      SE   145   9.09    266      -19.3
   01/07/2018 23:20      60.7      60.1       63     47.9      0.00      0.11      62.2     0.27      1016.2     0.2      SE   133   1.0      SE   145   9.09    266      -22.4
   01/07/2018 23:10      60.7      60.2       64     48.1      0.00      0.11      62.1     0.27      1016.3     0.1      SE   143   1.0      SE   143   9.09    266      -20.1
   01/07/2018 23:00      60.7      60.2       64     48.1      0.00      0.11      62.1     0.27      1016.3     0.0      SE   138   0.5      SE   138   9.09    266      -17.9
   01/07/2018 22:50      60.6      60.2       64     48.3      0.00      0.11      62.1     0.27      1016.4     0.2      SE   134   1.1      SE   139   9.09    266      -18.6
   01/07/2018 22:40      60.5      60.2       65     48.4      0.00      0.11      62.1     0.27      1016.5     0.4     SSE   148   1.4      SE   136   9.09    266      -19.2
   01/07/2018 22:30      60.8      60.2       64     48.1      0.00      0.11      62.1     0.27      1016.5     0.3      SE   134   1.2       E    81   9.09    266      -19.4
   01/07/2018 22:20      60.8      60.4       64     48.5      0.00      0.11      62.1     0.27      1016.5     0.0       N     0   0.0     SSW   196   9.09    266      -19.4
   01/07/2018 22:10      60.9      60.4       64     48.5      0.00      0.11      62.1     0.27      1016.6     0.0       N     0   0.0      SW   218   9.10    266      -19.8
   01/07/2018 22:00      61.1      60.5       64     48.5      0.00      0.11      62.1     0.27      1016.8     0.0      SW   222   0.6      SW   220   9.09    266      -20.4
   01/07/2018 21:50      61.3      60.8       63     48.4      0.00      0.11      62.1     0.27      1016.8     0.0       N     0   0.0     NNE    26   9.09    266      -21.2
   01/07/2018 21:40      61.5      61.0       63     48.5      0.00      0.11      62.1     0.27      1016.7     0.1      SE   125   0.8      SE   146   9.10    266      -21.6
   01/07/2018 21:30      61.5      61.0       64     48.9      0.00      0.11      62.1     0.27      1016.7     0.5     SSW   198   1.3     SSW   213   9.10    266      -21.6
   01/07/2018 21:20      61.7      61.2       63     48.6      0.00      0.11      62.0     0.27      1016.7     0.0       N     0   0.0       E    84   9.10    265      -22.8
   01/07/2018 21:10      61.9      61.3       63     48.9      0.00      0.11      62.1     0.27      1016.8     0.0      SE   127   0.1      SE   127   9.10    266      -23.1
   01/07/2018 21:00      62.0      61.5       63     48.8      0.00      0.11      62.0     0.27      1016.9     0.3      SE   141   1.4      SE   144   9.10    265      -23.0
   01/07/2018 20:50      62.2      61.6       63     49.0      0.00      0.11      62.0     0.27      1017.0     0.0       S   188   0.8     SSW   195   9.10    265      -23.9
   01/07/2018 20:40      62.4      61.8       62     48.9      0.00      0.11      62.0     0.27      1016.9     0.8     SSE   156   1.9      SE   141   9.10    265      -25.0
   01/07/2018 20:30      63.0      62.0       60     48.3      0.00      0.11      62.0     0.27      1016.8     1.3      SW   222   1.7      SW   219   9.10    265      -24.4
   01/07/2018 20:20      63.1      62.7       61     49.1      0.00      0.11      62.0     0.27      1016.9     1.4     SSW   200   2.1     SSW   202   9.10    265      -25.0
   01/07/2018 20:10      63.9      62.9       59     48.7      0.00      0.11      62.0     0.27      1016.9     0.4     SSW   201   1.5      SW   231   9.10    265      -25.8
   01/07/2018 20:00      64.9      63.5       58     48.9      0.00      0.11      62.0     0.27      1016.9     0.4       S   177   0.9     SSW   207   9.10    264      -26.7
   01/07/2018 19:50      65.4      64.7       57     49.4      0.00      0.11      62.0     0.27      1017.0     0.6     NNE    15   1.5     WNW   300   9.10    264      -28.8
   01/07/2018 19:40      65.7      65.1       56     49.5      0.00      0.11      62.0     0.27      1017.1     0.9       W   279   2.1     WSW   237   9.10    264      -29.3
   01/07/2018 19:30      66.0      65.4       55     49.2      0.00      0.11      61.9     0.27      1017.0     1.0     WNW   284   3.0       W   279   9.10    264      -29.5
   01/07/2018 19:20      66.1      65.7       55     49.1      0.00      0.11      61.9     0.27      1017.0     3.0     SSW   212   5.6       S   183   9.10    264      -30.4
   01/07/2018 19:10      66.0      65.5       54     48.8      0.00      0.11      61.9     0.27      1017.0     3.1     SSW   205   6.7     SSW   203   9.10    264      -30.4
   01/07/2018 19:00      65.7      64.1       55     48.7      0.00      0.11      61.9     0.27      1016.9     3.5     SSW   204   5.6     SSW   198   9.10    264      -30.0
   01/07/2018 18:50      64.3      63.6       54     46.8      0.00      0.11      61.9     0.27      1016.8     2.4       S   176   4.3       S   187   9.10    264      -27.0
   01/07/2018 18:40      64.4      63.7       51     45.7      0.00      0.11      61.8     0.27      1016.8     0.6     SSW   204   1.3      SW   218   9.10    264      -26.6
   01/07/2018 18:30      64.4      63.6       51     45.6      0.00      0.11      61.8     0.27      1016.9     0.8     SSW   208   1.4      SW   228   9.11    264      -26.3
   01/07/2018 18:20      64.4      63.6       49     44.5      0.00      0.11      61.8     0.27      1016.8     0.3       S   184   1.1       S   184   9.11    264      -27.8
   01/07/2018 18:10      64.9      64.1       48     44.3      0.00      0.11      61.8     0.27      1016.9     0.3     ENE    72   1.6     NNE    21   9.11    264      -29.1
   01/07/2018 18:00      65.0      64.5       48     44.5      0.00      0.11      61.8     0.27      1016.8     0.7      NE    51   1.8      NE    46   9.11    264      -31.7
   01/07/2018 17:50      64.8      63.7       48     44.1      0.00      0.11      61.7     0.27      1016.7     1.0     SSE   162   3.4       S   182   9.11    264      -39.6
   01/07/2018 17:40      64.7      64.2       46     43.2      0.00      0.11      61.7     0.27      1016.5     0.6     SSE   166   1.5     SSE   151   9.11    264      -50.0
   01/07/2018 17:30      65.0      64.4       43     41.9      0.00      0.11      61.7     0.27      1016.4     1.0     SSE   163   1.7     SSE   163   9.11    263      -53.5
   01/07/2018 17:20      66.0      64.6       41     40.6      0.00      0.11      61.6     0.27      1016.4     0.9     SSE   164   1.8     SSE   156   9.11    263      -55.0
   01/07/2018 17:10      67.4      65.8       37     39.5      0.00      0.11      61.6     0.27      1016.3     1.2       S   191   1.9      SW   223   9.12    263      -57.9
   01/07/2018 17:00      69.1      67.2       37     40.6      0.00      0.11      61.6     0.27      1016.3     0.5     SSW   193   1.7      SW   231   9.12    263      -61.7
   01/07/2018 16:50      70.6      68.8       34     40.4      0.00      0.11      61.6     0.27      1016.2     0.4     SSE   167   1.2       S   187   9.12    262      -57.9
   01/07/2018 16:40      72.7      70.3       31     39.6      0.00      0.11      61.5     0.27      1016.1     1.4     SSW   208   2.0     SSW   212   9.12    262      -49.6
   01/07/2018 16:30      74.0      72.5       30     39.8      0.00      0.11      61.5     0.27      1016.1     0.7     SSW   199   1.5     SSW   208   9.12    262      -36.6
   01/07/2018 16:20      74.1      73.6       29     39.2      0.00      0.11      61.5     0.27      1016.0     1.3     SSE   164   2.8      SE   125   9.12    261      -11.7
   01/07/2018 16:10      74.5      73.8       28     39.3      0.00      0.11      61.5     0.27      1015.8     0.8      SE   137   1.9      SE   140   9.12    262       -6.2
   01/07/2018 16:00      75.6      74.1       27     38.3      0.00      0.11      61.4     0.27      1015.8     1.4      SE   136   2.6      SE   145   9.12    262       -0.3
   01/07/2018 15:50      76.5      75.3       25     37.4      0.00      0.11      61.4     0.27      1015.7     0.9       S   191   1.9     SSW   213   9.13    261       16.1
   01/07/2018 15:40      76.6      75.8       25     37.8      0.00      0.11      61.4     0.27      1015.8     0.2       N     8   1.1     NNE    20   9.13    261       24.2
   01/07/2018 15:30      77.6      76.3       24     37.4      0.00      0.11      61.4     0.27      1015.9     0.4      SW   215   1.4     SSW   210   9.13    261       10.2
   01/07/2018 15:20      77.6      76.2       24     37.3      0.00      0.11      61.3     0.27      1016.0     0.3       S   183   2.0       S   174   9.13    261       41.5
   01/07/2018 15:10      78.4      76.3       24     37.2      0.00      0.11      61.3     0.27      1016.1     1.5     NNW   338   2.7     NNW   347   9.13    261       71.3
   01/07/2018 15:00      78.4      76.8       23     37.3      0.00      0.11      61.3     0.27      1016.2     1.1       W   267   3.5       W   277   9.13    261      112.6
   01/07/2018 14:50      78.5      76.6       24     37.3      0.00      0.11      61.2     0.27      1016.3     2.5     WSW   254   4.5     WSW   244   9.13    261      131.6
   01/07/2018 14:40      78.4      76.4       24     37.6      0.00      0.11      61.2     0.27      1016.5     0.9     SSE   165   2.7     WSW   245   9.13    261      153.4
   01/07/2018 14:30      78.4      76.6       25     38.2      0.00      0.11      61.2     0.27      1016.4     1.3     NNE    29   3.4      NW   326   9.13    261      138.8
   01/07/2018 14:20      78.4      75.9       24     37.6      0.00      0.11      61.2     0.27      1016.3     0.8     WNW   300   3.5     NNW   343   9.13    261      169.7
   01/07/2018 14:10      76.8      76.0       26     38.9      0.00      0.11      61.2     0.27      1016.5     1.4     NNE    27   3.6     NNW   344   9.14    261      202.5
   01/07/2018 14:00      77.6      75.9       28     41.0      0.00      0.11      61.1     0.27      1016.5     1.5       N    11   3.4      NE    51   9.14    261      232.7
   01/07/2018 13:50      76.9      75.7       30     42.4      0.00      0.11      61.1     0.27      1016.8     0.9       N   359   3.0     WNW   299   9.14    261      309.5
   01/07/2018 13:40      75.6      75.2       32     43.2      0.00      0.11      61.2     0.27      1016.9     0.9      NW   305   3.8     WSW   249   9.13    262      231.8
   01/07/2018 13:30      75.4      74.6       33     44.3      0.00      0.11      61.1     0.27      1017.1     0.9     NNW   342   3.1     NNE    12   9.13    262      281.8
   01/07/2018 13:20      74.6      72.4       35     43.7      0.00      0.11      61.1     0.27      1017.2     0.4     SSE   165   2.5       S   190   9.13    263      244.6
   01/07/2018 13:10      73.2      72.2       36     43.9      0.00      0.11      61.1     0.27      1017.5     1.8     SSW   198   3.6       S   190   9.13    263      162.5
   01/07/2018 13:00      73.0      71.7       38     45.4      0.00      0.11      61.1     0.27      1017.7     1.5      SW   224   4.1      SW   226   9.13    263      215.4
   01/07/2018 12:50      71.9      71.2       40     45.7      0.00      0.11      61.1     0.27      1017.8     1.7     WSW   249   3.4     SSW   197   9.13    263      184.9
   01/07/2018 12:40      71.9      70.8       40     45.5      0.00      0.11      61.1     0.27      1018.0     1.7      SW   229   3.2     WSW   253   9.14    263      117.7
   01/07/2018 12:30      71.9      71.3       40     46.3      0.00      0.11      61.1     0.27      1018.1     0.8     WSW   251   3.3     WSW   243   9.14    263      153.1
   01/07/2018 12:20      72.7      71.3       41     46.5      0.00      0.11      61.0     0.27      1018.4     1.4     NNE    24   3.0     NNE    29   9.14    263      138.3
   01/07/2018 12:10      73.3      71.9       40     46.9      0.00      0.11      61.1     0.27      1018.6     1.1     ENE    65   3.0     ENE    57   9.14    262      298.7
   01/07/2018 12:00      71.9      70.9       41     46.7      0.00      0.11      61.1     0.27      1018.7     1.2     WNW   302   2.6      NW   310   9.13    263      308.1
   01/07/2018 11:50      71.3      70.0       43     46.8      0.00      0.11      61.1     0.27      1019.0     1.4     NNE    26   3.6      NE    44   9.13    263      294.3
   01/07/2018 11:40      70.3      69.7       44     47.0      0.00      0.11      61.1     0.27      1019.3     1.9      NE    45   3.7      NE    38   9.14    264      240.0
   01/07/2018 11:30      70.3      69.6       46     48.4      0.00      0.11      61.1     0.27      1019.3     2.2      NE    45   4.2       N     0   9.14    264      268.5
   01/07/2018 11:20      70.2      69.1       47     48.4      0.00      0.11      61.2     0.27      1019.5     1.6     NNE    26   4.0     NNE    20   9.14    264      317.8
   01/07/2018 11:10      69.2      67.4       52     50.0      0.00      0.11      61.2     0.27      1019.6     1.3      SE   126   3.7     SSE   165   9.14    264      265.6
   01/07/2018 11:00      68.1      67.1       54     50.1      0.00      0.11      61.2     0.27      1019.8     2.4      SE   127   6.2      SE   139   9.14    265      260.2
   01/07/2018 10:50      67.5      66.7       55     50.5      0.00      0.11      61.1     0.27      1019.8     2.8      SE   142   4.9      SE   140   9.14    265      283.3
   01/07/2018 10:40      66.7      65.4       58     50.9      0.00      0.11      61.2     0.27      1019.9     2.4     ESE   123   4.9       E    99   9.14    266      284.0
   01/07/2018 10:30      65.7      64.3       61     51.4      0.00      0.11      61.3     0.27      1019.9     1.8       E    97   4.7     ENE    64   9.14    266      279.9
   01/07/2018 10:20      64.5      62.7       66     52.0      0.00      0.11      61.3     0.27      1020.0     1.0      NE    35   2.2     NNE    21   9.14    266      268.0
   01/07/2018 10:10      62.9      61.8       67     51.3      0.00      0.11      61.3     0.27      1020.2     0.7       W   270   1.6      SW   215   9.14    266      264.3
   01/07/2018 10:00      62.4      61.1       68     51.0      0.00      0.11      61.3     0.27      1020.3     0.5      NW   324   1.8      NW   312   9.14    266      223.6
   01/07/2018 09:50      61.0      58.8       72     50.8      0.00      0.11      61.4     0.27      1020.3     0.2     WNW   303   0.8      NW   319   9.14    266      209.8
   01/07/2018 09:40      59.0      57.3       75     50.3      0.00      0.11      61.4     0.27      1020.2     0.4     NNW   339   1.2      NW   323   9.14    267      179.0
   01/07/2018 09:30      57.3      56.5       78     50.3      0.00      0.11      61.4     0.27      1020.3     1.1     NNE    12   2.5     NNW   345   9.14    268      213.7
   01/07/2018 09:20      56.7      55.1       83     50.7      0.00      0.11      61.4     0.27      1020.3     0.4     NNW   345   1.6     NNW   344   9.14    281      230.1
   01/07/2018 09:10      55.4      53.8       86     50.6      0.00      0.11      61.4     0.27      1020.3     0.3     NNW   347   1.4       N     6   9.14    328      206.9
   01/07/2018 09:00      54.0      52.6       89     50.0      0.00      0.11      61.5     0.27      1020.3     0.6     ESE   103   1.7     ENE    78   9.14    352      149.8
   01/07/2018 08:50      52.7      51.0       92     49.7      0.00      0.11      61.5     0.27      1020.1     0.3     ESE   110   1.2       E    99   9.14    362      144.4
   01/07/2018 08:40      51.3      50.0       93     48.6      0.00      0.11      61.5     0.27      1020.1     0.0       N    11   1.1     NNE    23   9.14    368       94.6
   01/07/2018 08:30      50.3      49.5       93     47.9      0.00      0.11      61.6     0.27      1020.0     0.4       E    90   1.2       E   100   9.14    369       67.4
   01/07/2018 08:20      49.8      48.7       93     47.4      0.00      0.11      61.5     0.27      1019.8     0.1     ENE    68   0.8       S   181   9.14    369       54.6
   01/07/2018 08:10      48.9      47.9       93     46.4      0.00      0.11      61.5     0.27      1019.8     0.2       S   174   0.9      SE   132   9.14    369       39.7
   01/07/2018 08:00      48.6      47.9       93     46.3      0.00      0.11      61.6     0.27      1019.9     0.0     ESE   110   0.8      SE   132   9.14    368       27.3
   01/07/2018 07:50      48.1      47.7       93     46.0      0.00      0.11      61.6     0.27      1019.8     0.5     SSE   153   1.4       S   186   9.14    367       22.5
   01/07/2018 07:40      48.0      47.1       93     45.6      0.00      0.11      61.6     0.27      1019.6     0.3       S   177   1.4       S   186   9.14    365       15.4
   01/07/2018 07:30      47.3      46.8       93     45.0      0.00      0.11      61.6     0.27      1019.5     0.0       N     0   0.0     NNE    15   9.14    363        4.6
   01/07/2018 07:20      48.1      46.9       93     45.4      0.00      0.11      61.6     0.27      1019.3     0.6       E    95   2.5      SE   143   9.14    361       -5.6
   01/07/2018 07:10      48.0      47.3       93     45.8      0.00      0.11      61.7     0.27      1019.2     1.0     SSW   212   2.1      SE   138   9.14    358      -11.5
   01/07/2018 07:00      47.8      47.1       93     45.4      0.00      0.11      61.7     0.27      1019.2     0.8     SSW   199   1.8       W   264   9.14    354      -14.3
   01/07/2018 06:50      48.4      47.5       93     46.0      0.00      0.11      61.7     0.27      1019.2     0.3      NE    48   1.4     NNE    19   9.14    350      -15.9
   01/07/2018 06:40      48.4      47.9       93     46.1      0.00      0.11      61.7     0.27      1019.2     0.6     SSE   150   1.4     ESE   120   9.14    346      -16.4
   01/07/2018 06:30      48.3      47.7       93     46.0      0.00      0.11      61.8     0.27      1019.1     1.2       S   185   2.8     SSW   212   9.14    339      -16.0
   01/07/2018 06:20      48.6      47.9       92     46.2      0.00      0.11      61.8     0.27      1018.9     0.3     ESE   114   1.7       E    88   9.14    334      -16.4
   01/07/2018 06:10      48.4      47.8       92     46.0      0.00      0.11      61.8     0.27      1018.9     0.7       S   177   1.7     SSW   200   9.14    328      -16.9
   01/07/2018 06:00      49.1      47.8       92     46.0      0.00      0.11      61.8     0.27      1018.9     0.3       S   173   1.0     SSW   210   9.14    320      -17.4
   01/07/2018 05:50      49.0      48.7       92     46.6      0.00      0.11      61.8     0.27      1018.9     1.0     SSW   207   1.9     WSW   248   9.14    317      -17.6
   01/07/2018 05:40      50.0      48.7       91     46.8      0.00      0.11      61.8     0.27      1018.9     0.4      SE   137   1.5     SSE   148   9.14    312      -18.6
   01/07/2018 05:30      50.1      49.2       91     47.2      0.00      0.11      61.9     0.27      1018.8     1.2     SSW   199   2.0      SW   222   9.14    309      -19.1
   01/07/2018 05:20      50.0      49.5       91     47.3      0.00      0.11      61.9     0.27      1018.7     0.4     SSW   204   1.4     WSW   250   9.14    305      -20.3
   01/07/2018 05:10      50.1      49.8       91     47.4      0.00      0.11      61.9     0.27      1018.7     0.1     ESE   121   1.0       E    93   9.14    298      -21.2
   01/07/2018 05:00      51.2      50.0       90     47.9      0.00      0.11      61.9     0.27      1018.6     0.4      SE   143   1.2      SE   139   9.14    295      -21.2
   01/07/2018 04:50      51.5      50.8       90     48.3      0.00      0.11      61.9     0.27      1018.6     0.7       S   191   1.9       S   185   9.14    292      -20.8
   01/07/2018 04:40      51.6      51.1       90     48.6      0.00      0.11      61.9     0.27      1018.6     0.2     NNW   337   1.1      NW   321   9.14    289      -22.3
   01/07/2018 04:30      51.9      51.1       90     48.5      0.00      0.11      61.9     0.27      1018.7     0.3     SSE   149   1.4      SE   145   9.14    285      -22.5
   01/07/2018 04:20      52.3      51.6       90     49.1      0.00      0.11      62.0     0.27      1018.7     1.0     SSE   162   2.0     SSE   167   9.14    282      -21.2
   01/07/2018 04:10      53.0      51.5       90     49.1      0.00      0.11      62.0     0.27      1018.7     0.6      SE   135   1.8       S   176   9.14    281      -21.5
   01/07/2018 04:00      52.9      51.8       90     49.4      0.00      0.11      62.0     0.27      1018.7     1.5       S   181   2.4     SSW   198   9.14    279      -22.3
   01/07/2018 03:50      52.4      51.9       90     49.3      0.00      0.11      62.0     0.27      1018.8     0.6     SSE   159   1.4      SE   134   9.14    278      -24.4
   01/07/2018 03:40      52.8      51.8       90     49.2      0.00      0.11      62.0     0.27      1018.9     1.2     SSE   159   2.1      SE   141   9.14    277      -25.5
   01/07/2018 03:30      52.7      52.3       91     49.8      0.00      0.11      62.0     0.27      1018.8     0.9       S   177   1.5       S   176   9.15    277      -26.4
   01/07/2018 03:20      52.5      51.8       91     49.5      0.00      0.11      62.0     0.27      1018.9     0.8     ESE   107   2.5     ENE    63   9.15    276      -28.6
   01/07/2018 03:10      52.2      51.6       90     48.9      0.00      0.11      62.0     0.27      1018.9     1.0     SSE   147   2.3       E    92   9.15    274      -30.4
   01/07/2018 03:00      52.4      51.6       89     48.8      0.00      0.11      62.1     0.27      1018.9     0.5     SSE   154   1.4       S   176   9.15    273      -31.7
   01/07/2018 02:50      52.4      51.7       89     48.8      0.00      0.11      62.1     0.27      1019.0     0.8     WSW   245   1.9     WSW   248   9.15    273      -31.1
   01/07/2018 02:40      52.7      52.1       89     49.3      0.00      0.11      62.1     0.27      1018.8     0.6      SE   142   1.6     SSW   201   9.15    272      -30.4
   01/07/2018 02:30      52.9      52.1       89     49.1      0.00      0.11      62.1     0.27      1018.8     0.7     SSE   163   1.8      SW   229   9.15    271      -31.0
   01/07/2018 02:20      53.0      52.5       88     49.3      0.00      0.11      62.1     0.27      1018.7     0.5     SSE   162   1.2     SSW   191   9.15    271      -32.0
   01/07/2018 02:10      53.0      52.4       88     49.3      0.00      0.11      62.1     0.27      1018.6     1.1     WSW   238   1.6     WSW   248   9.15    270      -34.1
   01/07/2018 02:00      53.4      52.5       88     49.3      0.00      0.11      62.1     0.27      1018.6     0.4     SSE   168   1.1      SW   236   9.15    270      -37.1
   01/07/2018 01:50      54.0      53.0       87     49.7      0.00      0.11      62.1     0.27      1018.7     0.3      SE   146   1.4      SE   142   9.15    270      -39.0
   01/07/2018 01:40      53.8      53.5       87     50.0      0.00      0.11      62.1     0.27      1018.7     0.5      SE   133   1.3       E    87   9.15    270      -39.5
   01/07/2018 01:30      54.1      53.3       86     49.7      0.00      0.11      62.1     0.27      1018.7     0.7       S   181   2.1      SW   214   9.15    270      -39.7
   01/07/2018 01:20      54.6      53.8       86     50.0      0.00      0.11      62.1     0.27      1018.8     0.0       S   169   0.9     SSW   202   9.15    270      -39.0
   01/07/2018 01:10      54.8      54.3       87     50.9      0.00      0.11      62.2     0.27      1018.9     0.4      SW   224   1.4     WSW   239   9.15    269      -35.6
   01/07/2018 01:00      54.7      53.7       88     50.6      0.00      0.11      62.2     0.27      1018.9     1.3      SW   231   2.5     WSW   246   9.15    269      -33.0
   01/07/2018 00:50      54.2      53.6       87     50.1      0.00      0.11      62.2     0.27      1018.9     0.4     SSE   160   1.4      SE   140   9.15    269      -33.8
   01/07/2018 00:40      54.2      53.6       87     50.1      0.00      0.11      62.2     0.27      1018.9     0.8       S   179   1.4      SW   222   9.15    269      -34.4
   01/07/2018 00:30      54.7      53.9       87     50.3      0.00      0.11      62.2     0.27      1019.1     0.2       S   188   1.2     SSW   212   9.15    269      -34.3
   01/07/2018 00:20      54.7      54.1       87     50.4      0.00      0.11      62.2     0.27      1019.1     0.6     SSW   197   1.4     SSW   197   9.15    269      -34.4
   01/07/2018 00:10      55.0      54.2       86     50.3      0.00      0.11      62.2     0.27      1019.1     0.1     SSW   199   0.7     SSW   199   9.15    269      -35.7
   01/07/2018 00:00      54.9      54.4       86     50.5      0.00      0.11      62.2     0.27      1019.1     0.2       S   177   1.4       S   182   9.15    269      -36.4
   01/06/2018 23:50      55.0      54.5       86     50.5      0.00      0.11      62.2     0.27      1019.2     0.5     SSE   163   1.4       S   184   9.15    269      -37.6
   01/06/2018 23:40      55.4      54.7       85     50.7      0.00      0.11      62.2     0.27      1019.3     0.6       S   180   1.7     SSW   199   9.15    268      -36.3
   01/06/2018 23:30      55.3      55.0       85     50.7      0.00      0.11      62.2     0.27      1019.4     0.0     WSW   238   0.7      SW   229   9.15    268      -36.5
   01/06/2018 23:20      55.6      55.0       84     50.5      0.00      0.11      62.2     0.27      1019.4     0.3      SE   145   1.1       S   177   9.16    269      -37.6
   01/06/2018 23:10      55.9      55.3       84     50.7      0.00      0.11      62.2     0.27      1019.3     0.0     ESE   111   0.7     ESE   115   9.16    268      -38.4
   01/06/2018 23:00      56.1      55.5       83     50.5      0.00      0.11      62.2     0.27      1019.3     0.7       S   191   1.7     SSW   205   9.16    268      -38.8
   01/06/2018 22:50      56.3      55.9       83     50.9      0.00      0.11      62.1     0.27      1019.4     0.7     SSE   158   2.5     SSW   194   9.16    268      -38.7
   01/06/2018 22:40      56.7      56.0       82     51.0      0.00      0.11      62.2     0.27      1019.5     0.0       E    92   0.9       E    93   9.16    268      -39.3
   01/06/2018 22:30      56.6      56.0       82     50.7      0.00      0.11      62.2     0.27      1019.4     0.0      SW   217   0.6      SW   225   9.16    268      -39.5
   01/06/2018 22:20      57.0      56.1       82     51.1      0.00      0.11      62.2     0.27      1019.3     0.3     SSE   162   1.2      SE   146   9.16    268      -39.3
   01/06/2018 22:10      56.9      56.3       81     50.9      0.00      0.11      62.2     0.27      1019.4     0.4     SSE   165   1.3      SW   227   9.16    268      -37.6
   01/06/2018 22:00      57.3      56.4       80     50.8      0.00      0.11      62.1     0.27      1019.5     0.4       S   177   1.2      SE   144   9.16    268      -37.7
   01/06/2018 21:50      57.5      56.9       80     51.0      0.00      0.11      62.1     0.27      1019.3     0.5       S   180   1.7     SSW   209   9.16    268      -38.8
   01/06/2018 21:40      57.5      57.0       80     51.2      0.00      0.11      62.2     0.27      1019.3     1.1     SSW   201   2.0      SW   225   9.16    267      -37.5
   01/06/2018 21:30      57.6      57.0       79     50.9      0.00      0.11      62.2     0.27      1019.3     0.7     SSE   155   1.5       S   179   9.16    267      -37.8
   01/06/2018 21:20      58.2      57.2       78     51.0      0.00      0.11      62.2     0.27      1019.4     0.7     SSE   161   1.4       S   170   9.16    267      -37.6
   01/06/2018 21:10      58.5      57.8       78     51.1      0.00      0.11      62.1     0.27      1019.3     0.9       S   184   1.6     SSW   209   9.16    267      -37.6
   01/06/2018 21:00      59.0      58.2       76     51.1      0.00      0.11      62.1     0.27      1019.3     0.3     SSE   157   1.4      SE   144   9.16    267      -37.0
   01/06/2018 20:50      59.3      58.7       76     51.3      0.00      0.11      62.1     0.27      1019.4     1.0      SW   220   2.3     WSW   251   9.16    267      -36.5
   01/06/2018 20:40      59.7      58.9       75     51.1      0.00      0.11      62.1     0.27      1019.4     0.5      SW   222   1.2      SW   225   9.17    266      -37.3
   01/06/2018 20:30      60.0      59.3       74     51.5      0.00      0.11      62.0     0.27      1019.5     0.2       E    98   1.0      SW   217   9.17    266      -38.1
   01/06/2018 20:20      60.7      59.7       72     51.0      0.00      0.11      62.1     0.27      1019.5     0.5      SW   222   1.4      SW   215   9.17    266      -37.2
   01/06/2018 20:10      60.8      60.3       73     51.6      0.00      0.11      62.1     0.27      1019.4     0.4     ENE    76   1.3       E    91   9.17    266      -38.5
   01/06/2018 20:00      60.7      60.0       72     51.3      0.00      0.11      62.1     0.27      1019.4     0.6       W   277   2.0     WSW   236   9.17    266      -37.4
   01/06/2018 19:50      61.0      60.0       71     51.0      0.00      0.11      62.0     0.27      1019.3     1.1     ENE    57   2.1      NE    44   9.17    266      -38.2
   01/06/2018 19:40      60.7      60.0       72     51.2      0.00      0.11      62.0     0.27      1019.3     1.5     SSW   197   2.8       S   191   9.17    266      -38.2
   01/06/2018 19:30      60.7      60.0       71     50.9      0.00      0.11      62.0     0.27      1019.3     0.9       E    86   2.2     NNE    24   9.17    266      -38.2
   01/06/2018 19:20      61.0      60.3       71     51.3      0.00      0.11      62.0     0.27      1019.2     0.2     ENE    77   0.8       S   182   9.17    266      -41.5
   01/06/2018 19:10      61.6      60.6       70     51.4      0.00      0.11      61.9     0.27      1019.2     1.6       S   177   2.4       S   171   9.17    266      -42.4
   01/06/2018 19:00      61.5      60.4       71     51.4      0.00      0.11      61.9     0.27      1019.2     2.5     SSW   205   3.1     SSW   209   9.17    266      -42.3
   01/06/2018 18:50      61.5      60.3       68     50.0      0.00      0.11      61.9     0.27      1019.1     1.2      SW   215   2.2     SSW   202   9.17    266      -42.0
   01/06/2018 18:40      62.6      61.3       67     50.6      0.00      0.11      61.9     0.27      1019.2     1.1     SSW   204   2.0     SSW   208   9.18    266      -43.3
   01/06/2018 18:30      63.8      62.3       65     51.0      0.00      0.11      61.8     0.27      1019.3     0.3       S   172   1.3       S   181   9.18    266      -44.6
   01/06/2018 18:20      64.1      63.5       64     51.5      0.00      0.11      61.8     0.27      1019.3     0.9     NNW   328   2.3     WNW   302   9.18    266      -46.4
   01/06/2018 18:10      64.7      63.8       62     50.9      0.00      0.11      61.8     0.27      1019.3     0.9       W   275   2.0     WSW   251   9.18    266      -46.2
   01/06/2018 18:00      65.2      64.5       60     50.7      0.00      0.11      61.8     0.27      1019.2     1.9     WNW   282   3.9       W   260   9.18    265      -49.3
   01/06/2018 17:50      65.5      64.9       59     50.4      0.00      0.11      61.8     0.27      1019.3     1.3       W   265   3.4      SW   223   9.18    265      -49.0
   01/06/2018 17:40      65.7      65.2       57     49.9      0.00      0.11      61.7     0.27      1019.4     1.8       W   261   3.8     WSW   253   9.18    265      -47.9
   01/06/2018 17:30      66.2      65.2       56     49.4      0.00      0.11      61.7     0.27      1019.3     2.3      SW   231   4.1     WSW   247   9.18    265      -48.3
   01/06/2018 17:20      66.6      65.8       54     49.2      0.00      0.11      61.6     0.27      1019.2     2.0     WSW   253   3.7     WSW   254   9.18    264      -48.8
   01/06/2018 17:10      67.1      66.2       53     48.8      0.00      0.11      61.6     0.27      1019.2     3.2     WSW   239   5.8     WSW   252   9.19    264      -46.2
   01/06/2018 17:00      67.9      66.8       51     48.2      0.00      0.11      61.6     0.27      1019.0     3.9     WSW   242   7.4     WSW   242   9.19    264      -43.9
   01/06/2018 16:50      68.7      67.6       48     47.4      0.00      0.11      61.6     0.27      1019.0     2.7     WSW   250   5.9       W   269   9.19    264      -42.3
   01/06/2018 16:40      69.0      68.2       46     47.0      0.00      0.11      61.5     0.27      1018.9     1.8       W   262   4.9      SW   227   9.19    264      -39.7
   01/06/2018 16:30      69.9      68.7       45     46.7      0.00      0.11      61.5     0.27      1019.0     3.6     WSW   243   8.2      SW   236   9.19    264      -32.9
   01/06/2018 16:20      70.1      69.5       44     46.6      0.00      0.11      61.5     0.27      1019.1     2.7     WNW   297   6.8     WNW   301   9.19    264      -25.0
   01/06/2018 16:10      70.6      69.9       43     46.6      0.00      0.11      61.4     0.27      1018.9     4.2       W   265   7.6     WSW   258   9.19    264      -15.7
   01/06/2018 16:00      71.2      70.3       42     46.8      0.00      0.11      61.4     0.27      1018.9     4.5      NW   308   9.0      NW   321   9.20    264       -5.6
   01/06/2018 15:50      71.2      70.3       45     48.3      0.00      0.11      61.3     0.27      1018.8     3.7     WNW   282   8.1     NNW   332   9.20    264        5.9
   01/06/2018 15:40      71.3      70.3       54     53.0      0.00      0.11      61.3     0.27      1018.7     2.0       N     0   3.2     NNE    22   9.20    264       19.3
   01/06/2018 15:30      71.6      71.0       53     53.2      0.00      0.11      61.3     0.27      1018.5     1.2     NNE    11   2.8       N     7   9.20    264       31.5
   01/06/2018 15:20      71.7      71.0       53     53.0      0.00      0.11      61.3     0.27      1018.4     0.7     NNE    20   2.3      NE    47   9.20    263       48.9
   01/06/2018 15:10      72.7      71.1       52     53.1      0.00      0.11      61.3     0.27      1018.4     2.2      NE    35   4.8     NNE    27   9.20    263       51.9
   01/06/2018 15:00      74.3      72.2       49     52.6      0.00      0.11      61.2     0.27      1018.2     2.7       N    10   5.9       N     5   9.20    263       68.6
   01/06/2018 14:50      75.1      73.9       44     51.1      0.00      0.11      61.2     0.27      1018.2     1.9       N   359   5.9       N     0   9.21    263       91.9
   01/06/2018 14:40      74.9      73.7       45     51.4      0.00      0.11      61.2     0.27      1018.2     1.2       N     4   4.6       N     8   9.21    263      125.8
   01/06/2018 14:30      74.3      73.6       45     51.4      0.00      0.11      61.2     0.27      1018.2     2.0     NNE    22   4.3     NNW   347   9.21    263      148.0
   01/06/2018 14:20      73.9      72.9       46     51.4      0.00      0.11      61.1     0.27      1018.3     2.4     NNE    27   4.7     ENE    67   9.21    263      186.2
   01/06/2018 14:10      73.6      73.2       47     52.0      0.00      0.11      61.1     0.27      1018.4     2.7     NNE    17   5.2       N    10   9.21    263      163.2
   01/06/2018 14:00      73.8      73.0       48     52.6      0.00      0.11      61.1     0.27      1018.4     2.8     NNE    29   5.2      NE    54   9.21    263      167.5
   01/06/2018 13:50      74.1      73.3       48     52.7      0.00      0.11      61.1     0.27      1018.3     3.3     ENE    60   6.1     ENE    59   9.21    263      166.6
   01/06/2018 13:40      73.9      73.2       48     52.9      0.00      0.11      61.1     0.27      1018.4     1.6     ENE    73   5.1      SE   129   9.21    263      140.3
   01/06/2018 13:30      74.0      73.3       49     53.0      0.00      0.11      61.0     0.27      1018.5     2.0      NE    40   4.1      NE    34   9.21    263      171.0
   01/06/2018 13:20      73.9      73.3       48     53.0      0.00      0.11      61.0     0.27      1018.7     1.9     ENE    62   3.7      SE   131   9.21    263      192.1
   01/06/2018 13:10      73.6      73.2       48     52.5      0.00      0.11      61.1     0.27      1018.8     2.1       E   100   3.9     ENE    74   9.21    263      216.3
   01/06/2018 13:00      73.9      73.1       48     52.3      0.00      0.11      61.0     0.27      1019.0     2.1     ENE    66   4.6      NE    37   9.21    263      217.0
   01/06/2018 12:50      73.7      72.7       48     52.0      0.00      0.11      61.0     0.27      1019.1     2.2     ENE    72   4.4     ESE   121   9.21    263      234.0
   01/06/2018 12:40      73.5      72.7       48     51.9      0.00      0.11      61.0     0.27      1019.2     2.8     ENE    74   4.6     ENE    71   9.21    263      212.8
   01/06/2018 12:30      73.6      73.2       47     51.7      0.00      0.11      61.0     0.27      1019.3     2.5     ENE    77   5.1       E    94   9.22    263      219.7
   01/06/2018 12:20      73.5      71.9       46     50.7      0.00      0.11      61.0     0.27      1019.6     1.4       E    90   3.3       N     3   9.22    263      210.1
   01/06/2018 12:10      73.6      71.9       46     50.6      0.00      0.11      61.0     0.27      1020.0     3.0     ESE   123   5.4      SE   137   9.22    263      212.8
   01/06/2018 12:00      73.5      72.7       45     50.2      0.00      0.11      61.0     0.27      1020.1     1.4     ENE    75   4.3     ESE   106   9.22    263      234.2
   01/06/2018 11:50      73.1      72.5       44     49.7      0.00      0.11      61.0     0.27      1020.2     1.7     NNE    20   3.8     NNE    19   9.22    263      224.2
   01/06/2018 11:40      73.1      72.2       44     49.5      0.00      0.11      61.0     0.27      1020.4     1.7      NE    43   3.0       E    99   9.21    263      248.9
   01/06/2018 11:30      72.6      71.9       44     49.3      0.00      0.11      61.0     0.27      1020.7     2.3     NNE    29   4.4     NNE    16   9.21    263      290.3
   01/06/2018 11:20      72.4      71.2       47     50.4      0.00      0.11      61.0     0.27      1020.9     1.4       N     8   3.8       N   355   9.22    264      275.4
   01/06/2018 11:10      71.5      70.7       50     51.5      0.00      0.11      61.0     0.27      1021.0     1.7       N    11   3.3     NNE    15   9.22    264      254.7
   01/06/2018 11:00      71.5      70.1       51     51.8      0.00      0.11      61.0     0.27      1021.2     1.1     NNW   346   3.0     NNE    22   9.22    264      228.8
   01/06/2018 10:50      70.2      69.2       53     51.9      0.00      0.11      61.0     0.27      1021.5     0.6       N   356   2.1      NW   313   9.22    265      212.9
   01/06/2018 10:40      69.5      68.2       54     51.8      0.00      0.11      61.0     0.27      1021.6     0.9     SSW   195   3.0       S   181   9.22    265      223.7
   01/06/2018 10:30      68.2      67.2       57     51.8      0.00      0.11      61.0     0.27      1021.6     0.8       W   262   2.5      SW   233   9.22    266      177.0
   01/06/2018 10:20      67.4      66.2       58     51.6      0.00      0.11      61.0     0.27      1021.6     1.4       W   270   4.0     WSW   246   9.22    266      183.6
   01/06/2018 10:10      66.4      65.5       61     52.1      0.00      0.11      61.0     0.27      1021.5     1.6     WSW   236   3.0      SW   229   9.22    266      135.4
   01/06/2018 10:00      65.8      64.8       63     52.5      0.00      0.11      61.0     0.27      1021.5     0.4      NW   308   1.6     NNW   326   9.22    266      120.0
   01/06/2018 09:50      64.9      62.5       67     52.4      0.00      0.11      61.1     0.27      1021.5     1.0      SE   136   3.0     SSE   163   9.22    266      179.0
   01/06/2018 09:40      62.7      61.7       70     52.1      0.00      0.11      61.0     0.27      1021.6     1.9      SW   220   3.5     SSW   204   9.22    266       98.1
   01/06/2018 09:30      61.9      61.2       71     52.1      0.00      0.11      61.1     0.27      1021.5     1.4       W   269   3.1       W   269   9.22    267       76.5
   01/06/2018 09:20      61.4      60.8       73     52.2      0.00      0.11      61.1     0.27      1021.3     1.8     WNW   286   4.1       W   267   9.22    267       84.4
   01/06/2018 09:10      60.9      60.4       73     52.0      0.00      0.11      61.1     0.27      1021.0     0.8      NW   326   1.9      NW   319   9.22    267       71.4
   01/06/2018 09:00      60.7      59.7       75     52.4      0.00      0.11      61.1     0.27      1021.0     0.0      NW   307   0.4      NW   307   9.22    267       58.0
   01/06/2018 08:50      59.8      59.0       77     52.1      0.00      0.11      61.1     0.27      1021.2     0.5     NNW   330   1.3     NNW   326   9.22    267       57.6
   01/06/2018 08:40      59.2      58.5       78     52.0      0.00      0.11      61.1     0.27      1021.2     0.1     WSW   249   0.7       S   188   9.22    268       29.6
   01/06/2018 08:30      58.6      57.7       80     51.8      0.00      0.11      61.1     0.27      1021.0     0.0      SE   141   0.6      SE   141   9.22    268       33.1
   01/06/2018 08:20      57.9      57.2       81     51.6      0.00      0.11      61.1     0.27      1021.0     0.1      SE   141   0.7      SE   141   9.22    268       30.4
   01/06/2018 08:10      57.5      57.0       81     51.4      0.00      0.11      61.1     0.27      1021.0     0.0       N     0   0.0      SE   141   9.22    268       12.9
   01/06/2018 08:00      57.1      56.6       82     51.4      0.00      0.11      61.1     0.27      1021.1     0.0       N     0   0.0      SE   141   9.22    268        5.1
   01/06/2018 07:50      56.8      56.3       82     51.2      0.00      0.11      61.1     0.27      1021.1     0.4      SE   125   1.0       E    98   9.22    269        3.6
   01/06/2018 07:40      56.5      56.1       82     51.0      0.00      0.11      61.1     0.27      1021.2     0.3       S   177   1.4       S   184   9.22    268       -0.8
   01/06/2018 07:30      56.3      55.9       83     51.0      0.00      0.11      61.2     0.27      1021.2     0.5       S   181   1.3     SSW   192   9.22    269       -6.6
   01/06/2018 07:20      56.2      55.9       83     51.0      0.00      0.11      61.2     0.27      1021.1     0.0      SE   142   0.4      SE   142   9.22    269      -10.2
   01/06/2018 07:10      56.2      55.6       83     50.8      0.00      0.11      61.2     0.27      1021.0     0.0      SE   142   1.1      SE   142   9.22    269      -11.5
   01/06/2018 07:00      56.4      55.6       82     50.6      0.00      0.11      61.2     0.27      1021.0     0.5      SE   133   1.1      SE   132   9.22    269      -12.1
   01/06/2018 06:50      56.6      56.1       82     51.0      0.00      0.11      61.2     0.27      1021.0     0.0       N     0   0.0     NNE    14   9.22    269      -12.7
   01/06/2018 06:40      56.8      56.4       82     51.0      0.00      0.11      61.2     0.27      1020.9     0.8     NNE    20   1.7     NNE    31   9.22    269      -13.6
   01/06/2018 06:30      57.2      56.4       81     50.8      0.00      0.11      61.3     0.27      1020.8     0.4     NNE    16   1.4     ENE    65   9.22    269      -11.0
   01/06/2018 06:20      58.6      57.0       77     50.9      0.00      0.11      61.2     0.27      1020.7     1.5     ENE    59   2.5     ENE    62   9.22    269      -10.9
   01/06/2018 06:10      58.3      56.6       80     51.4      0.00      0.11      61.3     0.27      1020.5     0.8       S   191   3.0     SSW   192   9.22    268       -9.3
   01/06/2018 06:00      56.8      56.0       82     51.0      0.00      0.11      61.3     0.27      1020.3     1.1     SSW   207   2.1       S   188   9.22    269       -8.8
   01/06/2018 05:50      57.3      56.0       80     50.2      0.00      0.11      61.3     0.27      1020.0     1.4     ESE   108   2.7      NE    51   9.22    269      -10.3
   01/06/2018 05:40      58.9      57.0       76     50.6      0.00      0.11      61.3     0.27      1020.2     1.0      NE    50   2.0     ENE    71   9.22    269      -23.1
   01/06/2018 05:30      58.7      57.0       80     51.6      0.00      0.11      61.3     0.27      1020.4     2.1     SSW   210   4.6     SSW   207   9.22    268      -38.5
   01/06/2018 05:20      57.0      55.1       86     51.5      0.00      0.11      61.3     0.27      1020.4     0.9     SSW   210   4.7      SW   217   9.22    269      -29.1
   01/06/2018 05:10      55.5      55.0       85     50.9      0.00      0.11      61.3     0.27      1020.4     0.3      SE   127   1.4      SE   135   9.22    270      -27.4
   01/06/2018 05:00      55.7      54.4       88     51.7      0.00      0.11      61.3     0.27      1020.2     1.1     WSW   259   3.4      NW   314   9.22    270      -25.7
   01/06/2018 04:50      54.6      53.5       88     50.4      0.00      0.11      61.3     0.27      1020.1     0.9       S   190   2.1       S   182   9.22    271      -25.2
   01/06/2018 04:40      54.0      53.6       88     50.3      0.00      0.11      61.3     0.27      1020.2     0.5      SE   144   1.4      SE   138   9.22    270      -25.4
   01/06/2018 04:30      54.1      53.6       88     50.2      0.00      0.11      61.3     0.27      1020.2     0.3      SW   214   0.9     WSW   243   9.22    270      -29.4
   01/06/2018 04:20      54.7      53.9       87     50.4      0.00      0.11      61.3     0.27      1020.2     0.8       S   171   2.3       S   181   9.22    270      -33.2
   01/06/2018 04:10      54.9      54.4       87     50.9      0.00      0.11      61.3     0.27      1020.5     0.0     SSE   154   0.7     SSE   164   9.22    270      -34.0
   01/06/2018 04:00      54.9      54.0       87     50.7      0.00      0.11      61.3     0.27      1020.2     1.2       S   173   3.7     SSE   162   9.22    270      -34.9
   01/06/2018 03:50      54.8      54.0       88     50.8      0.00      0.11      61.3     0.27      1020.1     1.8       S   179   3.2       S   181   9.22    270      -40.3
   01/06/2018 03:40      54.4      53.8       87     50.4      0.00      0.11      61.3     0.27      1020.1     1.2     SSE   153   2.4      SE   143   9.22    270      -46.2
   01/06/2018 03:30      54.5      53.8       86     49.9      0.00      0.11      61.3     0.27      1020.3     0.7     SSE   166   1.9      SE   141   9.22    270      -47.1
   01/06/2018 03:20      55.1      54.3       85     50.2      0.00      0.11      61.3     0.27      1020.6     1.8       S   173   3.0      SE   139   9.22    269      -38.9
   01/06/2018 03:10      55.3      54.8       85     50.5      0.00      0.11      61.4     0.27      1020.6     1.3     WSW   252   2.8     WSW   251   9.23    269      -37.9
   01/06/2018 03:00      55.9      55.0       84     50.5      0.00      0.11      61.4     0.27      1020.4     0.1      SE   129   0.9      SE   130   9.23    270      -43.3
   01/06/2018 02:50      56.4      55.6       83     50.9      0.00      0.11      61.4     0.27      1020.5     0.2       S   177   1.2       S   185   9.23    269      -48.9
   01/06/2018 02:40      56.9      56.0       82     50.9      0.00      0.11      61.4     0.27      1020.6     0.2      SE   127   1.0     ESE   123   9.23    268      -46.3
   01/06/2018 02:30      57.6      56.8       81     51.3      0.00      0.11      61.3     0.27      1020.8     0.2     ESE   123   0.8      SE   131   9.23    268      -30.3
   01/06/2018 02:20      57.7      57.3       81     51.5      0.00      0.11      61.3     0.27      1020.7     0.2      SW   232   1.1       N    11   9.23    268      -27.3
   01/06/2018 02:10      58.0      57.4       80     51.4      0.00      0.11      61.4     0.27      1020.5     0.3       E    92   0.9     NNE    18   9.23    268      -26.4
   01/06/2018 02:00      58.5      57.6       78     51.1      0.00      0.11      61.4     0.27      1020.4     0.0     NNE    18   0.5     NNE    18   9.23    268      -26.3
   01/06/2018 01:50      59.2      58.2       77     51.6      0.00      0.11      61.4     0.27      1020.5     0.3      SE   134   1.6      SE   134   9.23    268      -23.5
   01/06/2018 01:40      59.2      58.8       78     52.1      0.00      0.11      61.4     0.27      1020.7     0.7     SSW   211   2.7     WSW   242   9.23    268      -24.3
   01/06/2018 01:30      59.0      58.5       78     51.9      0.00      0.11      61.4     0.27      1020.7     0.7     WNW   296   2.3     WNW   293   9.23    268      -23.7
   01/06/2018 01:20      59.1      58.2       79     52.3      0.00      0.11      61.4     0.27      1020.8     0.9     SSE   168   2.5     WSW   244   9.23    268      -19.3
   01/06/2018 01:10      58.3      57.5       82     52.4      0.00      0.11      61.4     0.27      1020.8     1.8      SW   231   4.1     WSW   247   9.23    268      -15.4
   01/06/2018 01:00      57.7      56.4       84     52.1      0.00      0.11      61.4     0.27      1020.6     2.2     SSW   196   5.1     SSW   211   9.23    268      -15.3
   01/06/2018 00:50      56.8      56.4       83     51.6      0.00      0.11      61.4     0.27      1020.3     0.6     SSE   168   1.6     SSE   147   9.23    268      -16.3
   01/06/2018 00:40      57.0      56.4       83     51.5      0.00      0.11      61.3     0.27      1020.6     0.1     ESE   120   0.6     ESE   115   9.23    268      -18.7
   01/06/2018 00:30      57.1      56.7       82     51.6      0.00      0.11      61.4     0.27      1020.8     0.0       N     0   0.0       E   100   9.23    268      -20.0
   01/06/2018 00:20      57.5      56.9       82     51.8      0.00      0.11      61.4     0.27      1021.0     0.3      SE   127   1.2      SE   139   9.23    268      -21.8
   01/06/2018 00:10      57.8      57.2       83     52.1      0.00      0.11      61.4     0.27      1021.2     1.0       S   181   2.2     SSW   199   9.23    268      -32.7
   01/06/2018 00:00      57.7      57.1       83     52.2      0.00      0.11      61.4     0.27      1021.2     0.4      SW   224   1.5     SSW   208   9.23    268      -31.8
   01/05/2018 23:50      57.5      57.0       82     51.7      0.00      0.11      61.4     0.27      1021.4     0.0       N     0   0.0       E    90   9.23    268      -21.8
   01/05/2018 23:40      57.9      57.2       82     51.9      0.00      0.11      61.4     0.27      1021.7     0.0       E    88   0.4       E    88   9.23    268      -20.5
   01/05/2018 23:30      57.9      57.4       82     52.1      0.00      0.11      61.4     0.27      1022.1     0.2     ESE   115   0.8      SE   143   9.23    268      -19.7
   01/05/2018 23:20      57.9      57.5       82     52.1      0.00      0.11      61.3     0.27      1022.1     0.0     SSE   147   0.9     SSE   147   9.23    268      -21.6
   01/05/2018 23:10      58.2      57.6       82     52.4      0.00      0.11      61.4     0.27      1022.1     1.2       S   176   2.3     SSW   197   9.24    268      -24.3
   01/05/2018 23:00      58.1      57.4       83     52.5      0.00      0.11      61.4     0.27      1022.1     1.6       S   181   2.7     SSW   195   9.24    268      -30.1
   01/05/2018 22:50      57.7      57.4       82     52.1      0.00      0.11      61.4     0.27      1022.0     0.2       S   178   1.1       S   176   9.24    268      -25.4
   01/05/2018 22:40      57.9      57.4       81     51.8      0.00      0.11      61.4     0.27      1022.1     0.5     WSW   238   1.5     WSW   259   9.24    268      -25.5
   01/05/2018 22:30      58.3      57.6       82     52.3      0.00      0.11      61.3     0.27      1022.1     0.6     SSW   198   1.6      SW   229   9.24    268      -28.2
   01/05/2018 22:20      58.2      57.5       81     52.2      0.00      0.11      61.3     0.27      1022.2     0.6       S   182   1.2     SSW   199   9.24    268      -40.6
   01/05/2018 22:10      58.6      57.7       79     51.5      0.00      0.11      61.3     0.27      1022.3     0.2      SE   142   0.9     SSE   151   9.24    267      -46.6
   01/05/2018 22:00      59.3      58.3       78     52.0      0.00      0.11      61.3     0.27      1022.4     0.4       E    87   1.6      NE    48   9.24    267      -39.0
   01/05/2018 21:50      60.2      59.0       76     52.0      0.00      0.11      61.3     0.27      1022.5     0.2      SE   146   1.0      SE   143   9.24    267      -39.9
   01/05/2018 21:40      60.9      59.9       75     52.3      0.00      0.11      61.3     0.27      1022.6     0.0     WSW   252   1.1     WSW   251   9.24    267      -44.7
   01/05/2018 21:30      61.8      60.7       73     52.5      0.00      0.11      61.3     0.27      1022.6     0.3     WSW   249   1.4      SW   223   9.24    267      -44.1
   01/05/2018 21:20      62.4      61.5       72     52.9      0.00      0.11      61.2     0.27      1022.2     0.3      SW   219   1.7      SW   223   9.24    266      -45.4
   01/05/2018 21:10      62.4      61.9       72     53.0      0.00      0.11      61.3     0.27      1022.4     1.5     WSW   248   3.7      SW   217   9.24    266      -37.4
   01/05/2018 21:00      62.2      61.8       73     53.0      0.00      0.11      61.2     0.27      1022.6     3.2      SW   214   5.3     SSW   201   9.24    266      -30.3
   01/05/2018 20:50      62.1      61.7       73     52.9      0.00      0.11      61.2     0.27      1022.3     1.5      SW   219   4.7     SSW   201   9.24    266      -28.6
   01/05/2018 20:40      62.0      61.6       73     53.0      0.00      0.11      61.2     0.27      1022.1     2.3      SW   222   5.1       S   186   9.24    266      -32.2
   01/05/2018 20:30      62.0      61.6       73     53.0      0.00      0.11      61.2     0.27      1021.9     1.4     SSW   204   4.1       S   191   9.25    266      -36.4
   01/05/2018 20:20      62.1      61.6       73     53.1      0.00      0.11      61.2     0.27      1022.0     2.8     SSW   206   5.0      SW   215   9.25    266      -37.8
   01/05/2018 20:10      61.9      61.3       73     53.0      0.00      0.11      61.1     0.27      1022.0     2.5     SSW   209   3.8      SW   227   9.25    266      -41.5
   01/05/2018 20:00      62.3      61.4       72     52.6      0.00      0.11      61.1     0.27      1021.7     1.6      SW   221   3.4     WSW   240   9.25    266      -39.6
   01/05/2018 19:50      62.2      61.9       71     52.7      0.00      0.11      61.1     0.27      1021.4     0.4      SW   228   2.0     SSW   209   9.25    266      -38.7
   01/05/2018 19:40      62.0      61.3       72     52.5      0.00      0.11      61.1     0.27      1021.6     2.1     SSW   197   5.1     SSW   204   9.25    266      -40.1
   01/05/2018 19:30      62.2      61.4       71     52.4      0.00      0.11      61.1     0.27      1021.4     0.4       S   178   1.3     SSW   191   9.25    266      -41.4
   01/05/2018 19:20      62.3      61.8       71     52.6      0.00      0.11      61.0     0.27      1021.6     1.3       S   191   2.6     SSW   199   9.25    266      -40.5
   01/05/2018 19:10      62.5      61.9       71     52.6      0.00      0.11      61.0     0.27      1021.5     1.5       S   187   2.9     SSW   196   9.25    266      -37.6
   01/05/2018 19:00      62.4      61.9       71     52.7      0.00      0.11      61.0     0.27      1021.5     1.1     SSW   192   2.8      SW   219   9.25    266      -39.0
   01/05/2018 18:50      62.1      61.7       72     52.7      0.00      0.11      61.0     0.27      1021.6     0.8       S   184   2.0     SSW   214   9.25    266      -38.6
   01/05/2018 18:40      62.6      61.7       71     52.7      0.00      0.11      60.9     0.27      1021.6     0.7       S   186   1.8       S   184   9.26    266      -40.5
   01/05/2018 18:30      62.7      62.1       71     52.8      0.00      0.11      60.9     0.27      1021.5     1.4     SSW   213   1.9      SW   233   9.26    266      -43.1
   01/05/2018 18:20      63.6      62.4       70     52.9      0.00      0.11      60.9     0.27      1021.4     0.4       S   187   1.1       S   188   9.26    266      -46.1
   01/05/2018 18:10      64.2      63.3       68     53.0      0.00      0.11      60.9     0.27      1021.4     0.7     SSW   210   1.8     WSW   251   9.26    266      -48.5
   01/05/2018 18:00      65.2      63.9       66     53.1      0.00      0.11      60.8     0.27      1021.5     0.2      SW   225   0.7      SW   224   9.26    266      -50.5
   01/05/2018 17:50      65.4      64.8       66     53.3      0.00      0.11      60.8     0.27      1021.5     0.6      NW   306   2.3     WNW   294   9.26    266      -50.9
   01/05/2018 17:40      65.6      65.1       65     53.1      0.00      0.11      60.7     0.27      1021.5     1.4     WNW   291   2.6     WNW   293   9.26    266      -48.2
   01/05/2018 17:30      66.0      65.4       64     53.1      0.00      0.11      60.7     0.27      1021.5     1.6     WNW   282   3.2     WSW   257   9.26    266      -50.2
   01/05/2018 17:20      66.3      65.6       64     53.3      0.00      0.11      60.7     0.27      1021.4     1.6      NW   317   4.0      NW   306   9.27    266      -53.7
   01/05/2018 17:10      66.5      66.0       63     53.5      0.00      0.11      60.6     0.27      1021.3     1.7      NW   313   4.1     WNW   292   9.27    265      -52.8
   01/05/2018 17:00      67.1      66.3       63     53.5      0.00      0.11      60.6     0.27      1021.3     2.9       W   270   6.7     WSW   250   9.27    265      -47.4
   01/05/2018 16:50      67.6      66.8       62     53.6      0.00      0.11      60.6     0.27      1021.1     2.2     WNW   296   4.6     WSW   252   9.27    265      -46.1
   01/05/2018 16:40      68.2      67.3       61     53.5      0.00      0.11      60.5     0.27      1020.8     2.7      NW   304   6.0      NW   308   9.27    264      -39.8
   01/05/2018 16:30      69.5      67.8       60     53.9      0.00      0.11      60.5     0.27      1020.6     3.9      NW   306   7.3     WNW   291   9.27    264      -35.6
   01/05/2018 16:20      70.2      69.1       58     54.1      0.00      0.11      60.5     0.27      1020.5     2.5      NW   307   5.4     WNW   284   9.27    264      -29.6
   01/05/2018 16:10      70.5      69.9       56     53.5      0.00      0.11      60.4     0.27      1020.5     2.1      SW   219   3.9      SW   218   9.28    264      -17.3
   01/05/2018 16:00      70.7      70.1       55     53.2      0.00      0.11      60.4     0.27      1020.4     2.6     SSW   195   4.6       S   184   9.28    263      -14.2
   01/05/2018 15:50      71.0      70.3       54     53.2      0.00      0.11      60.3     0.27      1020.3     3.4     SSW   191   6.1      SW   222   9.28    263        3.6
   01/05/2018 15:40      71.7      70.8       53     53.1      0.00      0.11      60.3     0.27      1020.2     3.5       S   173   5.7       S   185   9.28    263       30.5
   01/05/2018 15:30      72.2      71.3       52     53.0      0.00      0.11      60.3     0.27      1020.2     3.9       S   173   7.5     SSE   161   9.28    263       67.2
   01/05/2018 15:20      72.0      71.5       52     52.9      0.00      0.11      60.2     0.27      1020.2     3.4       S   190   6.0     SSW   208   9.28    263       64.0
   01/05/2018 15:10      72.3      71.7       51     52.9      0.00      0.11      60.2     0.27      1020.1     3.8       S   179   6.9       S   190   9.29    263       61.8
   01/05/2018 15:00      73.7      72.1       50     52.9      0.00      0.11      60.2     0.27      1020.2     4.3       S   184   7.2     SSE   151   9.29    263       61.0
   01/05/2018 14:50      75.2      73.5       47     53.0      0.00      0.11      60.1     0.27      1020.2     3.4       S   172   5.3      SE   141   9.29    262      110.1
   01/05/2018 14:40      76.0      75.0       43     51.3      0.00      0.11      60.1     0.27      1020.2     2.2      SW   214   5.3     SSW   202   9.29    262      161.9
   01/05/2018 14:30      75.3      74.5       42     50.1      0.00      0.11      60.0     0.27      1020.2     1.5     NNE    11   3.8     NNW   329   9.29    262      136.8
   01/05/2018 14:20      75.5      74.5       41     50.2      0.00      0.11      60.0     0.27      1020.2     1.5     ENE    69   3.0      NE    44   9.29    262      182.1
   01/05/2018 14:10      75.5      74.6       43     50.7      0.00      0.11      60.0     0.27      1020.3     1.8     NNW   339   3.8       N     0   9.29    262      134.5
   01/05/2018 14:00      75.5      75.2       42     51.0      0.00      0.11      60.0     0.27      1020.3     1.6     NNE    20   3.4     NNE    18   9.29    261      195.8
   01/05/2018 13:50      75.3      74.3       43     50.9      0.00      0.11      59.9     0.27      1020.3     2.1      NW   324   4.7     NNE    30   9.29    261      229.5
   01/05/2018 13:40      75.5      74.3       43     50.9      0.00      0.11      59.9     0.27      1020.5     1.5      NE    34   4.1     ESE   118   9.29    262      154.1
   01/05/2018 13:30      75.4      73.8       44     51.4      0.00      0.11      59.9     0.27      1020.6     1.0     NNE    29   3.7     NNE    27   9.30    261      236.9
   01/05/2018 13:20      75.5      73.8       45     51.8      0.00      0.11      59.9     0.27      1020.6     2.4     NNE    13   5.0     NNE    14   9.30    261      270.2
   01/05/2018 13:10      76.6      74.8       43     51.7      0.00      0.11      59.8     0.27      1020.6     1.4     NNE    28   4.2      NE    37   9.30    261      286.0
   01/05/2018 13:00      75.2      73.5       46     52.0      0.00      0.11      59.9     0.27      1020.9     1.4      NW   308   4.1       N   351   9.30    261      296.5
   01/05/2018 12:50      74.0      73.4       47     52.5      0.00      0.11      59.8     0.27      1021.1     1.6     NNE    19   3.1       N   352   9.30    262      291.7
   01/05/2018 12:40      74.3      73.3       48     52.8      0.00      0.11      59.8     0.27      1021.2     1.7      SE   128   4.8     SSE   160   9.30    263      285.1
   01/05/2018 12:30      74.9      73.9       47     53.1      0.00      0.11      59.8     0.27      1021.4     2.0      SE   126   5.3      SE   132   9.30    262      301.0
   01/05/2018 12:20      75.3      73.7       47     53.3      0.00      0.11      59.8     0.27      1021.5     0.9       N     9   3.5     ESE   121   9.30    262      320.0
   01/05/2018 12:10      73.8      72.2       50     53.2      0.00      0.11      59.8     0.27      1021.8     1.7       N     9   4.6     NNE    17   9.30    262      307.9
   01/05/2018 12:00      74.1      72.8       49     53.1      0.00      0.11      59.8     0.27      1022.0     1.7       N   351   4.8     NNE    19   9.30    262      335.3
   01/05/2018 11:50      73.2      72.5       50     53.0      0.00      0.11      59.8     0.27      1022.1     2.4       N     3   4.0      NE    46   9.30    263      303.1
   01/05/2018 11:40      73.0      72.2       50     53.0      0.00      0.11      59.8     0.27      1022.4     2.2       N     8   3.9       N     2   9.30    263      327.5
   01/05/2018 11:30      72.7      71.9       50     52.7      0.00      0.11      59.8     0.27      1022.6     1.6       N     0   3.8       N   349   9.29    263      326.3
   01/05/2018 11:20      72.3      71.0       53     53.7      0.00      0.11      59.8     0.27      1022.8     1.6     WNW   292   3.4     WSW   247   9.30    264      297.0
   01/05/2018 11:10      71.0      70.2       57     54.5      0.00      0.11      59.8     0.27      1022.9     2.1       N     0   3.8     NNE    34   9.30    263      301.0
   01/05/2018 11:00      71.6      70.2       56     54.6      0.00      0.11      59.9     0.27      1023.0     1.6      NE    37   3.4      NE    47   9.30    264      291.9
   01/05/2018 10:50      73.2      71.3       54     54.6      0.00      0.11      59.9     0.27      1023.1     1.6     NNE    31   2.9       N     2   9.30    263      288.4
   01/05/2018 10:40      73.1      70.9       54     54.6      0.00      0.11      59.8     0.27      1023.3     0.4       S   186   2.8      SW   233   9.30    264      282.8
   01/05/2018 10:30      71.3      68.2       59     54.4      0.00      0.11      59.9     0.27      1023.3     0.6     SSW   201   2.6       S   177   9.30    264      271.7
   01/05/2018 10:20      68.4      67.6       60     53.5      0.00      0.11      59.9     0.27      1023.3     1.0      NW   319   3.0       N     6   9.30    264      261.8
   01/05/2018 10:10      67.8      66.7       61     53.3      0.00      0.11      59.9     0.27      1023.3     1.2       N     9   2.5     NNW   342   9.30    265      250.9
   01/05/2018 10:00      66.8      66.2       62     53.2      0.00      0.11      59.9     0.27      1023.3     1.0     NNE    26   2.1     NNE    25   9.30    266      239.3
   01/05/2018 09:50      66.4      65.3       65     53.7      0.00      0.11      59.9     0.27      1023.3     0.9     NNE    15   2.0     NNE    19   9.30    266      228.3
   01/05/2018 09:40      65.5      64.8       66     53.6      0.00      0.11      60.0     0.27      1023.4     1.1       N     3   1.8      NW   316   9.30    266      213.9
   01/05/2018 09:30      65.4      64.5       67     53.7      0.00      0.11      60.0     0.27      1023.4     0.8     NNE    15   1.9       N     0   9.30    266      200.3
   01/05/2018 09:20      64.8      62.5       70     53.7      0.00      0.11      60.0     0.27      1023.4     0.3      NE    35   1.1      NE    44   9.30    266      183.7
   01/05/2018 09:10      62.7      61.4       74     53.5      0.00      0.11      60.0     0.27      1023.3     0.6       N    11   1.5       N     4   9.30    268      170.6
   01/05/2018 09:00      61.6      59.9       78     53.7      0.00      0.11      60.1     0.27      1023.2     0.2     NNE    18   0.9     NNE    14   9.30    277      187.5
   01/05/2018 08:50      60.0      58.7       81     53.6      0.00      0.11      60.0     0.27      1023.1     0.7     NNE    30   1.4      NE    46   9.30    305      174.6
   01/05/2018 08:40      59.0      58.4       86     54.5      0.00      0.11      60.0     0.27      1023.2     0.5      NE    47   1.4      NE    55   9.30    339      154.6
   01/05/2018 08:30      58.4      55.7       92     54.6      0.00      0.11      60.1     0.27      1023.1     0.0      NE    50   0.3      NE    50   9.30    359      131.4
   01/05/2018 08:20      55.7      53.2       94     52.8      0.00      0.11      60.1     0.27      1023.0     0.2     ESE   105   0.8       E    88   9.30    367      103.8
   01/05/2018 08:10      53.5      51.8       94     50.9      0.00      0.11      60.1     0.27      1023.0     0.3      SE   137   0.9      SE   137   9.30    369       74.2
   01/05/2018 08:00      52.0      51.1       94     49.7      0.00      0.11      60.1     0.27      1022.9     0.2     ESE   122   0.7     ESE   118   9.30    367       16.1
   01/05/2018 07:50      51.5      51.0       94     49.5      0.00      0.11      60.1     0.27      1022.8     0.3     NNW   344   1.5     NNW   346   9.30    365       10.3
   01/05/2018 07:40      51.2      50.5       94     49.0      0.00      0.11      60.1     0.27      1022.8     0.2     SSE   165   0.7     SSE   165   9.30    361        6.9
   01/05/2018 07:30      50.9      50.5       94     48.9      0.00      0.11      60.2     0.27      1022.6     0.2     SSE   165   0.6     SSE   165   9.30    358        2.8
   01/05/2018 07:20      51.1      50.6       94     49.0      0.00      0.11      60.2     0.27      1022.6     0.0     SSE   165   0.5     SSE   165   9.30    356       -0.1
   01/05/2018 07:10      50.9      50.5       94     48.8      0.00      0.11      60.2     0.27      1022.3     0.0       N     0   0.0     SSE   165   9.30    352       -5.0
   01/05/2018 07:00      51.0      50.3       93     48.7      0.00      0.11      60.2     0.27      1022.1     0.1     SSE   165   0.9     SSE   165   9.30    350      -10.0
   01/05/2018 06:50      51.0      50.6       93     48.9      0.00      0.11      60.2     0.27      1022.0     0.0     SSE   164   0.2     SSE   164   9.30    345      -12.7
   01/05/2018 06:40      51.0      50.5       93     48.9      0.00      0.11      60.2     0.27      1022.0     0.1     SSE   165   0.7     SSE   159   9.30    339      -13.1
   01/05/2018 06:30      51.0      50.2       93     48.5      0.00      0.11      60.2     0.27      1021.8     0.5       S   185   1.1     SSW   204   9.30    334      -13.1
   01/05/2018 06:20      51.1      50.6       93     48.9      0.00      0.11      60.2     0.27      1021.9     0.1       S   170   0.7       S   171   9.30    328      -13.7
   01/05/2018 06:10      51.0      50.5       93     48.9      0.00      0.11      60.2     0.27      1021.7     0.1       S   170   0.7       S   170   9.30    323      -14.4
   01/05/2018 06:00      50.6      49.5       93     47.9      0.00      0.11      60.2     0.27      1021.5     0.2     SSE   168   0.8     SSE   167   9.30    319      -15.5
   01/05/2018 05:50      51.3      50.1       93     48.7      0.00      0.11      60.3     0.27      1021.5     0.5     SSE   164   1.6     SSE   148   9.30    315      -15.3
   01/05/2018 05:40      51.0      50.0       93     48.4      0.00      0.11      60.3     0.27      1021.6     0.7     SSW   197   1.3      SW   217   9.31    313      -15.4
   01/05/2018 05:30      51.6      50.3       92     48.7      0.00      0.11      60.3     0.27      1021.5     0.5     SSE   151   1.2     SSE   147   9.31    310      -15.8
   01/05/2018 05:20      51.6      51.1       92     49.1      0.00      0.11      60.3     0.27      1021.5     0.0       N     0   0.0     WSW   244   9.31    308      -16.4
   01/05/2018 05:10      52.0      51.3       92     49.4      0.00      0.11      60.3     0.27      1021.4     0.1     WSW   244   1.0     WSW   244   9.31    304      -17.3
   01/05/2018 05:00      52.0      51.4       92     49.4      0.00      0.11      60.3     0.27      1021.4     0.0       N     0   0.0      SE   136   9.31    300      -17.3
   01/05/2018 04:50      52.0      51.4       92     49.4      0.00      0.11      60.3     0.27      1021.3     0.0       N     0   0.0      SE   136   9.31    298      -19.4
   01/05/2018 04:40      52.4      51.6       92     49.6      0.00      0.11      60.3     0.27      1021.2     0.5      SE   137   1.3      SE   142   9.31    294      -19.9
   01/05/2018 04:30      52.5      52.0       92     49.9      0.00      0.11      60.3     0.27      1021.2     0.6     SSE   153   1.5      SE   144   9.31    292      -19.6
   01/05/2018 04:20      52.7      52.1       92     50.0      0.00      0.11      60.3     0.27      1021.3     0.7     SSE   152   1.7      SE   140   9.31    289      -18.7
   01/05/2018 04:10      52.4      51.8       91     49.4      0.00      0.11      60.3     0.27      1021.3     0.0       N     0   0.0      SE   137   9.31    287      -20.9
   01/05/2018 04:00      52.5      51.9       91     49.5      0.00      0.11      60.3     0.27      1021.2     0.0       N     0   0.0      SE   136   9.31    285      -21.7
   01/05/2018 03:50      53.1      52.1       91     50.0      0.00      0.11      60.3     0.27      1021.4     0.2      SE   136   0.9      SE   136   9.31    283      -22.5
   01/05/2018 03:40      53.0      52.6       91     50.1      0.00      0.11      60.3     0.27      1021.4     0.6     SSW   209   1.9     SSW   211   9.31    281      -24.2
   01/05/2018 03:30      53.1      52.5       90     50.1      0.00      0.11      60.3     0.27      1021.6     0.4     SSE   154   1.6      SE   145   9.31    280      -25.4
   01/05/2018 03:20      53.5      52.6       90     50.0      0.00      0.11      60.3     0.27      1021.9     0.4      SE   136   1.5      SE   132   9.31    279      -27.9
   01/05/2018 03:10      53.4      53.0       90     50.3      0.00      0.11      60.3     0.27      1021.9     0.0       N     0   0.0     SSE   164   9.31    277      -29.6
   01/05/2018 03:00      53.7      53.1       90     50.4      0.00      0.11      60.4     0.27      1021.9     0.2     SSE   148   1.4     SSE   147   9.31    275      -32.1
   01/05/2018 02:50      54.4      53.2       89     50.5      0.00      0.11      60.3     0.27      1021.8     0.8     SSW   194   2.7      SW   227   9.31    273      -33.1
   01/05/2018 02:40      54.5      53.6       89     50.9      0.00      0.11      60.3     0.27      1021.8     1.2       S   174   2.6      SW   226   9.31    272      -35.1
   01/05/2018 02:30      54.8      54.0       89     51.1      0.00      0.11      60.3     0.27      1021.9     0.7       S   175   2.3     SSW   209   9.31    271      -34.1
   01/05/2018 02:20      55.0      54.4       88     51.3      0.00      0.11      60.3     0.27      1022.0     1.3     SSW   195   2.1     SSW   197   9.31    271      -35.8
   01/05/2018 02:10      54.9      54.4       87     50.8      0.00      0.11      60.3     0.27      1022.1     0.4      SW   223   1.8      SW   220   9.31    271      -38.1
   01/05/2018 02:00      55.5      54.7       87     51.0      0.00      0.11      60.3     0.27      1022.0     0.0       S   176   0.5       S   177   9.31    270      -42.6
   01/05/2018 01:50      56.3      55.3       86     51.5      0.00      0.11      60.3     0.27      1022.1     0.9     SSE   151   1.9      SE   143   9.31    269      -42.6
   01/05/2018 01:40      56.3      55.6       85     51.5      0.00      0.11      60.3     0.27      1022.0     0.4     SSW   197   1.5     SSW   213   9.31    268      -42.5
   01/05/2018 01:30      57.1      55.9       84     51.6      0.00      0.11      60.3     0.27      1022.1     0.4     SSE   161   2.0      SE   146   9.31    268      -45.3
   01/05/2018 01:20      57.5      56.6       84     52.2      0.00      0.11      60.3     0.27      1022.1     1.3       S   191   2.7       S   176   9.31    268      -45.5
   01/05/2018 01:10      58.3      57.0       82     52.1      0.00      0.11      60.3     0.27      1022.2     1.2     SSE   160   2.5     SSE   156   9.31    267      -45.9
   01/05/2018 01:00      59.7      58.1       80     52.8      0.00      0.11      60.3     0.27      1022.4     0.7       S   177   2.3     SSE   168   9.32    267      -46.5
   01/05/2018 00:50      60.1      59.3       79     53.2      0.00      0.11      60.3     0.27      1022.5     1.5       S   186   2.5       S   190   9.32    266      -48.5
   01/05/2018 00:40      60.3      59.6       78     53.1      0.00      0.11      60.3     0.27      1022.5     1.7       S   191   2.9       S   187   9.32    266      -49.4
   01/05/2018 00:30      60.7      60.1       78     53.3      0.00      0.11      60.3     0.27      1022.6     1.7     SSW   196   3.9     SSW   207   9.32    266      -49.6
   01/05/2018 00:20      60.7      60.3       77     53.3      0.00      0.11      60.3     0.27      1022.5     1.9     SSW   195   3.3     SSW   199   9.32    266      -49.6
   01/05/2018 00:10      61.1      60.5       77     53.4      0.00      0.11      60.3     0.27      1022.5     1.6       S   188   3.0       S   178   9.32    266      -50.4
   01/05/2018 00:00      61.5      60.8       75     53.2      0.00      0.11      60.3     0.27      1022.6     1.7     SSW   202   2.7     SSW   208   9.32    266      -50.5
   01/04/2018 23:50      61.8      61.0       74     53.1      0.00      0.11      60.3     0.27      1022.8     0.6      SW   223   2.1     SSW   210   9.32    266      -42.1
   01/04/2018 23:40      61.7      61.3       74     53.2      0.00      0.11      60.3     0.27      1022.8     1.8     SSW   208   4.9       S   182   9.32    266      -36.3
   01/04/2018 23:30      61.6      61.3       74     53.1      0.00      0.11      60.3     0.27      1022.8     3.2     SSW   201   4.8      SW   224   9.32    266      -27.3
   01/04/2018 23:20      61.6      61.3       73     52.8      0.00      0.11      60.3     0.27      1022.8     3.3     SSW   205   5.3      SW   227   9.32    266      -27.7
   01/04/2018 23:10      61.6      61.1       72     52.3      0.00      0.11      60.3     0.27      1022.8     2.3     SSW   211   3.7      SW   222   9.32    266      -26.9
   01/04/2018 23:00      61.5      61.2       71     51.7      0.00      0.11      60.3     0.27      1022.7     2.7     SSW   212   5.1     SSW   212   9.32    266      -35.5
   01/04/2018 22:50      61.6      61.2       69     50.9      0.00      0.11      60.3     0.27      1022.5     3.3     SSW   207   4.6      SW   229   9.32    266      -43.4
   01/04/2018 22:40      61.9      61.3       67     50.3      0.00      0.11      60.3     0.27      1022.5     3.2     SSW   202   4.7      SW   215   9.32    265      -39.7
   01/04/2018 22:30      61.9      61.5       65     49.9      0.00      0.11      60.3     0.27      1022.6     3.9     SSW   204   7.0     SSW   208   9.32    265      -29.2
   01/04/2018 22:20      61.8      61.4       64     49.5      0.00      0.11      60.3     0.27      1022.5     3.6     SSW   210   5.4     SSW   205   9.32    265      -21.8
   01/04/2018 22:10      61.8      61.5       64     49.4      0.00      0.11      60.3     0.27      1022.3     2.0     SSW   214   4.1     SSW   198   9.32    265      -26.4
   01/04/2018 22:00      61.7      60.9       66     49.6      0.00      0.11      60.2     0.27      1022.2     2.8     SSW   204   5.7     SSW   206   9.32    265      -25.9
   01/04/2018 21:50      61.0      59.7       67     49.4      0.00      0.11      60.2     0.27      1021.9     1.3      SW   223   4.1     WSW   243   9.32    265      -25.5
   01/04/2018 21:40      59.9      57.9       70     49.0      0.00      0.11      60.2     0.27      1021.7     1.4     WSW   236   3.9      SW   218   9.32    266      -21.4
   01/04/2018 21:30      58.6      57.9       68     47.8      0.00      0.11      60.3     0.27      1021.3     0.0       E    81   0.9       E    79   9.32    265      -36.9
   01/04/2018 21:20      58.6      58.3       68     48.0      0.00      0.11      60.2     0.27      1021.1     0.2     ESE   112   1.2      SE   140   9.32    265      -38.4
   01/04/2018 21:10      59.0      58.3       67     47.7      0.00      0.11      60.2     0.27      1021.2     0.5     SSE   151   1.5     SSE   166   9.32    265      -40.4
   01/04/2018 21:00      59.9      58.6       65     47.3      0.00      0.11      60.2     0.27      1021.1     0.6     SSE   161   1.4     SSE   163   9.32    265      -43.3
   01/04/2018 20:50      61.1      59.7       63     47.7      0.00      0.11      60.2     0.27      1021.2     0.6     SSE   147   1.2      SE   139   9.33    264      -46.7
   01/04/2018 20:40      61.1      60.4       63     47.8      0.00      0.11      60.1     0.27      1021.3     0.8     SSW   204   1.9       S   184   9.33    264      -45.1
   01/04/2018 20:30      60.9      60.2       63     47.7      0.00      0.11      60.1     0.27      1021.4     0.1     WSW   237   1.2     WNW   297   9.33    265      -36.0
   01/04/2018 20:20      62.0      60.7       61     47.7      0.00      0.11      60.1     0.27      1021.2     0.2     SSE   149   1.1     SSE   159   9.33    264      -39.9
   01/04/2018 20:10      62.1      61.6       60     47.8      0.00      0.11      60.1     0.27      1020.9     1.6     SSW   199   3.7      SW   221   9.33    264      -42.5
   01/04/2018 20:00      61.9      60.0       62     48.0      0.00      0.11      60.1     0.27      1020.8     2.5     SSW   204   4.3     SSW   202   9.33    264      -37.9
   01/04/2018 19:50      59.9      58.5       66     47.5      0.00      0.11      60.0     0.27      1020.7     1.5       S   183   2.7     SSW   192   9.33    265      -35.1
   01/04/2018 19:40      59.6      58.5       65     47.2      0.00      0.11      60.0     0.27      1020.4     1.0       S   173   2.1       S   178   9.33    264      -47.0
   01/04/2018 19:30      60.3      59.2       64     47.5      0.00      0.11      60.0     0.27      1020.2     0.9     SSE   163   2.1       S   175   9.33    264      -49.1
   01/04/2018 19:20      62.1      60.2       60     47.1      0.00      0.11      60.0     0.27      1020.1     1.2       S   190   1.9       S   169   9.33    264      -48.1
   01/04/2018 19:10      62.9      61.7       59     47.7      0.00      0.11      59.9     0.27      1019.9     1.4     SSW   210   2.1      SW   216   9.33    264      -49.6
   01/04/2018 19:00      63.7      62.6       57     47.8      0.00      0.11      59.9     0.27      1019.8     1.0      SW   216   2.9      SW   236   9.33    264      -52.9
   01/04/2018 18:50      64.6      63.4       56     48.0      0.00      0.11      59.9     0.27      1019.9     1.5      SW   230   2.1     WSW   237   9.33    264      -53.4
   01/04/2018 18:40      64.9      64.3       55     48.0      0.00      0.11      59.9     0.27      1019.9     1.5       W   263   2.9     WSW   247   9.33    264      -56.6
   01/04/2018 18:30      64.8      64.3       54     47.6      0.00      0.11      59.9     0.27      1019.9     1.7     WNW   293   4.5     WSW   255   9.33    264      -57.9
   01/04/2018 18:20      64.9      64.4       53     47.3      0.00      0.11      59.8     0.27      1019.9     2.7     WSW   256   4.7     WNW   282   9.33    264      -57.6
   01/04/2018 18:10      64.6      63.4       55     47.3      0.00      0.11      59.8     0.27      1019.8     1.4       W   274   3.2       W   273   9.34    264      -55.8
   01/04/2018 18:00      64.3      63.2       54     46.5      0.00      0.11      59.8     0.27      1019.8     1.6     WSW   252   2.5       W   265   9.34    263      -54.4
   01/04/2018 17:50      65.3      64.0       52     46.6      0.00      0.11      59.7     0.27      1019.8     1.5      SW   236   2.2     SSW   210   9.34    263      -53.1
   01/04/2018 17:40      66.0      65.0       51     46.8      0.00      0.11      59.7     0.27      1019.9     1.3      SW   230   2.0     WSW   247   9.34    263      -54.5
   01/04/2018 17:30      67.2      65.7       49     46.8      0.00      0.11      59.7     0.27      1019.8     1.2     SSW   201   1.7     SSW   191   9.34    263      -57.8
   01/04/2018 17:20      67.8      67.0       47     46.7      0.00      0.11      59.6     0.27      1019.6     2.1       S   188   3.1     SSE   169   9.34    263      -61.6
   01/04/2018 17:10      68.4      67.4       46     46.6      0.00      0.11      59.6     0.27      1019.4     2.6       S   180   3.7     SSW   197   9.34    263      -63.6
   01/04/2018 17:00      69.1      68.1       45     46.6      0.00      0.11      59.5     0.27      1019.3     2.9       S   186   4.5       S   185   9.35    263      -63.4
   01/04/2018 16:50      69.7      68.8       45     46.9      0.00      0.11      59.5     0.27      1019.3     2.0     SSW   200   3.3     SSW   205   9.35    262      -60.5
   01/04/2018 16:40      70.7      69.3       44     46.9      0.00      0.11      59.5     0.27      1019.0     3.5       S   180   6.4       S   175   9.35    262      -57.8
   01/04/2018 16:30      71.8      70.3       42     47.0      0.00      0.11      59.5     0.27      1018.8     3.4       S   186   5.4       S   184   9.35    262      -45.1
   01/04/2018 16:20      72.2      71.5       41     47.1      0.00      0.11      59.4     0.27      1018.7     3.2       S   186   4.9     SSW   212   9.35    261      -31.8
   01/04/2018 16:10      73.2      72.1       41     47.1      0.00      0.11      59.4     0.27      1018.7     3.9       S   178   6.8     SSE   157   9.35    261      -15.4
   01/04/2018 16:00      73.9      72.8       40     47.5      0.00      0.11      59.4     0.27      1018.7     3.7       S   175   6.5     SSE   169   9.35    261        2.6
   01/04/2018 15:50      75.5      73.8       38     47.5      0.00      0.11      59.3     0.27      1018.6     3.7       S   174   6.4     SSE   150   9.35    261       19.6
   01/04/2018 15:40      75.5      75.0       36     46.6      0.00      0.11      59.3     0.27      1018.5     1.8     SSE   157   3.2       S   185   9.36    261       38.3
   01/04/2018 15:30      75.4      74.3       36     46.3      0.00      0.11      59.3     0.27      1018.5     2.6     SSE   158   5.5      SE   129   9.36    261       57.6
   01/04/2018 15:20      75.4      74.7       36     46.6      0.00      0.11      59.2     0.27      1018.5     2.8     SSE   152   5.0      SE   143   9.36    261       77.0
   01/04/2018 15:10      75.4      74.9       37     47.0      0.00      0.11      59.2     0.27      1018.5     2.5       S   175   5.0       S   180   9.36    261       97.1
   01/04/2018 15:00      75.8      75.0       37     47.0      0.00      0.11      59.2     0.27      1018.5     3.0       S   174   5.7       S   169   9.36    260      119.3
   01/04/2018 14:50      75.7      74.8       35     46.2      0.00      0.11      59.1     0.27      1018.5     2.4       S   183   4.9     SSW   205   9.36    261      138.6
   01/04/2018 14:40      76.9      74.7       36     46.6      0.00      0.11      59.1     0.27      1018.5     3.4      SE   139   6.4     SSE   148   9.36    260      157.8
   01/04/2018 14:30      77.1      75.8       30     43.0      0.00      0.11      59.1     0.27      1018.5     1.4      SE   131   4.3       S   182   9.36    260      177.9
   01/04/2018 14:20      76.5      75.7       31     43.4      0.00      0.11      59.1     0.27      1018.6     1.3       E    85   3.3      SE   145   9.36    261      143.7
   01/04/2018 14:10      77.1      76.2       31     43.9      0.00      0.11      59.1     0.27      1018.7     1.4     NNW   327   3.2     WNW   295   9.36    260       97.3
   01/04/2018 14:00      77.4      76.2       31     44.3      0.00      0.11      59.0     0.27      1018.7     1.1     ESE   118   4.3     ESE   110   9.36    260      205.0
   01/04/2018 13:50      77.4      76.3       32     44.7      0.00      0.11      59.0     0.27      1018.7     1.6     NNE    11   3.9      NE    51   9.36    260      237.7
   01/04/2018 13:40      77.0      75.5       33     45.1      0.00      0.11      59.1     0.27      1018.8     1.3       E    87   3.9     ESE   120   9.36    260      251.3
   01/04/2018 13:30      76.8      75.5       33     45.3      0.00      0.11      59.0     0.27      1018.8     1.8     ENE    75   5.1     ENE    76   9.36    260      257.0
   01/04/2018 13:20      77.7      76.3       32     44.9      0.00      0.11      59.0     0.27      1018.9     1.7     ENE    75   3.5       E    85   9.36    260      242.0
   01/04/2018 13:10      78.2      76.7       33     46.3      0.00      0.11      59.0     0.27      1019.0     0.9     NNW   336   3.4     WNW   296   9.37    260      282.5
   01/04/2018 13:00      77.1      75.2       34     45.2      0.00      0.11      59.0     0.27      1019.2     0.7      NW   312   2.1     NNW   341   9.37    260      305.0
   01/04/2018 12:50      76.3      74.1       35     45.6      0.00      0.11      58.9     0.27      1019.3     0.8       N     0   3.4     NNE    24   9.37    260      302.5
   01/04/2018 12:40      74.2      73.2       31     40.6      0.00      0.11      58.9     0.27      1019.6     1.1     NNW   341   2.8       N     0   9.37    260      305.5
   01/04/2018 12:30      73.5      72.4       28     38.1      0.00      0.11      58.9     0.27      1019.8     1.3      NE    41   2.6      NE    38   9.37    260      276.1
   01/04/2018 12:20      72.7      71.2       26     35.1      0.00      0.11      59.0     0.27      1020.0     0.9     NNE    22   2.1     NNE    32   9.36    261      237.9
   01/04/2018 12:10      71.6      71.1       25     33.6      0.00      0.11      58.9     0.27      1020.2     1.2       N     7   2.4       N   355   9.36    261      141.2
   01/04/2018 12:00      71.8      71.1       23     31.5      0.00      0.11      58.9     0.27      1020.4     1.1       N     4   2.6       N     2   9.36    261      133.9
   01/04/2018 11:50      71.8      70.9       21     29.9      0.00      0.11      59.0     0.27      1020.6     1.2     NNE    22   2.9     NNE    31   9.37    261      173.1
   01/04/2018 11:40      71.4      70.8       20     28.5      0.00      0.11      58.9     0.27      1020.9     1.7     NNE    12   3.0       N     0   9.37    261      173.4
   01/04/2018 11:30      71.4      70.3       20     28.0      0.00      0.11      58.9     0.27      1021.0     1.2       N     6   2.8      NE    36   9.37    261      235.3
   01/04/2018 11:20      70.9      69.6       20     27.7      0.00      0.11      58.9     0.27      1021.2     0.9     NNE    31   2.7      NE    37   9.37    261      222.4
   01/04/2018 11:10      70.1      69.3       20     26.6      0.00      0.11      59.0     0.27      1021.4     1.1     ENE    65   3.0       E    88   9.37    261      116.7
   01/04/2018 11:00      70.1      69.3       20     26.6      0.00      0.11      59.0     0.27      1021.5     2.2      NE    35   4.4      NE    44   9.37    260      283.1
   01/04/2018 10:50      69.3      67.4       22     27.9      0.00      0.11      59.0     0.27      1021.7     1.8      NE    43   3.4      NE    51   9.37    260      325.4
   01/04/2018 10:40      68.4      67.4       22     27.2      0.00      0.11      59.0     0.27      1021.9     1.9      NE    47   3.2      NE    44   9.37    261      184.8
   01/04/2018 10:30      68.3      67.5       22     27.2      0.00      0.11      59.0     0.27      1022.0     1.4      NE    44   2.9      NE    35   9.37    261      285.9
   01/04/2018 10:20      67.6      64.5       26     30.2      0.00      0.11      59.0     0.27      1022.0     0.5     ENE    68   1.6     ENE    68   9.37    261      277.6
   01/04/2018 10:10      64.7      63.5       29     31.4      0.00      0.11      59.0     0.27      1022.0     0.4      NE    36   1.4       N     8   9.37    262      141.3
   01/04/2018 10:00      63.6      62.5       31     32.1      0.00      0.11      59.0     0.27      1022.0     0.6      NE    55   2.0     NNW   342   9.37    262      135.5
   01/04/2018 09:50      62.7      61.7       34     33.5      0.00      0.11      59.1     0.27      1021.9     0.9      NE    45   1.8      NE    43   9.37    262      175.5
   01/04/2018 09:40      62.0      61.2       35     33.3      0.00      0.11      59.1     0.27      1021.9     0.6       N     9   1.9       N   354   9.37    262      104.8
   01/04/2018 09:30      61.3      60.2       35     33.0      0.00      0.11      59.1     0.27      1022.0     0.4     NNW   344   1.8      NW   316   9.37    262       88.0
   01/04/2018 09:20      60.8      60.1       35     32.5      0.00      0.11      59.1     0.27      1021.9     1.7      NW   315   2.9      NW   320   9.37    262       82.6
   01/04/2018 09:10      61.2      60.4       35     32.8      0.00      0.11      59.1     0.27      1021.7     1.5      NW   323   3.2      NW   318   9.37    262       74.7
   01/04/2018 09:00      61.3      60.7       36     33.7      0.00      0.11      59.2     0.27      1021.6     1.3     NNW   329   3.5       N     0   9.37    262      146.4
   01/04/2018 08:50      61.1      60.0       37     33.8      0.00      0.11      59.2     0.27      1021.4     0.7       N    10   2.1       N     4   9.37    262      175.2
   01/04/2018 08:40      60.1      58.6       38     34.0      0.00      0.11      59.2     0.27      1021.2     0.0     SSE   150   0.3     SSE   150   9.37    263      137.1
   01/04/2018 08:30      58.7      55.9       42     34.4      0.00      0.11      59.2     0.27      1021.0     0.0     SSE   149   0.9     SSE   149   9.37    263      125.6
   01/04/2018 08:20      56.0      54.0       45     33.7      0.00      0.11      59.2     0.27      1021.0     0.0      NW   322   0.9      NW   319   9.37    263       43.2
   01/04/2018 08:10      54.1      51.7       47     33.4      0.00      0.11      59.2     0.27      1020.9     0.8      NW   325   2.2     NNW   334   9.37    263       34.7
   01/04/2018 08:00      51.9      50.4       50     33.1      0.00      0.11      59.2     0.27      1020.8     0.4     SSE   154   1.8      SE   138   9.37    264       -4.9
   01/04/2018 07:50      50.5      49.7       51     32.5      0.00      0.11      59.2     0.27      1020.8     1.0      SE   143   1.9      SE   138   9.37    264      -11.9
   01/04/2018 07:40      49.8      49.0       51     32.1      0.00      0.11      59.3     0.27      1020.8     0.2       E    87   1.0      SE   144   9.37    264      -15.1
   01/04/2018 07:30      49.4      48.7       52     31.9      0.00      0.11      59.2     0.27      1020.7     0.3     SSE   155   1.0      SE   141   9.37    264      -21.2
   01/04/2018 07:20      49.2      48.7       52     31.9      0.00      0.11      59.3     0.27      1020.7     0.5       S   180   1.0       S   172   9.37    264      -26.7
   01/04/2018 07:10      49.5      48.9       52     32.0      0.00      0.11      59.3     0.27      1020.6     0.1     ENE    65   0.9     ENE    65   9.37    264      -28.1
   01/04/2018 07:00      50.0      49.2       51     32.1      0.00      0.11      59.3     0.27      1020.6     0.3     ENE    72   1.4       E    79   9.37    264      -31.8
   01/04/2018 06:50      50.1      49.7       49     31.7      0.00      0.11      59.3     0.27      1020.5     0.2     NNW   341   1.0     NNW   344   9.37    264      -33.7
   01/04/2018 06:40      49.9      49.2       51     32.3      0.00      0.11      59.3     0.27      1020.3     0.8      SE   146   2.0      SE   142   9.37    264      -40.9
   01/04/2018 06:30      50.0      49.2       52     32.8      0.00      0.11      59.3     0.27      1020.3     0.9     SSE   155   1.7     SSE   166   9.37    264      -41.3
   01/04/2018 06:20      50.3      49.7       51     32.5      0.00      0.11      59.4     0.27      1020.2     1.4     SSE   162   2.4      SE   137   9.37    263      -42.7
   01/04/2018 06:10      50.3      49.9       51     32.9      0.00      0.11      59.4     0.27      1020.1     0.3     SSW   200   1.0     SSW   200   9.37    263      -41.7
   01/04/2018 06:00      50.5      49.9       50     32.1      0.00      0.11      59.4     0.27      1019.9     0.0       N     0   0.0     NNE    13   9.37    263      -27.5
   01/04/2018 05:50      50.4      49.9       49     31.9      0.00      0.11      59.4     0.27      1019.9     0.1     NNE    12   0.9     NNE    12   9.37    263      -19.2
   01/04/2018 05:40      50.1      49.6       48     30.7      0.00      0.11      59.4     0.27      1019.9     0.2     SSE   148   1.3      SE   139   9.37    263        0.8
   01/04/2018 05:30      50.6      49.8       49     31.6      0.00      0.11      59.4     0.27      1019.7     0.3     SSE   149   1.2       S   176   9.37    264      -29.2
   01/04/2018 05:20      50.9      50.4       47     31.0      0.00      0.11      59.4     0.27      1019.6     0.1      NE    46   0.7      NE    48   9.37    263      -41.0
   01/04/2018 05:10      50.8      50.0       47     30.6      0.00      0.11      59.5     0.27      1019.5     0.2     WSW   251   1.1       W   268   9.37    263       -4.1
   01/04/2018 05:00      50.3      49.5       47     30.4      0.00      0.11      59.5     0.27      1019.4     0.2     SSW   201   0.9     SSW   201   9.37    263        3.8
   01/04/2018 04:50      50.5      49.7       48     31.4      0.00      0.11      59.4     0.27      1019.4     0.0       S   179   0.6       S   170   9.37    263      -37.6
   01/04/2018 04:40      50.6      49.7       47     30.9      0.00      0.11      59.5     0.27      1019.5     0.1     SSE   168   0.9     SSE   157   9.37    263      -39.5
   01/04/2018 04:30      50.0      49.2       49     30.9      0.00      0.11      59.5     0.27      1019.5     0.5       S   190   1.3       S   183   9.37    263      -25.4
   01/04/2018 04:20      49.4      48.3       50     31.0      0.00      0.11      59.5     0.27      1019.4     0.3     SSE   152   1.1     SSE   152   9.37    263       -7.0
   01/04/2018 04:10      49.6      48.3       48     30.3      0.00      0.11      59.5     0.27      1019.4     0.5     SSE   157   1.2     SSE   163   9.37    263      -28.7
   01/04/2018 04:00      50.5      49.4       46     30.1      0.00      0.11      59.5     0.27      1019.4     0.0       N     0   0.0     SSE   163   9.38    263      -44.6
   01/04/2018 03:50      51.6      50.2       44     29.8      0.00      0.11      59.5     0.27      1019.5     0.0       N     0   0.0     WSW   250   9.38    263      -46.5
   01/04/2018 03:40      51.6      51.2       42     29.3      0.00      0.11      59.5     0.27      1019.5     0.5       W   264   2.1       W   262   9.38    263      -46.4
   01/04/2018 03:30      52.5      51.3       43     30.4      0.00      0.11      59.6     0.27      1019.4     0.5      SE   142   1.2      SE   133   9.38    263      -45.3
   01/04/2018 03:20      52.9      52.1       44     31.2      0.00      0.11      59.6     0.27      1019.5     0.7       W   259   2.7     WSW   256   9.38    263      -36.6
   01/04/2018 03:10      52.9      52.5       44     31.6      0.00      0.11      59.6     0.27      1019.7     0.0       N     0   0.0       E    81   9.38    263      -29.7
   01/04/2018 03:00      52.8      51.9       44     31.3      0.00      0.11      59.6     0.27      1019.7     0.0     SSE   147   0.9     SSE   147   9.38    263       -4.7
   01/04/2018 02:50      52.2      51.4       44     30.4      0.00      0.11      59.6     0.27      1019.7     0.3       S   170   1.7     SSE   147   9.38    263        1.1
   01/04/2018 02:40      51.5      51.0       45     30.5      0.00      0.11      59.6     0.27      1019.7     0.2     SSW   196   1.0     SSW   196   9.38    263        2.6
   01/04/2018 02:30      51.1      50.8       45     30.6      0.00      0.11      59.6     0.27      1019.7     0.0       N     0   0.0     SSW   196   9.38    263        3.4
   01/04/2018 02:20      51.0      50.1       45     29.8      0.00      0.11      59.7     0.27      1019.7     0.0       N     0   0.0     SSW   196   9.38    263       -3.2
   01/04/2018 02:10      50.2      49.1       45     29.1      0.00      0.11      59.7     0.27      1019.7     0.5     SSW   201   1.4       S   189   9.38    263       -6.8
   01/04/2018 02:00      49.7      49.0       46     29.3      0.00      0.11      59.6     0.27      1019.5     0.7     SSE   150   2.5     SSE   148   9.38    263      -16.3
   01/04/2018 01:50      50.0      49.2       45     28.9      0.00      0.11      59.7     0.27      1019.3     0.3     SSE   168   0.8       S   170   9.38    263      -40.5
   01/04/2018 01:40      50.3      49.7       43     28.6      0.00      0.11      59.7     0.27      1019.4     0.4     SSE   149   1.2       N   355   9.38    263      -41.8
   01/04/2018 01:30      50.4      49.7       45     29.6      0.00      0.11      59.7     0.27      1019.3     0.4     SSW   207   1.4     SSW   209   9.38    263      -34.1
   01/04/2018 01:20      51.0      50.1       45     30.0      0.00      0.11      59.7     0.27      1019.2     0.1       S   175   0.6       S   175   9.38    263      -37.9
   01/04/2018 01:10      51.5      50.7       43     29.5      0.00      0.11      59.7     0.27      1019.2     1.0      SE   143   2.0      SE   140   9.38    263      -46.1
   01/04/2018 01:00      52.0      51.2       44     30.1      0.00      0.11      59.7     0.27      1019.2     0.0       N     0   0.0       N     3   9.38    263      -48.0
   01/04/2018 00:50      52.7      51.8       42     29.9      0.00      0.11      59.7     0.27      1019.2     0.1       E    98   0.7      SE   142   9.38    263      -43.5
   01/04/2018 00:40      54.0      52.5       42     30.6      0.00      0.11      59.8     0.27      1019.3     0.9      SE   141   2.0      SE   137   9.38    263      -42.0
   01/04/2018 00:30      54.0      51.9       40     28.9      0.00      0.11      59.8     0.27      1019.3     1.7     SSW   205   3.7      SW   215   9.38    263      -41.6
   01/04/2018 00:20      52.5      51.9       44     30.6      0.00      0.11      59.8     0.27      1019.3     0.1     SSE   167   1.3      SW   233   9.38    263      -32.6
   01/04/2018 00:10      52.4      51.9       43     30.4      0.00      0.11      59.8     0.27      1019.2     0.2     ESE   122   1.0     SSE   162   9.38    263      -26.7
   01/04/2018 00:00      52.5      51.7       44     30.9      0.00      0.11      59.8     0.27      1019.2     0.8     SSE   154   2.1      SE   135   9.38    263      -20.7
   01/03/2018 23:50      52.5      51.9       42     29.7      0.00      0.11      59.8     0.27      1019.4     0.7     SSE   160   2.1      SE   143   9.38    263      -25.1
   01/03/2018 23:40      52.1      51.2       44     30.2      0.00      0.11      59.8     0.27      1019.6     2.2     SSW   210   3.0      SW   222   9.38    263      -25.2
   01/03/2018 23:30      52.0      51.4       45     30.8      0.00      0.11      59.8     0.27      1019.6     0.5     NNE    29   1.8     NNE    24   9.38    263      -29.2
   01/03/2018 23:20      52.1      51.6       44     30.5      0.00      0.11      59.8     0.27      1019.5     0.4      SE   126   1.3     SSE   147   9.38    263      -26.3
   01/03/2018 23:10      51.8      50.7       43     29.6      0.00      0.11      59.8     0.27      1019.4     1.1     SSE   155   2.0      SE   141   9.38    263      -23.3
   01/03/2018 23:00      51.4      50.7       43     29.1      0.00      0.11      59.8     0.27      1019.4     0.7     SSE   161   1.9     SSE   148   9.38    263      -27.9
   01/03/2018 22:50      51.4      50.7       40     27.9      0.00      0.11      59.8     0.27      1019.7     1.1       S   170   2.3     SSE   151   9.39    263      -41.7
   01/03/2018 22:40      51.6      50.8       42     28.8      0.00      0.11      59.8     0.27      1019.6     1.0     SSE   164   1.9     SSE   147   9.39    263      -50.2
   01/03/2018 22:30      51.9      51.1       41     28.2      0.00      0.11      59.8     0.27      1019.6     1.5     SSE   165   2.7     SSW   208   9.39    263      -50.7
   01/03/2018 22:20      52.1      51.6       39     27.3      0.00      0.11      59.8     0.27      1019.7     0.8     SSE   168   2.6      SE   138   9.39    263      -50.0
   01/03/2018 22:10      52.0      51.6       39     27.8      0.00      0.11      59.8     0.27      1019.7     0.5     SSW   213   1.3     SSW   205   9.39    263      -49.0
   01/03/2018 22:00      52.4      51.8       40     28.5      0.00      0.11      59.8     0.27      1019.5     0.6      SE   139   1.4      SE   141   9.39    262      -49.5
   01/03/2018 21:50      53.0      52.0       39     28.4      0.00      0.11      59.8     0.27      1019.4     0.7     SSE   155   1.9     SSE   152   9.39    262      -46.3
   01/03/2018 21:40      54.0      52.7       38     28.4      0.00      0.11      59.8     0.27      1019.2     0.1      SE   138   0.7      SE   138   9.39    262      -45.3
   01/03/2018 21:30      54.8      53.6       34     26.2      0.00      0.11      59.8     0.27      1019.1     0.8     SSW   200   2.3     WSW   249   9.39    262      -51.9
   01/03/2018 21:20      54.7      54.0       33     26.0      0.00      0.11      59.8     0.27      1018.9     1.7      SW   227   2.7     WSW   253   9.39    263      -51.7
   01/03/2018 21:10      54.7      53.8       37     28.5      0.00      0.11      59.8     0.27      1018.6     0.2     SSW   210   1.0     SSW   211   9.39    262      -53.0
   01/03/2018 21:00      55.7      54.4       38     29.4      0.00      0.11      59.8     0.27      1018.6     0.4       S   169   1.2       S   178   9.39    262      -53.4
   01/03/2018 20:50      56.1      55.3       36     29.3      0.00      0.11      59.8     0.27      1018.6     0.5     SSE   167   1.8     SSE   157   9.39    262      -54.2
   01/03/2018 20:40      56.7      56.0       36     29.6      0.00      0.11      59.8     0.27      1018.5     0.4     SSE   147   1.7      SE   146   9.39    262      -55.2
   01/03/2018 20:30      57.4      56.3       34     28.9      0.00      0.11      59.7     0.27      1018.4     0.6       S   175   1.3     SSE   166   9.40    262      -55.6
   01/03/2018 20:20      58.0      57.0       34     29.4      0.00      0.11      59.7     0.27      1018.4     0.8     SSE   147   1.6      SE   137   9.40    262      -56.2
   01/03/2018 20:10      58.3      57.8       33     28.8      0.00      0.11      59.7     0.27      1018.3     1.1     SSE   151   2.4      SE   140   9.40    262      -53.2
   01/03/2018 20:00      60.1      58.0       31     28.1      0.00      0.11      59.7     0.27      1018.3     0.9       S   173   2.6      SE   143   9.40    262      -46.0
   01/03/2018 19:50      60.5      58.8       28     26.4      0.00      0.11      59.7     0.27      1018.4     1.8     SSW   198   3.2      SW   235   9.40    262      -49.6
   01/03/2018 19:40      59.6      58.6       31     28.7      0.00      0.11      59.7     0.27      1018.2     0.8     SSW   193   2.7     WSW   249   9.40    262      -54.3
   01/03/2018 19:30      59.9      59.3       32     29.7      0.00      0.11      59.6     0.27      1018.2     0.7      SE   145   1.3     SSE   149   9.40    262      -50.8
   01/03/2018 19:20      60.5      59.5       32     30.2      0.00      0.11      59.6     0.27      1018.0     0.0      SE   143   0.6      SE   143   9.40    262      -46.9
   01/03/2018 19:10      60.5      59.9       33     31.3      0.00      0.11      59.6     0.27      1017.9     0.4     SSE   150   1.2      SE   143   9.40    262      -42.1
   01/03/2018 19:00      60.6      59.9       33     31.4      0.00      0.11      59.6     0.27      1017.7     1.1     SSE   155   2.3      SE   140   9.40    262      -43.9
   01/03/2018 18:50      60.9      60.2       34     31.7      0.00      0.11      59.6     0.27      1017.6     1.2     SSE   150   2.1      SE   145   9.40    262      -34.4
   01/03/2018 18:40      61.7      60.5       33     31.5      0.00      0.11      59.6     0.27      1017.4     0.9     SSE   154   2.2      SE   140   9.40    262      -42.1
   01/03/2018 18:30      62.5      61.3       30     29.9      0.00      0.11      59.5     0.27      1017.4     0.9       S   175   1.6       S   180   9.40    262      -46.3
   01/03/2018 18:20      63.2      62.2       31     31.6      0.00      0.11      59.5     0.27      1017.4     0.1      SE   138   0.8      SE   139   9.41    261      -50.4
   01/03/2018 18:10      64.0      62.8       31     32.3      0.00      0.11      59.5     0.27      1017.6     0.8      SE   145   2.0      SE   142   9.41    261      -38.4
   01/03/2018 18:00      64.4      63.7       28     30.3      0.00      0.11      59.5     0.27      1017.6     0.0     SSE   168   0.9      SE   144   9.41    261      -22.1
   01/03/2018 17:50      64.7      64.1       28     30.8      0.00      0.11      59.4     0.27      1017.6     0.0     SSE   165   0.7       S   172   9.41    261      -20.4
   01/03/2018 17:40      64.9      64.3       28     30.5      0.00      0.11      59.4     0.27      1017.5     0.2      SE   132   0.9     SSE   160   9.41    261      -20.1
   01/03/2018 17:30      65.2      64.6       29     32.1      0.00      0.11      59.4     0.27      1017.3     0.0       N     0   0.0     NNE    33   9.41    261      -21.2
   01/03/2018 17:20      65.3      64.5       29     31.9      0.00      0.11      59.4     0.27      1017.2     0.6     SSE   149   1.5      SE   146   9.41    261      -20.5
   01/03/2018 17:10      65.5      64.6       30     32.8      0.00      0.11      59.3     0.27      1017.1     0.6     SSE   152   1.9      SE   137   9.41    261      -20.9
   01/03/2018 17:00      65.5      65.0       29     32.4      0.00      0.11      59.3     0.27      1017.2     1.4      SE   136   2.3      SE   135   9.41    261      -21.8
   01/03/2018 16:50      66.4      65.2       28     31.9      0.00      0.11      59.3     0.27      1017.2     0.4       S   177   2.0      SE   142   9.41    261      -28.9
   01/03/2018 16:40      67.4      66.1       28     32.4      0.00      0.11      59.3     0.27      1017.2     1.0     SSE   149   2.0      SE   138   9.41    261      -35.9
   01/03/2018 16:30      69.2      67.2       26     32.2      0.00      0.11      59.3     0.27      1017.2     0.8     SSE   151   1.7      SE   137   9.41    261      -33.6
   01/03/2018 16:20      70.0      68.8       22     29.1      0.00      0.11      59.3     0.27      1017.2     0.0     SSE   166   0.8     SSE   158   9.41    261      -27.0
   01/03/2018 16:10      70.8      69.7       21     28.9      0.00      0.11      59.2     0.27      1017.1     0.0       N     0   0.0       S   178   9.41    261      -23.8
   01/03/2018 16:00      71.7      70.5       20     28.3      0.00      0.11      59.2     0.27      1017.1     1.2     SSW   203   2.5      SW   221   9.41    261      -18.3
   01/03/2018 15:50      72.7      71.5       19     27.9      0.00      0.11      59.2     0.27      1016.9     1.8       S   190   2.4       S   181   9.42    261      -14.0
   01/03/2018 15:40      73.4      72.3       19     28.2      0.00      0.11      59.2     0.27      1016.7     0.8     SSE   167   2.6       S   172   9.42    261      -14.8
   01/03/2018 15:30      74.0      73.1       18     27.2      0.00      0.11      59.1     0.27      1016.7     0.9      SE   144   2.0     SSE   166   9.42    261       11.8
   01/03/2018 15:20      74.3      73.6       18     27.6      0.00      0.11      59.1     0.27      1016.6     0.7       E    91   2.1       E    80   9.42    261       26.9
   01/03/2018 15:10      74.6      74.0       17     27.1      0.00      0.11      59.1     0.27      1016.5     0.7     ENE    65   2.3      NE    50   9.42    261       34.8
   01/03/2018 15:00      75.1      73.8       17     26.8      0.00      0.11      59.1     0.27      1016.6     1.5     ENE    59   3.3      NE    55   9.42    260       79.4
   01/03/2018 14:50      75.0      74.3       17     26.7      0.00      0.11      59.1     0.27      1016.7     1.6       E    99   3.2       E    81   9.42    260      144.9
   01/03/2018 14:40      74.8      73.2       18     27.7      0.00      0.11      59.0     0.27      1016.9     1.3     ESE   105   3.5       E    95   9.42    260      209.9
   01/03/2018 14:30      73.5      72.8       19     28.6      0.00      0.11      59.0     0.27      1016.9     0.9      SE   140   2.6      SE   145   9.42    261      112.6
   01/03/2018 14:20      73.1      72.2       20     29.0      0.00      0.11      59.0     0.27      1016.9     1.2     SSE   146   3.5      SE   129   9.42    261      113.0
   01/03/2018 14:10      72.4      71.8       19     28.1      0.00      0.11      59.0     0.27      1017.0     2.1      SE   138   3.3      SE   137   9.42    261      123.0
   01/03/2018 14:00      72.7      71.9       20     29.2      0.00      0.11      59.0     0.27      1017.1     1.8      SE   127   3.5      SE   137   9.42    261      109.8
   01/03/2018 13:50      72.5      71.7       24     33.7      0.00      0.11      59.0     0.27      1017.1     0.4      SE   140   2.5      SE   129   9.42    261      117.9
   01/03/2018 13:40      72.0      71.2       27     36.1      0.00      0.11      59.0     0.27      1017.2     0.1     NNW   329   1.1      NW   307   9.42    261      119.2
   01/03/2018 13:30      71.4      70.6       27     35.6      0.00      0.11      59.0     0.27      1017.3     0.2     NNE    22   1.4     NNE    19   9.42    261       93.2
   01/03/2018 13:20      70.8      70.3       29     36.7      0.00      0.11      59.0     0.27      1017.3     0.6     NNW   337   1.4     NNW   339   9.42    261       83.0
   01/03/2018 13:10      70.7      70.1       29     36.2      0.00      0.11      59.0     0.27      1017.4     0.3     NNW   336   0.9     NNW   337   9.42    261       82.7
   01/03/2018 13:00      70.1      69.1       31     37.8      0.00      0.11      59.0     0.27      1017.5     0.0     NNW   337   0.9     NNW   337   9.42    262       75.2
   01/03/2018 12:50      69.3      68.7       32     38.1      0.00      0.11      59.0     0.27      1017.6     0.2     NNW   346   1.1     NNW   337   9.42    261       69.7
   01/03/2018 12:40      69.3      68.7       32     37.5      0.00      0.11      59.0     0.27      1017.6     0.4       N   355   1.1       N   354   9.42    262       65.5
   01/03/2018 12:30      69.5      69.0       31     37.5      0.00      0.11      59.0     0.27      1017.7     0.0       N   355   0.7       N   354   9.42    262       71.5
   01/03/2018 12:20      69.3      68.1       29     35.5      0.00      0.11      59.0     0.27      1017.8     0.1       N     5   1.0       N   355   9.42    262       93.5
   01/03/2018 12:10      68.4      67.1       31     36.4      0.00      0.11      59.0     0.27      1018.1     0.0       N     0   0.0       N     9   9.42    262      102.4
   01/03/2018 12:00      67.5      67.0       32     36.3      0.00      0.11      59.0     0.27      1018.3     0.4     NNE    20   1.1       N     9   9.42    262       86.7
   01/03/2018 11:50      67.3      66.4       31     35.5      0.00      0.11      59.0     0.27      1018.4     0.0       E    99   0.2       E    99   9.42    262       58.7
   01/03/2018 11:40      66.7      65.9       32     35.4      0.00      0.11      59.0     0.27      1018.6     0.0       N     0   0.0       E    99   9.42    262       51.5
   01/03/2018 11:30      66.2      65.3       32     35.1      0.00      0.11      58.9     0.27      1018.8     0.0     ESE   120   0.7      SE   128   9.42    262       59.4
   01/03/2018 11:20      65.7      65.1       34     36.1      0.00      0.11      59.0     0.27      1018.9     0.5      NE    39   1.9      NE    45   9.42    262       71.8
   01/03/2018 11:10      65.8      65.3       33     36.0      0.00      0.11      59.0     0.27      1019.2     0.5     NNE    24   1.8     NNE    21   9.42    262       92.9
   01/03/2018 11:00      65.5      64.2       34     35.6      0.00      0.11      59.0     0.27      1019.2     0.3     ENE    59   1.9     ENE    62   9.42    262       96.6
   01/03/2018 10:50      65.1      64.4       33     35.0      0.00      0.11      59.0     0.27      1019.3     1.1      NE    41   2.5      NE    49   9.43    262       80.7
   01/03/2018 10:40      65.0      64.3       32     33.9      0.00      0.11      59.0     0.27      1019.5     0.5      NE    48   1.8     ENE    65   9.43    262       66.8
   01/03/2018 10:30      64.7      64.2       34     35.2      0.00      0.11      59.0     0.27      1019.6     0.6     ENE    57   1.5      NE    53   9.43    262       60.6
   01/03/2018 10:20      64.6      63.7       33     34.4      0.00      0.11      59.1     0.27      1019.6     0.3      SE   135   1.2      SE   134   9.43    262       54.4
   01/03/2018 10:10      63.9      61.8       31     31.8      0.00      0.11      59.1     0.27      1019.6     1.0      SW   220   3.2      SW   226   9.43    262       59.9
   01/03/2018 10:00      61.9      60.6       36     34.1      0.00      0.11      59.1     0.27      1019.5     2.3     WSW   254   5.1     WNW   291   9.43    262       62.0
   01/03/2018 09:50      60.7      59.8       39     35.5      0.00      0.11      59.1     0.27      1019.3     0.7      NW   325   2.1      NW   324   9.43    262       65.7
   01/03/2018 09:40      60.1      59.3       39     34.5      0.00      0.11      59.1     0.27      1019.3     0.7      NW   320   1.9     NNW   330   9.43    262       75.8
   01/03/2018 09:30      59.6      58.7       39     34.3      0.00      0.11      59.2     0.27      1019.3     0.2     NNW   346   1.6       N     0   9.43    262       74.8
   01/03/2018 09:20      58.8      57.8       41     34.5      0.00      0.11      59.2     0.27      1019.2     0.1       N   355   1.0       N   355   9.43    262       91.2
   01/03/2018 09:10      57.9      56.6       43     34.8      0.00      0.11      59.2     0.27      1019.2     0.0       N     0   0.0       N   355   9.43    262       70.9
   01/03/2018 09:00      56.8      55.9       43     34.2      0.00      0.11      59.2     0.27      1019.2     0.2     NNE    33   1.0       N   355   9.43    262       53.5
   01/03/2018 08:50      56.2      55.2       43     33.6      0.00      0.11      59.2     0.27      1019.2     0.2      NE    43   1.4      NE    53   9.43    263       63.0
   01/03/2018 08:40      55.3      54.0       42     32.1      0.00      0.11      59.2     0.27      1019.1     0.0       N     0   0.0       S   188   9.43    263       66.4
   01/03/2018 08:30      54.1      53.0       43     31.3      0.00      0.11      59.3     0.27      1019.1     0.0       N     0   0.0       S   188   9.43    263       46.0
   01/03/2018 08:20      53.0      51.9       42     30.1      0.00      0.11      59.3     0.27      1019.0     0.2       S   188   1.1       S   188   9.43    263       32.0
   01/03/2018 08:10      52.2      51.1       43     29.6      0.00      0.11      59.3     0.27      1018.9     0.0       N     0   0.0       S   188   9.43    263       21.7
   01/03/2018 08:00      51.3      50.4       43     29.1      0.00      0.11      59.4     0.27      1018.9     0.0       N     0   0.0       S   188   9.43    263       15.1
   01/03/2018 07:50      50.5      49.5       42     27.5      0.00      0.11      59.3     0.27      1018.8     0.0       S   188   0.8       S   188   9.43    263       11.2
   01/03/2018 07:40      49.6      49.1       42     27.5      0.00      0.11      59.3     0.27      1018.7     0.0       N     0   0.0       S   188   9.43    263       -3.4
   01/03/2018 07:30      49.2      48.4       44     27.8      0.00      0.11      59.4     0.27      1018.7     0.0       S   188   0.6       S   188   9.43    263      -11.9
   01/03/2018 07:20      48.6      47.8       45     27.7      0.00      0.11      59.4     0.27      1018.7     0.2       S   184   1.3       S   189   9.43    263      -11.1
   01/03/2018 07:10      48.3      47.8       44     27.2      0.00      0.11      59.4     0.27      1018.6     0.4     SSW   196   1.4     SSW   204   9.43    263      -18.4
   01/03/2018 07:00      48.5      47.8       43     26.8      0.00      0.11      59.4     0.27      1018.5     0.7     SSE   158   2.1       N     4   9.43    263      -32.4
   01/03/2018 06:50      48.4      48.0       41     25.8      0.00      0.11      59.5     0.27      1018.5     0.5      NW   326   1.9       S   179   9.43    263      -37.1
   01/03/2018 06:40      48.9      47.9       44     27.2      0.00      0.11      59.5     0.27      1018.5     0.1     NNW   345   0.6      SE   131   9.43    263      -37.1
   01/03/2018 06:30      48.9      48.2       43     26.9      0.00      0.11      59.5     0.27      1018.6     0.2     SSE   150   1.0      SE   138   9.43    263      -35.7
   01/03/2018 06:20      48.7      48.3       45     28.3      0.00      0.11      59.5     0.27      1018.6     0.0     SSE   160   0.7     SSE   160   9.43    263      -35.9
   01/03/2018 06:10      48.5      47.9       42     26.3      0.00      0.11      59.5     0.27      1018.4     0.2     SSE   160   1.1     SSE   160   9.43    263      -34.8
   01/03/2018 06:00      48.7      48.1       44     27.3      0.00      0.11      59.5     0.27      1018.4     0.2     SSE   160   0.9     SSE   160   9.43    263      -36.5
   01/03/2018 05:50      48.6      48.1       40     25.3      0.00      0.11      59.5     0.27      1018.2     0.0     SSE   160   0.6     SSE   160   9.44    263      -38.6
   01/03/2018 05:40      49.0      48.3       43     26.8      0.00      0.11      59.5     0.27      1018.1     0.1     SSE   160   0.7     SSE   160   9.44    263      -40.5
   01/03/2018 05:30      48.9      48.4       40     25.6      0.00      0.11      59.6     0.27      1018.1     0.1     SSE   160   0.7     SSE   160   9.44    263      -36.1
   01/03/2018 05:20      48.6      48.3       40     25.3      0.00      0.11      59.6     0.27      1018.0     0.0       S   184   0.9     SSE   160   9.44    263      -32.7
   01/03/2018 05:10      48.6      48.0       42     26.2      0.00      0.11      59.6     0.27      1017.9     0.3      NE    36   1.2      NE    37   9.44    263      -31.2
   01/03/2018 05:00      48.6      48.1       42     26.5      0.00      0.11      59.6     0.27      1017.9     0.0       N     0   0.0      NE    36   9.44    263      -32.0
   01/03/2018 04:50      48.7      48.3       43     26.8      0.00      0.11      59.6     0.27      1018.0     0.1      SE   145   1.4      SE   145   9.44    263      -29.3
   01/03/2018 04:40      48.7      47.7       42     26.2      0.00      0.11      59.7     0.27      1018.1     0.6       S   169   1.3     SSE   146   9.44    263      -27.7
   01/03/2018 04:30      48.1      47.8       43     26.6      0.00      0.11      59.7     0.27      1018.1     0.3       S   171   1.6       S   175   9.44    263      -26.3
   01/03/2018 04:20      48.3      47.8       41     25.4      0.00      0.11      59.6     0.27      1018.1     0.5     SSE   163   1.5       S   179   9.44    263      -23.5
   01/03/2018 04:10      48.6      47.9       42     26.0      0.00      0.11      59.7     0.27      1018.1     0.0     NNW   341   1.1     NNW   341   9.44    263      -28.3
   01/03/2018 04:00      48.6      48.2       41     25.5      0.00      0.11      59.7     0.27      1018.3     0.3     SSE   158   1.0     SSE   158   9.44    263      -37.1
   01/03/2018 03:50      48.6      48.0       40     25.0      0.00      0.11      59.7     0.27      1018.3     0.1     SSE   163   1.3       S   178   9.44    263      -45.6
   01/03/2018 03:40      48.6      47.9       40     24.6      0.00      0.11      59.7     0.27      1018.4     0.1       S   177   1.0     SSW   212   9.44    263      -47.2
   01/03/2018 03:30      49.1      48.2       38     23.9      0.00      0.11      59.8     0.27      1018.6     0.3     SSE   150   1.5     SSE   149   9.44    262      -45.5
   01/03/2018 03:20      49.2      48.7       39     24.8      0.00      0.11      59.7     0.27      1018.6     0.1     SSE   151   0.8     SSE   151   9.44    263      -43.5
   01/03/2018 03:10      49.8      48.7       39     25.2      0.00      0.11      59.7     0.27      1018.5     0.2       S   176   1.3     SSE   151   9.45    262      -45.8
   01/03/2018 03:00      49.7      49.0       37     23.9      0.00      0.11      59.8     0.27      1018.6     0.5     SSW   208   1.5     SSW   192   9.45    262      -46.5
   01/03/2018 02:50      49.8      49.4       37     24.5      0.00      0.11      59.8     0.27      1018.6     0.0     SSW   198   0.7     SSW   208   9.45    262      -48.4
   01/03/2018 02:40      50.1      49.4       37     24.8      0.00      0.11      59.8     0.27      1018.6     0.5       S   172   1.6       S   178   9.45    262      -49.7
   01/03/2018 02:30      50.6      50.0       35     23.9      0.00      0.11      59.8     0.27      1018.7     0.0      SE   137   0.7      SE   136   9.45    262      -50.9
   01/03/2018 02:20      51.1      50.3       35     24.1      0.00      0.11      59.9     0.27      1018.8     0.3     SSW   210   2.9      SW   230   9.45    262      -50.8
   01/03/2018 02:10      51.1      50.7       36     24.6      0.00      0.11      59.8     0.27      1018.7     0.0       N     0   0.0      SW   218   9.45    262      -50.6
   01/03/2018 02:00      52.0      50.7       36     24.8      0.00      0.11      59.8     0.27      1018.7     0.3     SSW   207   1.2     SSW   204   9.45    262      -51.0
   01/03/2018 01:50      52.2      51.7       36     25.6      0.00      0.11      59.8     0.27      1018.7     0.4      SE   144   1.4      SE   131   9.45    262      -51.6
   01/03/2018 01:40      52.2      51.8       34     24.1      0.00      0.11      59.8     0.27      1018.6     0.0     SSW   201   0.5     SSW   201   9.45    262      -51.4
   01/03/2018 01:30      52.3      51.8       33     23.9      0.00      0.11      59.8     0.27      1018.6     0.3     SSW   193   1.4      SW   229   9.45    262      -50.5
   01/03/2018 01:20      52.1      51.6       36     25.7      0.00      0.11      59.9     0.27      1018.7     0.3     SSE   165   1.1       S   173   9.45    262      -51.5
   01/03/2018 01:10      52.9      51.8       32     23.7      0.00      0.11      59.9     0.27      1018.6     0.5      SE   140   1.6      SE   140   9.45    262      -51.5
   01/03/2018 01:00      53.5      52.6       33     24.9      0.00      0.11      59.9     0.27      1018.6     0.0       N     0   0.0      SE   140   9.46    262      -50.7
   01/03/2018 00:50      53.8      53.2       30     23.3      0.00      0.11      59.9     0.27      1018.6     0.0      SE   140   0.7      SE   140   9.46    262      -49.4
   01/03/2018 00:40      54.4      53.5       32     24.5      0.00      0.11      59.9     0.27      1018.6     0.0       N     0   0.0      SE   140   9.46    262      -48.5
   01/03/2018 00:30      54.9      54.2       32     25.3      0.00      0.11      59.9     0.27      1018.6     0.0      SE   140   0.5      SE   140   9.46    262      -45.8
   01/03/2018 00:20      55.2      54.5       30     23.7      0.00      0.11      59.9     0.27      1018.8     0.4      SE   140   1.1      SE   140   9.46    262      -42.3
   01/03/2018 00:10      55.3      54.9       28     23.0      0.00      0.11      59.9     0.27      1018.8     0.0       N     0   0.0      SE   140   9.46    262      -40.6
   01/03/2018 00:00      55.6      55.0       30     24.1      0.00      0.11      59.9     0.27      1018.8     0.0       N     0   0.0      SE   140   9.46    262      -38.1
   01/02/2018 23:50      55.8      55.4       29     23.8      0.00      0.11      59.9     0.27      1018.8     0.0      SE   140   0.6      SE   140   9.46    262      -35.5
   01/02/2018 23:40      56.1      55.5       28     23.2      0.00      0.11      59.9     0.27      1018.9     0.2      SE   140   0.8      SE   140   9.46    262      -34.9
   01/02/2018 23:30      56.4      55.8       29     24.3      0.00      0.11      59.9     0.27      1019.0     0.0      SE   140   0.6      SE   140   9.46    262      -35.7
   01/02/2018 23:20      56.8      56.2       28     23.3      0.00      0.11      59.9     0.27      1019.0     0.2      SE   140   0.7      SE   140   9.46    262      -34.3
   01/02/2018 23:10      57.0      56.3       29     24.9      0.00      0.11      59.9     0.27      1019.0     0.0      SE   140   0.5      SE   140   9.46    262      -35.4
   01/02/2018 23:00      57.4      56.4       27     23.3      0.00      0.11      59.8     0.27      1019.0     0.0      SE   140   0.7      SE   140   9.46    262      -37.0
   01/02/2018 22:50      57.2      56.9       27     23.5      0.00      0.11      59.9     0.27      1019.1     0.3      SE   140   1.0      SE   140   9.47    262      -37.2
   01/02/2018 22:40      57.4      56.9       27     23.8      0.00      0.11      59.8     0.27      1019.0     0.0       N     0   0.0      SE   140   9.47    262      -36.7
   01/02/2018 22:30      58.0      57.0       28     24.3      0.00      0.11      59.8     0.27      1019.1     0.0       N     0   0.0      SE   140   9.47    262      -37.3
   01/02/2018 22:20      58.3      57.7       27     24.4      0.00      0.11      59.8     0.27      1019.1     0.5      SE   144   2.1      SE   137   9.47    262      -36.2
   01/02/2018 22:10      58.5      58.0       27     24.1      0.00      0.11      59.8     0.27      1019.2     0.0      NE    38   0.7      NE    38   9.47    262      -36.1
   01/02/2018 22:00      59.0      58.0       27     24.8      0.00      0.11      59.8     0.27      1019.2     0.6      SE   136   1.8      SE   139   9.47    262      -36.2
   01/02/2018 21:50      59.6      58.6       25     23.0      0.00      0.11      59.8     0.27      1019.1     0.7     SSE   166   1.9      SE   141   9.47    262      -35.5
   01/02/2018 21:40      59.7      59.3       24     23.0      0.00      0.11      59.8     0.27      1019.0     0.2     SSE   168   1.1      SE   133   9.47    262      -36.1
   01/02/2018 21:30      59.6      58.5       26     24.0      0.00      0.11      59.8     0.27      1019.0     0.6     SSE   151   1.8      SE   139   9.47    262      -36.2
   01/02/2018 21:20      59.8      58.7       26     24.0      0.00      0.11      59.8     0.27      1019.0     1.1     SSE   159   2.3      SE   127   9.48    262      -36.9
   01/02/2018 21:10      59.6      59.1       26     24.3      0.00      0.11      59.8     0.27      1019.0     1.2     SSE   165   2.3      SE   137   9.48    262      -39.5
   01/02/2018 21:00      60.0      59.3       25     23.9      0.00      0.11      59.8     0.27      1018.9     1.8     SSE   156   3.6       S   185   9.48    262      -42.5
   01/02/2018 20:50      59.8      59.1       24     22.4      0.00      0.11      59.7     0.27      1018.9     1.0     SSE   160   3.8       S   175   9.48    262      -45.0
   01/02/2018 20:40      60.1      59.4       24     23.1      0.00      0.11      59.7     0.27      1018.8     0.7     SSE   155   2.0     SSE   151   9.48    262      -48.2
   01/02/2018 20:30      60.2      59.4       25     23.9      0.00      0.11      59.7     0.27      1018.8     1.2     SSE   151   3.2       S   171   9.48    262      -50.1
   01/02/2018 20:20      60.2      59.8       25     23.6      0.00      0.11      59.7     0.27      1018.7     1.3     SSE   150   2.2     SSE   165   9.48    262      -50.5
   01/02/2018 20:10      61.0      59.9       25     24.2      0.00      0.11      59.7     0.27      1018.6     1.0     SSE   153   2.2      SE   145   9.48    262      -50.7
   01/02/2018 20:00      61.5      60.4       24     23.9      0.00      0.11      59.6     0.27      1018.9     1.3     SSE   149   2.5      SE   137   9.49    262      -52.1
   01/02/2018 19:50      61.6      61.0       22     21.6      0.00      0.11      59.6     0.27      1018.7     1.3     SSE   168   3.1     SSW   194   9.49    262      -51.9
   01/02/2018 19:40      61.8      61.3       21     20.8      0.00      0.11      59.6     0.27      1018.5     0.6       S   183   1.8       S   180   9.49    262      -49.2
   01/02/2018 19:30      62.2      61.4       23     23.1      0.00      0.11      59.6     0.27      1018.6     0.6     SSE   157   2.0      SE   140   9.49    261      -46.3
   01/02/2018 19:20      62.9      61.8       23     23.8      0.00      0.11      59.5     0.27      1018.6     1.0     SSE   152   1.7      SE   144   9.49    261      -45.3
   01/02/2018 19:10      63.1      62.6       21     21.9      0.00      0.11      59.5     0.27      1018.6     0.5     SSE   153   1.6      SE   144   9.49    261      -45.7
   01/02/2018 19:00      63.7      62.7       20     21.8      0.00      0.11      59.5     0.27      1018.6     1.2     SSE   158   2.7       S   190   9.49    261      -46.4
   01/02/2018 18:50      64.1      63.5       21     22.9      0.00      0.11      59.5     0.27      1018.6     1.4      SE   145   2.4     SSE   159   9.50    261      -47.5
   01/02/2018 18:40      64.3      63.8       21     23.4      0.00      0.11      59.5     0.27      1018.6     1.3       S   170   3.5     SSE   151   9.50    261      -46.7
   01/02/2018 18:30      64.4      63.7       21     23.3      0.00      0.11      59.4     0.27      1018.6     1.6      SE   146   2.6     SSE   148   9.50    261      -46.3
   01/02/2018 18:20      65.4      64.1       22     24.5      0.00      0.11      59.4     0.27      1018.4     1.2     SSE   161   2.6     SSE   146   9.50    261      -46.3
   01/02/2018 18:10      65.7      65.2       20     23.8      0.00      0.11      59.4     0.27      1018.4     1.6     SSE   149   2.3      SE   140   9.50    261      -47.4
   01/02/2018 18:00      65.9      65.3       21     24.1      0.00      0.11      59.3     0.27      1018.4     1.1     SSE   154   2.3     SSE   157   9.50    261      -51.1
   01/02/2018 17:50      67.0      65.7       20     24.4      0.00      0.11      59.3     0.27      1018.4     1.0     SSE   152   2.1      SE   135   9.51    261      -53.3
   01/02/2018 17:40      68.0      66.7       19     23.4      0.00      0.11      59.3     0.27      1018.4     1.1     SSE   156   2.8      SE   135   9.51    261      -52.1
   01/02/2018 17:30      69.0      67.8       18     23.1      0.00      0.11      59.2     0.27      1018.3     0.9       S   183   2.9       S   169   9.51    261      -53.4
   01/02/2018 17:20      68.5      67.1       19     24.0      0.00      0.11      59.2     0.27      1018.1     2.3     SSW   209   4.4       S   183   9.51    261      -52.2
   01/02/2018 17:10      68.3      67.1       22     27.6      0.00      0.11      59.1     0.27      1018.1     1.7     SSE   161   3.4      SE   141   9.51    261      -53.9
   01/02/2018 17:00      69.4      67.9       21     26.9      0.00      0.11      59.1     0.27      1018.0     1.3     SSE   148   2.3      SE   144   9.51    261      -57.7
   01/02/2018 16:50      70.8      69.2       19     25.7      0.00      0.11      59.1     0.27      1018.0     1.1       S   187   2.5      SE   141   9.52    261      -58.6
   01/02/2018 16:40      71.3      70.4       21     28.5      0.00      0.11      59.0     0.27      1018.0     1.7     SSE   154   3.1     SSE   148   9.52    261      -52.0
   01/02/2018 16:30      73.5      71.2       19     27.4      0.00      0.11      59.0     0.27      1018.0     0.7     SSE   151   2.3      SE   145   9.52    261      -43.5
   01/02/2018 16:20      76.2      73.2       17     26.5      0.00      0.11      59.0     0.27      1018.0     0.2     SSE   150   1.1     SSE   147   9.52    260      -39.7
   01/02/2018 16:10      78.0      75.9       12     19.5      0.00      0.11      58.9     0.27      1017.9     0.4     SSW   198   1.1     SSE   147   9.52    260      -31.1
   01/02/2018 16:00      78.7      77.7       11     19.1      0.00      0.11      58.9     0.27      1017.9     0.1      NE    47   1.0      NE    37   9.52    260      -27.1
   01/02/2018 15:50      79.5      78.3       11     20.5      0.00      0.11      58.8     0.27      1017.9     0.8     NNE    25   3.0       N   352   9.53    260       -9.2
   01/02/2018 15:40      80.0      79.3       12     21.9      0.00      0.11      58.9     0.27      1017.9     0.0     SSW   211   0.7      SE   139   9.53    260        3.9
   01/02/2018 15:30      80.1      79.5       10     19.0      0.00      0.11      58.8     0.27      1017.9     0.3       N     5   1.6     NNE    13   9.53    260       12.9
   01/02/2018 15:20      80.2      79.6        9     16.9      0.00      0.11      58.7     0.27      1017.9     1.8     NNE    17   4.0       N     4   9.53    260        5.1
   01/02/2018 15:10      80.7      79.8        9     16.0      0.00      0.11      58.7     0.27      1018.0     2.4     NNE    14   4.6      NE    35   9.53    260        9.5
   01/02/2018 15:00      81.5      80.4        9     16.6      0.00      0.11      58.7     0.27      1017.9     2.5     NNE    14   5.6     NNE    13   9.53    260       14.8
   01/02/2018 14:50      82.3      81.2        8     15.4      0.00      0.11      58.6     0.27      1017.9     2.0     NNE    31   5.3     NNE    17   9.53    259       16.9
   01/02/2018 14:40      83.7      82.0        8     14.6      0.00      0.11      58.6     0.27      1017.8     2.0       N     7   4.8     NNW   337   9.53    259       29.6
   01/02/2018 14:30      84.0      83.2        8     14.8      0.00      0.11      58.6     0.27      1017.8     1.5       N     0   3.8       N   354   9.54    259      125.1
   01/02/2018 14:20      84.3      82.9        7     14.3      0.00      0.11      58.6     0.27      1017.9     2.5     NNW   346   5.2       N   350   9.53    259      151.0
   01/02/2018 14:10      84.8      83.8        7     13.4      0.00      0.11      58.6     0.27      1017.8     1.4      NW   311   3.1       N     5   9.54    259      161.3
   01/02/2018 14:00      84.7      83.4        8     16.0      0.00      0.11      58.5     0.27      1017.9     1.2       W   263   3.0       N   350   9.54    259      172.1
   01/02/2018 13:50      83.6      82.5        9     17.9      0.00      0.11      58.5     0.27      1017.8     1.9     WSW   242   3.6       W   276   9.54    259      209.6
   01/02/2018 13:40      83.3      82.4        9     17.9      0.00      0.11      58.5     0.27      1017.9     1.9     SSW   203   4.1       W   278   9.54    259      193.0
   01/02/2018 13:30      83.1      82.2       10     19.6      0.00      0.11      58.5     0.27      1018.0     1.0     ESE   109   3.3     ENE    68   9.54    259      196.8
   01/02/2018 13:20      83.6      82.0       10     20.4      0.00      0.11      58.4     0.27      1018.2     1.3     SSW   197   2.8     SSW   208   9.54    259      209.6
   01/02/2018 13:10      82.2      81.1       11     21.1      0.00      0.11      58.4     0.27      1018.4     1.2      NE    52   3.2     NNE    24   9.54    259      228.9
   01/02/2018 13:00      81.7      80.9       11     22.2      0.00      0.11      58.4     0.27      1018.5     1.9       E    96   3.9     NNE    29   9.54    260      227.3
   01/02/2018 12:50      81.5      81.1       12     23.6      0.00      0.11      58.4     0.27      1018.7     1.2      NE    52   2.6       N     0   9.54    259      240.3
   01/02/2018 12:40      81.5      80.4       12     23.8      0.00      0.11      58.4     0.27      1019.0     1.0     ENE    68   2.3     ENE    62   9.54    260      256.0
   01/02/2018 12:30      81.0      79.8       13     24.3      0.00      0.11      58.4     0.27      1019.2     1.4     ESE   107   4.3      SE   133   9.54    260      269.2
   01/02/2018 12:20      81.2      80.1       13     25.0      0.00      0.11      58.4     0.27      1019.3     1.1      SW   222   2.7       W   281   9.54    260      255.5
   01/02/2018 12:10      80.9      79.8       14     26.5      0.00      0.11      58.4     0.27      1019.5     0.8     NNE    18   3.5       N   354   9.54    260      282.8
   01/02/2018 12:00      80.1      78.4       15     26.8      0.00      0.11      58.4     0.27      1019.7     1.3     WSW   247   3.6     WSW   258   9.54    260      295.1
   01/02/2018 11:50      78.4      76.5       16     27.5      0.00      0.11      58.4     0.27      1019.8     0.9       S   186   2.2     SSE   148   9.54    260      308.5
   01/02/2018 11:40      77.4      76.5       17     29.1      0.00      0.11      58.4     0.27      1020.0     1.2       N     8   2.8     NNE    18   9.54    261      294.4
   01/02/2018 11:30      77.3      76.4       17     29.4      0.00      0.11      58.4     0.27      1020.2     0.9     NNW   346   2.5     NNW   339   9.54    261      267.2
   01/02/2018 11:20      77.0      75.7       18     28.9      0.00      0.11      58.4     0.27      1020.3     0.8     NNE    33   2.9       N     1   9.54    261      294.3
   01/02/2018 11:10      76.2      74.2       21     32.0      0.00      0.11      58.4     0.27      1020.5     1.0     NNE    14   3.1     NNE    21   9.54    261      299.1
   01/02/2018 11:00      74.4      72.6       26     36.2      0.00      0.11      58.4     0.27      1020.8     0.9     ENE    58   2.6       E    83   9.54    261      278.6
   01/02/2018 10:50      72.5      70.4       33     40.9      0.00      0.11      58.4     0.27      1020.9     1.1       N     2   3.1     NNE    16   9.54    261      297.6
   01/02/2018 10:40      70.5      68.3       37     41.9      0.00      0.11      58.4     0.27      1021.1     1.1     NNE    16   2.6     NNW   344   9.54    262      296.7
   01/02/2018 10:30      68.6      67.3       37     41.0      0.00      0.11      58.5     0.27      1021.3     1.1      NE    39   2.1      NE    50   9.54    262      289.6
   01/02/2018 10:20      67.4      64.7       38     40.2      0.00      0.11      58.5     0.27      1021.4     1.0       N     2   2.5       N     7   9.54    263      294.3
   01/02/2018 10:10      64.6      62.8       42     40.0      0.00      0.11      58.5     0.27      1021.5     0.8     NNE    29   2.2     NNE    19   9.54    263      274.9
   01/02/2018 10:00      63.0      60.3       45     39.9      0.00      0.11      58.5     0.27      1021.5     0.4      NE    45   1.6     NNE    29   9.54    264      224.2
   01/02/2018 09:50      60.5      58.8       48     40.1      0.00      0.11      58.5     0.27      1021.6     0.6     NNE    17   2.2     NNE    21   9.54    264      153.1
   01/02/2018 09:40      58.8      58.1       49     39.6      0.00      0.11      58.6     0.27      1021.6     0.4      NE    43   1.4      NE    42   9.54    264      109.0
   01/02/2018 09:30      58.4      57.4       49     39.0      0.00      0.11      58.5     0.27      1021.6     0.3       N   350   1.2     NNE    13   9.54    264       82.8
   01/02/2018 09:20      57.7      56.4       50     38.7      0.00      0.11      58.6     0.27      1021.7     0.0     ESE   117   0.4     ESE   124   9.54    264      102.1
   01/02/2018 09:10      56.5      55.1       53     38.9      0.00      0.11      58.6     0.27      1021.6     0.0       N     0   0.0      SE   124   9.54    264       81.5
   01/02/2018 09:00      55.3      53.9       57     39.5      0.00      0.11      58.6     0.27      1021.6     0.0      SE   124   0.4      SE   124   9.54    265       57.1
   01/02/2018 08:50      54.1      53.2       59     39.5      0.00      0.11      58.6     0.27      1021.6     0.2     ESE   121   0.9       E    98   9.54    265       41.2
   01/02/2018 08:40      53.3      52.4       60     39.5      0.00      0.11      58.6     0.27      1021.5     0.0      SE   133   0.7      SE   128   9.54    265       38.3
   01/02/2018 08:30      52.5      51.4       62     39.2      0.00      0.11      58.6     0.27      1021.5     0.0       N     0   0.0      SE   137   9.54    266       30.9
   01/02/2018 08:20      51.5      50.3       65     39.3      0.00      0.11      58.6     0.27      1021.5     0.1      SE   138   0.8      SE   138   9.54    266       30.2
   01/02/2018 08:10      50.5      49.2       66     38.7      0.00      0.11      58.6     0.27      1021.5     0.0      SE   138   0.5      SE   138   9.55    266       18.7
   01/02/2018 08:00      49.4      48.5       67     38.5      0.00      0.11      58.7     0.27      1021.4     0.0      SE   137   0.7      SE   138   9.55    266        6.3
   01/02/2018 07:50      48.7      48.3       69     38.8      0.00      0.11      58.7     0.27      1021.4     0.0       N     0   0.0      SE   137   9.55    266       -5.3
   01/02/2018 07:40      48.6      47.8       70     39.0      0.00      0.11      58.6     0.27      1021.3     0.3      SE   138   1.0      SE   138   9.55    266      -13.9
   01/02/2018 07:30      48.1      47.7       71     38.8      0.00      0.11      58.7     0.27      1021.5     0.0      SE   138   0.9      SE   137   9.55    266      -18.3
   01/02/2018 07:20      48.0      47.1       69     37.9      0.00      0.11      58.7     0.27      1021.5     0.0      SE   137   1.1      SE   137   9.55    266      -19.4
   01/02/2018 07:10      48.0      47.1       71     38.4      0.00      0.11      58.7     0.27      1021.6     0.2      SE   138   0.8      SE   138   9.55    266      -22.1
   01/02/2018 07:00      48.1      47.5       71     38.6      0.00      0.11      58.7     0.27      1021.6     0.1      SE   137   1.3      SE   137   9.55    266      -31.2
   01/02/2018 06:50      48.7      47.8       68     38.2      0.00      0.11      58.7     0.27      1021.6     0.4     SSE   162   1.5      SE   140   9.55    266      -35.5
   01/02/2018 06:40      49.0      48.4       68     38.4      0.00      0.11      58.7     0.27      1021.6     0.4     SSE   157   1.0      SE   136   9.55    266      -35.0
   01/02/2018 06:30      49.2      48.7       66     37.9      0.00      0.11      58.7     0.27      1021.6     0.1      SE   136   1.3      SE   136   9.55    266      -39.6
   01/02/2018 06:20      49.5      48.9       65     37.9      0.00      0.11      58.8     0.27      1021.4     0.1      SW   227   1.0      SW   230   9.55    266      -43.5
   01/02/2018 06:10      49.6      49.1       67     38.9      0.00      0.11      58.8     0.27      1021.4     0.0      SE   143   0.4      SE   143   9.55    266      -39.0
   01/02/2018 06:00      49.5      49.1       68     39.3      0.00      0.11      58.8     0.27      1021.4     0.3      SE   143   1.4      SE   143   9.55    266      -31.1
   01/02/2018 05:50      49.8      49.2       69     39.5      0.00      0.11      58.8     0.27      1021.3     0.0     ESE   122   0.5     ESE   122   9.55    266      -26.1
   01/02/2018 05:40      49.8      49.2       69     39.8      0.00      0.11      58.8     0.27      1021.4     0.7      SE   136   2.1     SSE   160   9.55    266      -24.0
   01/02/2018 05:30      49.5      48.9       71     40.3      0.00      0.11      58.8     0.27      1021.4     0.5     SSE   155   2.0      SE   142   9.55    266      -22.9
   01/02/2018 05:20      49.0      48.7       72     40.1      0.00      0.11      58.8     0.27      1021.4     0.4      SE   142   1.7      SE   142   9.55    266      -22.0
   01/02/2018 05:10      48.9      48.4       73     40.3      0.00      0.11      58.8     0.27      1021.4     0.5      SE   142   1.6      SE   142   9.55    266      -23.0
   01/02/2018 05:00      48.9      48.5       72     40.1      0.00      0.11      58.9     0.27      1021.3     0.0     SSE   149   0.4     SSE   149   9.55    266      -25.1
   01/02/2018 04:50      49.0      48.6       71     39.9      0.00      0.11      58.8     0.27      1021.1     0.0     SSE   150   0.5     SSE   149   9.55    266      -23.2
   01/02/2018 04:40      49.0      48.6       70     39.5      0.00      0.11      58.8     0.27      1020.9     0.0       N     0   0.0     SSE   149   9.55    266      -20.8
   01/02/2018 04:30      49.2      48.7       72     40.1      0.00      0.11      58.9     0.27      1020.8     0.2     SSE   149   1.4     SSE   149   9.56    266      -20.6
   01/02/2018 04:20      49.0      48.6       72     40.0      0.00      0.11      58.9     0.27      1020.8     0.3     SSE   150   1.5     SSE   150   9.56    266      -22.9
   01/02/2018 04:10      49.2      48.7       71     39.9      0.00      0.11      58.9     0.27      1020.8     0.1     SSE   150   0.9     SSE   150   9.56    266      -25.1
   01/02/2018 04:00      49.2      48.8       70     39.9      0.00      0.11      58.9     0.27      1020.8     0.0     SSE   150   0.8     SSE   150   9.56    266      -25.2
   01/02/2018 03:50      49.4      48.9       70     39.8      0.00      0.11      58.9     0.27      1020.9     0.0       N     0   0.0     SSE   150   9.56    266      -24.1
   01/02/2018 03:40      49.4      48.9       70     39.8      0.00      0.11      58.9     0.27      1020.9     0.2     SSE   150   1.2     SSE   150   9.56    266      -24.1
   01/02/2018 03:30      49.5      49.2       71     40.2      0.00      0.11      58.9     0.27      1020.9     0.1     SSE   165   0.8       S   172   9.56    266      -24.5
   01/02/2018 03:20      49.5      49.2       71     40.2      0.00      0.11      59.0     0.27      1021.1     0.0       S   173   0.5       S   173   9.56    266      -25.0
   01/02/2018 03:10      49.6      49.2       70     40.0      0.00      0.11      58.9     0.27      1021.1     0.2       S   173   1.0       S   173   9.56    266      -24.8
   01/02/2018 03:00      49.5      49.2       69     39.8      0.00      0.11      59.0     0.27      1021.1     0.3     SSE   157   0.9     SSE   157   9.56    266      -23.5
   01/02/2018 02:50      49.7      49.3       68     39.5      0.00      0.11      59.0     0.27      1021.1     0.1     SSE   150   0.8     SSE   157   9.56    266      -22.7
   01/02/2018 02:40      49.7      49.2       69     39.6      0.00      0.11      58.9     0.27      1021.1     0.0       N     0   0.0     NNE    14   9.56    266      -24.4
   01/02/2018 02:30      49.8      49.4       69     39.8      0.00      0.11      59.0     0.27      1021.2     0.1     NNE    14   0.7     NNE    14   9.56    266      -25.5
   01/02/2018 02:20      49.8      49.4       69     39.9      0.00      0.11      59.0     0.27      1021.3     0.3     NNE    14   1.3     NNE    14   9.56    266      -26.1
   01/02/2018 02:10      49.9      49.3       70     40.1      0.00      0.11      59.0     0.27      1021.3     0.4       S   171   1.7      SE   145   9.56    266      -26.1
   01/02/2018 02:00      50.3      49.7       70     40.4      0.00      0.11      59.0     0.27      1021.4     0.0      SE   144   1.0      SE   144   9.56    266      -25.5
   01/02/2018 01:50      50.3      49.9       70     40.5      0.00      0.11      59.0     0.27      1021.4     0.0       N     0   0.0     ENE    72   9.57    266      -25.4
   01/02/2018 01:40      50.4      49.9       69     40.5      0.00      0.11      59.0     0.27      1021.4     0.0       N     0   0.0     ENE    76   9.57    266      -24.8
   01/02/2018 01:30      50.5      50.1       69     40.6      0.00      0.11      59.0     0.27      1021.7     0.3      SE   137   0.9      SE   143   9.57    266      -23.6
   01/02/2018 01:20      50.4      49.8       68     39.9      0.00      0.11      59.0     0.27      1021.6     0.2      SE   143   1.1      SE   143   9.57    266      -22.3
   01/02/2018 01:10      50.0      49.7       70     40.5      0.00      0.11      59.0     0.27      1021.5     0.0       N     0   0.0      SE   143   9.57    266      -20.9
   01/02/2018 01:00      49.9      49.2       71     40.5      0.00      0.11      59.0     0.27      1021.6     0.0      SE   143   0.6      SE   143   9.57    266      -20.5
   01/02/2018 00:50      49.8      49.2       70     40.2      0.00      0.11      59.0     0.27      1021.6     0.2      SE   143   1.2      SE   143   9.57    266      -20.4
   01/02/2018 00:40      49.9      49.4       70     40.3      0.00      0.11      59.0     0.27      1021.6     0.1      SE   143   1.7      SE   143   9.57    266      -20.7
   01/02/2018 00:30      49.9      49.2       70     40.3      0.00      0.11      59.1     0.27      1021.7     0.7      SE   144   1.7      SE   143   9.57    266      -21.7
   01/02/2018 00:20      49.5      49.2       70     40.1      0.00      0.11      59.1     0.27      1021.7     0.2      SE   144   0.9      SE   144   9.57    266      -23.0
   01/02/2018 00:10      49.5      49.1       72     40.6      0.00      0.11      59.1     0.27      1021.6     0.0       N     0   0.0      SE   144   9.57    266      -25.6
   01/02/2018 00:00      49.5      49.2       72     40.6      0.00      0.11      59.1     0.27      1021.6     0.2      SE   144   0.9      SE   144   9.57    266      -27.7
   01/01/2018 23:50      49.5      48.9       71     40.3      0.00      0.11      59.1     0.27      1021.4     0.1      SE   144   0.7      SE   144   9.57    266      -30.6
   01/01/2018 23:40      49.6      49.1       71     40.3      0.00      0.11      59.1     0.27      1021.5     0.3      SE   144   1.3      SE   144   9.57    266      -36.0
   01/01/2018 23:30      49.6      49.2       72     40.7      0.00      0.11      59.1     0.27      1021.5     0.4      SE   143   1.6      SE   143   9.57    266      -41.9
   01/01/2018 23:20      49.7      49.0       71     40.4      0.00      0.11      59.1     0.27      1021.4     0.1      SE   144   1.2      SE   144   9.57    266      -42.0
   01/01/2018 23:10      50.0      49.3       71     40.6      0.00      0.11      59.1     0.27      1021.4     0.4      SE   144   1.0      SE   144   9.57    266      -39.3
   01/01/2018 23:00      50.4      49.8       71     40.8      0.00      0.11      59.1     0.27      1021.4     0.1      SE   144   0.9      SE   144   9.57    266      -38.9
   01/01/2018 22:50      50.5      50.1       70     40.9      0.00      0.11      59.1     0.27      1021.3     0.5      SE   144   1.0      SE   143   9.57    266      -36.8
   01/01/2018 22:40      50.5      49.9       69     40.4      0.00      0.11      59.1     0.27      1021.3     0.0      SE   144   0.7      SE   144   9.58    266      -30.9
   01/01/2018 22:30      50.2      49.8       71     41.0      0.00      0.11      59.1     0.27      1021.3     0.4      SE   144   1.0      SE   144   9.58    266      -26.3
   01/01/2018 22:20      50.4      49.9       71     41.1      0.00      0.11      59.1     0.27      1021.2     0.1      SE   144   0.9      SE   144   9.58    266      -27.6
   01/01/2018 22:10      50.6      50.0       71     41.2      0.00      0.11      59.1     0.27      1021.1     0.0      SE   144   0.4      SE   144   9.58    266      -30.5
   01/01/2018 22:00      50.5      50.1       72     41.6      0.00      0.11      59.1     0.27      1021.0     0.0      SE   144   0.5      SE   144   9.58    266      -37.3
   01/01/2018 21:50      50.6      50.0       73     41.8      0.00      0.11      59.1     0.27      1021.0     0.0      SE   144   0.6      SE   144   9.58    266      -43.9
   01/01/2018 21:40      51.1      50.3       74     42.9      0.00      0.11      59.0     0.27      1020.9     0.4      SE   144   1.1      SE   143   9.58    266      -44.9
   01/01/2018 21:30      51.3      50.7       75     43.2      0.00      0.11      59.1     0.27      1020.9     0.0      SE   144   0.9      SE   144   9.58    266      -45.0
   01/01/2018 21:20      51.4      50.6       74     43.1      0.00      0.11      59.0     0.27      1020.8     0.6       S   176   1.5      SW   220   9.58    266      -48.9
   01/01/2018 21:10      51.9      51.1       74     43.4      0.00      0.11      59.0     0.27      1020.8     0.6     SSE   152   1.4      SE   146   9.58    266      -51.2
   01/01/2018 21:00      51.9      51.5       73     43.4      0.00      0.11      59.0     0.27      1020.7     0.3      SE   146   1.1      SE   146   9.58    265      -51.1
   01/01/2018 20:50      52.1      51.4       71     42.8      0.00      0.11      59.0     0.27      1020.7     0.4     SSE   147   1.8      SE   146   9.58    266      -50.5
   01/01/2018 20:40      52.4      51.8       70     42.7      0.00      0.11      59.0     0.27      1020.7     0.6     SSE   155   2.3      SE   144   9.58    265      -52.2
   01/01/2018 20:30      52.8      52.0       68     42.2      0.00      0.11      59.0     0.27      1020.8     0.5     SSE   162   1.1       S   185   9.59    265      -55.8
   01/01/2018 20:20      53.0      52.5       66     41.8      0.00      0.11      59.0     0.27      1020.7     0.6     SSE   155   1.1     SSE   153   9.59    265      -56.0
   01/01/2018 20:10      53.4      52.6       64     41.2      0.00      0.11      58.9     0.27      1020.7     0.8     SSE   159   1.5      SE   141   9.59    264      -54.1
   01/01/2018 20:00      54.0      53.2       63     41.0      0.00      0.11      58.9     0.27      1020.6     0.8     SSE   167   1.2     SSE   156   9.59    264      -54.4
   01/01/2018 19:50      54.5      53.7       61     40.6      0.00      0.11      58.9     0.27      1020.7     0.7       S   184   1.5      SW   221   9.59    264      -57.3
   01/01/2018 19:40      55.8      54.2       58     40.3      0.00      0.11      58.8     0.27      1020.7     0.5      SE   145   1.7      SE   137   9.59    264      -55.6
   01/01/2018 19:30      56.4      55.4       56     40.1      0.00      0.11      58.8     0.27      1020.5     0.6       S   186   1.6     SSW   209   9.59    264      -55.5
   01/01/2018 19:20      57.6      56.2       54     40.4      0.00      0.11      58.8     0.27      1020.5     0.7       S   174   1.3     SSW   199   9.59    264      -59.7
   01/01/2018 19:10      58.8      57.2       52     40.4      0.00      0.11      58.8     0.27      1020.3     0.6     SSE   150   1.8      SE   129   9.59    264      -60.3
   01/01/2018 19:00      59.8      58.6       51     40.9      0.00      0.11      58.7     0.27      1020.3     0.2       S   177   1.2     SSE   157   9.59    264      -61.5
   01/01/2018 18:50      61.6      59.4       48     40.2      0.00      0.11      58.7     0.27      1020.4     0.8     SSW   196   2.3      SW   216   9.59    263      -62.9
   01/01/2018 18:40      62.6      61.4       46     40.6      0.00      0.11      58.7     0.27      1020.3     0.5     ENE    74   1.7     ENE    72   9.59    263      -64.4
   01/01/2018 18:30      63.3      62.2       44     40.7      0.00      0.11      58.6     0.27      1020.1     0.7       W   265   3.3     WNW   284   9.60    263      -67.2
   01/01/2018 18:20      63.6      63.0       44     40.9      0.00      0.11      58.6     0.27      1020.1     3.7       W   261   6.4      SW   225   9.60    263      -69.4
   01/01/2018 18:10      64.6      63.5       43     41.1      0.00      0.11      58.5     0.27      1019.9     4.1     WSW   248   6.2     WSW   240   9.60    263      -70.4
   01/01/2018 18:00      65.5      64.3       42     41.2      0.00      0.11      58.6     0.27      1019.8     3.8     WSW   251   5.9       W   270   9.60    262      -71.4
   01/01/2018 17:50      65.8      65.2       41     41.3      0.00      0.11      58.5     0.27      1019.7     3.3     WSW   252   6.6      SW   227   9.60    262      -67.2
   01/01/2018 17:40      66.0      65.4       41     41.1      0.00      0.11      58.5     0.27      1019.6     2.2     WSW   252   4.2      SW   228   9.60    263      -60.8
   01/01/2018 17:30      65.8      64.1       40     40.3      0.00      0.11      58.4     0.27      1019.5     2.2     WSW   257   5.2     WSW   246   9.60    263      -61.3
   01/01/2018 17:20      65.4      64.0       40     39.8      0.00      0.11      58.4     0.27      1019.5     1.6      SW   225   2.8      SW   224   9.60    262      -59.9
   01/01/2018 17:10      66.8      65.0       38     39.3      0.00      0.11      58.4     0.27      1019.5     0.3     SSW   199   0.9     WSW   241   9.60    262      -59.3
   01/01/2018 17:00      69.1      66.6       35     38.9      0.00      0.11      58.4     0.27      1019.4     0.6     SSE   162   1.8       S   176   9.61    262      -57.3
   01/01/2018 16:50      69.9      68.7       33     38.9      0.00      0.11      58.3     0.27      1019.2     1.7     SSW   202   3.5      SW   229   9.61    262      -45.1
   01/01/2018 16:40      70.8      69.6       30     37.7      0.00      0.11      58.3     0.27      1019.1     0.7      SE   137   2.5      NW   320   9.61    261      -34.2
   01/01/2018 16:30      71.2      70.4       27     34.6      0.00      0.11      58.3     0.27      1019.1     0.6     NNW   332   1.5       N   355   9.61    261      -25.3
   01/01/2018 16:20      72.6      71.0       25     34.6      0.00      0.11      58.2     0.27      1019.0     0.0     ESE   104   0.8     ESE   104   9.61    261      -23.2
   01/01/2018 16:10      72.9      72.3       23     33.0      0.00      0.11      58.2     0.27      1019.1     0.2     NNW   344   1.5      NW   318   9.61    261      -17.6
   01/01/2018 16:00      72.7      72.1       25     35.0      0.00      0.11      58.1     0.27      1019.1     1.7     WNW   292   3.7      NW   306   9.61    261      -12.0
   01/01/2018 15:50      73.8      72.5       26     36.1      0.00      0.11      58.1     0.27      1019.0     0.1     ESE   105   1.2     SSE   148   9.61    261       -8.8
   01/01/2018 15:40      74.2      73.4       24     34.3      0.00      0.11      58.1     0.27      1018.9     0.4      SE   132   1.1      SE   132   9.61    261       15.9
   01/01/2018 15:30      75.8      74.0       21     32.6      0.00      0.11      58.0     0.27      1018.8     0.7      SE   134   1.6      SE   139   9.61    261       13.1
   01/01/2018 15:20      76.6      75.4       18     29.9      0.00      0.11      58.0     0.27      1018.7     0.2       N   358   1.1       N     8   9.61    261       21.5
   01/01/2018 15:10      77.6      76.3       18     30.7      0.00      0.11      58.0     0.27      1018.8     0.1       N     6   1.3     NNW   347   9.61    261       41.1
   01/01/2018 15:00      78.1      77.3       17     29.2      0.00      0.11      58.0     0.27      1018.9     0.2     NNW   340   1.2     NNW   333   9.61    260       53.4
   01/01/2018 14:50      77.9      76.9       17     29.1      0.00      0.11      57.9     0.27      1018.8     0.1       S   169   1.0     WSW   244   9.61    260       73.0
   01/01/2018 14:40      77.1      75.4       19     30.4      0.00      0.11      57.9     0.27      1018.7     0.2     ESE   116   1.1       S   188   9.61    260      114.4
   01/01/2018 14:30      75.4      74.5       20     30.8      0.00      0.11      57.9     0.27      1018.7     1.4     SSW   205   3.6     SSW   198   9.61    261      119.4
   01/01/2018 14:20      75.9      74.7       21     32.0      0.00      0.11      57.9     0.27      1018.7     1.6      SE   143   3.5      SE   143   9.61    261       90.6
   01/01/2018 14:10      75.8      74.8       21     32.9      0.00      0.11      57.8     0.27      1018.5     1.1     ESE   103   4.0      SE   142   9.62    260      130.3
   01/01/2018 14:00      75.4      74.6       21     32.6      0.00      0.11      57.8     0.27      1018.5     0.9       E    88   3.4     ENE    79   9.62    261      158.4
   01/01/2018 13:50      75.1      74.3       21     32.6      0.00      0.11      57.7     0.27      1018.7     0.8     ESE   110   2.5      NE    49   9.62    261      114.0
   01/01/2018 13:40      74.7      73.7       21     31.9      0.00      0.11      57.8     0.27      1018.7     0.8      NE    45   2.1       E    80   9.62    260      121.9
   01/01/2018 13:30      74.1      73.5       22     32.1      0.00      0.11      57.8     0.27      1018.7     1.3     ENE    62   3.2     ENE    75   9.62    261      158.6
   01/01/2018 13:20      74.1      73.4       21     32.0      0.00      0.11      57.8     0.27      1018.9     1.4     NNE    20   3.1     NNW   339   9.62    260      166.5
   01/01/2018 13:10      74.3      73.6       22     32.9      0.00      0.11      57.7     0.27      1019.1     1.2     NNE    15   3.0       N     0   9.62    260      184.1
   01/01/2018 13:00      74.3      73.3       23     33.2      0.00      0.11      57.7     0.27      1019.3     1.0      NW   322   2.4     WNW   302   9.62    260      223.8
   01/01/2018 12:50      73.6      72.8       23     32.8      0.00      0.11      57.7     0.27      1019.6     0.9      NW   307   1.9     WNW   298   9.62    261      177.9
   01/01/2018 12:40      73.4      72.5       22     32.2      0.00      0.11      57.7     0.27      1019.8     1.0     NNW   338   2.6     NNW   349   9.62    260      224.9
   01/01/2018 12:30      73.7      72.6       22     32.3      0.00      0.11      57.7     0.27      1020.0     1.3       N   355   3.0     NNE    26   9.62    261      255.5
   01/01/2018 12:20      74.0      71.4       22     32.3      0.00      0.11      57.7     0.27      1020.4     0.5     WSW   248   1.6     SSE   167   9.62    261      243.8
   01/01/2018 12:10      71.5      70.1       24     32.1      0.00      0.11      57.7     0.27      1020.7     1.0     WNW   287   2.4     WNW   287   9.62    261      237.0
   01/01/2018 12:00      70.3      69.7       25     32.5      0.00      0.11      57.7     0.27      1020.9     1.2       N     8   2.8      NE    53   9.62    261      267.4
   01/01/2018 11:50      69.9      68.8       26     32.8      0.00      0.11      57.7     0.27      1021.1     1.2       N     3   2.9       N     0   9.62    261      294.3
   01/01/2018 11:40      69.0      68.4       26     32.4      0.00      0.11      57.7     0.27      1021.3     1.7     NNW   340   3.5     NNE    13   9.63    261      264.7
   01/01/2018 11:30      69.0      68.1       25     31.7      0.00      0.11      57.8     0.27      1021.6     1.3     NNE    29   2.9     ENE    67   9.63    261      269.8
   01/01/2018 11:20      68.2      66.6       27     32.3      0.00      0.11      57.8     0.27      1021.8     1.1     NNE    31   3.4     ENE    65   9.63    262      312.2
   01/01/2018 11:10      67.0      65.7       30     34.1      0.00      0.11      57.8     0.27      1022.0     1.6       N     7   3.6      NW   322   9.63    261      281.3
   01/01/2018 11:00      65.8      64.8       32     34.5      0.00      0.11      57.8     0.27      1022.2     1.7     NNE    12   3.5       N     7   9.63    262      278.2
   01/01/2018 10:50      64.8      64.2       35     36.5      0.00      0.11      57.9     0.27      1022.3     1.8     NNE    15   2.9       N     0   9.63    262      286.2
   01/01/2018 10:40      64.5      63.1       38     37.7      0.00      0.11      57.9     0.27      1022.4     1.5     NNE    12   3.1     ENE    67   9.63    262      283.6
   01/01/2018 10:30      63.1      62.7       39     37.3      0.00      0.11      57.9     0.27      1022.6     1.8       N     9   3.1     NNW   345   9.63    263      292.9
   01/01/2018 10:20      62.9      62.2       41     38.5      0.00      0.11      58.0     0.27      1022.8     1.6     NNE    26   2.8     NNE    25   9.63    263      260.2
   01/01/2018 10:10      62.6      60.1       44     39.5      0.00      0.11      58.0     0.27      1022.8     0.5      NE    45   1.8       N   353   9.63    264      254.5
   01/01/2018 10:00      60.3      59.8       44     38.0      0.00      0.11      58.0     0.27      1022.8     1.1      NE    52   2.3      NE    38   9.63    264      229.4
   01/01/2018 09:50      60.4      59.3       45     38.4      0.00      0.11      58.0     0.27      1022.8     1.2     ENE    70   2.3       E    89   9.63    264      186.1
   01/01/2018 09:40      59.4      57.3       54     41.6      0.00      0.11      58.0     0.27      1022.8     0.2       N     9   1.0       N   355   9.63    264      178.3
   01/01/2018 09:30      57.3      55.5       57     40.9      0.00      0.11      58.0     0.27      1022.6     0.8      NE    50   1.5      NE    34   9.63    265      199.7
   01/01/2018 09:20      55.7      53.5       60     41.0      0.00      0.11      58.1     0.27      1022.4     0.1       N     0   0.9       N     0   9.63    266      201.0
   01/01/2018 09:10      53.5      51.9       63     40.5      0.00      0.11      58.1     0.27      1022.1     0.9       N     5   1.6     NNE    33   9.63    266      205.5
   01/01/2018 09:00      52.0      50.9       67     40.9      0.00      0.11      58.1     0.27      1022.0     1.1       N     8   2.1     NNE    21   9.63    270      182.3
   01/01/2018 08:50      51.0      49.8       72     41.8      0.00      0.11      58.1     0.27      1021.7     0.4     NNW   340   1.7     NNW   334   9.63    288      151.7
   01/01/2018 08:40      50.0      48.7       78     42.8      0.00      0.11      58.2     0.27      1021.5     0.1       S   182   0.8       S   182   9.63    322      132.6
   01/01/2018 08:30      48.8      45.4       87     43.3      0.00      0.11      58.1     0.27      1021.3     0.0       N     0   0.0       S   181   9.63    342      102.2
   01/01/2018 08:20      45.5      43.7       90     41.8      0.00      0.11      58.2     0.27      1021.2     0.4       S   182   1.3       S   181   9.63    350       72.0
   01/01/2018 08:10      43.7      41.9       92     40.4      0.00      0.11      58.2     0.27      1021.1     0.3       S   184   1.1       S   183   9.63    355       60.2
   01/01/2018 08:00      42.1      41.3       91     39.3      0.00      0.11      58.3     0.27      1021.0     0.0     NNW   337   0.7       N   352   9.64    354       20.6
   01/01/2018 07:50      41.5      40.7       92     38.9      0.00      0.11      58.3     0.27      1020.9     0.2      SE   139   1.3     SSE   154   9.64    351       14.3
   01/01/2018 07:40      41.0      40.5       92     38.4      0.00      0.11      58.3     0.27      1020.9     0.0     SSE   154   1.0     SSE   155   9.64    349        9.8
   01/01/2018 07:30      41.0      40.5       92     38.6      0.00      0.11      58.3     0.27      1020.8     0.1     SSE   157   0.9     SSE   154   9.64    346        4.2
   01/01/2018 07:20      40.9      40.4       92     38.4      0.00      0.11      58.4     0.27      1020.8     0.2       S   175   0.7       S   175   9.64    344       -1.5
   01/01/2018 07:10      40.6      39.8       92     37.9      0.00      0.11      58.3     0.27      1020.8     0.3       S   176   1.6       S   175   9.64    341       -6.7
   01/01/2018 07:00      40.5      39.8       91     37.8      0.00      0.11      58.4     0.27      1020.7     0.5      NE    56   1.3     NNE    24   9.64    337       -9.4
   01/01/2018 06:50      40.9      40.2       91     38.1      0.00      0.11      58.4     0.27      1020.7     0.6     SSE   149   1.7      SE   142   9.64    335      -10.7
   01/01/2018 06:40      41.0      40.4       91     38.2      0.00      0.11      58.4     0.27      1020.7     0.0     SSE   155   0.5     SSE   155   9.64    332      -11.7
   01/01/2018 06:30      41.1      40.6       91     38.5      0.00      0.11      58.5     0.27      1020.7     0.5     SSE   155   1.3     SSE   155   9.64    330      -11.5
   01/01/2018 06:20      41.1      40.7       91     38.4      0.00      0.11      58.5     0.27      1020.7     0.2     SSE   155   0.9     SSE   155   9.64    327      -11.4
   01/01/2018 06:10      41.9      40.7       91     38.7      0.00      0.11      58.5     0.27      1020.8     0.0     SSE   155   0.3     SSE   155   9.64    326      -12.1
   01/01/2018 06:00      41.7      41.2       91     39.1      0.00      0.11      58.5     0.27      1020.8     0.2     SSE   155   1.1     SSE   155   9.64    324      -11.4
   01/01/2018 05:50      41.6      40.9       91     38.8      0.00      0.11      58.5     0.27      1020.8     0.6     SSE   155   1.4     SSE   155   9.64    322       -9.9
   01/01/2018 05:40      41.5      41.1       91     38.9      0.00      0.11      58.6     0.27      1020.8     0.1     SSE   155   0.9     SSE   155   9.64    320      -10.9
   01/01/2018 05:30      41.3      40.9       91     38.6      0.00      0.11      58.6     0.27      1020.6     0.0     SSE   155   0.5     SSE   155   9.64    320      -11.6
   01/01/2018 05:20      41.6      41.0       91     38.7      0.00      0.11      58.6     0.27      1020.7     0.0       N     0   0.0     SSE   155   9.64    320      -11.3
   01/01/2018 05:10      42.0      41.1       91     38.9      0.00      0.11      58.6     0.27      1020.8     0.5     SSE   155   1.2     SSE   155   9.64    317      -11.1
   01/01/2018 05:00      42.0      41.5       91     39.2      0.00      0.11      58.6     0.27      1020.8     0.1     WSW   239   1.7     WSW   242   9.64    315      -12.5
   01/01/2018 04:50      41.7      40.9       91     38.9      0.00      0.11      58.6     0.27      1020.9     1.2       S   180   1.8     SSW   213   9.64    314      -12.9
   01/01/2018 04:40      41.8      41.1       91     38.8      0.00      0.11      58.6     0.27      1020.8     0.2       S   174   1.5      SE   143   9.64    312      -13.0
   01/01/2018 04:30      42.3      41.4       91     39.3      0.00      0.11      58.7     0.27      1020.9     0.4      SE   140   1.4      SE   140   9.64    310      -12.9
   01/01/2018 04:20      42.4      41.8       91     39.6      0.00      0.11      58.7     0.27      1020.8     0.2      SE   140   0.8      SE   140   9.64    309      -12.6
   01/01/2018 04:10      42.7      42.1       91     39.7      0.00      0.11      58.8     0.27      1020.7     0.0      SE   140   0.8      SE   140   9.64    308      -13.0
   01/01/2018 04:00      43.0      42.4       91     40.3      0.00      0.11      58.8     0.27      1020.7     0.0       N     0   0.0      SE   139   9.64    306      -13.0
   01/01/2018 03:50      43.3      42.8       91     40.7      0.00      0.11      58.8     0.27      1020.6     0.0      SE   140   0.7      SE   140   9.65    302      -13.0
   01/01/2018 03:40      43.1      42.0       91     40.1      0.00      0.11      58.8     0.27      1020.6     1.1     SSE   147   1.8      SE   140   9.65    302      -13.2
   01/01/2018 03:30      42.9      42.2       91     40.1      0.00      0.11      58.8     0.27      1020.6     0.7     SSE   160   1.3       S   179   9.65    301      -13.2
   01/01/2018 03:20      42.9      42.5       91     40.3      0.00      0.11      58.8     0.27      1020.6     0.6     SSE   151   1.3     SSE   152   9.65    300      -13.6
   01/01/2018 03:10      43.1      42.6       91     40.6      0.00      0.11      58.8     0.27      1020.7     0.9     SSE   161   1.5     SSE   151   9.65    299      -13.7
   01/01/2018 03:00      43.0      42.5       91     40.2      0.00      0.11      58.9     0.27      1020.7     0.3       S   187   1.0       S   179   9.65    296      -13.4
   01/01/2018 02:50      43.3      42.6       91     40.5      0.00      0.11      58.9     0.27      1020.7     0.1     SSW   207   0.7     SSW   207   9.65    295      -13.7
   01/01/2018 02:40      43.6      42.9       91     40.6      0.00      0.11      58.9     0.27      1020.8     0.0     SSW   207   0.0     SSW   207   9.65    293      -14.0
   01/01/2018 02:30      43.5      43.0       91     40.8      0.00      0.11      58.9     0.27      1020.8     0.1     SSW   207   0.7     SSW   207   9.65    292      -14.0
   01/01/2018 02:20      43.7      42.9       90     40.5      0.00      0.11      58.9     0.27      1020.8     0.0     SSW   207   0.5     SSW   207   9.65    290      -14.6
   01/01/2018 02:10      44.0      43.4       90     41.0      0.00      0.11      58.9     0.27      1020.9     0.0     SSW   207   0.6     SSW   207   9.65    289      -14.7
   01/01/2018 02:00      43.9      43.4       90     41.0      0.00      0.11      58.9     0.27      1020.9     0.0     SSW   207   1.0     SSW   207   9.65    287      -14.9
   01/01/2018 01:50      44.2      43.4       90     40.9      0.00      0.11      59.0     0.27      1020.9     0.0       N     0   0.0     SSW   207   9.65    286      -15.5
   01/01/2018 01:40      44.3      43.8       90     41.4      0.00      0.11      59.0     0.27      1020.9     0.0       N     0   0.0     SSW   207   9.65    284      -15.6
   01/01/2018 01:30      44.5      43.9       90     41.3      0.00      0.11      59.0     0.27      1020.9     0.0       N     0   0.0     SSW   207   9.65    284      -15.9
   01/01/2018 01:20      44.6      44.3       90     41.6      0.00      0.11      59.0     0.27      1020.9     0.0     SSW   207   0.7     SSW   207   9.66    281      -15.9
   01/01/2018 01:10      45.1      44.4       90     41.9      0.00      0.11      59.0     0.27      1020.9     0.0     SSW   207   0.4     SSW   207   9.66    280      -16.5
   01/01/2018 01:00      45.1      44.2       90     42.1      0.00      0.11      59.0     0.27      1021.0     0.0       N     0   0.0     SSW   207   9.66    278      -17.2
   01/01/2018 00:50      45.1      44.1       89     41.7      0.00      0.11      59.0     0.27      1020.9     0.8     SSE   164   1.9       S   176   9.66    277      -18.0
   01/01/2018 00:40      45.1      44.6       90     42.0      0.00      0.11      59.1     0.27      1020.9     0.1     SSE   152   1.0     SSE   152   9.66    277      -18.1
   01/01/2018 00:30      45.4      44.5       89     41.8      0.00      0.11      59.1     0.27      1021.0     0.0       N     0   0.0     SSE   151   9.66    277      -19.0
   01/01/2018 00:20      45.7      45.1       89     42.5      0.00      0.11      59.1     0.27      1021.4     0.2     SSE   151   1.0     SSE   151   9.66    275      -19.3
   01/01/2018 00:10      45.9      45.4       89     42.6      0.00      0.11      59.1     0.27      1021.5     0.8     SSE   152   1.1     SSE   152   9.66    274      -19.0
   01/01/2018 00:00      46.5      45.4       89     42.7      0.00      0.11      59.1     0.27      1021.4     0.3     SSE   164   1.0     SSE   152   9.66    274      -20.2


Back to data home page